<?xml version="1.0" encoding="UTF-8" standalone="no" ?>
<gpx xmlns="http://www.topografix.com/GPX/1/1" xmlns:xsi="http://www.w3.org/2001/XMLSchema-instance" xsi:schemaLocation="http://www.topografix.com/GPX/1/1 http://www.topografix.com/GPX/1/1/gpx.xsd" version="1.1" creator="VisuGPX - https://www.visugpx.com">
  <metadata>
    <name>VTT - Trigance - Gorges du Verdon</name>
    <desc><![CDATA[VTT - Relevé terrain - Trigance - belvédère de Rancoumas - pont du Tusset - Rougon - Pont de Carajuan - Colle de Breis - Pont de Carajuan - Pont de Sautet - Entreverges - Breis - Trigance.
46 km /   1900 m

Le CR sur 1001 sentiers:
<http://www.1001sentiers.fr/forum/viewtopic.php?f=35&t=1120>
]]></desc>
  </metadata>
  <trk>
    <name><![CDATA[2010-04-17T06:35:32Z]]></name>
    <trkseg>
      <trkpt lat="43.76048" lon="6.44212">
        <ele>779.7663574</ele>
        <time>2010-04-17T06:35:33Z</time>
      </trkpt>
      <trkpt lat="43.76048" lon="6.44211">
        <ele>785.0539551</ele>
        <time>2010-04-17T06:35:41Z</time>
      </trkpt>
      <trkpt lat="43.76043" lon="6.4421">
        <ele>784.0925293</ele>
        <time>2010-04-17T06:35:45Z</time>
      </trkpt>
      <trkpt lat="43.76041" lon="6.44194">
        <ele>782.6506348</ele>
        <time>2010-04-17T06:35:51Z</time>
      </trkpt>
      <trkpt lat="43.7604" lon="6.4419">
        <ele>782.6506348</ele>
        <time>2010-04-17T06:35:52Z</time>
      </trkpt>
      <trkpt lat="43.7604" lon="6.44164">
        <ele>781.689209</ele>
        <time>2010-04-17T06:35:58Z</time>
      </trkpt>
      <trkpt lat="43.76036" lon="6.44155">
        <ele>782.6506348</ele>
        <time>2010-04-17T06:36:01Z</time>
      </trkpt>
      <trkpt lat="43.76028" lon="6.44136">
        <ele>784.5732422</ele>
        <time>2010-04-17T06:36:08Z</time>
      </trkpt>
      <trkpt lat="43.76024" lon="6.44123">
        <ele>786.9763184</ele>
        <time>2010-04-17T06:36:13Z</time>
      </trkpt>
      <trkpt lat="43.7602" lon="6.44105">
        <ele>788.418457</ele>
        <time>2010-04-17T06:36:19Z</time>
      </trkpt>
      <trkpt lat="43.76011" lon="6.44094">
        <ele>786.0151367</ele>
        <time>2010-04-17T06:36:24Z</time>
      </trkpt>
      <trkpt lat="43.75993" lon="6.4409">
        <ele>785.5344238</ele>
        <time>2010-04-17T06:36:31Z</time>
      </trkpt>
      <trkpt lat="43.75978" lon="6.44085">
        <ele>784.5732422</ele>
        <time>2010-04-17T06:36:37Z</time>
      </trkpt>
      <trkpt lat="43.75965" lon="6.44069">
        <ele>783.1311035</ele>
        <time>2010-04-17T06:36:45Z</time>
      </trkpt>
      <trkpt lat="43.75963" lon="6.44067">
        <ele>783.1311035</ele>
        <time>2010-04-17T06:36:46Z</time>
      </trkpt>
      <trkpt lat="43.75948" lon="6.44064">
        <ele>783.1311035</ele>
        <time>2010-04-17T06:36:52Z</time>
      </trkpt>
      <trkpt lat="43.75934" lon="6.44066">
        <ele>784.5732422</ele>
        <time>2010-04-17T06:36:59Z</time>
      </trkpt>
      <trkpt lat="43.75919" lon="6.4408">
        <ele>785.5344238</ele>
        <time>2010-04-17T06:37:07Z</time>
      </trkpt>
      <trkpt lat="43.75903" lon="6.44086">
        <ele>785.0539551</ele>
        <time>2010-04-17T06:37:14Z</time>
      </trkpt>
      <trkpt lat="43.75887" lon="6.44088">
        <ele>785.0539551</ele>
        <time>2010-04-17T06:37:21Z</time>
      </trkpt>
      <trkpt lat="43.75873" lon="6.44091">
        <ele>786.0151367</ele>
        <time>2010-04-17T06:37:28Z</time>
      </trkpt>
      <trkpt lat="43.7586" lon="6.44095">
        <ele>788.418457</ele>
        <time>2010-04-17T06:37:35Z</time>
      </trkpt>
      <trkpt lat="43.75849" lon="6.44099">
        <ele>788.418457</ele>
        <time>2010-04-17T06:37:41Z</time>
      </trkpt>
      <trkpt lat="43.75835" lon="6.44102">
        <ele>787.9377441</ele>
        <time>2010-04-17T06:37:48Z</time>
      </trkpt>
      <trkpt lat="43.75824" lon="6.44104">
        <ele>789.3796387</ele>
        <time>2010-04-17T06:37:55Z</time>
      </trkpt>
      <trkpt lat="43.75811" lon="6.44107">
        <ele>790.3410645</ele>
        <time>2010-04-17T06:38:02Z</time>
      </trkpt>
      <trkpt lat="43.75797" lon="6.44109">
        <ele>791.782959</ele>
        <time>2010-04-17T06:38:09Z</time>
      </trkpt>
      <trkpt lat="43.7578" lon="6.44112">
        <ele>793.7055664</ele>
        <time>2010-04-17T06:38:17Z</time>
      </trkpt>
      <trkpt lat="43.75767" lon="6.44114">
        <ele>795.6281738</ele>
        <time>2010-04-17T06:38:24Z</time>
      </trkpt>
      <trkpt lat="43.75755" lon="6.44113">
        <ele>798.512207</ele>
        <time>2010-04-17T06:38:30Z</time>
      </trkpt>
      <trkpt lat="43.75744" lon="6.44107">
        <ele>799.9543457</ele>
        <time>2010-04-17T06:38:36Z</time>
      </trkpt>
      <trkpt lat="43.75736" lon="6.44096">
        <ele>804.7607422</ele>
        <time>2010-04-17T06:38:42Z</time>
      </trkpt>
      <trkpt lat="43.7573" lon="6.4408">
        <ele>808.1254883</ele>
        <time>2010-04-17T06:38:49Z</time>
      </trkpt>
      <trkpt lat="43.75726" lon="6.44065">
        <ele>809.0866699</ele>
        <time>2010-04-17T06:38:55Z</time>
      </trkpt>
      <trkpt lat="43.75723" lon="6.44043">
        <ele>811.0092773</ele>
        <time>2010-04-17T06:39:02Z</time>
      </trkpt>
      <trkpt lat="43.75719" lon="6.44025">
        <ele>811.0092773</ele>
        <time>2010-04-17T06:39:08Z</time>
      </trkpt>
      <trkpt lat="43.75717" lon="6.44019">
        <ele>811.4899902</ele>
        <time>2010-04-17T06:39:10Z</time>
      </trkpt>
      <trkpt lat="43.75718" lon="6.44013">
        <ele>811.4899902</ele>
        <time>2010-04-17T06:39:15Z</time>
      </trkpt>
      <trkpt lat="43.75719" lon="6.44016">
        <ele>811.0092773</ele>
        <time>2010-04-17T06:39:26Z</time>
      </trkpt>
      <trkpt lat="43.75719" lon="6.44019">
        <ele>809.5673828</ele>
        <time>2010-04-17T06:39:29Z</time>
      </trkpt>
      <trkpt lat="43.75719" lon="6.44025">
        <ele>809.0866699</ele>
        <time>2010-04-17T06:39:33Z</time>
      </trkpt>
      <trkpt lat="43.75728" lon="6.44028">
        <ele>809.0866699</ele>
        <time>2010-04-17T06:39:38Z</time>
      </trkpt>
      <trkpt lat="43.75736" lon="6.44018">
        <ele>810.0478516</ele>
        <time>2010-04-17T06:39:44Z</time>
      </trkpt>
      <trkpt lat="43.75739" lon="6.44012">
        <ele>810.5285645</ele>
        <time>2010-04-17T06:39:47Z</time>
      </trkpt>
      <trkpt lat="43.75746" lon="6.43992">
        <ele>813.8933105</ele>
        <time>2010-04-17T06:39:57Z</time>
      </trkpt>
      <trkpt lat="43.75751" lon="6.43975">
        <ele>817.2580566</ele>
        <time>2010-04-17T06:40:05Z</time>
      </trkpt>
      <trkpt lat="43.75752" lon="6.43957">
        <ele>820.1418457</ele>
        <time>2010-04-17T06:40:13Z</time>
      </trkpt>
      <trkpt lat="43.75753" lon="6.43936">
        <ele>822.0644531</ele>
        <time>2010-04-17T06:40:22Z</time>
      </trkpt>
      <trkpt lat="43.75756" lon="6.43923">
        <ele>825.4289551</ele>
        <time>2010-04-17T06:40:29Z</time>
      </trkpt>
      <trkpt lat="43.75764" lon="6.43908">
        <ele>828.3132324</ele>
        <time>2010-04-17T06:40:37Z</time>
      </trkpt>
      <trkpt lat="43.75773" lon="6.43894">
        <ele>828.3132324</ele>
        <time>2010-04-17T06:40:44Z</time>
      </trkpt>
      <trkpt lat="43.75781" lon="6.43881">
        <ele>828.3132324</ele>
        <time>2010-04-17T06:40:51Z</time>
      </trkpt>
      <trkpt lat="43.75786" lon="6.43873">
        <ele>828.7939453</ele>
        <time>2010-04-17T06:40:56Z</time>
      </trkpt>
      <trkpt lat="43.75794" lon="6.4386">
        <ele>831.1972656</ele>
        <time>2010-04-17T06:41:03Z</time>
      </trkpt>
      <trkpt lat="43.75803" lon="6.43852">
        <ele>834.5617676</ele>
        <time>2010-04-17T06:41:09Z</time>
      </trkpt>
      <trkpt lat="43.75815" lon="6.43842">
        <ele>836.9648438</ele>
        <time>2010-04-17T06:41:17Z</time>
      </trkpt>
      <trkpt lat="43.75828" lon="6.43833">
        <ele>836.9648438</ele>
        <time>2010-04-17T06:41:24Z</time>
      </trkpt>
      <trkpt lat="43.75836" lon="6.43825">
        <ele>836.9648438</ele>
        <time>2010-04-17T06:41:29Z</time>
      </trkpt>
      <trkpt lat="43.7585" lon="6.43807">
        <ele>838.4069824</ele>
        <time>2010-04-17T06:41:39Z</time>
      </trkpt>
      <trkpt lat="43.75859" lon="6.43792">
        <ele>839.3681641</ele>
        <time>2010-04-17T06:41:47Z</time>
      </trkpt>
      <trkpt lat="43.75865" lon="6.43784">
        <ele>839.3681641</ele>
        <time>2010-04-17T06:41:53Z</time>
      </trkpt>
      <trkpt lat="43.75875" lon="6.43772">
        <ele>839.848877</ele>
        <time>2010-04-17T06:42:00Z</time>
      </trkpt>
      <trkpt lat="43.75885" lon="6.4376">
        <ele>840.8100586</ele>
        <time>2010-04-17T06:42:07Z</time>
      </trkpt>
      <trkpt lat="43.75901" lon="6.43746">
        <ele>841.7714844</ele>
        <time>2010-04-17T06:42:17Z</time>
      </trkpt>
      <trkpt lat="43.75917" lon="6.43737">
        <ele>841.7714844</ele>
        <time>2010-04-17T06:42:25Z</time>
      </trkpt>
      <trkpt lat="43.75936" lon="6.43721">
        <ele>839.848877</ele>
        <time>2010-04-17T06:42:34Z</time>
      </trkpt>
      <trkpt lat="43.75949" lon="6.43707">
        <ele>838.4069824</ele>
        <time>2010-04-17T06:42:40Z</time>
      </trkpt>
      <trkpt lat="43.75965" lon="6.43692">
        <ele>838.8876953</ele>
        <time>2010-04-17T06:42:47Z</time>
      </trkpt>
      <trkpt lat="43.75974" lon="6.43681">
        <ele>838.8876953</ele>
        <time>2010-04-17T06:42:53Z</time>
      </trkpt>
      <trkpt lat="43.75979" lon="6.43673">
        <ele>838.4069824</ele>
        <time>2010-04-17T06:42:58Z</time>
      </trkpt>
      <trkpt lat="43.75978" lon="6.43674">
        <ele>838.4069824</ele>
        <time>2010-04-17T06:43:05Z</time>
      </trkpt>
      <trkpt lat="43.75976" lon="6.43676">
        <ele>836.484375</ele>
        <time>2010-04-17T06:43:31Z</time>
      </trkpt>
      <trkpt lat="43.75977" lon="6.43678">
        <ele>836.9648438</ele>
        <time>2010-04-17T06:46:50Z</time>
      </trkpt>
      <trkpt lat="43.75985" lon="6.43679">
        <ele>838.4069824</ele>
        <time>2010-04-17T06:46:54Z</time>
      </trkpt>
      <trkpt lat="43.76003" lon="6.43666">
        <ele>839.848877</ele>
        <time>2010-04-17T06:47:01Z</time>
      </trkpt>
      <trkpt lat="43.76021" lon="6.43648">
        <ele>841.2907715</ele>
        <time>2010-04-17T06:47:09Z</time>
      </trkpt>
      <trkpt lat="43.76025" lon="6.43637">
        <ele>843.2133789</ele>
        <time>2010-04-17T06:47:13Z</time>
      </trkpt>
      <trkpt lat="43.76029" lon="6.4362">
        <ele>847.5395508</ele>
        <time>2010-04-17T06:47:20Z</time>
      </trkpt>
      <trkpt lat="43.76035" lon="6.436">
        <ele>850.9040527</ele>
        <time>2010-04-17T06:47:29Z</time>
      </trkpt>
      <trkpt lat="43.76038" lon="6.43585">
        <ele>854.2687988</ele>
        <time>2010-04-17T06:47:37Z</time>
      </trkpt>
      <trkpt lat="43.76041" lon="6.43569">
        <ele>858.5944824</ele>
        <time>2010-04-17T06:47:46Z</time>
      </trkpt>
      <trkpt lat="43.76042" lon="6.43548">
        <ele>864.3625488</ele>
        <time>2010-04-17T06:47:57Z</time>
      </trkpt>
      <trkpt lat="43.76043" lon="6.43528">
        <ele>868.2077637</ele>
        <time>2010-04-17T06:48:07Z</time>
      </trkpt>
      <trkpt lat="43.76038" lon="6.43514">
        <ele>872.0529785</ele>
        <time>2010-04-17T06:48:14Z</time>
      </trkpt>
      <trkpt lat="43.76027" lon="6.43502">
        <ele>871.0917969</ele>
        <time>2010-04-17T06:48:21Z</time>
      </trkpt>
      <trkpt lat="43.76011" lon="6.43491">
        <ele>870.1303711</ele>
        <time>2010-04-17T06:48:31Z</time>
      </trkpt>
      <trkpt lat="43.76" lon="6.43482">
        <ele>868.6884766</ele>
        <time>2010-04-17T06:48:38Z</time>
      </trkpt>
      <trkpt lat="43.75998" lon="6.43467">
        <ele>868.2077637</ele>
        <time>2010-04-17T06:48:44Z</time>
      </trkpt>
      <trkpt lat="43.76004" lon="6.43453">
        <ele>870.611084</ele>
        <time>2010-04-17T06:48:51Z</time>
      </trkpt>
      <trkpt lat="43.76014" lon="6.43439">
        <ele>871.5722656</ele>
        <time>2010-04-17T06:48:58Z</time>
      </trkpt>
      <trkpt lat="43.76027" lon="6.43421">
        <ele>871.0917969</ele>
        <time>2010-04-17T06:49:07Z</time>
      </trkpt>
      <trkpt lat="43.76043" lon="6.43398">
        <ele>870.1303711</ele>
        <time>2010-04-17T06:49:18Z</time>
      </trkpt>
      <trkpt lat="43.76054" lon="6.43385">
        <ele>870.611084</ele>
        <time>2010-04-17T06:49:26Z</time>
      </trkpt>
      <trkpt lat="43.76065" lon="6.43375">
        <ele>872.0529785</ele>
        <time>2010-04-17T06:49:34Z</time>
      </trkpt>
      <trkpt lat="43.76077" lon="6.4336">
        <ele>874.4562988</ele>
        <time>2010-04-17T06:49:43Z</time>
      </trkpt>
      <trkpt lat="43.76087" lon="6.43349">
        <ele>876.3791504</ele>
        <time>2010-04-17T06:49:51Z</time>
      </trkpt>
      <trkpt lat="43.761" lon="6.43337">
        <ele>878.3017578</ele>
        <time>2010-04-17T06:50:00Z</time>
      </trkpt>
      <trkpt lat="43.76109" lon="6.43326">
        <ele>881.185791</ele>
        <time>2010-04-17T06:50:09Z</time>
      </trkpt>
      <trkpt lat="43.76116" lon="6.43316">
        <ele>882.6276855</ele>
        <time>2010-04-17T06:50:15Z</time>
      </trkpt>
      <trkpt lat="43.76125" lon="6.43303">
        <ele>885.5114746</ele>
        <time>2010-04-17T06:50:24Z</time>
      </trkpt>
      <trkpt lat="43.76134" lon="6.43291">
        <ele>888.3955078</ele>
        <time>2010-04-17T06:50:33Z</time>
      </trkpt>
      <trkpt lat="43.76141" lon="6.4328">
        <ele>889.3566895</ele>
        <time>2010-04-17T06:50:40Z</time>
      </trkpt>
      <trkpt lat="43.7615" lon="6.43266">
        <ele>890.3181152</ele>
        <time>2010-04-17T06:50:49Z</time>
      </trkpt>
      <trkpt lat="43.76158" lon="6.43255">
        <ele>893.2021484</ele>
        <time>2010-04-17T06:50:57Z</time>
      </trkpt>
      <trkpt lat="43.76166" lon="6.43244">
        <ele>896.0861816</ele>
        <time>2010-04-17T06:51:06Z</time>
      </trkpt>
      <trkpt lat="43.76172" lon="6.43231">
        <ele>897.5280762</ele>
        <time>2010-04-17T06:51:14Z</time>
      </trkpt>
      <trkpt lat="43.76178" lon="6.43217">
        <ele>899.4506836</ele>
        <time>2010-04-17T06:51:23Z</time>
      </trkpt>
      <trkpt lat="43.76187" lon="6.43204">
        <ele>901.8540039</ele>
        <time>2010-04-17T06:51:33Z</time>
      </trkpt>
      <trkpt lat="43.76192" lon="6.43193">
        <ele>903.7766113</ele>
        <time>2010-04-17T06:51:40Z</time>
      </trkpt>
      <trkpt lat="43.76201" lon="6.43178">
        <ele>906.1796875</ele>
        <time>2010-04-17T06:51:50Z</time>
      </trkpt>
      <trkpt lat="43.76205" lon="6.43172">
        <ele>909.5446777</ele>
        <time>2010-04-17T06:51:58Z</time>
      </trkpt>
      <trkpt lat="43.76207" lon="6.43164">
        <ele>910.9865723</ele>
        <time>2010-04-17T06:52:03Z</time>
      </trkpt>
      <trkpt lat="43.76211" lon="6.43157">
        <ele>910.9865723</ele>
        <time>2010-04-17T06:52:07Z</time>
      </trkpt>
      <trkpt lat="43.7622" lon="6.43139">
        <ele>911.4672852</ele>
        <time>2010-04-17T06:52:16Z</time>
      </trkpt>
      <trkpt lat="43.76231" lon="6.4312">
        <ele>912.9091797</ele>
        <time>2010-04-17T06:52:26Z</time>
      </trkpt>
      <trkpt lat="43.7624" lon="6.43104">
        <ele>913.8703613</ele>
        <time>2010-04-17T06:52:34Z</time>
      </trkpt>
      <trkpt lat="43.76247" lon="6.43087">
        <ele>914.3510742</ele>
        <time>2010-04-17T06:52:41Z</time>
      </trkpt>
      <trkpt lat="43.76254" lon="6.43076">
        <ele>914.8317871</ele>
        <time>2010-04-17T06:52:47Z</time>
      </trkpt>
      <trkpt lat="43.7626" lon="6.4306">
        <ele>915.3125</ele>
        <time>2010-04-17T06:52:53Z</time>
      </trkpt>
      <trkpt lat="43.76269" lon="6.43039">
        <ele>916.7543945</ele>
        <time>2010-04-17T06:53:03Z</time>
      </trkpt>
      <trkpt lat="43.76273" lon="6.43025">
        <ele>919.1577148</ele>
        <time>2010-04-17T06:53:10Z</time>
      </trkpt>
      <trkpt lat="43.76273" lon="6.43009">
        <ele>922.0415039</ele>
        <time>2010-04-17T06:53:17Z</time>
      </trkpt>
      <trkpt lat="43.76268" lon="6.42995">
        <ele>927.3291016</ele>
        <time>2010-04-17T06:53:23Z</time>
      </trkpt>
      <trkpt lat="43.76265" lon="6.42977">
        <ele>928.2902832</ele>
        <time>2010-04-17T06:53:29Z</time>
      </trkpt>
      <trkpt lat="43.76264" lon="6.42955">
        <ele>929.7321777</ele>
        <time>2010-04-17T06:53:36Z</time>
      </trkpt>
      <trkpt lat="43.7626" lon="6.4293">
        <ele>929.2514648</ele>
        <time>2010-04-17T06:53:41Z</time>
      </trkpt>
      <trkpt lat="43.76253" lon="6.42907">
        <ele>932.135498</ele>
        <time>2010-04-17T06:53:46Z</time>
      </trkpt>
      <trkpt lat="43.76249" lon="6.42891">
        <ele>935.0195312</ele>
        <time>2010-04-17T06:53:50Z</time>
      </trkpt>
      <trkpt lat="43.76248" lon="6.4287">
        <ele>936.4614258</ele>
        <time>2010-04-17T06:53:57Z</time>
      </trkpt>
      <trkpt lat="43.76249" lon="6.42852">
        <ele>936.4614258</ele>
        <time>2010-04-17T06:54:02Z</time>
      </trkpt>
      <trkpt lat="43.7626" lon="6.42833">
        <ele>933.0966797</ele>
        <time>2010-04-17T06:54:06Z</time>
      </trkpt>
      <trkpt lat="43.76282" lon="6.42793">
        <ele>927.3291016</ele>
        <time>2010-04-17T06:54:12Z</time>
      </trkpt>
      <trkpt lat="43.7629" lon="6.42772">
        <ele>928.2902832</ele>
        <time>2010-04-17T06:54:15Z</time>
      </trkpt>
      <trkpt lat="43.76307" lon="6.42758">
        <ele>926.8483887</ele>
        <time>2010-04-17T06:54:19Z</time>
      </trkpt>
      <trkpt lat="43.76325" lon="6.42733">
        <ele>923.9641113</ele>
        <time>2010-04-17T06:54:24Z</time>
      </trkpt>
      <trkpt lat="43.76327" lon="6.42728">
        <ele>922.0415039</ele>
        <time>2010-04-17T06:54:27Z</time>
      </trkpt>
      <trkpt lat="43.76328" lon="6.4273">
        <ele>923.4836426</ele>
        <time>2010-04-17T06:54:31Z</time>
      </trkpt>
      <trkpt lat="43.76333" lon="6.42714">
        <ele>925.40625</ele>
        <time>2010-04-17T06:54:36Z</time>
      </trkpt>
      <trkpt lat="43.76335" lon="6.42698">
        <ele>926.3676758</ele>
        <time>2010-04-17T06:54:41Z</time>
      </trkpt>
      <trkpt lat="43.76333" lon="6.42675">
        <ele>927.3291016</ele>
        <time>2010-04-17T06:54:49Z</time>
      </trkpt>
      <trkpt lat="43.76332" lon="6.42653">
        <ele>930.2128906</ele>
        <time>2010-04-17T06:54:55Z</time>
      </trkpt>
      <trkpt lat="43.76334" lon="6.42628">
        <ele>929.2514648</ele>
        <time>2010-04-17T06:55:02Z</time>
      </trkpt>
      <trkpt lat="43.7634" lon="6.42605">
        <ele>930.6936035</ele>
        <time>2010-04-17T06:55:09Z</time>
      </trkpt>
      <trkpt lat="43.76346" lon="6.42586">
        <ele>928.7709961</ele>
        <time>2010-04-17T06:55:15Z</time>
      </trkpt>
      <trkpt lat="43.76357" lon="6.42564">
        <ele>928.2902832</ele>
        <time>2010-04-17T06:55:23Z</time>
      </trkpt>
      <trkpt lat="43.76371" lon="6.42549">
        <ele>926.8483887</ele>
        <time>2010-04-17T06:55:28Z</time>
      </trkpt>
      <trkpt lat="43.76387" lon="6.42532">
        <ele>928.7709961</ele>
        <time>2010-04-17T06:55:33Z</time>
      </trkpt>
      <trkpt lat="43.76391" lon="6.42525">
        <ele>929.2514648</ele>
        <time>2010-04-17T06:55:35Z</time>
      </trkpt>
      <trkpt lat="43.76405" lon="6.42505">
        <ele>930.6936035</ele>
        <time>2010-04-17T06:55:41Z</time>
      </trkpt>
      <trkpt lat="43.76406" lon="6.42487">
        <ele>936.4614258</ele>
        <time>2010-04-17T06:55:47Z</time>
      </trkpt>
      <trkpt lat="43.76411" lon="6.42465">
        <ele>934.5388184</ele>
        <time>2010-04-17T06:55:53Z</time>
      </trkpt>
      <trkpt lat="43.76411" lon="6.42441">
        <ele>939.3452148</ele>
        <time>2010-04-17T06:56:00Z</time>
      </trkpt>
      <trkpt lat="43.76417" lon="6.42429">
        <ele>936.9418945</ele>
        <time>2010-04-17T06:56:06Z</time>
      </trkpt>
      <trkpt lat="43.76423" lon="6.42415">
        <ele>935.0195312</ele>
        <time>2010-04-17T06:56:12Z</time>
      </trkpt>
      <trkpt lat="43.76424" lon="6.42415">
        <ele>934.5388184</ele>
        <time>2010-04-17T06:56:13Z</time>
      </trkpt>
      <trkpt lat="43.76432" lon="6.42404">
        <ele>931.6547852</ele>
        <time>2010-04-17T06:56:18Z</time>
      </trkpt>
      <trkpt lat="43.76445" lon="6.4239">
        <ele>930.2128906</ele>
        <time>2010-04-17T06:56:27Z</time>
      </trkpt>
      <trkpt lat="43.76451" lon="6.4238">
        <ele>933.0966797</ele>
        <time>2010-04-17T06:56:34Z</time>
      </trkpt>
      <trkpt lat="43.76453" lon="6.42371">
        <ele>935.0195312</ele>
        <time>2010-04-17T06:56:38Z</time>
      </trkpt>
      <trkpt lat="43.76459" lon="6.42359">
        <ele>937.4226074</ele>
        <time>2010-04-17T06:56:46Z</time>
      </trkpt>
      <trkpt lat="43.76463" lon="6.42345">
        <ele>938.8647461</ele>
        <time>2010-04-17T06:56:53Z</time>
      </trkpt>
      <trkpt lat="43.76464" lon="6.42331">
        <ele>950.8811035</ele>
        <time>2010-04-17T06:57:02Z</time>
      </trkpt>
      <trkpt lat="43.76466" lon="6.42313">
        <ele>960.0136719</ele>
        <time>2010-04-17T06:57:11Z</time>
      </trkpt>
      <trkpt lat="43.76473" lon="6.42307">
        <ele>960.0136719</ele>
        <time>2010-04-17T06:57:17Z</time>
      </trkpt>
      <trkpt lat="43.76479" lon="6.42294">
        <ele>955.6877441</ele>
        <time>2010-04-17T06:57:23Z</time>
      </trkpt>
      <trkpt lat="43.7648" lon="6.4229">
        <ele>955.2070312</ele>
        <time>2010-04-17T06:57:25Z</time>
      </trkpt>
      <trkpt lat="43.76488" lon="6.42281">
        <ele>955.2070312</ele>
        <time>2010-04-17T06:57:33Z</time>
      </trkpt>
      <trkpt lat="43.7649" lon="6.42274">
        <ele>957.6105957</ele>
        <time>2010-04-17T06:57:39Z</time>
      </trkpt>
      <trkpt lat="43.76491" lon="6.42263">
        <ele>960.4943848</ele>
        <time>2010-04-17T06:57:44Z</time>
      </trkpt>
      <trkpt lat="43.76495" lon="6.42251">
        <ele>965.3010254</ele>
        <time>2010-04-17T06:57:51Z</time>
      </trkpt>
      <trkpt lat="43.76496" lon="6.42242">
        <ele>966.7429199</ele>
        <time>2010-04-17T06:57:54Z</time>
      </trkpt>
      <trkpt lat="43.76502" lon="6.4223">
        <ele>967.2236328</ele>
        <time>2010-04-17T06:58:01Z</time>
      </trkpt>
      <trkpt lat="43.76507" lon="6.42219">
        <ele>965.7817383</ele>
        <time>2010-04-17T06:58:08Z</time>
      </trkpt>
      <trkpt lat="43.76513" lon="6.42209">
        <ele>967.2236328</ele>
        <time>2010-04-17T06:58:15Z</time>
      </trkpt>
      <trkpt lat="43.76522" lon="6.42202">
        <ele>962.8977051</ele>
        <time>2010-04-17T06:58:21Z</time>
      </trkpt>
      <trkpt lat="43.7653" lon="6.42183">
        <ele>962.4169922</ele>
        <time>2010-04-17T06:58:30Z</time>
      </trkpt>
      <trkpt lat="43.76536" lon="6.42167">
        <ele>964.3395996</ele>
        <time>2010-04-17T06:58:38Z</time>
      </trkpt>
      <trkpt lat="43.76543" lon="6.42146">
        <ele>962.8977051</ele>
        <time>2010-04-17T06:58:48Z</time>
      </trkpt>
      <trkpt lat="43.76549" lon="6.42137">
        <ele>963.8588867</ele>
        <time>2010-04-17T06:58:53Z</time>
      </trkpt>
      <trkpt lat="43.76557" lon="6.42125">
        <ele>963.8588867</ele>
        <time>2010-04-17T06:58:59Z</time>
      </trkpt>
      <trkpt lat="43.76557" lon="6.42122">
        <ele>966.262207</ele>
        <time>2010-04-17T06:59:03Z</time>
      </trkpt>
      <trkpt lat="43.76554" lon="6.42117">
        <ele>968.1848145</ele>
        <time>2010-04-17T06:59:17Z</time>
      </trkpt>
      <trkpt lat="43.76562" lon="6.42112">
        <ele>964.3395996</ele>
        <time>2010-04-17T07:02:21Z</time>
      </trkpt>
      <trkpt lat="43.76572" lon="6.42094">
        <ele>965.3010254</ele>
        <time>2010-04-17T07:02:29Z</time>
      </trkpt>
      <trkpt lat="43.76579" lon="6.42072">
        <ele>971.0688477</ele>
        <time>2010-04-17T07:02:37Z</time>
      </trkpt>
      <trkpt lat="43.76578" lon="6.42054">
        <ele>974.9143066</ele>
        <time>2010-04-17T07:02:43Z</time>
      </trkpt>
      <trkpt lat="43.76578" lon="6.42035">
        <ele>978.2788086</ele>
        <time>2010-04-17T07:02:48Z</time>
      </trkpt>
      <trkpt lat="43.76579" lon="6.4202">
        <ele>980.201416</ele>
        <time>2010-04-17T07:02:54Z</time>
      </trkpt>
      <trkpt lat="43.76582" lon="6.42007">
        <ele>982.1240234</ele>
        <time>2010-04-17T07:03:00Z</time>
      </trkpt>
      <trkpt lat="43.76584" lon="6.41992">
        <ele>985.9692383</ele>
        <time>2010-04-17T07:03:08Z</time>
      </trkpt>
      <trkpt lat="43.76587" lon="6.41978">
        <ele>987.8918457</ele>
        <time>2010-04-17T07:03:15Z</time>
      </trkpt>
      <trkpt lat="43.7659" lon="6.41962">
        <ele>990.7758789</ele>
        <time>2010-04-17T07:03:23Z</time>
      </trkpt>
      <trkpt lat="43.76591" lon="6.41946">
        <ele>988.8535156</ele>
        <time>2010-04-17T07:03:30Z</time>
      </trkpt>
      <trkpt lat="43.76589" lon="6.41933">
        <ele>993.6599121</ele>
        <time>2010-04-17T07:03:38Z</time>
      </trkpt>
      <trkpt lat="43.76591" lon="6.41924">
        <ele>991.2565918</ele>
        <time>2010-04-17T07:03:43Z</time>
      </trkpt>
      <trkpt lat="43.76593" lon="6.41912">
        <ele>987.8918457</ele>
        <time>2010-04-17T07:03:50Z</time>
      </trkpt>
      <trkpt lat="43.76588" lon="6.41893">
        <ele>993.1791992</ele>
        <time>2010-04-17T07:03:57Z</time>
      </trkpt>
      <trkpt lat="43.76586" lon="6.4188">
        <ele>994.6210938</ele>
        <time>2010-04-17T07:04:05Z</time>
      </trkpt>
      <trkpt lat="43.76585" lon="6.41873">
        <ele>995.5825195</ele>
        <time>2010-04-17T07:04:10Z</time>
      </trkpt>
      <trkpt lat="43.76585" lon="6.41872">
        <ele>995.5825195</ele>
        <time>2010-04-17T07:04:15Z</time>
      </trkpt>
      <trkpt lat="43.76585" lon="6.41872">
        <ele>996.5439453</ele>
        <time>2010-04-17T07:04:30Z</time>
      </trkpt>
      <trkpt lat="43.76584" lon="6.41871">
        <ele>997.505127</ele>
        <time>2010-04-17T07:04:36Z</time>
      </trkpt>
      <trkpt lat="43.76583" lon="6.41866">
        <ele>998.9470215</ele>
        <time>2010-04-17T07:04:42Z</time>
      </trkpt>
      <trkpt lat="43.76582" lon="6.41855">
        <ele>999.9084473</ele>
        <time>2010-04-17T07:04:49Z</time>
      </trkpt>
      <trkpt lat="43.76583" lon="6.41844">
        <ele>999.4277344</ele>
        <time>2010-04-17T07:04:58Z</time>
      </trkpt>
      <trkpt lat="43.76585" lon="6.41835">
        <ele>999.9084473</ele>
        <time>2010-04-17T07:05:05Z</time>
      </trkpt>
      <trkpt lat="43.76585" lon="6.41832">
        <ele>1000.3891602</ele>
        <time>2010-04-17T07:05:10Z</time>
      </trkpt>
      <trkpt lat="43.76585" lon="6.41831">
        <ele>1000.3891602</ele>
        <time>2010-04-17T07:05:11Z</time>
      </trkpt>
      <trkpt lat="43.76588" lon="6.41817">
        <ele>999.4277344</ele>
        <time>2010-04-17T07:05:20Z</time>
      </trkpt>
      <trkpt lat="43.76591" lon="6.41806">
        <ele>998.9470215</ele>
        <time>2010-04-17T07:05:27Z</time>
      </trkpt>
      <trkpt lat="43.76592" lon="6.41796">
        <ele>999.9084473</ele>
        <time>2010-04-17T07:05:35Z</time>
      </trkpt>
      <trkpt lat="43.76594" lon="6.41788">
        <ele>1000.3891602</ele>
        <time>2010-04-17T07:05:43Z</time>
      </trkpt>
      <trkpt lat="43.76596" lon="6.41783">
        <ele>1003.7536621</ele>
        <time>2010-04-17T07:05:51Z</time>
      </trkpt>
      <trkpt lat="43.76596" lon="6.41772">
        <ele>1005.6765137</ele>
        <time>2010-04-17T07:06:00Z</time>
      </trkpt>
      <trkpt lat="43.76599" lon="6.4176">
        <ele>1005.1958008</ele>
        <time>2010-04-17T07:06:08Z</time>
      </trkpt>
      <trkpt lat="43.76602" lon="6.41749">
        <ele>1006.1569824</ele>
        <time>2010-04-17T07:06:16Z</time>
      </trkpt>
      <trkpt lat="43.76604" lon="6.4174">
        <ele>1008.079834</ele>
        <time>2010-04-17T07:06:24Z</time>
      </trkpt>
      <trkpt lat="43.76607" lon="6.41728">
        <ele>1009.0410156</ele>
        <time>2010-04-17T07:06:33Z</time>
      </trkpt>
      <trkpt lat="43.76609" lon="6.41717">
        <ele>1010.0021973</ele>
        <time>2010-04-17T07:06:41Z</time>
      </trkpt>
      <trkpt lat="43.76613" lon="6.41706">
        <ele>1011.9250488</ele>
        <time>2010-04-17T07:06:49Z</time>
      </trkpt>
      <trkpt lat="43.76615" lon="6.41694">
        <ele>1012.8862305</ele>
        <time>2010-04-17T07:06:58Z</time>
      </trkpt>
      <trkpt lat="43.76618" lon="6.41682">
        <ele>1013.3669434</ele>
        <time>2010-04-17T07:07:07Z</time>
      </trkpt>
      <trkpt lat="43.76622" lon="6.4167">
        <ele>1015.7702637</ele>
        <time>2010-04-17T07:07:16Z</time>
      </trkpt>
      <trkpt lat="43.76622" lon="6.41668">
        <ele>1016.7314453</ele>
        <time>2010-04-17T07:07:22Z</time>
      </trkpt>
      <trkpt lat="43.76622" lon="6.41652">
        <ele>1018.6540527</ele>
        <time>2010-04-17T07:07:30Z</time>
      </trkpt>
      <trkpt lat="43.76624" lon="6.41635">
        <ele>1021.0576172</ele>
        <time>2010-04-17T07:07:38Z</time>
      </trkpt>
      <trkpt lat="43.76626" lon="6.41621">
        <ele>1024.902832</ele>
        <time>2010-04-17T07:07:45Z</time>
      </trkpt>
      <trkpt lat="43.76626" lon="6.41604">
        <ele>1026.3447266</ele>
        <time>2010-04-17T07:07:52Z</time>
      </trkpt>
      <trkpt lat="43.76627" lon="6.41587">
        <ele>1027.3061523</ele>
        <time>2010-04-17T07:07:59Z</time>
      </trkpt>
      <trkpt lat="43.76628" lon="6.41569">
        <ele>1028.267334</ele>
        <time>2010-04-17T07:08:07Z</time>
      </trkpt>
      <trkpt lat="43.76628" lon="6.41552">
        <ele>1033.0737305</ele>
        <time>2010-04-17T07:08:17Z</time>
      </trkpt>
      <trkpt lat="43.76626" lon="6.41539">
        <ele>1034.996582</ele>
        <time>2010-04-17T07:08:24Z</time>
      </trkpt>
      <trkpt lat="43.76628" lon="6.41529">
        <ele>1035.9577637</ele>
        <time>2010-04-17T07:08:29Z</time>
      </trkpt>
      <trkpt lat="43.76627" lon="6.41529">
        <ele>1036.9191895</ele>
        <time>2010-04-17T07:08:33Z</time>
      </trkpt>
      <trkpt lat="43.76627" lon="6.41522">
        <ele>1034.5158691</ele>
        <time>2010-04-17T07:08:43Z</time>
      </trkpt>
      <trkpt lat="43.76629" lon="6.41512">
        <ele>1034.0351562</ele>
        <time>2010-04-17T07:08:51Z</time>
      </trkpt>
      <trkpt lat="43.76629" lon="6.41502">
        <ele>1034.5158691</ele>
        <time>2010-04-17T07:08:59Z</time>
      </trkpt>
      <trkpt lat="43.76628" lon="6.41492">
        <ele>1035.4770508</ele>
        <time>2010-04-17T07:09:06Z</time>
      </trkpt>
      <trkpt lat="43.76627" lon="6.41489">
        <ele>1035.9577637</ele>
        <time>2010-04-17T07:09:13Z</time>
      </trkpt>
      <trkpt lat="43.76626" lon="6.41482">
        <ele>1036.4387207</ele>
        <time>2010-04-17T07:09:18Z</time>
      </trkpt>
      <trkpt lat="43.76625" lon="6.41469">
        <ele>1037.3999023</ele>
        <time>2010-04-17T07:09:24Z</time>
      </trkpt>
      <trkpt lat="43.76627" lon="6.41451">
        <ele>1041.7258301</ele>
        <time>2010-04-17T07:09:32Z</time>
      </trkpt>
      <trkpt lat="43.76627" lon="6.41438">
        <ele>1044.6096191</ele>
        <time>2010-04-17T07:09:39Z</time>
      </trkpt>
      <trkpt lat="43.76628" lon="6.41435">
        <ele>1045.5710449</ele>
        <time>2010-04-17T07:09:45Z</time>
      </trkpt>
      <trkpt lat="43.76627" lon="6.41427">
        <ele>1047.9743652</ele>
        <time>2010-04-17T07:09:53Z</time>
      </trkpt>
      <trkpt lat="43.76626" lon="6.41424">
        <ele>1050.3776855</ele>
        <time>2010-04-17T07:09:56Z</time>
      </trkpt>
      <trkpt lat="43.76625" lon="6.41415">
        <ele>1052.300293</ele>
        <time>2010-04-17T07:10:04Z</time>
      </trkpt>
      <trkpt lat="43.76626" lon="6.41409">
        <ele>1053.2617188</ele>
        <time>2010-04-17T07:10:10Z</time>
      </trkpt>
      <trkpt lat="43.76626" lon="6.41404">
        <ele>1057.5876465</ele>
        <time>2010-04-17T07:10:17Z</time>
      </trkpt>
      <trkpt lat="43.76626" lon="6.41392">
        <ele>1054.7036133</ele>
        <time>2010-04-17T07:10:27Z</time>
      </trkpt>
      <trkpt lat="43.76625" lon="6.41385">
        <ele>1052.300293</ele>
        <time>2010-04-17T07:10:34Z</time>
      </trkpt>
      <trkpt lat="43.76623" lon="6.41374">
        <ele>1051.8195801</ele>
        <time>2010-04-17T07:10:41Z</time>
      </trkpt>
      <trkpt lat="43.76621" lon="6.41366">
        <ele>1050.8581543</ele>
        <time>2010-04-17T07:10:46Z</time>
      </trkpt>
      <trkpt lat="43.7662" lon="6.4136">
        <ele>1049.4162598</ele>
        <time>2010-04-17T07:10:50Z</time>
      </trkpt>
      <trkpt lat="43.76619" lon="6.41357">
        <ele>1050.3776855</ele>
        <time>2010-04-17T07:10:56Z</time>
      </trkpt>
      <trkpt lat="43.76618" lon="6.41353">
        <ele>1050.8581543</ele>
        <time>2010-04-17T07:10:59Z</time>
      </trkpt>
      <trkpt lat="43.76616" lon="6.41348">
        <ele>1051.3388672</ele>
        <time>2010-04-17T07:11:03Z</time>
      </trkpt>
      <trkpt lat="43.76615" lon="6.41343">
        <ele>1051.3388672</ele>
        <time>2010-04-17T07:11:08Z</time>
      </trkpt>
      <trkpt lat="43.76613" lon="6.41339">
        <ele>1050.8581543</ele>
        <time>2010-04-17T07:11:13Z</time>
      </trkpt>
      <trkpt lat="43.76613" lon="6.41336">
        <ele>1049.8969727</ele>
        <time>2010-04-17T07:11:18Z</time>
      </trkpt>
      <trkpt lat="43.76611" lon="6.41334">
        <ele>1051.3388672</ele>
        <time>2010-04-17T07:11:23Z</time>
      </trkpt>
      <trkpt lat="43.76608" lon="6.41334">
        <ele>1052.300293</ele>
        <time>2010-04-17T07:11:29Z</time>
      </trkpt>
      <trkpt lat="43.76606" lon="6.41335">
        <ele>1055.6650391</ele>
        <time>2010-04-17T07:11:49Z</time>
      </trkpt>
      <trkpt lat="43.76608" lon="6.41337">
        <ele>1055.6650391</ele>
        <time>2010-04-17T07:12:49Z</time>
      </trkpt>
      <trkpt lat="43.76606" lon="6.4133">
        <ele>1055.6650391</ele>
        <time>2010-04-17T07:14:50Z</time>
      </trkpt>
      <trkpt lat="43.76603" lon="6.41331">
        <ele>1058.5488281</ele>
        <time>2010-04-17T07:14:58Z</time>
      </trkpt>
      <trkpt lat="43.76601" lon="6.41328">
        <ele>1057.5876465</ele>
        <time>2010-04-17T07:15:04Z</time>
      </trkpt>
      <trkpt lat="43.76598" lon="6.41326">
        <ele>1059.029541</ele>
        <time>2010-04-17T07:15:08Z</time>
      </trkpt>
      <trkpt lat="43.76592" lon="6.4132">
        <ele>1060.9521484</ele>
        <time>2010-04-17T07:15:14Z</time>
      </trkpt>
      <trkpt lat="43.76589" lon="6.41315">
        <ele>1063.3554688</ele>
        <time>2010-04-17T07:15:16Z</time>
      </trkpt>
      <trkpt lat="43.76583" lon="6.41303">
        <ele>1068.1621094</ele>
        <time>2010-04-17T07:15:23Z</time>
      </trkpt>
      <trkpt lat="43.76578" lon="6.41286">
        <ele>1071.5266113</ele>
        <time>2010-04-17T07:15:30Z</time>
      </trkpt>
      <trkpt lat="43.76567" lon="6.4127">
        <ele>1072.4880371</ele>
        <time>2010-04-17T07:15:36Z</time>
      </trkpt>
      <trkpt lat="43.76561" lon="6.41253">
        <ele>1069.604248</ele>
        <time>2010-04-17T07:15:42Z</time>
      </trkpt>
      <trkpt lat="43.76556" lon="6.41238">
        <ele>1069.1235352</ele>
        <time>2010-04-17T07:15:48Z</time>
      </trkpt>
      <trkpt lat="43.7655" lon="6.41223">
        <ele>1070.0847168</ele>
        <time>2010-04-17T07:15:54Z</time>
      </trkpt>
      <trkpt lat="43.76548" lon="6.41219">
        <ele>1069.604248</ele>
        <time>2010-04-17T07:15:58Z</time>
      </trkpt>
      <trkpt lat="43.76549" lon="6.41219">
        <ele>1064.7973633</ele>
        <time>2010-04-17T07:16:24Z</time>
      </trkpt>
      <trkpt lat="43.76545" lon="6.41209">
        <ele>1065.7587891</ele>
        <time>2010-04-17T07:16:29Z</time>
      </trkpt>
      <trkpt lat="43.76536" lon="6.41193">
        <ele>1065.7587891</ele>
        <time>2010-04-17T07:16:36Z</time>
      </trkpt>
      <trkpt lat="43.76531" lon="6.4118">
        <ele>1066.2392578</ele>
        <time>2010-04-17T07:16:41Z</time>
      </trkpt>
      <trkpt lat="43.76526" lon="6.41165">
        <ele>1066.7199707</ele>
        <time>2010-04-17T07:16:46Z</time>
      </trkpt>
      <trkpt lat="43.76518" lon="6.41141">
        <ele>1068.1621094</ele>
        <time>2010-04-17T07:16:55Z</time>
      </trkpt>
      <trkpt lat="43.76513" lon="6.41128">
        <ele>1068.1621094</ele>
        <time>2010-04-17T07:17:00Z</time>
      </trkpt>
      <trkpt lat="43.76507" lon="6.41115">
        <ele>1069.604248</ele>
        <time>2010-04-17T07:17:06Z</time>
      </trkpt>
      <trkpt lat="43.76499" lon="6.41096">
        <ele>1072.4880371</ele>
        <time>2010-04-17T07:17:13Z</time>
      </trkpt>
      <trkpt lat="43.7649" lon="6.41074">
        <ele>1072.96875</ele>
        <time>2010-04-17T07:17:20Z</time>
      </trkpt>
      <trkpt lat="43.76483" lon="6.41059">
        <ele>1073.4494629</ele>
        <time>2010-04-17T07:17:27Z</time>
      </trkpt>
      <trkpt lat="43.76478" lon="6.41047">
        <ele>1077.7751465</ele>
        <time>2010-04-17T07:17:33Z</time>
      </trkpt>
      <trkpt lat="43.76469" lon="6.41038">
        <ele>1078.7365723</ele>
        <time>2010-04-17T07:17:39Z</time>
      </trkpt>
      <trkpt lat="43.76465" lon="6.41033">
        <ele>1080.6591797</ele>
        <time>2010-04-17T07:17:43Z</time>
      </trkpt>
      <trkpt lat="43.76451" lon="6.4103">
        <ele>1081.1398926</ele>
        <time>2010-04-17T07:17:52Z</time>
      </trkpt>
      <trkpt lat="43.76438" lon="6.41024">
        <ele>1080.6591797</ele>
        <time>2010-04-17T07:18:00Z</time>
      </trkpt>
      <trkpt lat="43.76429" lon="6.41019">
        <ele>1081.6203613</ele>
        <time>2010-04-17T07:18:06Z</time>
      </trkpt>
      <trkpt lat="43.76421" lon="6.41011">
        <ele>1080.1784668</ele>
        <time>2010-04-17T07:18:11Z</time>
      </trkpt>
      <trkpt lat="43.76411" lon="6.41007">
        <ele>1079.217041</ele>
        <time>2010-04-17T07:18:17Z</time>
      </trkpt>
      <trkpt lat="43.76404" lon="6.41">
        <ele>1079.6977539</ele>
        <time>2010-04-17T07:18:23Z</time>
      </trkpt>
      <trkpt lat="43.76396" lon="6.40984">
        <ele>1081.1398926</ele>
        <time>2010-04-17T07:18:31Z</time>
      </trkpt>
      <trkpt lat="43.76395" lon="6.40982">
        <ele>1081.6203613</ele>
        <time>2010-04-17T07:18:32Z</time>
      </trkpt>
      <trkpt lat="43.76389" lon="6.40972">
        <ele>1082.5817871</ele>
        <time>2010-04-17T07:18:38Z</time>
      </trkpt>
      <trkpt lat="43.76378" lon="6.40968">
        <ele>1084.9853516</ele>
        <time>2010-04-17T07:18:44Z</time>
      </trkpt>
      <trkpt lat="43.76364" lon="6.40964">
        <ele>1086.9077148</ele>
        <time>2010-04-17T07:18:52Z</time>
      </trkpt>
      <trkpt lat="43.76357" lon="6.40963">
        <ele>1091.2336426</ele>
        <time>2010-04-17T07:18:58Z</time>
      </trkpt>
      <trkpt lat="43.76342" lon="6.40961">
        <ele>1093.15625</ele>
        <time>2010-04-17T07:19:07Z</time>
      </trkpt>
      <trkpt lat="43.76336" lon="6.40959">
        <ele>1093.15625</ele>
        <time>2010-04-17T07:19:11Z</time>
      </trkpt>
      <trkpt lat="43.76322" lon="6.4096">
        <ele>1092.1950684</ele>
        <time>2010-04-17T07:19:19Z</time>
      </trkpt>
      <trkpt lat="43.76308" lon="6.40959">
        <ele>1092.6757812</ele>
        <time>2010-04-17T07:19:27Z</time>
      </trkpt>
      <trkpt lat="43.76296" lon="6.40961">
        <ele>1092.1950684</ele>
        <time>2010-04-17T07:19:34Z</time>
      </trkpt>
      <trkpt lat="43.76285" lon="6.40959">
        <ele>1091.7143555</ele>
        <time>2010-04-17T07:19:40Z</time>
      </trkpt>
      <trkpt lat="43.76276" lon="6.40955">
        <ele>1094.1176758</ele>
        <time>2010-04-17T07:19:46Z</time>
      </trkpt>
      <trkpt lat="43.76266" lon="6.4095">
        <ele>1095.0788574</ele>
        <time>2010-04-17T07:19:52Z</time>
      </trkpt>
      <trkpt lat="43.76253" lon="6.4094">
        <ele>1095.5595703</ele>
        <time>2010-04-17T07:19:59Z</time>
      </trkpt>
      <trkpt lat="43.76245" lon="6.40926">
        <ele>1097.0014648</ele>
        <time>2010-04-17T07:20:05Z</time>
      </trkpt>
      <trkpt lat="43.76245" lon="6.40919">
        <ele>1097.4821777</ele>
        <time>2010-04-17T07:20:07Z</time>
      </trkpt>
      <trkpt lat="43.7624" lon="6.40898">
        <ele>1098.4433594</ele>
        <time>2010-04-17T07:20:14Z</time>
      </trkpt>
      <trkpt lat="43.76239" lon="6.40885">
        <ele>1100.3664551</ele>
        <time>2010-04-17T07:20:21Z</time>
      </trkpt>
      <trkpt lat="43.76243" lon="6.40862">
        <ele>1101.8083496</ele>
        <time>2010-04-17T07:20:30Z</time>
      </trkpt>
      <trkpt lat="43.76252" lon="6.4085">
        <ele>1102.7695312</ele>
        <time>2010-04-17T07:20:36Z</time>
      </trkpt>
      <trkpt lat="43.76263" lon="6.40837">
        <ele>1105.1728516</ele>
        <time>2010-04-17T07:20:43Z</time>
      </trkpt>
      <trkpt lat="43.76274" lon="6.40825">
        <ele>1107.095459</ele>
        <time>2010-04-17T07:20:49Z</time>
      </trkpt>
      <trkpt lat="43.76288" lon="6.40812">
        <ele>1108.0568848</ele>
        <time>2010-04-17T07:20:56Z</time>
      </trkpt>
      <trkpt lat="43.76304" lon="6.40801">
        <ele>1107.095459</ele>
        <time>2010-04-17T07:21:03Z</time>
      </trkpt>
      <trkpt lat="43.7632" lon="6.40797">
        <ele>1107.095459</ele>
        <time>2010-04-17T07:21:09Z</time>
      </trkpt>
      <trkpt lat="43.76333" lon="6.40793">
        <ele>1107.5761719</ele>
        <time>2010-04-17T07:21:13Z</time>
      </trkpt>
      <trkpt lat="43.76345" lon="6.40781">
        <ele>1107.5761719</ele>
        <time>2010-04-17T07:21:17Z</time>
      </trkpt>
      <trkpt lat="43.76349" lon="6.40773">
        <ele>1107.5761719</ele>
        <time>2010-04-17T07:21:19Z</time>
      </trkpt>
      <trkpt lat="43.76353" lon="6.40764">
        <ele>1107.5761719</ele>
        <time>2010-04-17T07:21:21Z</time>
      </trkpt>
      <trkpt lat="43.7637" lon="6.4075">
        <ele>1108.5373535</ele>
        <time>2010-04-17T07:21:27Z</time>
      </trkpt>
      <trkpt lat="43.76376" lon="6.40731">
        <ele>1109.0180664</ele>
        <time>2010-04-17T07:21:33Z</time>
      </trkpt>
      <trkpt lat="43.76378" lon="6.40728">
        <ele>1109.979248</ele>
        <time>2010-04-17T07:21:36Z</time>
      </trkpt>
      <trkpt lat="43.76391" lon="6.40725">
        <ele>1109.979248</ele>
        <time>2010-04-17T07:21:42Z</time>
      </trkpt>
      <trkpt lat="43.76405" lon="6.40721">
        <ele>1109.979248</ele>
        <time>2010-04-17T07:21:49Z</time>
      </trkpt>
      <trkpt lat="43.76416" lon="6.40712">
        <ele>1109.979248</ele>
        <time>2010-04-17T07:21:55Z</time>
      </trkpt>
      <trkpt lat="43.76418" lon="6.40715">
        <ele>1109.979248</ele>
        <time>2010-04-17T07:22:00Z</time>
      </trkpt>
      <trkpt lat="43.76417" lon="6.40719">
        <ele>1107.095459</ele>
        <time>2010-04-17T07:22:14Z</time>
      </trkpt>
      <trkpt lat="43.76417" lon="6.40718">
        <ele>1107.095459</ele>
        <time>2010-04-17T07:22:23Z</time>
      </trkpt>
      <trkpt lat="43.76426" lon="6.40717">
        <ele>1109.979248</ele>
        <time>2010-04-17T07:22:28Z</time>
      </trkpt>
      <trkpt lat="43.76436" lon="6.40713">
        <ele>1110.9406738</ele>
        <time>2010-04-17T07:22:34Z</time>
      </trkpt>
      <trkpt lat="43.76442" lon="6.40698">
        <ele>1112.8632812</ele>
        <time>2010-04-17T07:22:39Z</time>
      </trkpt>
      <trkpt lat="43.76444" lon="6.40673">
        <ele>1114.3051758</ele>
        <time>2010-04-17T07:22:46Z</time>
      </trkpt>
      <trkpt lat="43.76453" lon="6.40663">
        <ele>1115.2666016</ele>
        <time>2010-04-17T07:22:51Z</time>
      </trkpt>
      <trkpt lat="43.76465" lon="6.40656">
        <ele>1116.2280273</ele>
        <time>2010-04-17T07:22:57Z</time>
      </trkpt>
      <trkpt lat="43.76476" lon="6.4066">
        <ele>1116.2280273</ele>
        <time>2010-04-17T07:23:03Z</time>
      </trkpt>
      <trkpt lat="43.76488" lon="6.40662">
        <ele>1117.6699219</ele>
        <time>2010-04-17T07:23:10Z</time>
      </trkpt>
      <trkpt lat="43.765" lon="6.40662">
        <ele>1118.6313477</ele>
        <time>2010-04-17T07:23:16Z</time>
      </trkpt>
      <trkpt lat="43.7651" lon="6.40653">
        <ele>1121.034668</ele>
        <time>2010-04-17T07:23:23Z</time>
      </trkpt>
      <trkpt lat="43.76524" lon="6.40643">
        <ele>1120.0732422</ele>
        <time>2010-04-17T07:23:31Z</time>
      </trkpt>
      <trkpt lat="43.76538" lon="6.40635">
        <ele>1121.5151367</ele>
        <time>2010-04-17T07:23:38Z</time>
      </trkpt>
      <trkpt lat="43.76546" lon="6.40631">
        <ele>1121.9958496</ele>
        <time>2010-04-17T07:23:43Z</time>
      </trkpt>
      <trkpt lat="43.76556" lon="6.40635">
        <ele>1124.3991699</ele>
        <time>2010-04-17T07:23:49Z</time>
      </trkpt>
      <trkpt lat="43.76566" lon="6.40639">
        <ele>1125.3603516</ele>
        <time>2010-04-17T07:23:54Z</time>
      </trkpt>
      <trkpt lat="43.76583" lon="6.40636">
        <ele>1123.4379883</ele>
        <time>2010-04-17T07:24:01Z</time>
      </trkpt>
      <trkpt lat="43.766" lon="6.4063">
        <ele>1123.918457</ele>
        <time>2010-04-17T07:24:09Z</time>
      </trkpt>
      <trkpt lat="43.7662" lon="6.40623">
        <ele>1124.3991699</ele>
        <time>2010-04-17T07:24:17Z</time>
      </trkpt>
      <trkpt lat="43.76639" lon="6.4062">
        <ele>1125.3603516</ele>
        <time>2010-04-17T07:24:24Z</time>
      </trkpt>
      <trkpt lat="43.76659" lon="6.40617">
        <ele>1126.8024902</ele>
        <time>2010-04-17T07:24:32Z</time>
      </trkpt>
      <trkpt lat="43.76674" lon="6.40606">
        <ele>1126.8024902</ele>
        <time>2010-04-17T07:24:38Z</time>
      </trkpt>
      <trkpt lat="43.76685" lon="6.40605">
        <ele>1133.5317383</ele>
        <time>2010-04-17T07:24:45Z</time>
      </trkpt>
      <trkpt lat="43.76697" lon="6.40601">
        <ele>1137.857666</ele>
        <time>2010-04-17T07:24:51Z</time>
      </trkpt>
      <trkpt lat="43.76702" lon="6.406">
        <ele>1137.3769531</ele>
        <time>2010-04-17T07:24:53Z</time>
      </trkpt>
      <trkpt lat="43.76706" lon="6.40601">
        <ele>1136.4157715</ele>
        <time>2010-04-17T07:24:56Z</time>
      </trkpt>
      <trkpt lat="43.76725" lon="6.40592">
        <ele>1134.973877</ele>
        <time>2010-04-17T07:25:04Z</time>
      </trkpt>
      <trkpt lat="43.76742" lon="6.40588">
        <ele>1135.4543457</ele>
        <time>2010-04-17T07:25:11Z</time>
      </trkpt>
      <trkpt lat="43.76743" lon="6.40588">
        <ele>1136.4157715</ele>
        <time>2010-04-17T07:25:12Z</time>
      </trkpt>
      <trkpt lat="43.76754" lon="6.40587">
        <ele>1136.8962402</ele>
        <time>2010-04-17T07:25:19Z</time>
      </trkpt>
      <trkpt lat="43.7677" lon="6.40587">
        <ele>1134.973877</ele>
        <time>2010-04-17T07:25:26Z</time>
      </trkpt>
      <trkpt lat="43.76786" lon="6.40589">
        <ele>1136.8962402</ele>
        <time>2010-04-17T07:25:34Z</time>
      </trkpt>
      <trkpt lat="43.76802" lon="6.40594">
        <ele>1136.8962402</ele>
        <time>2010-04-17T07:25:41Z</time>
      </trkpt>
      <trkpt lat="43.76818" lon="6.40611">
        <ele>1138.3383789</ele>
        <time>2010-04-17T07:25:49Z</time>
      </trkpt>
      <trkpt lat="43.76831" lon="6.40632">
        <ele>1139.2995605</ele>
        <time>2010-04-17T07:25:56Z</time>
      </trkpt>
      <trkpt lat="43.76845" lon="6.40649">
        <ele>1142.6643066</ele>
        <time>2010-04-17T07:26:04Z</time>
      </trkpt>
      <trkpt lat="43.76859" lon="6.40657">
        <ele>1145.5480957</ele>
        <time>2010-04-17T07:26:11Z</time>
      </trkpt>
      <trkpt lat="43.76869" lon="6.40652">
        <ele>1146.9899902</ele>
        <time>2010-04-17T07:26:17Z</time>
      </trkpt>
      <trkpt lat="43.7688" lon="6.40644">
        <ele>1149.3935547</ele>
        <time>2010-04-17T07:26:24Z</time>
      </trkpt>
      <trkpt lat="43.76894" lon="6.40637">
        <ele>1151.3161621</ele>
        <time>2010-04-17T07:26:31Z</time>
      </trkpt>
      <trkpt lat="43.76907" lon="6.40635">
        <ele>1159.4873047</ele>
        <time>2010-04-17T07:26:40Z</time>
      </trkpt>
      <trkpt lat="43.76921" lon="6.40628">
        <ele>1159.9677734</ele>
        <time>2010-04-17T07:26:48Z</time>
      </trkpt>
      <trkpt lat="43.76939" lon="6.40616">
        <ele>1159.4873047</ele>
        <time>2010-04-17T07:26:58Z</time>
      </trkpt>
      <trkpt lat="43.76954" lon="6.40612">
        <ele>1160.9291992</ele>
        <time>2010-04-17T07:27:07Z</time>
      </trkpt>
      <trkpt lat="43.76966" lon="6.40604">
        <ele>1160.4484863</ele>
        <time>2010-04-17T07:27:14Z</time>
      </trkpt>
      <trkpt lat="43.76977" lon="6.4059">
        <ele>1161.4099121</ele>
        <time>2010-04-17T07:27:22Z</time>
      </trkpt>
      <trkpt lat="43.76988" lon="6.40585">
        <ele>1162.3710938</ele>
        <time>2010-04-17T07:27:28Z</time>
      </trkpt>
      <trkpt lat="43.76999" lon="6.40581">
        <ele>1163.3325195</ele>
        <time>2010-04-17T07:27:36Z</time>
      </trkpt>
      <trkpt lat="43.77002" lon="6.4058">
        <ele>1161.890625</ele>
        <time>2010-04-17T07:27:40Z</time>
      </trkpt>
      <trkpt lat="43.77003" lon="6.4058">
        <ele>1158.5258789</ele>
        <time>2010-04-17T07:28:02Z</time>
      </trkpt>
      <trkpt lat="43.77003" lon="6.4058">
        <ele>1157.0839844</ele>
        <time>2010-04-17T07:28:15Z</time>
      </trkpt>
      <trkpt lat="43.77002" lon="6.40579">
        <ele>1156.1225586</ele>
        <time>2010-04-17T07:28:24Z</time>
      </trkpt>
      <trkpt lat="43.77002" lon="6.40579">
        <ele>1155.6420898</ele>
        <time>2010-04-17T07:28:32Z</time>
      </trkpt>
      <trkpt lat="43.77001" lon="6.40578">
        <ele>1155.161377</ele>
        <time>2010-04-17T07:28:48Z</time>
      </trkpt>
      <trkpt lat="43.77002" lon="6.40578">
        <ele>1153.2387695</ele>
        <time>2010-04-17T07:28:56Z</time>
      </trkpt>
      <trkpt lat="43.77004" lon="6.40578">
        <ele>1154.6806641</ele>
        <time>2010-04-17T07:29:01Z</time>
      </trkpt>
      <trkpt lat="43.77005" lon="6.40579">
        <ele>1157.5646973</ele>
        <time>2010-04-17T07:29:41Z</time>
      </trkpt>
      <trkpt lat="43.77004" lon="6.4058">
        <ele>1159.9677734</ele>
        <time>2010-04-17T07:29:46Z</time>
      </trkpt>
      <trkpt lat="43.7702" lon="6.40571">
        <ele>1161.890625</ele>
        <time>2010-04-17T07:29:52Z</time>
      </trkpt>
      <trkpt lat="43.77034" lon="6.40561">
        <ele>1163.8129883</ele>
        <time>2010-04-17T07:29:55Z</time>
      </trkpt>
      <trkpt lat="43.77068" lon="6.40548">
        <ele>1160.9291992</ele>
        <time>2010-04-17T07:30:01Z</time>
      </trkpt>
      <trkpt lat="43.77082" lon="6.40533">
        <ele>1157.0839844</ele>
        <time>2010-04-17T07:30:04Z</time>
      </trkpt>
      <trkpt lat="43.77088" lon="6.40526">
        <ele>1155.6420898</ele>
        <time>2010-04-17T07:30:05Z</time>
      </trkpt>
      <trkpt lat="43.77108" lon="6.40506">
        <ele>1150.8354492</ele>
        <time>2010-04-17T07:30:08Z</time>
      </trkpt>
      <trkpt lat="43.7713" lon="6.40482">
        <ele>1145.5480957</ele>
        <time>2010-04-17T07:30:12Z</time>
      </trkpt>
      <trkpt lat="43.77169" lon="6.40453">
        <ele>1136.8962402</ele>
        <time>2010-04-17T07:30:18Z</time>
      </trkpt>
      <trkpt lat="43.77185" lon="6.40442">
        <ele>1131.6088867</ele>
        <time>2010-04-17T07:30:21Z</time>
      </trkpt>
      <trkpt lat="43.77206" lon="6.40428">
        <ele>1124.8798828</ele>
        <time>2010-04-17T07:30:25Z</time>
      </trkpt>
      <trkpt lat="43.77223" lon="6.40411">
        <ele>1121.5151367</ele>
        <time>2010-04-17T07:30:28Z</time>
      </trkpt>
      <trkpt lat="43.77232" lon="6.40397">
        <ele>1119.1120605</ele>
        <time>2010-04-17T07:30:30Z</time>
      </trkpt>
      <trkpt lat="43.7725" lon="6.40387">
        <ele>1114.7858887</ele>
        <time>2010-04-17T07:30:34Z</time>
      </trkpt>
      <trkpt lat="43.77255" lon="6.40402">
        <ele>1111.9020996</ele>
        <time>2010-04-17T07:30:37Z</time>
      </trkpt>
      <trkpt lat="43.7726" lon="6.40418">
        <ele>1107.5761719</ele>
        <time>2010-04-17T07:30:42Z</time>
      </trkpt>
      <trkpt lat="43.77261" lon="6.40422">
        <ele>1105.6535645</ele>
        <time>2010-04-17T07:30:47Z</time>
      </trkpt>
      <trkpt lat="43.77261" lon="6.40424">
        <ele>1105.1728516</ele>
        <time>2010-04-17T07:30:48Z</time>
      </trkpt>
      <trkpt lat="43.77263" lon="6.40426">
        <ele>1103.730957</ele>
        <time>2010-04-17T07:30:52Z</time>
      </trkpt>
      <trkpt lat="43.77273" lon="6.40425">
        <ele>1105.6535645</ele>
        <time>2010-04-17T07:30:58Z</time>
      </trkpt>
      <trkpt lat="43.77279" lon="6.40426">
        <ele>1104.6921387</ele>
        <time>2010-04-17T07:31:02Z</time>
      </trkpt>
      <trkpt lat="43.7728" lon="6.40429">
        <ele>1102.2888184</ele>
        <time>2010-04-17T07:31:06Z</time>
      </trkpt>
      <trkpt lat="43.77279" lon="6.40431">
        <ele>1101.3276367</ele>
        <time>2010-04-17T07:31:13Z</time>
      </trkpt>
      <trkpt lat="43.77277" lon="6.40437">
        <ele>1096.5209961</ele>
        <time>2010-04-17T07:31:19Z</time>
      </trkpt>
      <trkpt lat="43.77277" lon="6.40435">
        <ele>1093.15625</ele>
        <time>2010-04-17T07:31:22Z</time>
      </trkpt>
      <trkpt lat="43.77287" lon="6.40417">
        <ele>1088.3498535</ele>
        <time>2010-04-17T07:31:28Z</time>
      </trkpt>
      <trkpt lat="43.77294" lon="6.40408">
        <ele>1087.3884277</ele>
        <time>2010-04-17T07:31:30Z</time>
      </trkpt>
      <trkpt lat="43.77319" lon="6.40383">
        <ele>1079.217041</ele>
        <time>2010-04-17T07:31:35Z</time>
      </trkpt>
      <trkpt lat="43.77331" lon="6.40362">
        <ele>1071.0461426</ele>
        <time>2010-04-17T07:31:39Z</time>
      </trkpt>
      <trkpt lat="43.77342" lon="6.40337">
        <ele>1063.8359375</ele>
        <time>2010-04-17T07:31:43Z</time>
      </trkpt>
      <trkpt lat="43.7736" lon="6.40295">
        <ele>1060.9521484</ele>
        <time>2010-04-17T07:31:49Z</time>
      </trkpt>
      <trkpt lat="43.77368" lon="6.4027">
        <ele>1058.0683594</ele>
        <time>2010-04-17T07:31:54Z</time>
      </trkpt>
      <trkpt lat="43.77389" lon="6.40251">
        <ele>1052.300293</ele>
        <time>2010-04-17T07:31:58Z</time>
      </trkpt>
      <trkpt lat="43.77392" lon="6.40235">
        <ele>1043.6484375</ele>
        <time>2010-04-17T07:32:01Z</time>
      </trkpt>
      <trkpt lat="43.77392" lon="6.40223">
        <ele>1039.8032227</ele>
        <time>2010-04-17T07:32:03Z</time>
      </trkpt>
      <trkpt lat="43.7739" lon="6.40186">
        <ele>1032.5932617</ele>
        <time>2010-04-17T07:32:08Z</time>
      </trkpt>
      <trkpt lat="43.77402" lon="6.40153">
        <ele>1027.7866211</ele>
        <time>2010-04-17T07:32:12Z</time>
      </trkpt>
      <trkpt lat="43.77412" lon="6.40127">
        <ele>1025.3833008</ele>
        <time>2010-04-17T07:32:15Z</time>
      </trkpt>
      <trkpt lat="43.77433" lon="6.40091">
        <ele>1025.8640137</ele>
        <time>2010-04-17T07:32:20Z</time>
      </trkpt>
      <trkpt lat="43.77458" lon="6.40071">
        <ele>1027.7866211</ele>
        <time>2010-04-17T07:32:24Z</time>
      </trkpt>
      <trkpt lat="43.77465" lon="6.40056">
        <ele>1022.4995117</ele>
        <time>2010-04-17T07:32:27Z</time>
      </trkpt>
      <trkpt lat="43.7748" lon="6.40033">
        <ele>1018.6540527</ele>
        <time>2010-04-17T07:32:32Z</time>
      </trkpt>
      <trkpt lat="43.77494" lon="6.40036">
        <ele>1015.7702637</ele>
        <time>2010-04-17T07:32:34Z</time>
      </trkpt>
      <trkpt lat="43.77503" lon="6.40037">
        <ele>1011.9250488</ele>
        <time>2010-04-17T07:32:36Z</time>
      </trkpt>
      <trkpt lat="43.77516" lon="6.40038">
        <ele>1008.079834</ele>
        <time>2010-04-17T07:32:39Z</time>
      </trkpt>
      <trkpt lat="43.77521" lon="6.40013">
        <ele>1003.7536621</ele>
        <time>2010-04-17T07:32:43Z</time>
      </trkpt>
      <trkpt lat="43.77515" lon="6.39998">
        <ele>1004.7150879</ele>
        <time>2010-04-17T07:32:45Z</time>
      </trkpt>
      <trkpt lat="43.77509" lon="6.39983">
        <ele>1003.2729492</ele>
        <time>2010-04-17T07:32:47Z</time>
      </trkpt>
      <trkpt lat="43.77498" lon="6.39964">
        <ele>1002.3115234</ele>
        <time>2010-04-17T07:32:51Z</time>
      </trkpt>
      <trkpt lat="43.77494" lon="6.39949">
        <ele>1000.8696289</ele>
        <time>2010-04-17T07:32:55Z</time>
      </trkpt>
      <trkpt lat="43.77499" lon="6.39945">
        <ele>1000.8696289</ele>
        <time>2010-04-17T07:32:56Z</time>
      </trkpt>
      <trkpt lat="43.77521" lon="6.39918">
        <ele>997.505127</ele>
        <time>2010-04-17T07:33:01Z</time>
      </trkpt>
      <trkpt lat="43.77535" lon="6.39885">
        <ele>988.3728027</ele>
        <time>2010-04-17T07:33:05Z</time>
      </trkpt>
      <trkpt lat="43.77533" lon="6.39868">
        <ele>985.9692383</ele>
        <time>2010-04-17T07:33:07Z</time>
      </trkpt>
      <trkpt lat="43.77528" lon="6.39848">
        <ele>985.0080566</ele>
        <time>2010-04-17T07:33:11Z</time>
      </trkpt>
      <trkpt lat="43.77528" lon="6.39848">
        <ele>986.4499512</ele>
        <time>2010-04-17T07:33:14Z</time>
      </trkpt>
      <trkpt lat="43.77527" lon="6.39848">
        <ele>986.9304199</ele>
        <time>2010-04-17T07:33:15Z</time>
      </trkpt>
      <trkpt lat="43.77521" lon="6.39845">
        <ele>991.7373047</ele>
        <time>2010-04-17T07:33:22Z</time>
      </trkpt>
      <trkpt lat="43.77518" lon="6.39844">
        <ele>991.2565918</ele>
        <time>2010-04-17T07:33:27Z</time>
      </trkpt>
      <trkpt lat="43.77518" lon="6.39842">
        <ele>992.6987305</ele>
        <time>2010-04-17T07:33:32Z</time>
      </trkpt>
      <trkpt lat="43.77521" lon="6.39841">
        <ele>995.1018066</ele>
        <time>2010-04-17T07:33:39Z</time>
      </trkpt>
      <trkpt lat="43.77525" lon="6.39835">
        <ele>998.4663086</ele>
        <time>2010-04-17T07:33:46Z</time>
      </trkpt>
      <trkpt lat="43.77525" lon="6.39831">
        <ele>998.4663086</ele>
        <time>2010-04-17T07:33:49Z</time>
      </trkpt>
      <trkpt lat="43.77529" lon="6.39824">
        <ele>998.4663086</ele>
        <time>2010-04-17T07:33:55Z</time>
      </trkpt>
      <trkpt lat="43.77528" lon="6.39827">
        <ele>997.505127</ele>
        <time>2010-04-17T07:34:06Z</time>
      </trkpt>
      <trkpt lat="43.77527" lon="6.3983">
        <ele>997.505127</ele>
        <time>2010-04-17T07:34:17Z</time>
      </trkpt>
      <trkpt lat="43.77526" lon="6.39833">
        <ele>998.4663086</ele>
        <time>2010-04-17T07:34:31Z</time>
      </trkpt>
      <trkpt lat="43.77525" lon="6.39834">
        <ele>999.4277344</ele>
        <time>2010-04-17T07:34:43Z</time>
      </trkpt>
      <trkpt lat="43.77525" lon="6.39835">
        <ele>999.4277344</ele>
        <time>2010-04-17T07:34:56Z</time>
      </trkpt>
      <trkpt lat="43.77526" lon="6.39832">
        <ele>995.5825195</ele>
        <time>2010-04-17T07:35:18Z</time>
      </trkpt>
      <trkpt lat="43.77524" lon="6.39834">
        <ele>996.5439453</ele>
        <time>2010-04-17T07:35:33Z</time>
      </trkpt>
      <trkpt lat="43.77524" lon="6.39834">
        <ele>997.505127</ele>
        <time>2010-04-17T07:35:48Z</time>
      </trkpt>
      <trkpt lat="43.77525" lon="6.39825">
        <ele>995.1018066</ele>
        <time>2010-04-17T07:35:53Z</time>
      </trkpt>
      <trkpt lat="43.77525" lon="6.39823">
        <ele>994.6210938</ele>
        <time>2010-04-17T07:35:54Z</time>
      </trkpt>
      <trkpt lat="43.77527" lon="6.39807">
        <ele>996.5439453</ele>
        <time>2010-04-17T07:36:00Z</time>
      </trkpt>
      <trkpt lat="43.77525" lon="6.39789">
        <ele>997.0244141</ele>
        <time>2010-04-17T07:36:04Z</time>
      </trkpt>
      <trkpt lat="43.77525" lon="6.39773">
        <ele>997.9858398</ele>
        <time>2010-04-17T07:36:08Z</time>
      </trkpt>
      <trkpt lat="43.77526" lon="6.39758">
        <ele>998.4663086</ele>
        <time>2010-04-17T07:36:13Z</time>
      </trkpt>
      <trkpt lat="43.77525" lon="6.39742">
        <ele>997.9858398</ele>
        <time>2010-04-17T07:36:18Z</time>
      </trkpt>
      <trkpt lat="43.77526" lon="6.39733">
        <ele>997.505127</ele>
        <time>2010-04-17T07:36:20Z</time>
      </trkpt>
      <trkpt lat="43.77526" lon="6.39721">
        <ele>996.5439453</ele>
        <time>2010-04-17T07:36:24Z</time>
      </trkpt>
      <trkpt lat="43.77525" lon="6.39715">
        <ele>995.5825195</ele>
        <time>2010-04-17T07:36:30Z</time>
      </trkpt>
      <trkpt lat="43.77526" lon="6.3971">
        <ele>995.1018066</ele>
        <time>2010-04-17T07:36:31Z</time>
      </trkpt>
      <trkpt lat="43.77523" lon="6.39689">
        <ele>993.1791992</ele>
        <time>2010-04-17T07:36:36Z</time>
      </trkpt>
      <trkpt lat="43.77523" lon="6.39681">
        <ele>991.2565918</ele>
        <time>2010-04-17T07:36:42Z</time>
      </trkpt>
      <trkpt lat="43.77521" lon="6.39669">
        <ele>991.2565918</ele>
        <time>2010-04-17T07:36:47Z</time>
      </trkpt>
      <trkpt lat="43.77521" lon="6.39649">
        <ele>990.2954102</ele>
        <time>2010-04-17T07:36:51Z</time>
      </trkpt>
      <trkpt lat="43.7752" lon="6.39624">
        <ele>988.8535156</ele>
        <time>2010-04-17T07:36:55Z</time>
      </trkpt>
      <trkpt lat="43.7752" lon="6.39609">
        <ele>987.8918457</ele>
        <time>2010-04-17T07:36:57Z</time>
      </trkpt>
      <trkpt lat="43.7752" lon="6.39583">
        <ele>986.9304199</ele>
        <time>2010-04-17T07:37:01Z</time>
      </trkpt>
      <trkpt lat="43.7752" lon="6.39567">
        <ele>984.5273438</ele>
        <time>2010-04-17T07:37:03Z</time>
      </trkpt>
      <trkpt lat="43.7752" lon="6.39544">
        <ele>981.6433105</ele>
        <time>2010-04-17T07:37:07Z</time>
      </trkpt>
      <trkpt lat="43.77521" lon="6.39536">
        <ele>980.6821289</ele>
        <time>2010-04-17T07:37:09Z</time>
      </trkpt>
      <trkpt lat="43.77524" lon="6.39525">
        <ele>980.201416</ele>
        <time>2010-04-17T07:37:11Z</time>
      </trkpt>
      <trkpt lat="43.77528" lon="6.39514">
        <ele>979.7207031</ele>
        <time>2010-04-17T07:37:13Z</time>
      </trkpt>
      <trkpt lat="43.77531" lon="6.39488">
        <ele>979.2399902</ele>
        <time>2010-04-17T07:37:17Z</time>
      </trkpt>
      <trkpt lat="43.77532" lon="6.39476">
        <ele>979.2399902</ele>
        <time>2010-04-17T07:37:19Z</time>
      </trkpt>
      <trkpt lat="43.77534" lon="6.39469">
        <ele>978.7595215</ele>
        <time>2010-04-17T07:37:23Z</time>
      </trkpt>
      <trkpt lat="43.77539" lon="6.39458">
        <ele>980.201416</ele>
        <time>2010-04-17T07:37:28Z</time>
      </trkpt>
      <trkpt lat="43.77539" lon="6.39453">
        <ele>980.201416</ele>
        <time>2010-04-17T07:37:29Z</time>
      </trkpt>
      <trkpt lat="43.77541" lon="6.39444">
        <ele>980.201416</ele>
        <time>2010-04-17T07:37:31Z</time>
      </trkpt>
      <trkpt lat="43.77546" lon="6.39435">
        <ele>982.1240234</ele>
        <time>2010-04-17T07:37:36Z</time>
      </trkpt>
      <trkpt lat="43.77549" lon="6.39434">
        <ele>982.6047363</ele>
        <time>2010-04-17T07:37:40Z</time>
      </trkpt>
      <trkpt lat="43.77546" lon="6.39418">
        <ele>981.6433105</ele>
        <time>2010-04-17T07:37:46Z</time>
      </trkpt>
      <trkpt lat="43.77543" lon="6.39404">
        <ele>980.201416</ele>
        <time>2010-04-17T07:37:49Z</time>
      </trkpt>
      <trkpt lat="43.77547" lon="6.39387">
        <ele>977.7980957</ele>
        <time>2010-04-17T07:37:53Z</time>
      </trkpt>
      <trkpt lat="43.77546" lon="6.39385">
        <ele>976.8369141</ele>
        <time>2010-04-17T07:37:57Z</time>
      </trkpt>
      <trkpt lat="43.77547" lon="6.39385">
        <ele>976.8369141</ele>
        <time>2010-04-17T07:38:06Z</time>
      </trkpt>
      <trkpt lat="43.77548" lon="6.39382">
        <ele>976.8369141</ele>
        <time>2010-04-17T07:38:13Z</time>
      </trkpt>
      <trkpt lat="43.77546" lon="6.39377">
        <ele>975.8754883</ele>
        <time>2010-04-17T07:38:19Z</time>
      </trkpt>
      <trkpt lat="43.77545" lon="6.39374">
        <ele>976.3562012</ele>
        <time>2010-04-17T07:38:22Z</time>
      </trkpt>
      <trkpt lat="43.7754" lon="6.39369">
        <ele>975.3947754</ele>
        <time>2010-04-17T07:38:29Z</time>
      </trkpt>
      <trkpt lat="43.77541" lon="6.39364">
        <ele>969.6269531</ele>
        <time>2010-04-17T07:38:40Z</time>
      </trkpt>
      <trkpt lat="43.77541" lon="6.39363">
        <ele>968.6655273</ele>
        <time>2010-04-17T07:38:54Z</time>
      </trkpt>
      <trkpt lat="43.7754" lon="6.39363">
        <ele>969.1462402</ele>
        <time>2010-04-17T07:39:21Z</time>
      </trkpt>
      <trkpt lat="43.77541" lon="6.39363">
        <ele>969.6269531</ele>
        <time>2010-04-17T07:39:33Z</time>
      </trkpt>
      <trkpt lat="43.77541" lon="6.39363">
        <ele>970.5881348</ele>
        <time>2010-04-17T07:39:43Z</time>
      </trkpt>
      <trkpt lat="43.77541" lon="6.39363">
        <ele>969.6269531</ele>
        <time>2010-04-17T07:39:59Z</time>
      </trkpt>
      <trkpt lat="43.77541" lon="6.39362">
        <ele>969.6269531</ele>
        <time>2010-04-17T07:40:16Z</time>
      </trkpt>
      <trkpt lat="43.7754" lon="6.39362">
        <ele>968.6655273</ele>
        <time>2010-04-17T07:40:25Z</time>
      </trkpt>
      <trkpt lat="43.77541" lon="6.39362">
        <ele>969.1462402</ele>
        <time>2010-04-17T07:40:38Z</time>
      </trkpt>
      <trkpt lat="43.7754" lon="6.39363">
        <ele>969.6269531</ele>
        <time>2010-04-17T07:40:50Z</time>
      </trkpt>
      <trkpt lat="43.77542" lon="6.39362">
        <ele>971.0688477</ele>
        <time>2010-04-17T07:41:04Z</time>
      </trkpt>
      <trkpt lat="43.77542" lon="6.39362">
        <ele>972.0302734</ele>
        <time>2010-04-17T07:41:14Z</time>
      </trkpt>
      <trkpt lat="43.77542" lon="6.39362">
        <ele>971.0688477</ele>
        <time>2010-04-17T07:41:25Z</time>
      </trkpt>
      <trkpt lat="43.77541" lon="6.39363">
        <ele>970.1074219</ele>
        <time>2010-04-17T07:41:36Z</time>
      </trkpt>
      <trkpt lat="43.77541" lon="6.39362">
        <ele>969.6269531</ele>
        <time>2010-04-17T07:41:49Z</time>
      </trkpt>
      <trkpt lat="43.77544" lon="6.39361">
        <ele>972.9916992</ele>
        <time>2010-04-17T07:42:27Z</time>
      </trkpt>
      <trkpt lat="43.77545" lon="6.39361">
        <ele>974.4335938</ele>
        <time>2010-04-17T07:45:35Z</time>
      </trkpt>
      <trkpt lat="43.77543" lon="6.39362">
        <ele>972.0302734</ele>
        <time>2010-04-17T07:45:47Z</time>
      </trkpt>
      <trkpt lat="43.77543" lon="6.39366">
        <ele>974.9143066</ele>
        <time>2010-04-17T07:45:58Z</time>
      </trkpt>
      <trkpt lat="43.77543" lon="6.39367">
        <ele>974.4335938</ele>
        <time>2010-04-17T07:46:00Z</time>
      </trkpt>
      <trkpt lat="43.77548" lon="6.3938">
        <ele>972.5109863</ele>
        <time>2010-04-17T07:46:07Z</time>
      </trkpt>
      <trkpt lat="43.77545" lon="6.39399">
        <ele>973.4724121</ele>
        <time>2010-04-17T07:46:14Z</time>
      </trkpt>
      <trkpt lat="43.77544" lon="6.39415">
        <ele>976.8369141</ele>
        <time>2010-04-17T07:46:20Z</time>
      </trkpt>
      <trkpt lat="43.77544" lon="6.39418">
        <ele>977.7980957</ele>
        <time>2010-04-17T07:46:23Z</time>
      </trkpt>
      <trkpt lat="43.77547" lon="6.39421">
        <ele>976.3562012</ele>
        <time>2010-04-17T07:46:30Z</time>
      </trkpt>
      <trkpt lat="43.77546" lon="6.39422">
        <ele>975.8754883</ele>
        <time>2010-04-17T07:46:32Z</time>
      </trkpt>
      <trkpt lat="43.77547" lon="6.39429">
        <ele>977.7980957</ele>
        <time>2010-04-17T07:46:37Z</time>
      </trkpt>
      <trkpt lat="43.77547" lon="6.39432">
        <ele>978.2788086</ele>
        <time>2010-04-17T07:46:43Z</time>
      </trkpt>
      <trkpt lat="43.77548" lon="6.39432">
        <ele>977.317627</ele>
        <time>2010-04-17T07:46:54Z</time>
      </trkpt>
      <trkpt lat="43.77547" lon="6.3943">
        <ele>976.8369141</ele>
        <time>2010-04-17T07:47:03Z</time>
      </trkpt>
      <trkpt lat="43.77548" lon="6.3943">
        <ele>975.8754883</ele>
        <time>2010-04-17T07:47:12Z</time>
      </trkpt>
      <trkpt lat="43.77547" lon="6.39429">
        <ele>977.7980957</ele>
        <time>2010-04-17T07:47:25Z</time>
      </trkpt>
      <trkpt lat="43.77547" lon="6.39428">
        <ele>978.2788086</ele>
        <time>2010-04-17T07:47:38Z</time>
      </trkpt>
      <trkpt lat="43.77547" lon="6.39428">
        <ele>978.7595215</ele>
        <time>2010-04-17T07:47:50Z</time>
      </trkpt>
      <trkpt lat="43.77547" lon="6.39427">
        <ele>978.7595215</ele>
        <time>2010-04-17T07:48:00Z</time>
      </trkpt>
      <trkpt lat="43.77546" lon="6.39429">
        <ele>979.2399902</ele>
        <time>2010-04-17T07:48:04Z</time>
      </trkpt>
      <trkpt lat="43.77541" lon="6.3944">
        <ele>977.7980957</ele>
        <time>2010-04-17T07:48:09Z</time>
      </trkpt>
      <trkpt lat="43.7754" lon="6.39442">
        <ele>977.7980957</ele>
        <time>2010-04-17T07:48:10Z</time>
      </trkpt>
      <trkpt lat="43.77539" lon="6.39458">
        <ele>976.8369141</ele>
        <time>2010-04-17T07:48:14Z</time>
      </trkpt>
      <trkpt lat="43.77534" lon="6.39469">
        <ele>975.3947754</ele>
        <time>2010-04-17T07:48:18Z</time>
      </trkpt>
      <trkpt lat="43.7753" lon="6.39479">
        <ele>976.3562012</ele>
        <time>2010-04-17T07:48:22Z</time>
      </trkpt>
      <trkpt lat="43.77529" lon="6.39489">
        <ele>976.8369141</ele>
        <time>2010-04-17T07:48:24Z</time>
      </trkpt>
      <trkpt lat="43.77527" lon="6.39515">
        <ele>977.317627</ele>
        <time>2010-04-17T07:48:29Z</time>
      </trkpt>
      <trkpt lat="43.77519" lon="6.3954">
        <ele>980.201416</ele>
        <time>2010-04-17T07:48:34Z</time>
      </trkpt>
      <trkpt lat="43.77518" lon="6.39555">
        <ele>982.1240234</ele>
        <time>2010-04-17T07:48:39Z</time>
      </trkpt>
      <trkpt lat="43.77519" lon="6.39569">
        <ele>982.6047363</ele>
        <time>2010-04-17T07:48:44Z</time>
      </trkpt>
      <trkpt lat="43.77519" lon="6.39583">
        <ele>984.0466309</ele>
        <time>2010-04-17T07:48:49Z</time>
      </trkpt>
      <trkpt lat="43.77518" lon="6.39596">
        <ele>985.9692383</ele>
        <time>2010-04-17T07:48:55Z</time>
      </trkpt>
      <trkpt lat="43.77518" lon="6.39599">
        <ele>985.9692383</ele>
        <time>2010-04-17T07:48:56Z</time>
      </trkpt>
      <trkpt lat="43.7752" lon="6.39609">
        <ele>985.9692383</ele>
        <time>2010-04-17T07:49:00Z</time>
      </trkpt>
      <trkpt lat="43.77519" lon="6.39631">
        <ele>987.8918457</ele>
        <time>2010-04-17T07:49:09Z</time>
      </trkpt>
      <trkpt lat="43.77521" lon="6.39633">
        <ele>986.9304199</ele>
        <time>2010-04-17T07:49:13Z</time>
      </trkpt>
      <trkpt lat="43.77521" lon="6.39632">
        <ele>986.9304199</ele>
        <time>2010-04-17T07:49:24Z</time>
      </trkpt>
      <trkpt lat="43.77521" lon="6.3963">
        <ele>986.9304199</ele>
        <time>2010-04-17T07:49:31Z</time>
      </trkpt>
      <trkpt lat="43.77521" lon="6.39631">
        <ele>986.4499512</ele>
        <time>2010-04-17T07:49:40Z</time>
      </trkpt>
      <trkpt lat="43.77521" lon="6.39636">
        <ele>985.9692383</ele>
        <time>2010-04-17T07:49:45Z</time>
      </trkpt>
      <trkpt lat="43.77521" lon="6.39637">
        <ele>986.4499512</ele>
        <time>2010-04-17T07:49:46Z</time>
      </trkpt>
      <trkpt lat="43.77521" lon="6.39651">
        <ele>987.8918457</ele>
        <time>2010-04-17T07:49:51Z</time>
      </trkpt>
      <trkpt lat="43.77522" lon="6.39667">
        <ele>989.8146973</ele>
        <time>2010-04-17T07:49:57Z</time>
      </trkpt>
      <trkpt lat="43.77524" lon="6.39685">
        <ele>990.7758789</ele>
        <time>2010-04-17T07:50:03Z</time>
      </trkpt>
      <trkpt lat="43.77528" lon="6.39702">
        <ele>992.2180176</ele>
        <time>2010-04-17T07:50:10Z</time>
      </trkpt>
      <trkpt lat="43.77526" lon="6.39717">
        <ele>993.1791992</ele>
        <time>2010-04-17T07:50:16Z</time>
      </trkpt>
      <trkpt lat="43.77527" lon="6.39734">
        <ele>995.1018066</ele>
        <time>2010-04-17T07:50:24Z</time>
      </trkpt>
      <trkpt lat="43.77526" lon="6.39751">
        <ele>996.5439453</ele>
        <time>2010-04-17T07:50:31Z</time>
      </trkpt>
      <trkpt lat="43.77527" lon="6.39756">
        <ele>996.0632324</ele>
        <time>2010-04-17T07:50:32Z</time>
      </trkpt>
      <trkpt lat="43.77525" lon="6.39768">
        <ele>996.5439453</ele>
        <time>2010-04-17T07:50:36Z</time>
      </trkpt>
      <trkpt lat="43.77526" lon="6.3979">
        <ele>996.5439453</ele>
        <time>2010-04-17T07:50:44Z</time>
      </trkpt>
      <trkpt lat="43.77527" lon="6.39793">
        <ele>996.5439453</ele>
        <time>2010-04-17T07:50:45Z</time>
      </trkpt>
      <trkpt lat="43.77528" lon="6.39808">
        <ele>997.0244141</ele>
        <time>2010-04-17T07:50:52Z</time>
      </trkpt>
      <trkpt lat="43.77527" lon="6.3982">
        <ele>997.0244141</ele>
        <time>2010-04-17T07:50:58Z</time>
      </trkpt>
      <trkpt lat="43.77524" lon="6.39834">
        <ele>994.6210938</ele>
        <time>2010-04-17T07:51:04Z</time>
      </trkpt>
      <trkpt lat="43.77518" lon="6.39844">
        <ele>991.7373047</ele>
        <time>2010-04-17T07:51:10Z</time>
      </trkpt>
      <trkpt lat="43.77518" lon="6.39845">
        <ele>991.2565918</ele>
        <time>2010-04-17T07:51:11Z</time>
      </trkpt>
      <trkpt lat="43.77516" lon="6.39848">
        <ele>990.2954102</ele>
        <time>2010-04-17T07:51:14Z</time>
      </trkpt>
      <trkpt lat="43.7752" lon="6.39854">
        <ele>988.3728027</ele>
        <time>2010-04-17T07:51:19Z</time>
      </trkpt>
      <trkpt lat="43.77523" lon="6.39852">
        <ele>987.4111328</ele>
        <time>2010-04-17T07:51:21Z</time>
      </trkpt>
      <trkpt lat="43.77526" lon="6.39866">
        <ele>987.4111328</ele>
        <time>2010-04-17T07:51:26Z</time>
      </trkpt>
      <trkpt lat="43.77521" lon="6.39863">
        <ele>986.9304199</ele>
        <time>2010-04-17T07:51:29Z</time>
      </trkpt>
      <trkpt lat="43.77522" lon="6.39865">
        <ele>984.0466309</ele>
        <time>2010-04-17T07:51:35Z</time>
      </trkpt>
      <trkpt lat="43.77522" lon="6.39869">
        <ele>985.9692383</ele>
        <time>2010-04-17T07:51:57Z</time>
      </trkpt>
      <trkpt lat="43.77519" lon="6.39868">
        <ele>985.4885254</ele>
        <time>2010-04-17T07:52:04Z</time>
      </trkpt>
      <trkpt lat="43.77519" lon="6.39869">
        <ele>985.4885254</ele>
        <time>2010-04-17T07:52:06Z</time>
      </trkpt>
      <trkpt lat="43.77524" lon="6.39873">
        <ele>986.4499512</ele>
        <time>2010-04-17T07:52:12Z</time>
      </trkpt>
      <trkpt lat="43.77529" lon="6.39879">
        <ele>994.6210938</ele>
        <time>2010-04-17T07:52:20Z</time>
      </trkpt>
      <trkpt lat="43.7753" lon="6.39898">
        <ele>992.6987305</ele>
        <time>2010-04-17T07:52:26Z</time>
      </trkpt>
      <trkpt lat="43.77528" lon="6.39904">
        <ele>992.2180176</ele>
        <time>2010-04-17T07:52:28Z</time>
      </trkpt>
      <trkpt lat="43.7752" lon="6.39919">
        <ele>994.6210938</ele>
        <time>2010-04-17T07:52:35Z</time>
      </trkpt>
      <trkpt lat="43.77513" lon="6.3993">
        <ele>995.1018066</ele>
        <time>2010-04-17T07:52:41Z</time>
      </trkpt>
      <trkpt lat="43.77511" lon="6.39943">
        <ele>997.0244141</ele>
        <time>2010-04-17T07:52:47Z</time>
      </trkpt>
      <trkpt lat="43.77506" lon="6.39944">
        <ele>997.9858398</ele>
        <time>2010-04-17T07:52:53Z</time>
      </trkpt>
      <trkpt lat="43.77507" lon="6.39944">
        <ele>997.9858398</ele>
        <time>2010-04-17T07:52:58Z</time>
      </trkpt>
      <trkpt lat="43.77509" lon="6.39946">
        <ele>995.1018066</ele>
        <time>2010-04-17T07:53:04Z</time>
      </trkpt>
      <trkpt lat="43.77508" lon="6.39948">
        <ele>992.2180176</ele>
        <time>2010-04-17T07:53:10Z</time>
      </trkpt>
      <trkpt lat="43.77506" lon="6.39946">
        <ele>995.1018066</ele>
        <time>2010-04-17T07:53:36Z</time>
      </trkpt>
      <trkpt lat="43.77498" lon="6.39947">
        <ele>998.4663086</ele>
        <time>2010-04-17T07:53:42Z</time>
      </trkpt>
      <trkpt lat="43.77493" lon="6.39952">
        <ele>998.9470215</ele>
        <time>2010-04-17T07:53:46Z</time>
      </trkpt>
      <trkpt lat="43.77494" lon="6.39962">
        <ele>1003.2729492</ele>
        <time>2010-04-17T07:53:51Z</time>
      </trkpt>
      <trkpt lat="43.77502" lon="6.39973">
        <ele>1002.7922363</ele>
        <time>2010-04-17T07:54:00Z</time>
      </trkpt>
      <trkpt lat="43.77508" lon="6.39982">
        <ele>1003.2729492</ele>
        <time>2010-04-17T07:54:07Z</time>
      </trkpt>
      <trkpt lat="43.77513" lon="6.39994">
        <ele>1007.1184082</ele>
        <time>2010-04-17T07:54:15Z</time>
      </trkpt>
      <trkpt lat="43.77518" lon="6.40006">
        <ele>1010.0021973</ele>
        <time>2010-04-17T07:54:22Z</time>
      </trkpt>
      <trkpt lat="43.77521" lon="6.40011">
        <ele>1014.328125</ele>
        <time>2010-04-17T07:54:28Z</time>
      </trkpt>
      <trkpt lat="43.77518" lon="6.40023">
        <ele>1016.7314453</ele>
        <time>2010-04-17T07:54:34Z</time>
      </trkpt>
      <trkpt lat="43.77509" lon="6.40028">
        <ele>1018.6540527</ele>
        <time>2010-04-17T07:54:42Z</time>
      </trkpt>
      <trkpt lat="43.77501" lon="6.40026">
        <ele>1020.0961914</ele>
        <time>2010-04-17T07:54:48Z</time>
      </trkpt>
      <trkpt lat="43.77496" lon="6.40027">
        <ele>1020.0961914</ele>
        <time>2010-04-17T07:54:54Z</time>
      </trkpt>
      <trkpt lat="43.77493" lon="6.40031">
        <ele>1019.6154785</ele>
        <time>2010-04-17T07:54:58Z</time>
      </trkpt>
      <trkpt lat="43.7748" lon="6.40039">
        <ele>1018.1733398</ele>
        <time>2010-04-17T07:55:06Z</time>
      </trkpt>
      <trkpt lat="43.77472" lon="6.40043">
        <ele>1019.6154785</ele>
        <time>2010-04-17T07:55:12Z</time>
      </trkpt>
      <trkpt lat="43.77469" lon="6.4005">
        <ele>1021.5380859</ele>
        <time>2010-04-17T07:55:17Z</time>
      </trkpt>
      <trkpt lat="43.77468" lon="6.4006">
        <ele>1023.9414062</ele>
        <time>2010-04-17T07:55:22Z</time>
      </trkpt>
      <trkpt lat="43.77464" lon="6.40073">
        <ele>1024.902832</ele>
        <time>2010-04-17T07:55:29Z</time>
      </trkpt>
      <trkpt lat="43.77455" lon="6.40079">
        <ele>1029.7092285</ele>
        <time>2010-04-17T07:55:38Z</time>
      </trkpt>
      <trkpt lat="43.77453" lon="6.40079">
        <ele>1030.1899414</ele>
        <time>2010-04-17T07:55:40Z</time>
      </trkpt>
      <trkpt lat="43.77447" lon="6.40081">
        <ele>1034.5158691</ele>
        <time>2010-04-17T07:55:46Z</time>
      </trkpt>
      <trkpt lat="43.77446" lon="6.40079">
        <ele>1034.5158691</ele>
        <time>2010-04-17T07:55:49Z</time>
      </trkpt>
      <trkpt lat="43.77449" lon="6.40082">
        <ele>1040.2839355</ele>
        <time>2010-04-17T07:55:55Z</time>
      </trkpt>
      <trkpt lat="43.77453" lon="6.40084">
        <ele>1045.5710449</ele>
        <time>2010-04-17T07:56:01Z</time>
      </trkpt>
      <trkpt lat="43.77452" lon="6.40091">
        <ele>1046.0517578</ele>
        <time>2010-04-17T07:56:06Z</time>
      </trkpt>
      <trkpt lat="43.77442" lon="6.40094">
        <ele>1034.996582</ele>
        <time>2010-04-17T07:56:12Z</time>
      </trkpt>
      <trkpt lat="43.77439" lon="6.40097">
        <ele>1035.4770508</ele>
        <time>2010-04-17T07:56:16Z</time>
      </trkpt>
      <trkpt lat="43.77439" lon="6.40102">
        <ele>1036.9191895</ele>
        <time>2010-04-17T07:56:22Z</time>
      </trkpt>
      <trkpt lat="43.77436" lon="6.4011">
        <ele>1036.4387207</ele>
        <time>2010-04-17T07:56:32Z</time>
      </trkpt>
      <trkpt lat="43.77432" lon="6.40122">
        <ele>1043.6484375</ele>
        <time>2010-04-17T07:56:39Z</time>
      </trkpt>
      <trkpt lat="43.77431" lon="6.40129">
        <ele>1047.9743652</ele>
        <time>2010-04-17T07:56:44Z</time>
      </trkpt>
      <trkpt lat="43.7743" lon="6.40135">
        <ele>1058.0683594</ele>
        <time>2010-04-17T07:56:50Z</time>
      </trkpt>
      <trkpt lat="43.77429" lon="6.40148">
        <ele>1060.4714355</ele>
        <time>2010-04-17T07:56:57Z</time>
      </trkpt>
      <trkpt lat="43.77426" lon="6.40155">
        <ele>1064.7973633</ele>
        <time>2010-04-17T07:57:03Z</time>
      </trkpt>
      <trkpt lat="43.77421" lon="6.40157">
        <ele>1062.394043</ele>
        <time>2010-04-17T07:57:07Z</time>
      </trkpt>
      <trkpt lat="43.77422" lon="6.40163">
        <ele>1067.2006836</ele>
        <time>2010-04-17T07:57:11Z</time>
      </trkpt>
      <trkpt lat="43.7742" lon="6.40176">
        <ele>1070.5654297</ele>
        <time>2010-04-17T07:57:16Z</time>
      </trkpt>
      <trkpt lat="43.77418" lon="6.40186">
        <ele>1067.2006836</ele>
        <time>2010-04-17T07:57:21Z</time>
      </trkpt>
      <trkpt lat="43.77411" lon="6.40202">
        <ele>1055.1843262</ele>
        <time>2010-04-17T07:57:28Z</time>
      </trkpt>
      <trkpt lat="43.7741" lon="6.4021">
        <ele>1053.7424316</ele>
        <time>2010-04-17T07:57:33Z</time>
      </trkpt>
      <trkpt lat="43.77408" lon="6.40216">
        <ele>1056.6262207</ele>
        <time>2010-04-17T07:57:37Z</time>
      </trkpt>
      <trkpt lat="43.77403" lon="6.40231">
        <ele>1056.6262207</ele>
        <time>2010-04-17T07:57:45Z</time>
      </trkpt>
      <trkpt lat="43.774" lon="6.40242">
        <ele>1056.1455078</ele>
        <time>2010-04-17T07:57:52Z</time>
      </trkpt>
      <trkpt lat="43.77397" lon="6.40251">
        <ele>1054.2231445</ele>
        <time>2010-04-17T07:57:58Z</time>
      </trkpt>
      <trkpt lat="43.77399" lon="6.40253">
        <ele>1052.7810059</ele>
        <time>2010-04-17T07:58:02Z</time>
      </trkpt>
      <trkpt lat="43.77403" lon="6.40243">
        <ele>1058.0683594</ele>
        <time>2010-04-17T08:00:45Z</time>
      </trkpt>
      <trkpt lat="43.77412" lon="6.40257">
        <ele>1056.6262207</ele>
        <time>2010-04-17T08:00:49Z</time>
      </trkpt>
      <trkpt lat="43.77423" lon="6.40279">
        <ele>1055.1843262</ele>
        <time>2010-04-17T08:00:55Z</time>
      </trkpt>
      <trkpt lat="43.77435" lon="6.40284">
        <ele>1059.9907227</ele>
        <time>2010-04-17T08:00:58Z</time>
      </trkpt>
      <trkpt lat="43.7745" lon="6.40279">
        <ele>1054.7036133</ele>
        <time>2010-04-17T08:01:03Z</time>
      </trkpt>
      <trkpt lat="43.77469" lon="6.4028">
        <ele>1057.1069336</ele>
        <time>2010-04-17T08:01:08Z</time>
      </trkpt>
      <trkpt lat="43.77478" lon="6.40277">
        <ele>1057.1069336</ele>
        <time>2010-04-17T08:01:10Z</time>
      </trkpt>
      <trkpt lat="43.77501" lon="6.40265">
        <ele>1054.7036133</ele>
        <time>2010-04-17T08:01:14Z</time>
      </trkpt>
      <trkpt lat="43.77541" lon="6.40249">
        <ele>1049.4162598</ele>
        <time>2010-04-17T08:01:20Z</time>
      </trkpt>
      <trkpt lat="43.77565" lon="6.40238">
        <ele>1046.0517578</ele>
        <time>2010-04-17T08:01:25Z</time>
      </trkpt>
      <trkpt lat="43.77591" lon="6.40227">
        <ele>1039.8032227</ele>
        <time>2010-04-17T08:01:30Z</time>
      </trkpt>
      <trkpt lat="43.77612" lon="6.40223">
        <ele>1035.4770508</ele>
        <time>2010-04-17T08:01:35Z</time>
      </trkpt>
      <trkpt lat="43.7761" lon="6.40222">
        <ele>1034.5158691</ele>
        <time>2010-04-17T08:01:39Z</time>
      </trkpt>
      <trkpt lat="43.77611" lon="6.40226">
        <ele>1034.5158691</ele>
        <time>2010-04-17T08:01:51Z</time>
      </trkpt>
      <trkpt lat="43.77627" lon="6.40222">
        <ele>1036.4387207</ele>
        <time>2010-04-17T08:01:57Z</time>
      </trkpt>
      <trkpt lat="43.77643" lon="6.40217">
        <ele>1036.4387207</ele>
        <time>2010-04-17T08:02:00Z</time>
      </trkpt>
      <trkpt lat="43.77662" lon="6.40215">
        <ele>1034.5158691</ele>
        <time>2010-04-17T08:02:03Z</time>
      </trkpt>
      <trkpt lat="43.77685" lon="6.40211">
        <ele>1031.1513672</ele>
        <time>2010-04-17T08:02:07Z</time>
      </trkpt>
      <trkpt lat="43.77717" lon="6.40195">
        <ele>1030.1899414</ele>
        <time>2010-04-17T08:02:12Z</time>
      </trkpt>
      <trkpt lat="43.77729" lon="6.40185">
        <ele>1030.1899414</ele>
        <time>2010-04-17T08:02:14Z</time>
      </trkpt>
      <trkpt lat="43.7774" lon="6.40177">
        <ele>1028.267334</ele>
        <time>2010-04-17T08:02:16Z</time>
      </trkpt>
      <trkpt lat="43.7775" lon="6.40171">
        <ele>1026.8254395</ele>
        <time>2010-04-17T08:02:18Z</time>
      </trkpt>
      <trkpt lat="43.77776" lon="6.40166">
        <ele>1019.6154785</ele>
        <time>2010-04-17T08:02:23Z</time>
      </trkpt>
      <trkpt lat="43.77781" lon="6.40165">
        <ele>1017.692627</ele>
        <time>2010-04-17T08:02:24Z</time>
      </trkpt>
      <trkpt lat="43.77791" lon="6.40165">
        <ele>1015.7702637</ele>
        <time>2010-04-17T08:02:26Z</time>
      </trkpt>
      <trkpt lat="43.77805" lon="6.40161">
        <ele>1011.9250488</ele>
        <time>2010-04-17T08:02:29Z</time>
      </trkpt>
      <trkpt lat="43.77826" lon="6.4016">
        <ele>1006.1569824</ele>
        <time>2010-04-17T08:02:34Z</time>
      </trkpt>
      <trkpt lat="43.77848" lon="6.40144">
        <ele>1004.2346191</ele>
        <time>2010-04-17T08:02:39Z</time>
      </trkpt>
      <trkpt lat="43.77867" lon="6.40137">
        <ele>1000.8696289</ele>
        <time>2010-04-17T08:02:43Z</time>
      </trkpt>
      <trkpt lat="43.77873" lon="6.40134">
        <ele>998.4663086</ele>
        <time>2010-04-17T08:02:45Z</time>
      </trkpt>
      <trkpt lat="43.77883" lon="6.40129">
        <ele>994.6210938</ele>
        <time>2010-04-17T08:02:48Z</time>
      </trkpt>
      <trkpt lat="43.77907" lon="6.4013">
        <ele>991.2565918</ele>
        <time>2010-04-17T08:02:52Z</time>
      </trkpt>
      <trkpt lat="43.7793" lon="6.40127">
        <ele>985.0080566</ele>
        <time>2010-04-17T08:02:57Z</time>
      </trkpt>
      <trkpt lat="43.77947" lon="6.40128">
        <ele>981.1628418</ele>
        <time>2010-04-17T08:03:02Z</time>
      </trkpt>
      <trkpt lat="43.77962" lon="6.40132">
        <ele>976.3562012</ele>
        <time>2010-04-17T08:03:06Z</time>
      </trkpt>
      <trkpt lat="43.77965" lon="6.40131">
        <ele>977.7980957</ele>
        <time>2010-04-17T08:03:07Z</time>
      </trkpt>
      <trkpt lat="43.77966" lon="6.40129">
        <ele>979.2399902</ele>
        <time>2010-04-17T08:03:10Z</time>
      </trkpt>
      <trkpt lat="43.7795" lon="6.40114">
        <ele>978.2788086</ele>
        <time>2010-04-17T08:03:16Z</time>
      </trkpt>
      <trkpt lat="43.7794" lon="6.40104">
        <ele>977.7980957</ele>
        <time>2010-04-17T08:03:19Z</time>
      </trkpt>
      <trkpt lat="43.77935" lon="6.40099">
        <ele>978.2788086</ele>
        <time>2010-04-17T08:03:22Z</time>
      </trkpt>
      <trkpt lat="43.77937" lon="6.40085">
        <ele>978.2788086</ele>
        <time>2010-04-17T08:03:27Z</time>
      </trkpt>
      <trkpt lat="43.7795" lon="6.40085">
        <ele>975.8754883</ele>
        <time>2010-04-17T08:03:30Z</time>
      </trkpt>
      <trkpt lat="43.77967" lon="6.40089">
        <ele>971.5493164</ele>
        <time>2010-04-17T08:03:34Z</time>
      </trkpt>
      <trkpt lat="43.77985" lon="6.40084">
        <ele>971.5493164</ele>
        <time>2010-04-17T08:03:37Z</time>
      </trkpt>
      <trkpt lat="43.78016" lon="6.40068">
        <ele>964.3395996</ele>
        <time>2010-04-17T08:03:43Z</time>
      </trkpt>
      <trkpt lat="43.78049" lon="6.40063">
        <ele>958.5717773</ele>
        <time>2010-04-17T08:03:48Z</time>
      </trkpt>
      <trkpt lat="43.7806" lon="6.40062">
        <ele>951.3618164</ele>
        <time>2010-04-17T08:03:52Z</time>
      </trkpt>
      <trkpt lat="43.78071" lon="6.40062">
        <ele>944.6325684</ele>
        <time>2010-04-17T08:03:58Z</time>
      </trkpt>
      <trkpt lat="43.78078" lon="6.40058">
        <ele>943.6713867</ele>
        <time>2010-04-17T08:04:00Z</time>
      </trkpt>
      <trkpt lat="43.78101" lon="6.40047">
        <ele>947.9973145</ele>
        <time>2010-04-17T08:04:05Z</time>
      </trkpt>
      <trkpt lat="43.78112" lon="6.40042">
        <ele>949.439209</ele>
        <time>2010-04-17T08:04:09Z</time>
      </trkpt>
      <trkpt lat="43.78123" lon="6.40035">
        <ele>947.5166016</ele>
        <time>2010-04-17T08:04:13Z</time>
      </trkpt>
      <trkpt lat="43.78148" lon="6.40042">
        <ele>944.1520996</ele>
        <time>2010-04-17T08:04:18Z</time>
      </trkpt>
      <trkpt lat="43.78169" lon="6.40045">
        <ele>937.4226074</ele>
        <time>2010-04-17T08:04:22Z</time>
      </trkpt>
      <trkpt lat="43.7818" lon="6.40045">
        <ele>934.5388184</ele>
        <time>2010-04-17T08:04:24Z</time>
      </trkpt>
      <trkpt lat="43.78199" lon="6.40048">
        <ele>924.9257812</ele>
        <time>2010-04-17T08:04:28Z</time>
      </trkpt>
      <trkpt lat="43.78216" lon="6.4005">
        <ele>925.8869629</ele>
        <time>2010-04-17T08:04:32Z</time>
      </trkpt>
      <trkpt lat="43.78217" lon="6.4004">
        <ele>920.5996094</ele>
        <time>2010-04-17T08:04:36Z</time>
      </trkpt>
      <trkpt lat="43.78209" lon="6.40031">
        <ele>920.1188965</ele>
        <time>2010-04-17T08:04:38Z</time>
      </trkpt>
      <trkpt lat="43.78187" lon="6.40009">
        <ele>913.8703613</ele>
        <time>2010-04-17T08:04:44Z</time>
      </trkpt>
      <trkpt lat="43.78178" lon="6.40002">
        <ele>909.0639648</ele>
        <time>2010-04-17T08:04:46Z</time>
      </trkpt>
      <trkpt lat="43.78155" lon="6.39977">
        <ele>899.9313965</ele>
        <time>2010-04-17T08:04:52Z</time>
      </trkpt>
      <trkpt lat="43.78143" lon="6.39961">
        <ele>895.1247559</ele>
        <time>2010-04-17T08:04:57Z</time>
      </trkpt>
      <trkpt lat="43.78145" lon="6.3996">
        <ele>895.1247559</ele>
        <time>2010-04-17T08:04:58Z</time>
      </trkpt>
      <trkpt lat="43.78153" lon="6.39961">
        <ele>891.7600098</ele>
        <time>2010-04-17T08:05:03Z</time>
      </trkpt>
      <trkpt lat="43.78154" lon="6.39945">
        <ele>908.1027832</ele>
        <time>2010-04-17T08:06:16Z</time>
      </trkpt>
      <trkpt lat="43.78158" lon="6.39958">
        <ele>907.1411133</ele>
        <time>2010-04-17T08:06:41Z</time>
      </trkpt>
      <trkpt lat="43.78162" lon="6.39956">
        <ele>900.8925781</ele>
        <time>2010-04-17T08:07:32Z</time>
      </trkpt>
      <trkpt lat="43.78179" lon="6.39956">
        <ele>897.5280762</ele>
        <time>2010-04-17T08:07:37Z</time>
      </trkpt>
      <trkpt lat="43.78195" lon="6.39949">
        <ele>896.5668945</ele>
        <time>2010-04-17T08:07:42Z</time>
      </trkpt>
      <trkpt lat="43.78209" lon="6.39945">
        <ele>892.7216797</ele>
        <time>2010-04-17T08:07:45Z</time>
      </trkpt>
      <trkpt lat="43.78226" lon="6.3994">
        <ele>888.8762207</ele>
        <time>2010-04-17T08:07:49Z</time>
      </trkpt>
      <trkpt lat="43.78238" lon="6.39942">
        <ele>886.9533691</ele>
        <time>2010-04-17T08:07:51Z</time>
      </trkpt>
      <trkpt lat="43.78267" lon="6.39949">
        <ele>881.6662598</ele>
        <time>2010-04-17T08:07:55Z</time>
      </trkpt>
      <trkpt lat="43.78288" lon="6.39969">
        <ele>878.7824707</ele>
        <time>2010-04-17T08:07:59Z</time>
      </trkpt>
      <trkpt lat="43.78303" lon="6.40001">
        <ele>874.4562988</ele>
        <time>2010-04-17T08:08:04Z</time>
      </trkpt>
      <trkpt lat="43.78309" lon="6.40021">
        <ele>873.0144043</ele>
        <time>2010-04-17T08:08:09Z</time>
      </trkpt>
      <trkpt lat="43.78313" lon="6.40019">
        <ele>871.0917969</ele>
        <time>2010-04-17T08:08:12Z</time>
      </trkpt>
      <trkpt lat="43.78318" lon="6.40011">
        <ele>870.611084</ele>
        <time>2010-04-17T08:08:16Z</time>
      </trkpt>
      <trkpt lat="43.78326" lon="6.4001">
        <ele>868.2077637</ele>
        <time>2010-04-17T08:08:19Z</time>
      </trkpt>
      <trkpt lat="43.78334" lon="6.39999">
        <ele>863.4013672</ele>
        <time>2010-04-17T08:08:23Z</time>
      </trkpt>
      <trkpt lat="43.78343" lon="6.40006">
        <ele>861.4787598</ele>
        <time>2010-04-17T08:08:27Z</time>
      </trkpt>
      <trkpt lat="43.78355" lon="6.40008">
        <ele>857.6333008</ele>
        <time>2010-04-17T08:08:31Z</time>
      </trkpt>
      <trkpt lat="43.78362" lon="6.40009">
        <ele>854.2687988</ele>
        <time>2010-04-17T08:08:34Z</time>
      </trkpt>
      <trkpt lat="43.78367" lon="6.39999">
        <ele>850.9040527</ele>
        <time>2010-04-17T08:08:37Z</time>
      </trkpt>
      <trkpt lat="43.78374" lon="6.39996">
        <ele>846.5783691</ele>
        <time>2010-04-17T08:08:41Z</time>
      </trkpt>
      <trkpt lat="43.7838" lon="6.40001">
        <ele>845.1362305</ele>
        <time>2010-04-17T08:08:45Z</time>
      </trkpt>
      <trkpt lat="43.78387" lon="6.40002">
        <ele>843.6940918</ele>
        <time>2010-04-17T08:08:47Z</time>
      </trkpt>
      <trkpt lat="43.78402" lon="6.40011">
        <ele>844.1750488</ele>
        <time>2010-04-17T08:08:52Z</time>
      </trkpt>
      <trkpt lat="43.78405" lon="6.40014">
        <ele>844.6555176</ele>
        <time>2010-04-17T08:08:53Z</time>
      </trkpt>
      <trkpt lat="43.78425" lon="6.40024">
        <ele>837.9262695</ele>
        <time>2010-04-17T08:08:57Z</time>
      </trkpt>
      <trkpt lat="43.78437" lon="6.40032">
        <ele>833.1196289</ele>
        <time>2010-04-17T08:09:02Z</time>
      </trkpt>
      <trkpt lat="43.78441" lon="6.40035">
        <ele>832.6391602</ele>
        <time>2010-04-17T08:09:03Z</time>
      </trkpt>
      <trkpt lat="43.78457" lon="6.40056">
        <ele>827.3518066</ele>
        <time>2010-04-17T08:09:08Z</time>
      </trkpt>
      <trkpt lat="43.78463" lon="6.40079">
        <ele>823.5065918</ele>
        <time>2010-04-17T08:09:13Z</time>
      </trkpt>
      <trkpt lat="43.78478" lon="6.40097">
        <ele>822.0644531</ele>
        <time>2010-04-17T08:09:18Z</time>
      </trkpt>
      <trkpt lat="43.78481" lon="6.40099">
        <ele>822.545166</ele>
        <time>2010-04-17T08:09:19Z</time>
      </trkpt>
      <trkpt lat="43.78505" lon="6.40115">
        <ele>815.8161621</ele>
        <time>2010-04-17T08:09:24Z</time>
      </trkpt>
      <trkpt lat="43.78527" lon="6.40135">
        <ele>811.4899902</ele>
        <time>2010-04-17T08:09:29Z</time>
      </trkpt>
      <trkpt lat="43.78535" lon="6.40144">
        <ele>807.1640625</ele>
        <time>2010-04-17T08:09:33Z</time>
      </trkpt>
      <trkpt lat="43.7854" lon="6.40149">
        <ele>803.7995605</ele>
        <time>2010-04-17T08:09:36Z</time>
      </trkpt>
      <trkpt lat="43.78543" lon="6.40174">
        <ele>798.512207</ele>
        <time>2010-04-17T08:09:41Z</time>
      </trkpt>
      <trkpt lat="43.78551" lon="6.40184">
        <ele>794.666748</ele>
        <time>2010-04-17T08:09:45Z</time>
      </trkpt>
      <trkpt lat="43.78554" lon="6.40188">
        <ele>792.7443848</ele>
        <time>2010-04-17T08:09:47Z</time>
      </trkpt>
      <trkpt lat="43.7856" lon="6.40211">
        <ele>788.8991699</ele>
        <time>2010-04-17T08:09:52Z</time>
      </trkpt>
      <trkpt lat="43.78568" lon="6.40208">
        <ele>785.0539551</ele>
        <time>2010-04-17T08:09:56Z</time>
      </trkpt>
      <trkpt lat="43.78572" lon="6.40192">
        <ele>781.2087402</ele>
        <time>2010-04-17T08:10:00Z</time>
      </trkpt>
      <trkpt lat="43.78579" lon="6.40183">
        <ele>779.2856445</ele>
        <time>2010-04-17T08:10:04Z</time>
      </trkpt>
      <trkpt lat="43.78586" lon="6.40189">
        <ele>777.84375</ele>
        <time>2010-04-17T08:10:07Z</time>
      </trkpt>
      <trkpt lat="43.78588" lon="6.40198">
        <ele>777.3632812</ele>
        <time>2010-04-17T08:10:09Z</time>
      </trkpt>
      <trkpt lat="43.78595" lon="6.40201">
        <ele>773.9985352</ele>
        <time>2010-04-17T08:10:13Z</time>
      </trkpt>
      <trkpt lat="43.78596" lon="6.40202">
        <ele>773.0373535</ele>
        <time>2010-04-17T08:10:14Z</time>
      </trkpt>
      <trkpt lat="43.78601" lon="6.40229">
        <ele>767.75</ele>
        <time>2010-04-17T08:10:20Z</time>
      </trkpt>
      <trkpt lat="43.78602" lon="6.40232">
        <ele>768.2307129</ele>
        <time>2010-04-17T08:10:21Z</time>
      </trkpt>
      <trkpt lat="43.7861" lon="6.40228">
        <ele>764.385498</ele>
        <time>2010-04-17T08:10:25Z</time>
      </trkpt>
      <trkpt lat="43.78617" lon="6.40236">
        <ele>761.9821777</ele>
        <time>2010-04-17T08:10:29Z</time>
      </trkpt>
      <trkpt lat="43.78618" lon="6.40252">
        <ele>763.904541</ele>
        <time>2010-04-17T08:10:32Z</time>
      </trkpt>
      <trkpt lat="43.78621" lon="6.40259">
        <ele>757.65625</ele>
        <time>2010-04-17T08:10:36Z</time>
      </trkpt>
      <trkpt lat="43.78622" lon="6.40257">
        <ele>754.7722168</ele>
        <time>2010-04-17T08:10:37Z</time>
      </trkpt>
      <trkpt lat="43.78633" lon="6.40243">
        <ele>748.5236816</ele>
        <time>2010-04-17T08:10:42Z</time>
      </trkpt>
      <trkpt lat="43.7864" lon="6.40232">
        <ele>747.081543</ele>
        <time>2010-04-17T08:10:46Z</time>
      </trkpt>
      <trkpt lat="43.78644" lon="6.40233">
        <ele>745.6396484</ele>
        <time>2010-04-17T08:10:48Z</time>
      </trkpt>
      <trkpt lat="43.78654" lon="6.40238">
        <ele>750.927002</ele>
        <time>2010-04-17T08:10:54Z</time>
      </trkpt>
      <trkpt lat="43.78656" lon="6.4024">
        <ele>752.3688965</ele>
        <time>2010-04-17T08:10:55Z</time>
      </trkpt>
      <trkpt lat="43.78657" lon="6.40247">
        <ele>750.4465332</ele>
        <time>2010-04-17T08:10:57Z</time>
      </trkpt>
      <trkpt lat="43.78656" lon="6.40259">
        <ele>746.6010742</ele>
        <time>2010-04-17T08:11:03Z</time>
      </trkpt>
      <trkpt lat="43.78654" lon="6.40263">
        <ele>741.3137207</ele>
        <time>2010-04-17T08:11:22Z</time>
      </trkpt>
      <trkpt lat="43.78657" lon="6.40264">
        <ele>739.8718262</ele>
        <time>2010-04-17T08:11:24Z</time>
      </trkpt>
      <trkpt lat="43.78666" lon="6.40272">
        <ele>735.0654297</ele>
        <time>2010-04-17T08:11:29Z</time>
      </trkpt>
      <trkpt lat="43.78672" lon="6.40285">
        <ele>726.4133301</ele>
        <time>2010-04-17T08:11:33Z</time>
      </trkpt>
      <trkpt lat="43.78674" lon="6.40289">
        <ele>723.529541</ele>
        <time>2010-04-17T08:11:38Z</time>
      </trkpt>
      <trkpt lat="43.78675" lon="6.40295">
        <ele>725.9326172</ele>
        <time>2010-04-17T08:11:47Z</time>
      </trkpt>
      <trkpt lat="43.78677" lon="6.40297">
        <ele>724.9714355</ele>
        <time>2010-04-17T08:11:48Z</time>
      </trkpt>
      <trkpt lat="43.78685" lon="6.40295">
        <ele>721.6066895</ele>
        <time>2010-04-17T08:11:52Z</time>
      </trkpt>
      <trkpt lat="43.78695" lon="6.40301">
        <ele>720.1647949</ele>
        <time>2010-04-17T08:11:55Z</time>
      </trkpt>
      <trkpt lat="43.7871" lon="6.40325">
        <ele>712.954834</ele>
        <time>2010-04-17T08:12:01Z</time>
      </trkpt>
      <trkpt lat="43.78712" lon="6.40328">
        <ele>710.0708008</ele>
        <time>2010-04-17T08:12:02Z</time>
      </trkpt>
      <trkpt lat="43.78726" lon="6.40325">
        <ele>706.2255859</ele>
        <time>2010-04-17T08:12:07Z</time>
      </trkpt>
      <trkpt lat="43.78731" lon="6.40336">
        <ele>704.7836914</ele>
        <time>2010-04-17T08:12:10Z</time>
      </trkpt>
      <trkpt lat="43.78736" lon="6.40345">
        <ele>701.4191895</ele>
        <time>2010-04-17T08:12:13Z</time>
      </trkpt>
      <trkpt lat="43.78745" lon="6.40343">
        <ele>699.9770508</ele>
        <time>2010-04-17T08:12:16Z</time>
      </trkpt>
      <trkpt lat="43.78765" lon="6.40348">
        <ele>696.1318359</ele>
        <time>2010-04-17T08:12:20Z</time>
      </trkpt>
      <trkpt lat="43.78783" lon="6.40354">
        <ele>691.8059082</ele>
        <time>2010-04-17T08:12:23Z</time>
      </trkpt>
      <trkpt lat="43.78794" lon="6.40367">
        <ele>688.4414062</ele>
        <time>2010-04-17T08:12:26Z</time>
      </trkpt>
      <trkpt lat="43.78806" lon="6.40371">
        <ele>686.9992676</ele>
        <time>2010-04-17T08:12:29Z</time>
      </trkpt>
      <trkpt lat="43.78819" lon="6.40374">
        <ele>684.5961914</ele>
        <time>2010-04-17T08:12:33Z</time>
      </trkpt>
      <trkpt lat="43.78828" lon="6.40392">
        <ele>678.3474121</ele>
        <time>2010-04-17T08:12:37Z</time>
      </trkpt>
      <trkpt lat="43.78831" lon="6.4041">
        <ele>673.0603027</ele>
        <time>2010-04-17T08:12:40Z</time>
      </trkpt>
      <trkpt lat="43.7884" lon="6.40421">
        <ele>669.6958008</ele>
        <time>2010-04-17T08:12:44Z</time>
      </trkpt>
      <trkpt lat="43.78844" lon="6.40424">
        <ele>668.734375</ele>
        <time>2010-04-17T08:12:45Z</time>
      </trkpt>
      <trkpt lat="43.78856" lon="6.40433">
        <ele>666.3308105</ele>
        <time>2010-04-17T08:12:48Z</time>
      </trkpt>
      <trkpt lat="43.78868" lon="6.40451">
        <ele>660.5629883</ele>
        <time>2010-04-17T08:12:53Z</time>
      </trkpt>
      <trkpt lat="43.78868" lon="6.40458">
        <ele>660.5629883</ele>
        <time>2010-04-17T08:12:55Z</time>
      </trkpt>
      <trkpt lat="43.7887" lon="6.40471">
        <ele>656.7177734</ele>
        <time>2010-04-17T08:12:59Z</time>
      </trkpt>
      <trkpt lat="43.7888" lon="6.40482">
        <ele>655.7565918</ele>
        <time>2010-04-17T08:13:03Z</time>
      </trkpt>
      <trkpt lat="43.78881" lon="6.40497">
        <ele>656.7177734</ele>
        <time>2010-04-17T08:13:06Z</time>
      </trkpt>
      <trkpt lat="43.7888" lon="6.405">
        <ele>660.5629883</ele>
        <time>2010-04-17T08:13:09Z</time>
      </trkpt>
      <trkpt lat="43.78876" lon="6.40508">
        <ele>659.1210938</ele>
        <time>2010-04-17T08:13:15Z</time>
      </trkpt>
      <trkpt lat="43.78874" lon="6.40523">
        <ele>655.7565918</ele>
        <time>2010-04-17T08:13:19Z</time>
      </trkpt>
      <trkpt lat="43.78875" lon="6.40537">
        <ele>655.2758789</ele>
        <time>2010-04-17T08:13:23Z</time>
      </trkpt>
      <trkpt lat="43.78877" lon="6.40541">
        <ele>655.2758789</ele>
        <time>2010-04-17T08:13:27Z</time>
      </trkpt>
      <trkpt lat="43.78884" lon="6.40531">
        <ele>656.7177734</ele>
        <time>2010-04-17T08:13:31Z</time>
      </trkpt>
      <trkpt lat="43.78886" lon="6.40528">
        <ele>656.7177734</ele>
        <time>2010-04-17T08:13:32Z</time>
      </trkpt>
      <trkpt lat="43.78894" lon="6.40544">
        <ele>649.9885254</ele>
        <time>2010-04-17T08:13:38Z</time>
      </trkpt>
      <trkpt lat="43.78901" lon="6.40567">
        <ele>648.065918</ele>
        <time>2010-04-17T08:13:42Z</time>
      </trkpt>
      <trkpt lat="43.78906" lon="6.40594">
        <ele>646.6240234</ele>
        <time>2010-04-17T08:13:47Z</time>
      </trkpt>
      <trkpt lat="43.78918" lon="6.4061">
        <ele>642.7788086</ele>
        <time>2010-04-17T08:13:52Z</time>
      </trkpt>
      <trkpt lat="43.78919" lon="6.40615">
        <ele>641.8173828</ele>
        <time>2010-04-17T08:13:53Z</time>
      </trkpt>
      <trkpt lat="43.78919" lon="6.40646">
        <ele>628.8395996</ele>
        <time>2010-04-17T08:13:59Z</time>
      </trkpt>
      <trkpt lat="43.78914" lon="6.40656">
        <ele>622.5910645</ele>
        <time>2010-04-17T08:14:01Z</time>
      </trkpt>
      <trkpt lat="43.78911" lon="6.40678">
        <ele>623.0717773</ele>
        <time>2010-04-17T08:14:06Z</time>
      </trkpt>
      <trkpt lat="43.78909" lon="6.4069">
        <ele>628.8395996</ele>
        <time>2010-04-17T08:14:10Z</time>
      </trkpt>
      <trkpt lat="43.78909" lon="6.40705">
        <ele>628.3588867</ele>
        <time>2010-04-17T08:14:14Z</time>
      </trkpt>
      <trkpt lat="43.78913" lon="6.40699">
        <ele>635.5686035</ele>
        <time>2010-04-17T08:14:17Z</time>
      </trkpt>
      <trkpt lat="43.78918" lon="6.40712">
        <ele>631.2429199</ele>
        <time>2010-04-17T08:14:21Z</time>
      </trkpt>
      <trkpt lat="43.7893" lon="6.40722">
        <ele>629.3200684</ele>
        <time>2010-04-17T08:14:24Z</time>
      </trkpt>
      <trkpt lat="43.78938" lon="6.40725">
        <ele>627.8781738</ele>
        <time>2010-04-17T08:14:26Z</time>
      </trkpt>
      <trkpt lat="43.78952" lon="6.4073">
        <ele>630.762207</ele>
        <time>2010-04-17T08:14:33Z</time>
      </trkpt>
      <trkpt lat="43.7896" lon="6.40736">
        <ele>631.2429199</ele>
        <time>2010-04-17T08:14:38Z</time>
      </trkpt>
      <trkpt lat="43.78966" lon="6.40744">
        <ele>632.6848145</ele>
        <time>2010-04-17T08:14:43Z</time>
      </trkpt>
      <trkpt lat="43.78972" lon="6.4075">
        <ele>632.2041016</ele>
        <time>2010-04-17T08:14:48Z</time>
      </trkpt>
      <trkpt lat="43.78978" lon="6.4075">
        <ele>632.2041016</ele>
        <time>2010-04-17T08:15:06Z</time>
      </trkpt>
      <trkpt lat="43.78977" lon="6.4075">
        <ele>632.6848145</ele>
        <time>2010-04-17T08:15:12Z</time>
      </trkpt>
      <trkpt lat="43.78975" lon="6.4075">
        <ele>631.2429199</ele>
        <time>2010-04-17T08:15:17Z</time>
      </trkpt>
      <trkpt lat="43.78974" lon="6.40749">
        <ele>630.762207</ele>
        <time>2010-04-17T08:15:19Z</time>
      </trkpt>
      <trkpt lat="43.78968" lon="6.40746">
        <ele>628.3588867</ele>
        <time>2010-04-17T08:15:25Z</time>
      </trkpt>
      <trkpt lat="43.78967" lon="6.40749">
        <ele>623.5524902</ele>
        <time>2010-04-17T08:15:37Z</time>
      </trkpt>
      <trkpt lat="43.78967" lon="6.40746">
        <ele>633.6459961</ele>
        <time>2010-04-17T08:17:18Z</time>
      </trkpt>
      <trkpt lat="43.78968" lon="6.40748">
        <ele>630.762207</ele>
        <time>2010-04-17T08:17:20Z</time>
      </trkpt>
      <trkpt lat="43.78976" lon="6.40752">
        <ele>629.8007812</ele>
        <time>2010-04-17T08:17:24Z</time>
      </trkpt>
      <trkpt lat="43.79" lon="6.40758">
        <ele>628.3588867</ele>
        <time>2010-04-17T08:17:31Z</time>
      </trkpt>
      <trkpt lat="43.79015" lon="6.40762">
        <ele>626.9169922</ele>
        <time>2010-04-17T08:17:36Z</time>
      </trkpt>
      <trkpt lat="43.79028" lon="6.40764">
        <ele>625.4748535</ele>
        <time>2010-04-17T08:17:40Z</time>
      </trkpt>
      <trkpt lat="43.79037" lon="6.40752">
        <ele>625.9555664</ele>
        <time>2010-04-17T08:17:44Z</time>
      </trkpt>
      <trkpt lat="43.79038" lon="6.40735">
        <ele>626.9169922</ele>
        <time>2010-04-17T08:17:48Z</time>
      </trkpt>
      <trkpt lat="43.7904" lon="6.40717">
        <ele>628.3588867</ele>
        <time>2010-04-17T08:17:53Z</time>
      </trkpt>
      <trkpt lat="43.7904" lon="6.40716">
        <ele>634.6074219</ele>
        <time>2010-04-17T08:18:00Z</time>
      </trkpt>
      <trkpt lat="43.79038" lon="6.40708">
        <ele>626.9169922</ele>
        <time>2010-04-17T08:23:05Z</time>
      </trkpt>
      <trkpt lat="43.79033" lon="6.40704">
        <ele>630.762207</ele>
        <time>2010-04-17T08:23:09Z</time>
      </trkpt>
      <trkpt lat="43.79022" lon="6.40697">
        <ele>639.8947754</ele>
        <time>2010-04-17T08:23:14Z</time>
      </trkpt>
      <trkpt lat="43.7902" lon="6.40696">
        <ele>640.3754883</ele>
        <time>2010-04-17T08:23:15Z</time>
      </trkpt>
      <trkpt lat="43.79008" lon="6.40688">
        <ele>648.065918</ele>
        <time>2010-04-17T08:23:22Z</time>
      </trkpt>
      <trkpt lat="43.78999" lon="6.40672">
        <ele>644.2207031</ele>
        <time>2010-04-17T08:23:28Z</time>
      </trkpt>
      <trkpt lat="43.78999" lon="6.40661">
        <ele>638.4528809</ele>
        <time>2010-04-17T08:23:32Z</time>
      </trkpt>
      <trkpt lat="43.78998" lon="6.40636">
        <ele>639.4140625</ele>
        <time>2010-04-17T08:23:38Z</time>
      </trkpt>
      <trkpt lat="43.79004" lon="6.40621">
        <ele>637.0107422</ele>
        <time>2010-04-17T08:23:42Z</time>
      </trkpt>
      <trkpt lat="43.79011" lon="6.40613">
        <ele>631.2429199</ele>
        <time>2010-04-17T08:23:46Z</time>
      </trkpt>
      <trkpt lat="43.79015" lon="6.40598">
        <ele>630.2814941</ele>
        <time>2010-04-17T08:23:50Z</time>
      </trkpt>
      <trkpt lat="43.79023" lon="6.40586">
        <ele>629.3200684</ele>
        <time>2010-04-17T08:23:55Z</time>
      </trkpt>
      <trkpt lat="43.79026" lon="6.40581">
        <ele>632.6848145</ele>
        <time>2010-04-17T08:24:00Z</time>
      </trkpt>
      <trkpt lat="43.79031" lon="6.40576">
        <ele>637.0107422</ele>
        <time>2010-04-17T08:24:10Z</time>
      </trkpt>
      <trkpt lat="43.79032" lon="6.40573">
        <ele>637.972168</ele>
        <time>2010-04-17T08:24:12Z</time>
      </trkpt>
      <trkpt lat="43.79036" lon="6.40567">
        <ele>642.7788086</ele>
        <time>2010-04-17T08:24:19Z</time>
      </trkpt>
      <trkpt lat="43.79038" lon="6.40565">
        <ele>643.2592773</ele>
        <time>2010-04-17T08:24:23Z</time>
      </trkpt>
      <trkpt lat="43.7904" lon="6.40556">
        <ele>648.5463867</ele>
        <time>2010-04-17T08:24:30Z</time>
      </trkpt>
      <trkpt lat="43.79042" lon="6.40553">
        <ele>649.5078125</ele>
        <time>2010-04-17T08:24:33Z</time>
      </trkpt>
      <trkpt lat="43.79048" lon="6.40551">
        <ele>646.6240234</ele>
        <time>2010-04-17T08:24:43Z</time>
      </trkpt>
      <trkpt lat="43.79051" lon="6.40546">
        <ele>649.0270996</ele>
        <time>2010-04-17T08:24:48Z</time>
      </trkpt>
      <trkpt lat="43.79052" lon="6.40543">
        <ele>649.0270996</ele>
        <time>2010-04-17T08:24:49Z</time>
      </trkpt>
      <trkpt lat="43.7906" lon="6.40535">
        <ele>648.5463867</ele>
        <time>2010-04-17T08:24:54Z</time>
      </trkpt>
      <trkpt lat="43.79072" lon="6.40527">
        <ele>648.065918</ele>
        <time>2010-04-17T08:24:59Z</time>
      </trkpt>
      <trkpt lat="43.7908" lon="6.4052">
        <ele>651.4304199</ele>
        <time>2010-04-17T08:25:04Z</time>
      </trkpt>
      <trkpt lat="43.79087" lon="6.40502">
        <ele>655.7565918</ele>
        <time>2010-04-17T08:25:11Z</time>
      </trkpt>
      <trkpt lat="43.79094" lon="6.40499">
        <ele>654.3146973</ele>
        <time>2010-04-17T08:25:16Z</time>
      </trkpt>
      <trkpt lat="43.79096" lon="6.40493">
        <ele>655.7565918</ele>
        <time>2010-04-17T08:25:24Z</time>
      </trkpt>
      <trkpt lat="43.79097" lon="6.40493">
        <ele>660.5629883</ele>
        <time>2010-04-17T08:25:28Z</time>
      </trkpt>
      <trkpt lat="43.79105" lon="6.40489">
        <ele>660.0822754</ele>
        <time>2010-04-17T08:25:35Z</time>
      </trkpt>
      <trkpt lat="43.79108" lon="6.40487">
        <ele>662.005127</ele>
        <time>2010-04-17T08:25:40Z</time>
      </trkpt>
      <trkpt lat="43.79113" lon="6.40489">
        <ele>662.005127</ele>
        <time>2010-04-17T08:25:46Z</time>
      </trkpt>
      <trkpt lat="43.7912" lon="6.40484">
        <ele>668.2536621</ele>
        <time>2010-04-17T08:25:56Z</time>
      </trkpt>
      <trkpt lat="43.79129" lon="6.40478">
        <ele>664.888916</ele>
        <time>2010-04-17T08:26:07Z</time>
      </trkpt>
      <trkpt lat="43.79134" lon="6.40469">
        <ele>662.9663086</ele>
        <time>2010-04-17T08:26:15Z</time>
      </trkpt>
      <trkpt lat="43.79134" lon="6.40465">
        <ele>668.734375</ele>
        <time>2010-04-17T08:26:19Z</time>
      </trkpt>
      <trkpt lat="43.79137" lon="6.40452">
        <ele>670.1762695</ele>
        <time>2010-04-17T08:26:26Z</time>
      </trkpt>
      <trkpt lat="43.79137" lon="6.4045">
        <ele>671.6181641</ele>
        <time>2010-04-17T08:26:28Z</time>
      </trkpt>
      <trkpt lat="43.79138" lon="6.40441">
        <ele>668.734375</ele>
        <time>2010-04-17T08:26:33Z</time>
      </trkpt>
      <trkpt lat="43.79141" lon="6.40433">
        <ele>672.5795898</ele>
        <time>2010-04-17T08:26:50Z</time>
      </trkpt>
      <trkpt lat="43.79143" lon="6.40428">
        <ele>673.0603027</ele>
        <time>2010-04-17T08:26:53Z</time>
      </trkpt>
      <trkpt lat="43.79142" lon="6.40421">
        <ele>676.9055176</ele>
        <time>2010-04-17T08:26:57Z</time>
      </trkpt>
      <trkpt lat="43.79145" lon="6.40406">
        <ele>677.3862305</ele>
        <time>2010-04-17T08:27:10Z</time>
      </trkpt>
      <trkpt lat="43.79147" lon="6.40399">
        <ele>676.4248047</ele>
        <time>2010-04-17T08:27:16Z</time>
      </trkpt>
      <trkpt lat="43.79148" lon="6.40393">
        <ele>672.5795898</ele>
        <time>2010-04-17T08:27:22Z</time>
      </trkpt>
      <trkpt lat="43.79148" lon="6.40393">
        <ele>678.3474121</ele>
        <time>2010-04-17T08:27:29Z</time>
      </trkpt>
      <trkpt lat="43.79154" lon="6.40395">
        <ele>677.8666992</ele>
        <time>2010-04-17T08:27:36Z</time>
      </trkpt>
      <trkpt lat="43.79159" lon="6.40398">
        <ele>677.8666992</ele>
        <time>2010-04-17T08:27:43Z</time>
      </trkpt>
      <trkpt lat="43.7916" lon="6.40403">
        <ele>680.2700195</ele>
        <time>2010-04-17T08:27:48Z</time>
      </trkpt>
      <trkpt lat="43.79163" lon="6.40401">
        <ele>680.7507324</ele>
        <time>2010-04-17T08:27:53Z</time>
      </trkpt>
      <trkpt lat="43.79163" lon="6.40399">
        <ele>681.2314453</ele>
        <time>2010-04-17T08:27:54Z</time>
      </trkpt>
      <trkpt lat="43.79163" lon="6.40396">
        <ele>681.7119141</ele>
        <time>2010-04-17T08:27:56Z</time>
      </trkpt>
      <trkpt lat="43.79165" lon="6.40388">
        <ele>683.6345215</ele>
        <time>2010-04-17T08:28:04Z</time>
      </trkpt>
      <trkpt lat="43.79167" lon="6.40382">
        <ele>683.1538086</ele>
        <time>2010-04-17T08:28:11Z</time>
      </trkpt>
      <trkpt lat="43.79169" lon="6.40376">
        <ele>683.1538086</ele>
        <time>2010-04-17T08:28:16Z</time>
      </trkpt>
      <trkpt lat="43.79171" lon="6.40376">
        <ele>683.6345215</ele>
        <time>2010-04-17T08:28:22Z</time>
      </trkpt>
      <trkpt lat="43.79171" lon="6.40382">
        <ele>686.5187988</ele>
        <time>2010-04-17T08:28:27Z</time>
      </trkpt>
      <trkpt lat="43.7917" lon="6.40385">
        <ele>686.9992676</ele>
        <time>2010-04-17T08:28:29Z</time>
      </trkpt>
      <trkpt lat="43.79174" lon="6.40395">
        <ele>688.4414062</ele>
        <time>2010-04-17T08:28:37Z</time>
      </trkpt>
      <trkpt lat="43.79176" lon="6.40406">
        <ele>690.3640137</ele>
        <time>2010-04-17T08:28:44Z</time>
      </trkpt>
      <trkpt lat="43.79178" lon="6.4041">
        <ele>690.3640137</ele>
        <time>2010-04-17T08:28:48Z</time>
      </trkpt>
      <trkpt lat="43.79185" lon="6.40411">
        <ele>692.2866211</ele>
        <time>2010-04-17T08:28:55Z</time>
      </trkpt>
      <trkpt lat="43.79189" lon="6.40415">
        <ele>694.2092285</ele>
        <time>2010-04-17T08:29:00Z</time>
      </trkpt>
      <trkpt lat="43.79192" lon="6.40418">
        <ele>694.2092285</ele>
        <time>2010-04-17T08:29:06Z</time>
      </trkpt>
      <trkpt lat="43.79191" lon="6.4041">
        <ele>694.2092285</ele>
        <time>2010-04-17T08:29:10Z</time>
      </trkpt>
      <trkpt lat="43.79189" lon="6.40396">
        <ele>695.651123</ele>
        <time>2010-04-17T08:29:19Z</time>
      </trkpt>
      <trkpt lat="43.79192" lon="6.40397">
        <ele>695.651123</ele>
        <time>2010-04-17T08:29:24Z</time>
      </trkpt>
      <trkpt lat="43.79193" lon="6.40395">
        <ele>696.1318359</ele>
        <time>2010-04-17T08:29:29Z</time>
      </trkpt>
      <trkpt lat="43.79192" lon="6.40391">
        <ele>696.6125488</ele>
        <time>2010-04-17T08:29:33Z</time>
      </trkpt>
      <trkpt lat="43.79194" lon="6.40386">
        <ele>696.1318359</ele>
        <time>2010-04-17T08:29:39Z</time>
      </trkpt>
      <trkpt lat="43.79197" lon="6.40386">
        <ele>696.6125488</ele>
        <time>2010-04-17T08:29:43Z</time>
      </trkpt>
      <trkpt lat="43.79198" lon="6.40381">
        <ele>698.0544434</ele>
        <time>2010-04-17T08:29:49Z</time>
      </trkpt>
      <trkpt lat="43.79199" lon="6.40374">
        <ele>699.015625</ele>
        <time>2010-04-17T08:29:55Z</time>
      </trkpt>
      <trkpt lat="43.79201" lon="6.40373">
        <ele>699.015625</ele>
        <time>2010-04-17T08:29:57Z</time>
      </trkpt>
      <trkpt lat="43.79204" lon="6.4037">
        <ele>698.0544434</ele>
        <time>2010-04-17T08:30:03Z</time>
      </trkpt>
      <trkpt lat="43.79207" lon="6.40368">
        <ele>697.5737305</ele>
        <time>2010-04-17T08:30:09Z</time>
      </trkpt>
      <trkpt lat="43.79208" lon="6.4036">
        <ele>702.861084</ele>
        <time>2010-04-17T08:30:14Z</time>
      </trkpt>
      <trkpt lat="43.7921" lon="6.40352">
        <ele>707.6677246</ele>
        <time>2010-04-17T08:30:22Z</time>
      </trkpt>
      <trkpt lat="43.79212" lon="6.40343">
        <ele>713.9160156</ele>
        <time>2010-04-17T08:30:27Z</time>
      </trkpt>
      <trkpt lat="43.79207" lon="6.40344">
        <ele>719.2036133</ele>
        <time>2010-04-17T08:32:42Z</time>
      </trkpt>
      <trkpt lat="43.79207" lon="6.40342">
        <ele>696.6125488</ele>
        <time>2010-04-17T08:32:52Z</time>
      </trkpt>
      <trkpt lat="43.79219" lon="6.40344">
        <ele>698.0544434</ele>
        <time>2010-04-17T08:33:14Z</time>
      </trkpt>
      <trkpt lat="43.79217" lon="6.40339">
        <ele>694.2092285</ele>
        <time>2010-04-17T08:33:26Z</time>
      </trkpt>
      <trkpt lat="43.79214" lon="6.40337">
        <ele>698.0544434</ele>
        <time>2010-04-17T08:33:33Z</time>
      </trkpt>
      <trkpt lat="43.79213" lon="6.40337">
        <ele>722.5681152</ele>
        <time>2010-04-17T08:33:54Z</time>
      </trkpt>
      <trkpt lat="43.7922" lon="6.40338">
        <ele>724.4907227</ele>
        <time>2010-04-17T08:34:02Z</time>
      </trkpt>
      <trkpt lat="43.79218" lon="6.40336">
        <ele>716.800293</ele>
        <time>2010-04-17T08:34:27Z</time>
      </trkpt>
      <trkpt lat="43.79221" lon="6.40337">
        <ele>715.8388672</ele>
        <time>2010-04-17T08:34:30Z</time>
      </trkpt>
      <trkpt lat="43.79232" lon="6.40333">
        <ele>716.3195801</ele>
        <time>2010-04-17T08:34:38Z</time>
      </trkpt>
      <trkpt lat="43.79243" lon="6.40333">
        <ele>711.0322266</ele>
        <time>2010-04-17T08:34:45Z</time>
      </trkpt>
      <trkpt lat="43.79248" lon="6.40336">
        <ele>711.5129395</ele>
        <time>2010-04-17T08:34:51Z</time>
      </trkpt>
      <trkpt lat="43.79254" lon="6.40331">
        <ele>716.3195801</ele>
        <time>2010-04-17T08:34:56Z</time>
      </trkpt>
      <trkpt lat="43.79259" lon="6.40323">
        <ele>720.6455078</ele>
        <time>2010-04-17T08:35:09Z</time>
      </trkpt>
      <trkpt lat="43.79264" lon="6.40323">
        <ele>725.9326172</ele>
        <time>2010-04-17T08:35:14Z</time>
      </trkpt>
      <trkpt lat="43.79264" lon="6.40323">
        <ele>724.9714355</ele>
        <time>2010-04-17T08:35:24Z</time>
      </trkpt>
      <trkpt lat="43.79268" lon="6.4033">
        <ele>735.0654297</ele>
        <time>2010-04-17T08:35:29Z</time>
      </trkpt>
      <trkpt lat="43.7927" lon="6.4033">
        <ele>739.3911133</ele>
        <time>2010-04-17T08:35:34Z</time>
      </trkpt>
      <trkpt lat="43.79274" lon="6.40323">
        <ele>740.8330078</ele>
        <time>2010-04-17T08:35:40Z</time>
      </trkpt>
      <trkpt lat="43.79284" lon="6.40311">
        <ele>740.8330078</ele>
        <time>2010-04-17T08:35:48Z</time>
      </trkpt>
      <trkpt lat="43.79284" lon="6.4031">
        <ele>740.8330078</ele>
        <time>2010-04-17T08:35:49Z</time>
      </trkpt>
      <trkpt lat="43.79289" lon="6.40295">
        <ele>736.987793</ele>
        <time>2010-04-17T08:35:55Z</time>
      </trkpt>
      <trkpt lat="43.79297" lon="6.40276">
        <ele>734.5847168</ele>
        <time>2010-04-17T08:36:02Z</time>
      </trkpt>
      <trkpt lat="43.793" lon="6.40262">
        <ele>736.5073242</ele>
        <time>2010-04-17T08:36:07Z</time>
      </trkpt>
      <trkpt lat="43.79305" lon="6.40246">
        <ele>736.987793</ele>
        <time>2010-04-17T08:36:13Z</time>
      </trkpt>
      <trkpt lat="43.79308" lon="6.40237">
        <ele>739.8718262</ele>
        <time>2010-04-17T08:36:18Z</time>
      </trkpt>
      <trkpt lat="43.79311" lon="6.40231">
        <ele>739.8718262</ele>
        <time>2010-04-17T08:36:22Z</time>
      </trkpt>
      <trkpt lat="43.79318" lon="6.40233">
        <ele>737.9492188</ele>
        <time>2010-04-17T08:36:28Z</time>
      </trkpt>
      <trkpt lat="43.79318" lon="6.40234">
        <ele>736.987793</ele>
        <time>2010-04-17T08:36:29Z</time>
      </trkpt>
      <trkpt lat="43.79316" lon="6.40237">
        <ele>734.1040039</ele>
        <time>2010-04-17T08:36:34Z</time>
      </trkpt>
      <trkpt lat="43.79322" lon="6.40224">
        <ele>729.2971191</ele>
        <time>2010-04-17T08:36:38Z</time>
      </trkpt>
      <trkpt lat="43.79327" lon="6.40216">
        <ele>728.8166504</ele>
        <time>2010-04-17T08:36:42Z</time>
      </trkpt>
      <trkpt lat="43.79328" lon="6.40225">
        <ele>718.2421875</ele>
        <time>2010-04-17T08:36:50Z</time>
      </trkpt>
      <trkpt lat="43.79329" lon="6.40225">
        <ele>719.2036133</ele>
        <time>2010-04-17T08:36:57Z</time>
      </trkpt>
      <trkpt lat="43.79329" lon="6.40222">
        <ele>722.5681152</ele>
        <time>2010-04-17T08:37:03Z</time>
      </trkpt>
      <trkpt lat="43.79331" lon="6.40221">
        <ele>722.0874023</ele>
        <time>2010-04-17T08:37:11Z</time>
      </trkpt>
      <trkpt lat="43.79333" lon="6.4022">
        <ele>722.0874023</ele>
        <time>2010-04-17T08:37:17Z</time>
      </trkpt>
      <trkpt lat="43.79336" lon="6.40217">
        <ele>726.894043</ele>
        <time>2010-04-17T08:37:23Z</time>
      </trkpt>
      <trkpt lat="43.79338" lon="6.40219">
        <ele>730.2585449</ele>
        <time>2010-04-17T08:37:28Z</time>
      </trkpt>
      <trkpt lat="43.7934" lon="6.40222">
        <ele>732.6621094</ele>
        <time>2010-04-17T08:37:33Z</time>
      </trkpt>
      <trkpt lat="43.79342" lon="6.40225">
        <ele>729.2971191</ele>
        <time>2010-04-17T08:37:37Z</time>
      </trkpt>
      <trkpt lat="43.79347" lon="6.40228">
        <ele>731.2199707</ele>
        <time>2010-04-17T08:37:44Z</time>
      </trkpt>
      <trkpt lat="43.7935" lon="6.40225">
        <ele>732.6621094</ele>
        <time>2010-04-17T08:37:50Z</time>
      </trkpt>
      <trkpt lat="43.79352" lon="6.40226">
        <ele>735.0654297</ele>
        <time>2010-04-17T08:37:56Z</time>
      </trkpt>
      <trkpt lat="43.79355" lon="6.40227">
        <ele>737.4685059</ele>
        <time>2010-04-17T08:38:01Z</time>
      </trkpt>
      <trkpt lat="43.79357" lon="6.40227">
        <ele>744.1977539</ele>
        <time>2010-04-17T08:38:07Z</time>
      </trkpt>
      <trkpt lat="43.79355" lon="6.40225">
        <ele>741.7944336</ele>
        <time>2010-04-17T08:38:13Z</time>
      </trkpt>
      <trkpt lat="43.79354" lon="6.4022">
        <ele>748.0432129</ele>
        <time>2010-04-17T08:38:17Z</time>
      </trkpt>
      <trkpt lat="43.79355" lon="6.40218">
        <ele>747.081543</ele>
        <time>2010-04-17T08:38:20Z</time>
      </trkpt>
      <trkpt lat="43.79357" lon="6.40207">
        <ele>748.0432129</ele>
        <time>2010-04-17T08:38:24Z</time>
      </trkpt>
      <trkpt lat="43.79364" lon="6.40191">
        <ele>745.1589355</ele>
        <time>2010-04-17T08:38:32Z</time>
      </trkpt>
      <trkpt lat="43.79369" lon="6.40188">
        <ele>749.0043945</ele>
        <time>2010-04-17T08:38:37Z</time>
      </trkpt>
      <trkpt lat="43.79374" lon="6.40179">
        <ele>745.6396484</ele>
        <time>2010-04-17T08:38:46Z</time>
      </trkpt>
      <trkpt lat="43.79378" lon="6.40173">
        <ele>752.3688965</ele>
        <time>2010-04-17T08:38:52Z</time>
      </trkpt>
      <trkpt lat="43.79381" lon="6.40168">
        <ele>747.081543</ele>
        <time>2010-04-17T08:38:57Z</time>
      </trkpt>
      <trkpt lat="43.79382" lon="6.40165">
        <ele>751.4077148</ele>
        <time>2010-04-17T08:39:03Z</time>
      </trkpt>
      <trkpt lat="43.79384" lon="6.40163">
        <ele>750.927002</ele>
        <time>2010-04-17T08:39:07Z</time>
      </trkpt>
      <trkpt lat="43.79387" lon="6.40155">
        <ele>753.3303223</ele>
        <time>2010-04-17T08:39:12Z</time>
      </trkpt>
      <trkpt lat="43.79388" lon="6.40149">
        <ele>758.1369629</ele>
        <time>2010-04-17T08:39:17Z</time>
      </trkpt>
      <trkpt lat="43.7939" lon="6.40142">
        <ele>765.3469238</ele>
        <time>2010-04-17T08:39:22Z</time>
      </trkpt>
      <trkpt lat="43.79392" lon="6.40137">
        <ele>767.75</ele>
        <time>2010-04-17T08:39:27Z</time>
      </trkpt>
      <trkpt lat="43.79396" lon="6.40132">
        <ele>762.9433594</ele>
        <time>2010-04-17T08:39:34Z</time>
      </trkpt>
      <trkpt lat="43.79399" lon="6.40129">
        <ele>759.5788574</ele>
        <time>2010-04-17T08:39:38Z</time>
      </trkpt>
      <trkpt lat="43.79405" lon="6.40125">
        <ele>758.6174316</ele>
        <time>2010-04-17T08:39:46Z</time>
      </trkpt>
      <trkpt lat="43.79409" lon="6.40123">
        <ele>759.5788574</ele>
        <time>2010-04-17T08:39:51Z</time>
      </trkpt>
      <trkpt lat="43.79413" lon="6.40123">
        <ele>759.0981445</ele>
        <time>2010-04-17T08:39:53Z</time>
      </trkpt>
      <trkpt lat="43.7942" lon="6.40123">
        <ele>756.2141113</ele>
        <time>2010-04-17T08:40:00Z</time>
      </trkpt>
      <trkpt lat="43.79422" lon="6.40121">
        <ele>759.0981445</ele>
        <time>2010-04-17T08:40:03Z</time>
      </trkpt>
      <trkpt lat="43.79425" lon="6.40115">
        <ele>761.5014648</ele>
        <time>2010-04-17T08:40:10Z</time>
      </trkpt>
      <trkpt lat="43.79426" lon="6.40114">
        <ele>762.4626465</ele>
        <time>2010-04-17T08:40:11Z</time>
      </trkpt>
      <trkpt lat="43.79436" lon="6.40109">
        <ele>766.3081055</ele>
        <time>2010-04-17T08:40:17Z</time>
      </trkpt>
      <trkpt lat="43.79441" lon="6.40101">
        <ele>776.8825684</ele>
        <time>2010-04-17T08:40:24Z</time>
      </trkpt>
      <trkpt lat="43.79443" lon="6.40086">
        <ele>777.3632812</ele>
        <time>2010-04-17T08:40:45Z</time>
      </trkpt>
      <trkpt lat="43.79437" lon="6.40086">
        <ele>764.8662109</ele>
        <time>2010-04-17T08:40:58Z</time>
      </trkpt>
      <trkpt lat="43.79438" lon="6.40083">
        <ele>765.3469238</ele>
        <time>2010-04-17T08:41:02Z</time>
      </trkpt>
      <trkpt lat="43.7944" lon="6.40071">
        <ele>761.5014648</ele>
        <time>2010-04-17T08:41:08Z</time>
      </trkpt>
      <trkpt lat="43.79443" lon="6.40066">
        <ele>759.0981445</ele>
        <time>2010-04-17T08:41:14Z</time>
      </trkpt>
      <trkpt lat="43.79441" lon="6.40058">
        <ele>758.1369629</ele>
        <time>2010-04-17T08:41:21Z</time>
      </trkpt>
      <trkpt lat="43.79439" lon="6.40056">
        <ele>759.0981445</ele>
        <time>2010-04-17T08:41:28Z</time>
      </trkpt>
      <trkpt lat="43.79438" lon="6.40057">
        <ele>762.9433594</ele>
        <time>2010-04-17T08:41:32Z</time>
      </trkpt>
      <trkpt lat="43.79437" lon="6.40054">
        <ele>767.2695312</ele>
        <time>2010-04-17T08:41:38Z</time>
      </trkpt>
      <trkpt lat="43.79437" lon="6.40052">
        <ele>767.2695312</ele>
        <time>2010-04-17T08:41:41Z</time>
      </trkpt>
      <trkpt lat="43.79433" lon="6.40034">
        <ele>765.3469238</ele>
        <time>2010-04-17T08:41:48Z</time>
      </trkpt>
      <trkpt lat="43.79432" lon="6.40019">
        <ele>767.2695312</ele>
        <time>2010-04-17T08:41:54Z</time>
      </trkpt>
      <trkpt lat="43.79431" lon="6.4">
        <ele>769.6728516</ele>
        <time>2010-04-17T08:42:01Z</time>
      </trkpt>
      <trkpt lat="43.79426" lon="6.39992">
        <ele>770.6340332</ele>
        <time>2010-04-17T08:42:06Z</time>
      </trkpt>
      <trkpt lat="43.79416" lon="6.39984">
        <ele>771.5952148</ele>
        <time>2010-04-17T08:42:12Z</time>
      </trkpt>
      <trkpt lat="43.79412" lon="6.39981">
        <ele>771.1147461</ele>
        <time>2010-04-17T08:42:14Z</time>
      </trkpt>
      <trkpt lat="43.7941" lon="6.39977">
        <ele>771.1147461</ele>
        <time>2010-04-17T08:42:16Z</time>
      </trkpt>
      <trkpt lat="43.7941" lon="6.39975">
        <ele>774.479248</ele>
        <time>2010-04-17T08:42:21Z</time>
      </trkpt>
      <trkpt lat="43.79406" lon="6.39972">
        <ele>774.479248</ele>
        <time>2010-04-17T08:42:27Z</time>
      </trkpt>
      <trkpt lat="43.79401" lon="6.39969">
        <ele>772.5566406</ele>
        <time>2010-04-17T08:42:32Z</time>
      </trkpt>
      <trkpt lat="43.79391" lon="6.39966">
        <ele>775.4404297</ele>
        <time>2010-04-17T08:42:38Z</time>
      </trkpt>
      <trkpt lat="43.79384" lon="6.39967">
        <ele>778.8051758</ele>
        <time>2010-04-17T08:42:43Z</time>
      </trkpt>
      <trkpt lat="43.79379" lon="6.39968">
        <ele>778.3244629</ele>
        <time>2010-04-17T08:42:46Z</time>
      </trkpt>
      <trkpt lat="43.79372" lon="6.39964">
        <ele>781.2087402</ele>
        <time>2010-04-17T08:42:52Z</time>
      </trkpt>
      <trkpt lat="43.7937" lon="6.39965">
        <ele>780.2473145</ele>
        <time>2010-04-17T08:42:57Z</time>
      </trkpt>
      <trkpt lat="43.79367" lon="6.39965">
        <ele>777.84375</ele>
        <time>2010-04-17T08:43:02Z</time>
      </trkpt>
      <trkpt lat="43.7937" lon="6.39965">
        <ele>778.3244629</ele>
        <time>2010-04-17T08:43:11Z</time>
      </trkpt>
      <trkpt lat="43.79362" lon="6.39964">
        <ele>778.8051758</ele>
        <time>2010-04-17T08:43:28Z</time>
      </trkpt>
      <trkpt lat="43.79354" lon="6.39962">
        <ele>777.3632812</ele>
        <time>2010-04-17T08:43:34Z</time>
      </trkpt>
      <trkpt lat="43.79353" lon="6.39963">
        <ele>777.84375</ele>
        <time>2010-04-17T08:43:35Z</time>
      </trkpt>
      <trkpt lat="43.7935" lon="6.39964">
        <ele>779.7663574</ele>
        <time>2010-04-17T08:43:41Z</time>
      </trkpt>
      <trkpt lat="43.79343" lon="6.39966">
        <ele>783.6118164</ele>
        <time>2010-04-17T08:43:46Z</time>
      </trkpt>
      <trkpt lat="43.79332" lon="6.39968">
        <ele>789.8603516</ele>
        <time>2010-04-17T08:43:53Z</time>
      </trkpt>
      <trkpt lat="43.79321" lon="6.39966">
        <ele>794.1862793</ele>
        <time>2010-04-17T08:44:00Z</time>
      </trkpt>
      <trkpt lat="43.79312" lon="6.39966">
        <ele>795.6281738</ele>
        <time>2010-04-17T08:44:05Z</time>
      </trkpt>
      <trkpt lat="43.79311" lon="6.39969">
        <ele>796.5898438</ele>
        <time>2010-04-17T08:44:10Z</time>
      </trkpt>
      <trkpt lat="43.79305" lon="6.39969">
        <ele>791.3022461</ele>
        <time>2010-04-17T08:44:55Z</time>
      </trkpt>
      <trkpt lat="43.79301" lon="6.39963">
        <ele>791.3022461</ele>
        <time>2010-04-17T08:44:59Z</time>
      </trkpt>
      <trkpt lat="43.7929" lon="6.39957">
        <ele>787.9377441</ele>
        <time>2010-04-17T08:45:07Z</time>
      </trkpt>
      <trkpt lat="43.79281" lon="6.39952">
        <ele>786.9763184</ele>
        <time>2010-04-17T08:45:13Z</time>
      </trkpt>
      <trkpt lat="43.79281" lon="6.39951">
        <ele>789.8603516</ele>
        <time>2010-04-17T08:45:18Z</time>
      </trkpt>
      <trkpt lat="43.79279" lon="6.39953">
        <ele>793.7055664</ele>
        <time>2010-04-17T08:45:57Z</time>
      </trkpt>
      <trkpt lat="43.79279" lon="6.39952">
        <ele>792.2636719</ele>
        <time>2010-04-17T08:46:11Z</time>
      </trkpt>
      <trkpt lat="43.79275" lon="6.3995">
        <ele>792.7443848</ele>
        <time>2010-04-17T08:46:16Z</time>
      </trkpt>
      <trkpt lat="43.79265" lon="6.39946">
        <ele>795.6281738</ele>
        <time>2010-04-17T08:46:22Z</time>
      </trkpt>
      <trkpt lat="43.79253" lon="6.39946">
        <ele>798.9929199</ele>
        <time>2010-04-17T08:46:29Z</time>
      </trkpt>
      <trkpt lat="43.79247" lon="6.39947">
        <ele>799.4736328</ele>
        <time>2010-04-17T08:46:33Z</time>
      </trkpt>
      <trkpt lat="43.79242" lon="6.39947">
        <ele>798.9929199</ele>
        <time>2010-04-17T08:46:39Z</time>
      </trkpt>
      <trkpt lat="43.79242" lon="6.39943">
        <ele>790.3410645</ele>
        <time>2010-04-17T08:46:59Z</time>
      </trkpt>
      <trkpt lat="43.79238" lon="6.39942">
        <ele>791.782959</ele>
        <time>2010-04-17T08:47:03Z</time>
      </trkpt>
      <trkpt lat="43.79228" lon="6.39942">
        <ele>794.1862793</ele>
        <time>2010-04-17T08:47:07Z</time>
      </trkpt>
      <trkpt lat="43.79208" lon="6.39935">
        <ele>795.6281738</ele>
        <time>2010-04-17T08:47:13Z</time>
      </trkpt>
      <trkpt lat="43.79201" lon="6.39932">
        <ele>795.6281738</ele>
        <time>2010-04-17T08:47:15Z</time>
      </trkpt>
      <trkpt lat="43.79193" lon="6.39927">
        <ele>793.7055664</ele>
        <time>2010-04-17T08:47:17Z</time>
      </trkpt>
      <trkpt lat="43.79184" lon="6.39923">
        <ele>793.2248535</ele>
        <time>2010-04-17T08:47:19Z</time>
      </trkpt>
      <trkpt lat="43.79159" lon="6.39918">
        <ele>792.2636719</ele>
        <time>2010-04-17T08:47:25Z</time>
      </trkpt>
      <trkpt lat="43.79137" lon="6.39914">
        <ele>790.8215332</ele>
        <time>2010-04-17T08:47:31Z</time>
      </trkpt>
      <trkpt lat="43.79132" lon="6.39915">
        <ele>791.3022461</ele>
        <time>2010-04-17T08:47:34Z</time>
      </trkpt>
      <trkpt lat="43.79133" lon="6.39916">
        <ele>791.782959</ele>
        <time>2010-04-17T08:47:42Z</time>
      </trkpt>
      <trkpt lat="43.79134" lon="6.39915">
        <ele>792.7443848</ele>
        <time>2010-04-17T08:50:09Z</time>
      </trkpt>
      <trkpt lat="43.79134" lon="6.39915">
        <ele>792.7443848</ele>
        <time>2010-04-17T08:50:30Z</time>
      </trkpt>
      <trkpt lat="43.79135" lon="6.39915">
        <ele>792.7443848</ele>
        <time>2010-04-17T08:50:45Z</time>
      </trkpt>
      <trkpt lat="43.79134" lon="6.39915">
        <ele>792.7443848</ele>
        <time>2010-04-17T08:51:13Z</time>
      </trkpt>
      <trkpt lat="43.79135" lon="6.39915">
        <ele>792.2636719</ele>
        <time>2010-04-17T08:51:41Z</time>
      </trkpt>
      <trkpt lat="43.79134" lon="6.39915">
        <ele>791.782959</ele>
        <time>2010-04-17T08:51:55Z</time>
      </trkpt>
      <trkpt lat="43.79134" lon="6.39915">
        <ele>792.7443848</ele>
        <time>2010-04-17T08:52:14Z</time>
      </trkpt>
      <trkpt lat="43.79139" lon="6.39915">
        <ele>796.5898438</ele>
        <time>2010-04-17T08:52:25Z</time>
      </trkpt>
      <trkpt lat="43.79139" lon="6.39916">
        <ele>798.512207</ele>
        <time>2010-04-17T08:52:30Z</time>
      </trkpt>
      <trkpt lat="43.79138" lon="6.39919">
        <ele>798.9929199</ele>
        <time>2010-04-17T08:52:48Z</time>
      </trkpt>
      <trkpt lat="43.79138" lon="6.39919">
        <ele>798.512207</ele>
        <time>2010-04-17T08:52:58Z</time>
      </trkpt>
      <trkpt lat="43.79137" lon="6.39919">
        <ele>797.5510254</ele>
        <time>2010-04-17T08:53:09Z</time>
      </trkpt>
      <trkpt lat="43.79137" lon="6.39919">
        <ele>796.5898438</ele>
        <time>2010-04-17T08:53:19Z</time>
      </trkpt>
      <trkpt lat="43.79136" lon="6.39919">
        <ele>796.1091309</ele>
        <time>2010-04-17T08:53:45Z</time>
      </trkpt>
      <trkpt lat="43.79136" lon="6.39919">
        <ele>794.1862793</ele>
        <time>2010-04-17T08:53:57Z</time>
      </trkpt>
      <trkpt lat="43.79136" lon="6.39919">
        <ele>794.1862793</ele>
        <time>2010-04-17T08:54:15Z</time>
      </trkpt>
      <trkpt lat="43.79135" lon="6.39919">
        <ele>795.6281738</ele>
        <time>2010-04-17T08:54:25Z</time>
      </trkpt>
      <trkpt lat="43.79135" lon="6.39919">
        <ele>794.666748</ele>
        <time>2010-04-17T08:54:36Z</time>
      </trkpt>
      <trkpt lat="43.79137" lon="6.39916">
        <ele>798.9929199</ele>
        <time>2010-04-17T08:54:50Z</time>
      </trkpt>
      <trkpt lat="43.79139" lon="6.39912">
        <ele>800.9155273</ele>
        <time>2010-04-17T08:54:57Z</time>
      </trkpt>
      <trkpt lat="43.79139" lon="6.39909">
        <ele>799.9543457</ele>
        <time>2010-04-17T08:55:08Z</time>
      </trkpt>
      <trkpt lat="43.79152" lon="6.39911">
        <ele>802.8381348</ele>
        <time>2010-04-17T08:55:14Z</time>
      </trkpt>
      <trkpt lat="43.79167" lon="6.39916">
        <ele>802.3574219</ele>
        <time>2010-04-17T08:55:21Z</time>
      </trkpt>
      <trkpt lat="43.79165" lon="6.39917">
        <ele>797.5510254</ele>
        <time>2010-04-17T08:55:26Z</time>
      </trkpt>
      <trkpt lat="43.79161" lon="6.39918">
        <ele>796.1091309</ele>
        <time>2010-04-17T08:55:32Z</time>
      </trkpt>
      <trkpt lat="43.79163" lon="6.39918">
        <ele>796.1091309</ele>
        <time>2010-04-17T08:55:33Z</time>
      </trkpt>
      <trkpt lat="43.79177" lon="6.39921">
        <ele>797.5510254</ele>
        <time>2010-04-17T08:55:41Z</time>
      </trkpt>
      <trkpt lat="43.79188" lon="6.39924">
        <ele>797.5510254</ele>
        <time>2010-04-17T08:55:47Z</time>
      </trkpt>
      <trkpt lat="43.79188" lon="6.39925">
        <ele>798.0317383</ele>
        <time>2010-04-17T08:55:50Z</time>
      </trkpt>
      <trkpt lat="43.79179" lon="6.39926">
        <ele>797.0703125</ele>
        <time>2010-04-17T08:55:55Z</time>
      </trkpt>
      <trkpt lat="43.79172" lon="6.39926">
        <ele>796.1091309</ele>
        <time>2010-04-17T08:55:58Z</time>
      </trkpt>
      <trkpt lat="43.79164" lon="6.39923">
        <ele>795.1474609</ele>
        <time>2010-04-17T08:56:03Z</time>
      </trkpt>
      <trkpt lat="43.79164" lon="6.39922">
        <ele>796.1091309</ele>
        <time>2010-04-17T08:56:12Z</time>
      </trkpt>
      <trkpt lat="43.79163" lon="6.39923">
        <ele>792.2636719</ele>
        <time>2010-04-17T08:56:25Z</time>
      </trkpt>
      <trkpt lat="43.79162" lon="6.39922">
        <ele>792.2636719</ele>
        <time>2010-04-17T08:56:31Z</time>
      </trkpt>
      <trkpt lat="43.7917" lon="6.39918">
        <ele>795.1474609</ele>
        <time>2010-04-17T08:56:35Z</time>
      </trkpt>
      <trkpt lat="43.79191" lon="6.39927">
        <ele>798.0317383</ele>
        <time>2010-04-17T08:56:43Z</time>
      </trkpt>
      <trkpt lat="43.7921" lon="6.3993">
        <ele>797.5510254</ele>
        <time>2010-04-17T08:56:49Z</time>
      </trkpt>
      <trkpt lat="43.79231" lon="6.39938">
        <ele>799.4736328</ele>
        <time>2010-04-17T08:56:54Z</time>
      </trkpt>
      <trkpt lat="43.79265" lon="6.39943">
        <ele>798.512207</ele>
        <time>2010-04-17T08:57:03Z</time>
      </trkpt>
      <trkpt lat="43.79282" lon="6.3995">
        <ele>797.5510254</ele>
        <time>2010-04-17T08:57:08Z</time>
      </trkpt>
      <trkpt lat="43.79286" lon="6.39943">
        <ele>795.1474609</ele>
        <time>2010-04-17T08:57:12Z</time>
      </trkpt>
      <trkpt lat="43.79285" lon="6.39939">
        <ele>794.1862793</ele>
        <time>2010-04-17T08:57:14Z</time>
      </trkpt>
      <trkpt lat="43.79285" lon="6.39933">
        <ele>794.666748</ele>
        <time>2010-04-17T08:57:17Z</time>
      </trkpt>
      <trkpt lat="43.79291" lon="6.39937">
        <ele>794.666748</ele>
        <time>2010-04-17T08:57:22Z</time>
      </trkpt>
      <trkpt lat="43.793" lon="6.39941">
        <ele>794.1862793</ele>
        <time>2010-04-17T08:57:26Z</time>
      </trkpt>
      <trkpt lat="43.79312" lon="6.39939">
        <ele>795.1474609</ele>
        <time>2010-04-17T08:57:32Z</time>
      </trkpt>
      <trkpt lat="43.79322" lon="6.3993">
        <ele>796.1091309</ele>
        <time>2010-04-17T08:57:38Z</time>
      </trkpt>
      <trkpt lat="43.79328" lon="6.39913">
        <ele>798.512207</ele>
        <time>2010-04-17T08:57:44Z</time>
      </trkpt>
      <trkpt lat="43.79333" lon="6.39896">
        <ele>800.4350586</ele>
        <time>2010-04-17T08:57:48Z</time>
      </trkpt>
      <trkpt lat="43.7934" lon="6.39888">
        <ele>799.9543457</ele>
        <time>2010-04-17T08:57:52Z</time>
      </trkpt>
      <trkpt lat="43.79349" lon="6.39884">
        <ele>798.9929199</ele>
        <time>2010-04-17T08:57:55Z</time>
      </trkpt>
      <trkpt lat="43.79375" lon="6.39877">
        <ele>798.0317383</ele>
        <time>2010-04-17T08:58:01Z</time>
      </trkpt>
      <trkpt lat="43.79386" lon="6.39859">
        <ele>794.1862793</ele>
        <time>2010-04-17T08:58:05Z</time>
      </trkpt>
      <trkpt lat="43.79389" lon="6.39848">
        <ele>792.7443848</ele>
        <time>2010-04-17T08:58:07Z</time>
      </trkpt>
      <trkpt lat="43.79404" lon="6.39826">
        <ele>790.3410645</ele>
        <time>2010-04-17T08:58:12Z</time>
      </trkpt>
      <trkpt lat="43.79409" lon="6.39828">
        <ele>793.2248535</ele>
        <time>2010-04-17T08:58:15Z</time>
      </trkpt>
      <trkpt lat="43.79407" lon="6.39832">
        <ele>793.2248535</ele>
        <time>2010-04-17T08:58:18Z</time>
      </trkpt>
      <trkpt lat="43.79412" lon="6.39842">
        <ele>792.2636719</ele>
        <time>2010-04-17T08:58:24Z</time>
      </trkpt>
      <trkpt lat="43.79415" lon="6.39843">
        <ele>791.782959</ele>
        <time>2010-04-17T08:58:26Z</time>
      </trkpt>
      <trkpt lat="43.79417" lon="6.39845">
        <ele>792.2636719</ele>
        <time>2010-04-17T08:58:32Z</time>
      </trkpt>
      <trkpt lat="43.79416" lon="6.39844">
        <ele>792.7443848</ele>
        <time>2010-04-17T08:58:35Z</time>
      </trkpt>
      <trkpt lat="43.79417" lon="6.39838">
        <ele>789.8603516</ele>
        <time>2010-04-17T08:58:42Z</time>
      </trkpt>
      <trkpt lat="43.79417" lon="6.39839">
        <ele>786.9763184</ele>
        <time>2010-04-17T08:58:48Z</time>
      </trkpt>
      <trkpt lat="43.79416" lon="6.39842">
        <ele>785.0539551</ele>
        <time>2010-04-17T08:59:03Z</time>
      </trkpt>
      <trkpt lat="43.79416" lon="6.39838">
        <ele>807.1640625</ele>
        <time>2010-04-17T09:00:11Z</time>
      </trkpt>
      <trkpt lat="43.79421" lon="6.39843">
        <ele>806.6833496</ele>
        <time>2010-04-17T09:00:14Z</time>
      </trkpt>
      <trkpt lat="43.79426" lon="6.39842">
        <ele>806.2026367</ele>
        <time>2010-04-17T09:00:18Z</time>
      </trkpt>
      <trkpt lat="43.79427" lon="6.39841">
        <ele>804.7607422</ele>
        <time>2010-04-17T09:00:24Z</time>
      </trkpt>
      <trkpt lat="43.79427" lon="6.39844">
        <ele>801.3962402</ele>
        <time>2010-04-17T09:00:30Z</time>
      </trkpt>
      <trkpt lat="43.79436" lon="6.39842">
        <ele>801.8769531</ele>
        <time>2010-04-17T09:00:34Z</time>
      </trkpt>
      <trkpt lat="43.79453" lon="6.39839">
        <ele>804.2802734</ele>
        <time>2010-04-17T09:00:41Z</time>
      </trkpt>
      <trkpt lat="43.79455" lon="6.39838">
        <ele>803.7995605</ele>
        <time>2010-04-17T09:00:42Z</time>
      </trkpt>
      <trkpt lat="43.79461" lon="6.39826">
        <ele>802.8381348</ele>
        <time>2010-04-17T09:00:46Z</time>
      </trkpt>
      <trkpt lat="43.79461" lon="6.39803">
        <ele>804.7607422</ele>
        <time>2010-04-17T09:00:54Z</time>
      </trkpt>
      <trkpt lat="43.7946" lon="6.39777">
        <ele>800.9155273</ele>
        <time>2010-04-17T09:01:01Z</time>
      </trkpt>
      <trkpt lat="43.79458" lon="6.39758">
        <ele>799.4736328</ele>
        <time>2010-04-17T09:01:07Z</time>
      </trkpt>
      <trkpt lat="43.79464" lon="6.39744">
        <ele>798.9929199</ele>
        <time>2010-04-17T09:01:11Z</time>
      </trkpt>
      <trkpt lat="43.79473" lon="6.3973">
        <ele>798.9929199</ele>
        <time>2010-04-17T09:01:17Z</time>
      </trkpt>
      <trkpt lat="43.79482" lon="6.39712">
        <ele>797.5510254</ele>
        <time>2010-04-17T09:01:24Z</time>
      </trkpt>
      <trkpt lat="43.79481" lon="6.39696">
        <ele>797.5510254</ele>
        <time>2010-04-17T09:01:30Z</time>
      </trkpt>
      <trkpt lat="43.79472" lon="6.39679">
        <ele>798.512207</ele>
        <time>2010-04-17T09:01:37Z</time>
      </trkpt>
      <trkpt lat="43.7946" lon="6.39659">
        <ele>794.1862793</ele>
        <time>2010-04-17T09:01:44Z</time>
      </trkpt>
      <trkpt lat="43.79453" lon="6.39642">
        <ele>792.7443848</ele>
        <time>2010-04-17T09:01:50Z</time>
      </trkpt>
      <trkpt lat="43.79452" lon="6.3964">
        <ele>794.666748</ele>
        <time>2010-04-17T09:01:51Z</time>
      </trkpt>
      <trkpt lat="43.79449" lon="6.3963">
        <ele>801.3962402</ele>
        <time>2010-04-17T09:01:58Z</time>
      </trkpt>
      <trkpt lat="43.7945" lon="6.39609">
        <ele>801.8769531</ele>
        <time>2010-04-17T09:02:05Z</time>
      </trkpt>
      <trkpt lat="43.79452" lon="6.39595">
        <ele>802.8381348</ele>
        <time>2010-04-17T09:02:10Z</time>
      </trkpt>
      <trkpt lat="43.79451" lon="6.39588">
        <ele>803.7995605</ele>
        <time>2010-04-17T09:02:13Z</time>
      </trkpt>
      <trkpt lat="43.79454" lon="6.39577">
        <ele>803.7995605</ele>
        <time>2010-04-17T09:02:17Z</time>
      </trkpt>
      <trkpt lat="43.79456" lon="6.39557">
        <ele>811.4899902</ele>
        <time>2010-04-17T09:02:24Z</time>
      </trkpt>
      <trkpt lat="43.79455" lon="6.3954">
        <ele>815.8161621</ele>
        <time>2010-04-17T09:02:31Z</time>
      </trkpt>
      <trkpt lat="43.79454" lon="6.39518">
        <ele>814.3740234</ele>
        <time>2010-04-17T09:02:38Z</time>
      </trkpt>
      <trkpt lat="43.79451" lon="6.39497">
        <ele>815.3354492</ele>
        <time>2010-04-17T09:02:45Z</time>
      </trkpt>
      <trkpt lat="43.7945" lon="6.39479">
        <ele>814.8547363</ele>
        <time>2010-04-17T09:02:52Z</time>
      </trkpt>
      <trkpt lat="43.79451" lon="6.39454">
        <ele>810.5285645</ele>
        <time>2010-04-17T09:02:59Z</time>
      </trkpt>
      <trkpt lat="43.79451" lon="6.39435">
        <ele>813.4128418</ele>
        <time>2010-04-17T09:03:05Z</time>
      </trkpt>
      <trkpt lat="43.79451" lon="6.39416">
        <ele>816.2966309</ele>
        <time>2010-04-17T09:03:12Z</time>
      </trkpt>
      <trkpt lat="43.79449" lon="6.39387">
        <ele>816.7773438</ele>
        <time>2010-04-17T09:03:20Z</time>
      </trkpt>
      <trkpt lat="43.79445" lon="6.39362">
        <ele>814.3740234</ele>
        <time>2010-04-17T09:03:27Z</time>
      </trkpt>
      <trkpt lat="43.79439" lon="6.39338">
        <ele>812.451416</ele>
        <time>2010-04-17T09:03:34Z</time>
      </trkpt>
      <trkpt lat="43.79434" lon="6.39312">
        <ele>807.6447754</ele>
        <time>2010-04-17T09:03:41Z</time>
      </trkpt>
      <trkpt lat="43.79433" lon="6.39286">
        <ele>815.3354492</ele>
        <time>2010-04-17T09:03:49Z</time>
      </trkpt>
      <trkpt lat="43.7943" lon="6.39264">
        <ele>819.661377</ele>
        <time>2010-04-17T09:03:56Z</time>
      </trkpt>
      <trkpt lat="43.7943" lon="6.39237">
        <ele>823.0258789</ele>
        <time>2010-04-17T09:04:04Z</time>
      </trkpt>
      <trkpt lat="43.79433" lon="6.39206">
        <ele>825.4289551</ele>
        <time>2010-04-17T09:04:13Z</time>
      </trkpt>
      <trkpt lat="43.79434" lon="6.3917">
        <ele>830.2358398</ele>
        <time>2010-04-17T09:04:23Z</time>
      </trkpt>
      <trkpt lat="43.79435" lon="6.39141">
        <ele>832.6391602</ele>
        <time>2010-04-17T09:04:32Z</time>
      </trkpt>
      <trkpt lat="43.7944" lon="6.39106">
        <ele>837.9262695</ele>
        <time>2010-04-17T09:04:43Z</time>
      </trkpt>
      <trkpt lat="43.79451" lon="6.39081">
        <ele>839.848877</ele>
        <time>2010-04-17T09:04:52Z</time>
      </trkpt>
      <trkpt lat="43.79463" lon="6.39064">
        <ele>839.3681641</ele>
        <time>2010-04-17T09:04:59Z</time>
      </trkpt>
      <trkpt lat="43.79476" lon="6.39062">
        <ele>840.8100586</ele>
        <time>2010-04-17T09:05:05Z</time>
      </trkpt>
      <trkpt lat="43.79492" lon="6.39071">
        <ele>842.7329102</ele>
        <time>2010-04-17T09:05:12Z</time>
      </trkpt>
      <trkpt lat="43.79506" lon="6.39084">
        <ele>844.1750488</ele>
        <time>2010-04-17T09:05:20Z</time>
      </trkpt>
      <trkpt lat="43.7952" lon="6.39104">
        <ele>848.5007324</ele>
        <time>2010-04-17T09:05:29Z</time>
      </trkpt>
      <trkpt lat="43.79531" lon="6.3912">
        <ele>848.5007324</ele>
        <time>2010-04-17T09:05:36Z</time>
      </trkpt>
      <trkpt lat="43.79548" lon="6.39135">
        <ele>847.5395508</ele>
        <time>2010-04-17T09:05:45Z</time>
      </trkpt>
      <trkpt lat="43.79568" lon="6.39146">
        <ele>847.5395508</ele>
        <time>2010-04-17T09:05:54Z</time>
      </trkpt>
      <trkpt lat="43.79589" lon="6.39159">
        <ele>848.0202637</ele>
        <time>2010-04-17T09:06:04Z</time>
      </trkpt>
      <trkpt lat="43.79602" lon="6.3917">
        <ele>850.423584</ele>
        <time>2010-04-17T09:06:11Z</time>
      </trkpt>
      <trkpt lat="43.79614" lon="6.39184">
        <ele>851.8654785</ele>
        <time>2010-04-17T09:06:18Z</time>
      </trkpt>
      <trkpt lat="43.79627" lon="6.39203">
        <ele>852.3459473</ele>
        <time>2010-04-17T09:06:26Z</time>
      </trkpt>
      <trkpt lat="43.79628" lon="6.39222">
        <ele>855.2299805</ele>
        <time>2010-04-17T09:06:32Z</time>
      </trkpt>
      <trkpt lat="43.79622" lon="6.39231">
        <ele>855.7106934</ele>
        <time>2010-04-17T09:06:36Z</time>
      </trkpt>
      <trkpt lat="43.79609" lon="6.39225">
        <ele>857.1525879</ele>
        <time>2010-04-17T09:06:42Z</time>
      </trkpt>
      <trkpt lat="43.79592" lon="6.39206">
        <ele>858.1140137</ele>
        <time>2010-04-17T09:06:51Z</time>
      </trkpt>
      <trkpt lat="43.79574" lon="6.39198">
        <ele>859.5559082</ele>
        <time>2010-04-17T09:06:59Z</time>
      </trkpt>
      <trkpt lat="43.79556" lon="6.39198">
        <ele>861.9594727</ele>
        <time>2010-04-17T09:07:07Z</time>
      </trkpt>
      <trkpt lat="43.79538" lon="6.392">
        <ele>864.3625488</ele>
        <time>2010-04-17T09:07:15Z</time>
      </trkpt>
      <trkpt lat="43.79522" lon="6.39201">
        <ele>865.8046875</ele>
        <time>2010-04-17T09:07:22Z</time>
      </trkpt>
      <trkpt lat="43.79505" lon="6.39208">
        <ele>867.7270508</ele>
        <time>2010-04-17T09:07:30Z</time>
      </trkpt>
      <trkpt lat="43.79497" lon="6.39223">
        <ele>869.1691895</ele>
        <time>2010-04-17T09:07:36Z</time>
      </trkpt>
      <trkpt lat="43.79498" lon="6.39248">
        <ele>871.5722656</ele>
        <time>2010-04-17T09:07:44Z</time>
      </trkpt>
      <trkpt lat="43.79504" lon="6.39279">
        <ele>871.5722656</ele>
        <time>2010-04-17T09:07:54Z</time>
      </trkpt>
      <trkpt lat="43.7951" lon="6.393">
        <ele>873.0144043</ele>
        <time>2010-04-17T09:08:01Z</time>
      </trkpt>
      <trkpt lat="43.79518" lon="6.3932">
        <ele>873.9755859</ele>
        <time>2010-04-17T09:08:08Z</time>
      </trkpt>
      <trkpt lat="43.79525" lon="6.39337">
        <ele>876.3791504</ele>
        <time>2010-04-17T09:08:14Z</time>
      </trkpt>
      <trkpt lat="43.79536" lon="6.39357">
        <ele>877.8210449</ele>
        <time>2010-04-17T09:08:22Z</time>
      </trkpt>
      <trkpt lat="43.79549" lon="6.39376">
        <ele>879.2629395</ele>
        <time>2010-04-17T09:08:30Z</time>
      </trkpt>
      <trkpt lat="43.79564" lon="6.3939">
        <ele>878.3017578</ele>
        <time>2010-04-17T09:08:38Z</time>
      </trkpt>
      <trkpt lat="43.79578" lon="6.39404">
        <ele>879.2629395</ele>
        <time>2010-04-17T09:08:46Z</time>
      </trkpt>
      <trkpt lat="43.79588" lon="6.3942">
        <ele>879.2629395</ele>
        <time>2010-04-17T09:08:53Z</time>
      </trkpt>
      <trkpt lat="43.79598" lon="6.39438">
        <ele>881.185791</ele>
        <time>2010-04-17T09:09:00Z</time>
      </trkpt>
      <trkpt lat="43.79607" lon="6.39456">
        <ele>882.6276855</ele>
        <time>2010-04-17T09:09:07Z</time>
      </trkpt>
      <trkpt lat="43.79614" lon="6.39479">
        <ele>882.6276855</ele>
        <time>2010-04-17T09:09:15Z</time>
      </trkpt>
      <trkpt lat="43.79618" lon="6.39509">
        <ele>884.550293</ele>
        <time>2010-04-17T09:09:24Z</time>
      </trkpt>
      <trkpt lat="43.79624" lon="6.39522">
        <ele>885.9921875</ele>
        <time>2010-04-17T09:09:29Z</time>
      </trkpt>
      <trkpt lat="43.7963" lon="6.39524">
        <ele>887.434082</ele>
        <time>2010-04-17T09:09:32Z</time>
      </trkpt>
      <trkpt lat="43.79639" lon="6.39511">
        <ele>887.434082</ele>
        <time>2010-04-17T09:09:39Z</time>
      </trkpt>
      <trkpt lat="43.7964" lon="6.3949">
        <ele>888.8762207</ele>
        <time>2010-04-17T09:09:46Z</time>
      </trkpt>
      <trkpt lat="43.79647" lon="6.39467">
        <ele>892.2409668</ele>
        <time>2010-04-17T09:09:54Z</time>
      </trkpt>
      <trkpt lat="43.7966" lon="6.39459">
        <ele>894.1635742</ele>
        <time>2010-04-17T09:10:00Z</time>
      </trkpt>
      <trkpt lat="43.79672" lon="6.39465">
        <ele>894.644043</ele>
        <time>2010-04-17T09:10:06Z</time>
      </trkpt>
      <trkpt lat="43.79682" lon="6.39478">
        <ele>892.7216797</ele>
        <time>2010-04-17T09:10:13Z</time>
      </trkpt>
      <trkpt lat="43.79693" lon="6.39492">
        <ele>895.1247559</ele>
        <time>2010-04-17T09:10:20Z</time>
      </trkpt>
      <trkpt lat="43.79707" lon="6.39505">
        <ele>898.4892578</ele>
        <time>2010-04-17T09:10:28Z</time>
      </trkpt>
      <trkpt lat="43.79722" lon="6.39511">
        <ele>900.8925781</ele>
        <time>2010-04-17T09:10:35Z</time>
      </trkpt>
      <trkpt lat="43.79737" lon="6.39507">
        <ele>903.2958984</ele>
        <time>2010-04-17T09:10:42Z</time>
      </trkpt>
      <trkpt lat="43.79749" lon="6.39494">
        <ele>909.5446777</ele>
        <time>2010-04-17T09:10:49Z</time>
      </trkpt>
      <trkpt lat="43.79755" lon="6.39483">
        <ele>911.947998</ele>
        <time>2010-04-17T09:10:55Z</time>
      </trkpt>
      <trkpt lat="43.79764" lon="6.39466">
        <ele>916.2736816</ele>
        <time>2010-04-17T09:11:02Z</time>
      </trkpt>
      <trkpt lat="43.79772" lon="6.39445">
        <ele>920.1188965</ele>
        <time>2010-04-17T09:11:10Z</time>
      </trkpt>
      <trkpt lat="43.79779" lon="6.39418">
        <ele>921.560791</ele>
        <time>2010-04-17T09:11:19Z</time>
      </trkpt>
      <trkpt lat="43.7978" lon="6.39394">
        <ele>923.9641113</ele>
        <time>2010-04-17T09:11:27Z</time>
      </trkpt>
      <trkpt lat="43.79781" lon="6.3936">
        <ele>925.40625</ele>
        <time>2010-04-17T09:11:37Z</time>
      </trkpt>
      <trkpt lat="43.79785" lon="6.39328">
        <ele>925.8869629</ele>
        <time>2010-04-17T09:11:45Z</time>
      </trkpt>
      <trkpt lat="43.79796" lon="6.39301">
        <ele>923.4836426</ele>
        <time>2010-04-17T09:11:52Z</time>
      </trkpt>
      <trkpt lat="43.79813" lon="6.3928">
        <ele>924.4450684</ele>
        <time>2010-04-17T09:11:59Z</time>
      </trkpt>
      <trkpt lat="43.79834" lon="6.39276">
        <ele>923.9641113</ele>
        <time>2010-04-17T09:12:05Z</time>
      </trkpt>
      <trkpt lat="43.79861" lon="6.39275">
        <ele>924.9257812</ele>
        <time>2010-04-17T09:12:13Z</time>
      </trkpt>
      <trkpt lat="43.79886" lon="6.39277">
        <ele>925.8869629</ele>
        <time>2010-04-17T09:12:20Z</time>
      </trkpt>
      <trkpt lat="43.79915" lon="6.39278">
        <ele>930.6936035</ele>
        <time>2010-04-17T09:12:27Z</time>
      </trkpt>
      <trkpt lat="43.79936" lon="6.39269">
        <ele>931.1743164</ele>
        <time>2010-04-17T09:12:33Z</time>
      </trkpt>
      <trkpt lat="43.79952" lon="6.3925">
        <ele>931.1743164</ele>
        <time>2010-04-17T09:12:38Z</time>
      </trkpt>
      <trkpt lat="43.79966" lon="6.39218">
        <ele>930.2128906</ele>
        <time>2010-04-17T09:12:45Z</time>
      </trkpt>
      <trkpt lat="43.79971" lon="6.39183">
        <ele>927.8095703</ele>
        <time>2010-04-17T09:12:52Z</time>
      </trkpt>
      <trkpt lat="43.79969" lon="6.39157">
        <ele>926.8483887</ele>
        <time>2010-04-17T09:12:57Z</time>
      </trkpt>
      <trkpt lat="43.79979" lon="6.39148">
        <ele>927.3291016</ele>
        <time>2010-04-17T09:13:01Z</time>
      </trkpt>
      <trkpt lat="43.79981" lon="6.39157">
        <ele>927.8095703</ele>
        <time>2010-04-17T09:13:03Z</time>
      </trkpt>
      <trkpt lat="43.7998" lon="6.39162">
        <ele>927.3291016</ele>
        <time>2010-04-17T09:13:04Z</time>
      </trkpt>
      <trkpt lat="43.79979" lon="6.39203">
        <ele>928.2902832</ele>
        <time>2010-04-17T09:13:12Z</time>
      </trkpt>
      <trkpt lat="43.79981" lon="6.39236">
        <ele>927.8095703</ele>
        <time>2010-04-17T09:13:19Z</time>
      </trkpt>
      <trkpt lat="43.79983" lon="6.39269">
        <ele>928.7709961</ele>
        <time>2010-04-17T09:13:27Z</time>
      </trkpt>
      <trkpt lat="43.7998" lon="6.39307">
        <ele>931.1743164</ele>
        <time>2010-04-17T09:13:36Z</time>
      </trkpt>
      <trkpt lat="43.79971" lon="6.39328">
        <ele>932.135498</ele>
        <time>2010-04-17T09:13:42Z</time>
      </trkpt>
      <trkpt lat="43.79953" lon="6.3935">
        <ele>933.0966797</ele>
        <time>2010-04-17T09:13:49Z</time>
      </trkpt>
      <trkpt lat="43.79937" lon="6.39377">
        <ele>932.6162109</ele>
        <time>2010-04-17T09:13:57Z</time>
      </trkpt>
      <trkpt lat="43.79928" lon="6.39399">
        <ele>934.0581055</ele>
        <time>2010-04-17T09:14:03Z</time>
      </trkpt>
      <trkpt lat="43.79926" lon="6.39422">
        <ele>935.0195312</ele>
        <time>2010-04-17T09:14:09Z</time>
      </trkpt>
      <trkpt lat="43.79928" lon="6.39449">
        <ele>937.4226074</ele>
        <time>2010-04-17T09:14:16Z</time>
      </trkpt>
      <trkpt lat="43.79927" lon="6.39472">
        <ele>938.8647461</ele>
        <time>2010-04-17T09:14:22Z</time>
      </trkpt>
      <trkpt lat="43.79926" lon="6.39501">
        <ele>941.7487793</ele>
        <time>2010-04-17T09:14:29Z</time>
      </trkpt>
      <trkpt lat="43.79925" lon="6.39539">
        <ele>943.6713867</ele>
        <time>2010-04-17T09:14:37Z</time>
      </trkpt>
      <trkpt lat="43.79923" lon="6.39571">
        <ele>938.8647461</ele>
        <time>2010-04-17T09:14:44Z</time>
      </trkpt>
      <trkpt lat="43.79921" lon="6.39609">
        <ele>937.9033203</ele>
        <time>2010-04-17T09:14:52Z</time>
      </trkpt>
      <trkpt lat="43.79926" lon="6.39647">
        <ele>941.2680664</ele>
        <time>2010-04-17T09:15:00Z</time>
      </trkpt>
      <trkpt lat="43.7993" lon="6.3969">
        <ele>944.6325684</ele>
        <time>2010-04-17T09:15:08Z</time>
      </trkpt>
      <trkpt lat="43.79933" lon="6.39744">
        <ele>947.0358887</ele>
        <time>2010-04-17T09:15:18Z</time>
      </trkpt>
      <trkpt lat="43.79935" lon="6.39779">
        <ele>949.439209</ele>
        <time>2010-04-17T09:15:25Z</time>
      </trkpt>
      <trkpt lat="43.79942" lon="6.39799">
        <ele>950.8811035</ele>
        <time>2010-04-17T09:15:29Z</time>
      </trkpt>
      <trkpt lat="43.79962" lon="6.39823">
        <ele>950.4006348</ele>
        <time>2010-04-17T09:15:36Z</time>
      </trkpt>
      <trkpt lat="43.79982" lon="6.39835">
        <ele>952.322998</ele>
        <time>2010-04-17T09:15:42Z</time>
      </trkpt>
      <trkpt lat="43.79994" lon="6.39849">
        <ele>952.322998</ele>
        <time>2010-04-17T09:15:47Z</time>
      </trkpt>
      <trkpt lat="43.80004" lon="6.39878">
        <ele>950.4006348</ele>
        <time>2010-04-17T09:15:54Z</time>
      </trkpt>
      <trkpt lat="43.80008" lon="6.39902">
        <ele>951.8425293</ele>
        <time>2010-04-17T09:16:00Z</time>
      </trkpt>
      <trkpt lat="43.80002" lon="6.39929">
        <ele>955.2070312</ele>
        <time>2010-04-17T09:16:06Z</time>
      </trkpt>
      <trkpt lat="43.79989" lon="6.39975">
        <ele>956.6491699</ele>
        <time>2010-04-17T09:16:16Z</time>
      </trkpt>
      <trkpt lat="43.7998" lon="6.40016">
        <ele>957.6105957</ele>
        <time>2010-04-17T09:16:25Z</time>
      </trkpt>
      <trkpt lat="43.7997" lon="6.4005">
        <ele>960.9750977</ele>
        <time>2010-04-17T09:16:34Z</time>
      </trkpt>
      <trkpt lat="43.79965" lon="6.40082">
        <ele>964.3395996</ele>
        <time>2010-04-17T09:16:43Z</time>
      </trkpt>
      <trkpt lat="43.79954" lon="6.40099">
        <ele>964.8203125</ele>
        <time>2010-04-17T09:16:49Z</time>
      </trkpt>
      <trkpt lat="43.79941" lon="6.40123">
        <ele>967.7041016</ele>
        <time>2010-04-17T09:16:56Z</time>
      </trkpt>
      <trkpt lat="43.79932" lon="6.40133">
        <ele>972.5109863</ele>
        <time>2010-04-17T09:17:01Z</time>
      </trkpt>
      <trkpt lat="43.79926" lon="6.40144">
        <ele>976.8369141</ele>
        <time>2010-04-17T09:17:07Z</time>
      </trkpt>
      <trkpt lat="43.79926" lon="6.40142">
        <ele>979.2399902</ele>
        <time>2010-04-17T09:17:11Z</time>
      </trkpt>
      <trkpt lat="43.79921" lon="6.40148">
        <ele>967.2236328</ele>
        <time>2010-04-17T09:17:23Z</time>
      </trkpt>
      <trkpt lat="43.79924" lon="6.4015">
        <ele>969.1462402</ele>
        <time>2010-04-17T09:17:29Z</time>
      </trkpt>
      <trkpt lat="43.79927" lon="6.40151">
        <ele>971.5493164</ele>
        <time>2010-04-17T09:17:34Z</time>
      </trkpt>
      <trkpt lat="43.79924" lon="6.40159">
        <ele>957.6105957</ele>
        <time>2010-04-17T09:18:27Z</time>
      </trkpt>
      <trkpt lat="43.79922" lon="6.40157">
        <ele>962.8977051</ele>
        <time>2010-04-17T09:18:50Z</time>
      </trkpt>
      <trkpt lat="43.79928" lon="6.40158">
        <ele>968.6655273</ele>
        <time>2010-04-17T09:18:59Z</time>
      </trkpt>
      <trkpt lat="43.79923" lon="6.40156">
        <ele>968.1848145</ele>
        <time>2010-04-17T09:19:06Z</time>
      </trkpt>
      <trkpt lat="43.79922" lon="6.40156">
        <ele>964.3395996</ele>
        <time>2010-04-17T09:19:13Z</time>
      </trkpt>
      <trkpt lat="43.79926" lon="6.40162">
        <ele>960.4943848</ele>
        <time>2010-04-17T09:19:56Z</time>
      </trkpt>
      <trkpt lat="43.79931" lon="6.40162">
        <ele>963.378418</ele>
        <time>2010-04-17T09:20:03Z</time>
      </trkpt>
      <trkpt lat="43.79929" lon="6.4016">
        <ele>965.3010254</ele>
        <time>2010-04-17T09:20:31Z</time>
      </trkpt>
      <trkpt lat="43.79925" lon="6.40162">
        <ele>956.168457</ele>
        <time>2010-04-17T09:21:01Z</time>
      </trkpt>
      <trkpt lat="43.79926" lon="6.40156">
        <ele>962.8977051</ele>
        <time>2010-04-17T09:22:53Z</time>
      </trkpt>
      <trkpt lat="43.79929" lon="6.40152">
        <ele>975.3947754</ele>
        <time>2010-04-17T09:24:41Z</time>
      </trkpt>
      <trkpt lat="43.79928" lon="6.40153">
        <ele>975.3947754</ele>
        <time>2010-04-17T09:24:51Z</time>
      </trkpt>
      <trkpt lat="43.7993" lon="6.40153">
        <ele>974.4335938</ele>
        <time>2010-04-17T09:25:01Z</time>
      </trkpt>
      <trkpt lat="43.79929" lon="6.40152">
        <ele>976.3562012</ele>
        <time>2010-04-17T09:25:06Z</time>
      </trkpt>
      <trkpt lat="43.79929" lon="6.40153">
        <ele>977.317627</ele>
        <time>2010-04-17T09:25:14Z</time>
      </trkpt>
      <trkpt lat="43.79929" lon="6.40149">
        <ele>980.201416</ele>
        <time>2010-04-17T09:25:56Z</time>
      </trkpt>
      <trkpt lat="43.79928" lon="6.40151">
        <ele>975.3947754</ele>
        <time>2010-04-17T09:26:06Z</time>
      </trkpt>
      <trkpt lat="43.79922" lon="6.40159">
        <ele>973.4724121</ele>
        <time>2010-04-17T09:26:13Z</time>
      </trkpt>
      <trkpt lat="43.79918" lon="6.4016">
        <ele>967.2236328</ele>
        <time>2010-04-17T09:26:21Z</time>
      </trkpt>
      <trkpt lat="43.79917" lon="6.40163">
        <ele>961.4558105</ele>
        <time>2010-04-17T09:26:27Z</time>
      </trkpt>
      <trkpt lat="43.79916" lon="6.40162">
        <ele>960.0136719</ele>
        <time>2010-04-17T09:26:32Z</time>
      </trkpt>
      <trkpt lat="43.79917" lon="6.40164">
        <ele>969.6269531</ele>
        <time>2010-04-17T09:26:42Z</time>
      </trkpt>
      <trkpt lat="43.79915" lon="6.40167">
        <ele>972.0302734</ele>
        <time>2010-04-17T09:26:49Z</time>
      </trkpt>
      <trkpt lat="43.79915" lon="6.40167">
        <ele>972.5109863</ele>
        <time>2010-04-17T09:26:50Z</time>
      </trkpt>
      <trkpt lat="43.79914" lon="6.40181">
        <ele>973.9528809</ele>
        <time>2010-04-17T09:26:56Z</time>
      </trkpt>
      <trkpt lat="43.79913" lon="6.40193">
        <ele>975.8754883</ele>
        <time>2010-04-17T09:26:59Z</time>
      </trkpt>
      <trkpt lat="43.79907" lon="6.40217">
        <ele>970.1074219</ele>
        <time>2010-04-17T09:27:05Z</time>
      </trkpt>
      <trkpt lat="43.79906" lon="6.40222">
        <ele>969.1462402</ele>
        <time>2010-04-17T09:27:06Z</time>
      </trkpt>
      <trkpt lat="43.79913" lon="6.40243">
        <ele>965.7817383</ele>
        <time>2010-04-17T09:27:12Z</time>
      </trkpt>
      <trkpt lat="43.79929" lon="6.40265">
        <ele>965.7817383</ele>
        <time>2010-04-17T09:27:18Z</time>
      </trkpt>
      <trkpt lat="43.79946" lon="6.40268">
        <ele>965.7817383</ele>
        <time>2010-04-17T09:27:23Z</time>
      </trkpt>
      <trkpt lat="43.7996" lon="6.4027">
        <ele>966.262207</ele>
        <time>2010-04-17T09:27:27Z</time>
      </trkpt>
      <trkpt lat="43.79983" lon="6.4029">
        <ele>967.7041016</ele>
        <time>2010-04-17T09:27:34Z</time>
      </trkpt>
      <trkpt lat="43.79993" lon="6.4031">
        <ele>972.5109863</ele>
        <time>2010-04-17T09:27:40Z</time>
      </trkpt>
      <trkpt lat="43.80011" lon="6.40324">
        <ele>972.5109863</ele>
        <time>2010-04-17T09:27:47Z</time>
      </trkpt>
      <trkpt lat="43.80031" lon="6.40322">
        <ele>971.0688477</ele>
        <time>2010-04-17T09:27:53Z</time>
      </trkpt>
      <trkpt lat="43.80047" lon="6.40311">
        <ele>969.1462402</ele>
        <time>2010-04-17T09:27:59Z</time>
      </trkpt>
      <trkpt lat="43.8005" lon="6.40308">
        <ele>968.6655273</ele>
        <time>2010-04-17T09:28:00Z</time>
      </trkpt>
      <trkpt lat="43.80074" lon="6.40305">
        <ele>967.7041016</ele>
        <time>2010-04-17T09:28:05Z</time>
      </trkpt>
      <trkpt lat="43.80086" lon="6.40314">
        <ele>968.6655273</ele>
        <time>2010-04-17T09:28:08Z</time>
      </trkpt>
      <trkpt lat="43.80093" lon="6.40322">
        <ele>969.6269531</ele>
        <time>2010-04-17T09:28:10Z</time>
      </trkpt>
      <trkpt lat="43.80119" lon="6.40348">
        <ele>970.1074219</ele>
        <time>2010-04-17T09:28:17Z</time>
      </trkpt>
      <trkpt lat="43.80123" lon="6.40352">
        <ele>970.5881348</ele>
        <time>2010-04-17T09:28:18Z</time>
      </trkpt>
      <trkpt lat="43.80134" lon="6.40379">
        <ele>969.6269531</ele>
        <time>2010-04-17T09:28:23Z</time>
      </trkpt>
      <trkpt lat="43.80135" lon="6.40412">
        <ele>971.0688477</ele>
        <time>2010-04-17T09:28:28Z</time>
      </trkpt>
      <trkpt lat="43.80127" lon="6.40461">
        <ele>970.1074219</ele>
        <time>2010-04-17T09:28:34Z</time>
      </trkpt>
      <trkpt lat="43.80121" lon="6.40503">
        <ele>971.5493164</ele>
        <time>2010-04-17T09:28:40Z</time>
      </trkpt>
      <trkpt lat="43.80116" lon="6.40534">
        <ele>971.5493164</ele>
        <time>2010-04-17T09:28:46Z</time>
      </trkpt>
      <trkpt lat="43.80112" lon="6.40553">
        <ele>973.4724121</ele>
        <time>2010-04-17T09:28:50Z</time>
      </trkpt>
      <trkpt lat="43.80108" lon="6.40565">
        <ele>973.4724121</ele>
        <time>2010-04-17T09:28:52Z</time>
      </trkpt>
      <trkpt lat="43.80108" lon="6.40591">
        <ele>971.5493164</ele>
        <time>2010-04-17T09:28:56Z</time>
      </trkpt>
      <trkpt lat="43.80124" lon="6.40608">
        <ele>970.1074219</ele>
        <time>2010-04-17T09:29:00Z</time>
      </trkpt>
      <trkpt lat="43.80128" lon="6.40609">
        <ele>970.5881348</ele>
        <time>2010-04-17T09:29:01Z</time>
      </trkpt>
      <trkpt lat="43.80163" lon="6.40617">
        <ele>972.9916992</ele>
        <time>2010-04-17T09:29:10Z</time>
      </trkpt>
      <trkpt lat="43.80176" lon="6.40631">
        <ele>972.0302734</ele>
        <time>2010-04-17T09:29:14Z</time>
      </trkpt>
      <trkpt lat="43.80173" lon="6.40653">
        <ele>974.4335938</ele>
        <time>2010-04-17T09:29:17Z</time>
      </trkpt>
      <trkpt lat="43.8017" lon="6.40679">
        <ele>974.4335938</ele>
        <time>2010-04-17T09:29:20Z</time>
      </trkpt>
      <trkpt lat="43.80176" lon="6.40738">
        <ele>972.0302734</ele>
        <time>2010-04-17T09:29:26Z</time>
      </trkpt>
      <trkpt lat="43.80182" lon="6.40785">
        <ele>974.4335938</ele>
        <time>2010-04-17T09:29:31Z</time>
      </trkpt>
      <trkpt lat="43.80183" lon="6.4085">
        <ele>972.5109863</ele>
        <time>2010-04-17T09:29:38Z</time>
      </trkpt>
      <trkpt lat="43.80193" lon="6.40912">
        <ele>966.7429199</ele>
        <time>2010-04-17T09:29:44Z</time>
      </trkpt>
      <trkpt lat="43.80211" lon="6.40965">
        <ele>964.8203125</ele>
        <time>2010-04-17T09:29:50Z</time>
      </trkpt>
      <trkpt lat="43.80227" lon="6.40987">
        <ele>965.3010254</ele>
        <time>2010-04-17T09:29:54Z</time>
      </trkpt>
      <trkpt lat="43.80234" lon="6.41011">
        <ele>965.3010254</ele>
        <time>2010-04-17T09:29:58Z</time>
      </trkpt>
      <trkpt lat="43.80236" lon="6.41041">
        <ele>962.8977051</ele>
        <time>2010-04-17T09:30:02Z</time>
      </trkpt>
      <trkpt lat="43.80247" lon="6.41069">
        <ele>962.8977051</ele>
        <time>2010-04-17T09:30:06Z</time>
      </trkpt>
      <trkpt lat="43.8025" lon="6.41093">
        <ele>963.378418</ele>
        <time>2010-04-17T09:30:10Z</time>
      </trkpt>
      <trkpt lat="43.80243" lon="6.41101">
        <ele>963.378418</ele>
        <time>2010-04-17T09:30:12Z</time>
      </trkpt>
      <trkpt lat="43.80231" lon="6.41126">
        <ele>963.378418</ele>
        <time>2010-04-17T09:30:18Z</time>
      </trkpt>
      <trkpt lat="43.80231" lon="6.41148">
        <ele>964.8203125</ele>
        <time>2010-04-17T09:30:24Z</time>
      </trkpt>
      <trkpt lat="43.80234" lon="6.41166">
        <ele>967.2236328</ele>
        <time>2010-04-17T09:30:30Z</time>
      </trkpt>
      <trkpt lat="43.80232" lon="6.41184">
        <ele>970.5881348</ele>
        <time>2010-04-17T09:30:36Z</time>
      </trkpt>
      <trkpt lat="43.80226" lon="6.41206">
        <ele>970.1074219</ele>
        <time>2010-04-17T09:30:43Z</time>
      </trkpt>
      <trkpt lat="43.80221" lon="6.41231">
        <ele>971.0688477</ele>
        <time>2010-04-17T09:30:51Z</time>
      </trkpt>
      <trkpt lat="43.80219" lon="6.41248">
        <ele>973.4724121</ele>
        <time>2010-04-17T09:30:56Z</time>
      </trkpt>
      <trkpt lat="43.80215" lon="6.41266">
        <ele>978.7595215</ele>
        <time>2010-04-17T09:31:04Z</time>
      </trkpt>
      <trkpt lat="43.80211" lon="6.41288">
        <ele>984.5273438</ele>
        <time>2010-04-17T09:31:13Z</time>
      </trkpt>
      <trkpt lat="43.80209" lon="6.41305">
        <ele>986.4499512</ele>
        <time>2010-04-17T09:31:21Z</time>
      </trkpt>
      <trkpt lat="43.80205" lon="6.41326">
        <ele>986.4499512</ele>
        <time>2010-04-17T09:31:30Z</time>
      </trkpt>
      <trkpt lat="43.80201" lon="6.41343">
        <ele>991.7373047</ele>
        <time>2010-04-17T09:31:37Z</time>
      </trkpt>
      <trkpt lat="43.80197" lon="6.41362">
        <ele>995.5825195</ele>
        <time>2010-04-17T09:31:46Z</time>
      </trkpt>
      <trkpt lat="43.80196" lon="6.41382">
        <ele>998.9470215</ele>
        <time>2010-04-17T09:31:54Z</time>
      </trkpt>
      <trkpt lat="43.80186" lon="6.41388">
        <ele>1000.8696289</ele>
        <time>2010-04-17T09:32:00Z</time>
      </trkpt>
      <trkpt lat="43.80172" lon="6.41392">
        <ele>1003.2729492</ele>
        <time>2010-04-17T09:32:08Z</time>
      </trkpt>
      <trkpt lat="43.80162" lon="6.41399">
        <ele>1003.7536621</ele>
        <time>2010-04-17T09:32:14Z</time>
      </trkpt>
      <trkpt lat="43.80153" lon="6.41411">
        <ele>1006.6376953</ele>
        <time>2010-04-17T09:32:21Z</time>
      </trkpt>
      <trkpt lat="43.80142" lon="6.41428">
        <ele>1004.2346191</ele>
        <time>2010-04-17T09:32:29Z</time>
      </trkpt>
      <trkpt lat="43.80137" lon="6.41447">
        <ele>1002.3115234</ele>
        <time>2010-04-17T09:32:37Z</time>
      </trkpt>
      <trkpt lat="43.80134" lon="6.41465">
        <ele>1006.6376953</ele>
        <time>2010-04-17T09:32:46Z</time>
      </trkpt>
      <trkpt lat="43.8013" lon="6.41486">
        <ele>1010.4829102</ele>
        <time>2010-04-17T09:32:55Z</time>
      </trkpt>
      <trkpt lat="43.80125" lon="6.41509">
        <ele>1010.0021973</ele>
        <time>2010-04-17T09:33:04Z</time>
      </trkpt>
      <trkpt lat="43.80116" lon="6.41527">
        <ele>1010.0021973</ele>
        <time>2010-04-17T09:33:12Z</time>
      </trkpt>
      <trkpt lat="43.80104" lon="6.41544">
        <ele>1011.4443359</ele>
        <time>2010-04-17T09:33:20Z</time>
      </trkpt>
      <trkpt lat="43.80092" lon="6.4156">
        <ele>1019.1347656</ele>
        <time>2010-04-17T09:33:27Z</time>
      </trkpt>
      <trkpt lat="43.80074" lon="6.41574">
        <ele>1021.5380859</ele>
        <time>2010-04-17T09:33:34Z</time>
      </trkpt>
      <trkpt lat="43.8005" lon="6.41584">
        <ele>1020.5769043</ele>
        <time>2010-04-17T09:33:42Z</time>
      </trkpt>
      <trkpt lat="43.80031" lon="6.41594">
        <ele>1020.0961914</ele>
        <time>2010-04-17T09:33:48Z</time>
      </trkpt>
      <trkpt lat="43.80005" lon="6.41614">
        <ele>1022.0187988</ele>
        <time>2010-04-17T09:33:56Z</time>
      </trkpt>
      <trkpt lat="43.79981" lon="6.41632">
        <ele>1021.0576172</ele>
        <time>2010-04-17T09:34:03Z</time>
      </trkpt>
      <trkpt lat="43.79976" lon="6.41639">
        <ele>1020.0961914</ele>
        <time>2010-04-17T09:34:08Z</time>
      </trkpt>
      <trkpt lat="43.79976" lon="6.41639">
        <ele>1016.2507324</ele>
        <time>2010-04-17T09:34:26Z</time>
      </trkpt>
      <trkpt lat="43.79972" lon="6.41648">
        <ele>1015.7702637</ele>
        <time>2010-04-17T09:34:31Z</time>
      </trkpt>
      <trkpt lat="43.79969" lon="6.41661">
        <ele>1015.7702637</ele>
        <time>2010-04-17T09:34:36Z</time>
      </trkpt>
      <trkpt lat="43.79969" lon="6.41672">
        <ele>1017.692627</ele>
        <time>2010-04-17T09:34:41Z</time>
      </trkpt>
      <trkpt lat="43.79972" lon="6.41675">
        <ele>1017.2121582</ele>
        <time>2010-04-17T09:34:46Z</time>
      </trkpt>
      <trkpt lat="43.79974" lon="6.41676">
        <ele>1015.2895508</ele>
        <time>2010-04-17T09:34:53Z</time>
      </trkpt>
      <trkpt lat="43.79973" lon="6.41672">
        <ele>1012.8862305</ele>
        <time>2010-04-17T09:36:44Z</time>
      </trkpt>
      <trkpt lat="43.7997" lon="6.41673">
        <ele>1012.4055176</ele>
        <time>2010-04-17T09:58:49Z</time>
      </trkpt>
      <trkpt lat="43.7997" lon="6.41673">
        <ele>1013.8474121</ele>
        <time>2010-04-17T09:58:56Z</time>
      </trkpt>
      <trkpt lat="43.79974" lon="6.41675">
        <ele>1021.0576172</ele>
        <time>2010-04-17T09:59:35Z</time>
      </trkpt>
      <trkpt lat="43.79974" lon="6.41672">
        <ele>1015.2895508</ele>
        <time>2010-04-17T09:59:48Z</time>
      </trkpt>
      <trkpt lat="43.79972" lon="6.41668">
        <ele>1010.4829102</ele>
        <time>2010-04-17T10:00:00Z</time>
      </trkpt>
      <trkpt lat="43.79969" lon="6.41656">
        <ele>1009.5217285</ele>
        <time>2010-04-17T10:00:05Z</time>
      </trkpt>
      <trkpt lat="43.79973" lon="6.41643">
        <ele>1009.0410156</ele>
        <time>2010-04-17T10:00:10Z</time>
      </trkpt>
      <trkpt lat="43.79972" lon="6.41637">
        <ele>1009.0410156</ele>
        <time>2010-04-17T10:00:13Z</time>
      </trkpt>
      <trkpt lat="43.79966" lon="6.41641">
        <ele>1008.5603027</ele>
        <time>2010-04-17T10:00:16Z</time>
      </trkpt>
      <trkpt lat="43.79957" lon="6.41649">
        <ele>1006.6376953</ele>
        <time>2010-04-17T10:00:19Z</time>
      </trkpt>
      <trkpt lat="43.79948" lon="6.41658">
        <ele>1004.7150879</ele>
        <time>2010-04-17T10:00:21Z</time>
      </trkpt>
      <trkpt lat="43.79924" lon="6.41692">
        <ele>997.9858398</ele>
        <time>2010-04-17T10:00:26Z</time>
      </trkpt>
      <trkpt lat="43.79897" lon="6.41732">
        <ele>989.8146973</ele>
        <time>2010-04-17T10:00:32Z</time>
      </trkpt>
      <trkpt lat="43.79893" lon="6.41738">
        <ele>988.3728027</ele>
        <time>2010-04-17T10:00:33Z</time>
      </trkpt>
      <trkpt lat="43.79865" lon="6.41757">
        <ele>983.0852051</ele>
        <time>2010-04-17T10:00:38Z</time>
      </trkpt>
      <trkpt lat="43.79858" lon="6.41761">
        <ele>981.6433105</ele>
        <time>2010-04-17T10:00:39Z</time>
      </trkpt>
      <trkpt lat="43.79838" lon="6.41773">
        <ele>978.2788086</ele>
        <time>2010-04-17T10:00:42Z</time>
      </trkpt>
      <trkpt lat="43.79813" lon="6.41786">
        <ele>973.9528809</ele>
        <time>2010-04-17T10:00:46Z</time>
      </trkpt>
      <trkpt lat="43.79789" lon="6.41807">
        <ele>967.7041016</ele>
        <time>2010-04-17T10:00:51Z</time>
      </trkpt>
      <trkpt lat="43.79786" lon="6.41811">
        <ele>966.7429199</ele>
        <time>2010-04-17T10:00:52Z</time>
      </trkpt>
      <trkpt lat="43.79786" lon="6.41824">
        <ele>964.3395996</ele>
        <time>2010-04-17T10:00:57Z</time>
      </trkpt>
      <trkpt lat="43.79786" lon="6.41829">
        <ele>962.4169922</ele>
        <time>2010-04-17T10:01:00Z</time>
      </trkpt>
      <trkpt lat="43.79783" lon="6.41834">
        <ele>960.0136719</ele>
        <time>2010-04-17T10:01:04Z</time>
      </trkpt>
      <trkpt lat="43.79774" lon="6.41845">
        <ele>956.6491699</ele>
        <time>2010-04-17T10:01:08Z</time>
      </trkpt>
      <trkpt lat="43.79765" lon="6.41856">
        <ele>953.7651367</ele>
        <time>2010-04-17T10:01:11Z</time>
      </trkpt>
      <trkpt lat="43.79746" lon="6.41886">
        <ele>947.0358887</ele>
        <time>2010-04-17T10:01:16Z</time>
      </trkpt>
      <trkpt lat="43.79734" lon="6.41904">
        <ele>942.7102051</ele>
        <time>2010-04-17T10:01:19Z</time>
      </trkpt>
      <trkpt lat="43.79716" lon="6.41923">
        <ele>940.3068848</ele>
        <time>2010-04-17T10:01:23Z</time>
      </trkpt>
      <trkpt lat="43.79711" lon="6.41926">
        <ele>939.8259277</ele>
        <time>2010-04-17T10:01:24Z</time>
      </trkpt>
      <trkpt lat="43.79702" lon="6.41937">
        <ele>936.4614258</ele>
        <time>2010-04-17T10:01:28Z</time>
      </trkpt>
      <trkpt lat="43.79716" lon="6.41941">
        <ele>935.5</ele>
        <time>2010-04-17T10:01:30Z</time>
      </trkpt>
      <trkpt lat="43.79768" lon="6.41959">
        <ele>932.6162109</ele>
        <time>2010-04-17T10:01:37Z</time>
      </trkpt>
      <trkpt lat="43.79799" lon="6.4197">
        <ele>930.2128906</ele>
        <time>2010-04-17T10:01:42Z</time>
      </trkpt>
      <trkpt lat="43.79806" lon="6.41988">
        <ele>925.8869629</ele>
        <time>2010-04-17T10:01:46Z</time>
      </trkpt>
      <trkpt lat="43.79797" lon="6.42004">
        <ele>922.5222168</ele>
        <time>2010-04-17T10:01:49Z</time>
      </trkpt>
      <trkpt lat="43.79781" lon="6.42021">
        <ele>920.1188965</ele>
        <time>2010-04-17T10:01:52Z</time>
      </trkpt>
      <trkpt lat="43.79756" lon="6.4204">
        <ele>916.7543945</ele>
        <time>2010-04-17T10:01:56Z</time>
      </trkpt>
      <trkpt lat="43.79731" lon="6.42062">
        <ele>912.4284668</ele>
        <time>2010-04-17T10:02:00Z</time>
      </trkpt>
      <trkpt lat="43.79702" lon="6.42087">
        <ele>907.1411133</ele>
        <time>2010-04-17T10:02:05Z</time>
      </trkpt>
      <trkpt lat="43.79672" lon="6.42114">
        <ele>902.8151855</ele>
        <time>2010-04-17T10:02:10Z</time>
      </trkpt>
      <trkpt lat="43.79651" lon="6.42132">
        <ele>899.9313965</ele>
        <time>2010-04-17T10:02:15Z</time>
      </trkpt>
      <trkpt lat="43.79639" lon="6.42142">
        <ele>898.0087891</ele>
        <time>2010-04-17T10:02:19Z</time>
      </trkpt>
      <trkpt lat="43.79632" lon="6.42149">
        <ele>897.5280762</ele>
        <time>2010-04-17T10:02:21Z</time>
      </trkpt>
      <trkpt lat="43.7961" lon="6.42171">
        <ele>895.6054688</ele>
        <time>2010-04-17T10:02:26Z</time>
      </trkpt>
      <trkpt lat="43.79592" lon="6.42187">
        <ele>894.1635742</ele>
        <time>2010-04-17T10:02:31Z</time>
      </trkpt>
      <trkpt lat="43.79574" lon="6.42206">
        <ele>889.8374023</ele>
        <time>2010-04-17T10:02:36Z</time>
      </trkpt>
      <trkpt lat="43.79569" lon="6.4221">
        <ele>889.8374023</ele>
        <time>2010-04-17T10:02:37Z</time>
      </trkpt>
      <trkpt lat="43.79544" lon="6.4223">
        <ele>886.9533691</ele>
        <time>2010-04-17T10:02:42Z</time>
      </trkpt>
      <trkpt lat="43.7953" lon="6.42242">
        <ele>887.434082</ele>
        <time>2010-04-17T10:02:45Z</time>
      </trkpt>
      <trkpt lat="43.7951" lon="6.42259">
        <ele>884.0695801</ele>
        <time>2010-04-17T10:02:49Z</time>
      </trkpt>
      <trkpt lat="43.79499" lon="6.42267">
        <ele>882.6276855</ele>
        <time>2010-04-17T10:02:51Z</time>
      </trkpt>
      <trkpt lat="43.79492" lon="6.42276">
        <ele>875.4174805</ele>
        <time>2010-04-17T10:02:55Z</time>
      </trkpt>
      <trkpt lat="43.79496" lon="6.42275">
        <ele>871.5722656</ele>
        <time>2010-04-17T10:03:00Z</time>
      </trkpt>
      <trkpt lat="43.79505" lon="6.42278">
        <ele>868.2077637</ele>
        <time>2010-04-17T10:03:04Z</time>
      </trkpt>
      <trkpt lat="43.79514" lon="6.4228">
        <ele>865.8046875</ele>
        <time>2010-04-17T10:03:06Z</time>
      </trkpt>
      <trkpt lat="43.79559" lon="6.42291">
        <ele>861.4787598</ele>
        <time>2010-04-17T10:03:13Z</time>
      </trkpt>
      <trkpt lat="43.79591" lon="6.42298">
        <ele>852.3459473</ele>
        <time>2010-04-17T10:03:19Z</time>
      </trkpt>
      <trkpt lat="43.79591" lon="6.42301">
        <ele>852.3459473</ele>
        <time>2010-04-17T10:03:22Z</time>
      </trkpt>
      <trkpt lat="43.7957" lon="6.42315">
        <ele>854.2687988</ele>
        <time>2010-04-17T10:03:27Z</time>
      </trkpt>
      <trkpt lat="43.79551" lon="6.42326">
        <ele>855.2299805</ele>
        <time>2010-04-17T10:03:31Z</time>
      </trkpt>
      <trkpt lat="43.79532" lon="6.42338">
        <ele>855.7106934</ele>
        <time>2010-04-17T10:03:36Z</time>
      </trkpt>
      <trkpt lat="43.79527" lon="6.42341">
        <ele>855.7106934</ele>
        <time>2010-04-17T10:03:37Z</time>
      </trkpt>
      <trkpt lat="43.79501" lon="6.42354">
        <ele>854.7492676</ele>
        <time>2010-04-17T10:03:42Z</time>
      </trkpt>
      <trkpt lat="43.79489" lon="6.4236">
        <ele>854.2687988</ele>
        <time>2010-04-17T10:03:44Z</time>
      </trkpt>
      <trkpt lat="43.79478" lon="6.42367">
        <ele>852.8266602</ele>
        <time>2010-04-17T10:03:46Z</time>
      </trkpt>
      <trkpt lat="43.79452" lon="6.42381">
        <ele>851.3847656</ele>
        <time>2010-04-17T10:03:50Z</time>
      </trkpt>
      <trkpt lat="43.79445" lon="6.42383">
        <ele>850.423584</ele>
        <time>2010-04-17T10:03:51Z</time>
      </trkpt>
      <trkpt lat="43.79411" lon="6.42398">
        <ele>847.0588379</ele>
        <time>2010-04-17T10:03:57Z</time>
      </trkpt>
      <trkpt lat="43.79389" lon="6.42408">
        <ele>846.0976562</ele>
        <time>2010-04-17T10:04:01Z</time>
      </trkpt>
      <trkpt lat="43.79387" lon="6.42417">
        <ele>843.6940918</ele>
        <time>2010-04-17T10:04:05Z</time>
      </trkpt>
      <trkpt lat="43.7941" lon="6.42422">
        <ele>839.3681641</ele>
        <time>2010-04-17T10:04:09Z</time>
      </trkpt>
      <trkpt lat="43.79415" lon="6.42423">
        <ele>837.9262695</ele>
        <time>2010-04-17T10:04:10Z</time>
      </trkpt>
      <trkpt lat="43.79433" lon="6.42428">
        <ele>835.0424805</ele>
        <time>2010-04-17T10:04:13Z</time>
      </trkpt>
      <trkpt lat="43.7947" lon="6.42436">
        <ele>828.7939453</ele>
        <time>2010-04-17T10:04:19Z</time>
      </trkpt>
      <trkpt lat="43.79496" lon="6.42443">
        <ele>824.9484863</ele>
        <time>2010-04-17T10:04:23Z</time>
      </trkpt>
      <trkpt lat="43.79508" lon="6.42446">
        <ele>823.0258789</ele>
        <time>2010-04-17T10:04:25Z</time>
      </trkpt>
      <trkpt lat="43.79512" lon="6.42456">
        <ele>822.0644531</ele>
        <time>2010-04-17T10:04:29Z</time>
      </trkpt>
      <trkpt lat="43.79508" lon="6.42459">
        <ele>822.0644531</ele>
        <time>2010-04-17T10:04:30Z</time>
      </trkpt>
      <trkpt lat="43.79488" lon="6.42476">
        <ele>822.545166</ele>
        <time>2010-04-17T10:04:35Z</time>
      </trkpt>
      <trkpt lat="43.79483" lon="6.4248">
        <ele>821.5837402</ele>
        <time>2010-04-17T10:04:36Z</time>
      </trkpt>
      <trkpt lat="43.79461" lon="6.425">
        <ele>819.1806641</ele>
        <time>2010-04-17T10:04:41Z</time>
      </trkpt>
      <trkpt lat="43.79445" lon="6.42514">
        <ele>817.2580566</ele>
        <time>2010-04-17T10:04:45Z</time>
      </trkpt>
      <trkpt lat="43.79428" lon="6.42527">
        <ele>815.3354492</ele>
        <time>2010-04-17T10:04:48Z</time>
      </trkpt>
      <trkpt lat="43.79409" lon="6.42543">
        <ele>810.0478516</ele>
        <time>2010-04-17T10:04:54Z</time>
      </trkpt>
      <trkpt lat="43.79432" lon="6.42546">
        <ele>803.7995605</ele>
        <time>2010-04-17T10:04:58Z</time>
      </trkpt>
      <trkpt lat="43.79449" lon="6.42547">
        <ele>800.4350586</ele>
        <time>2010-04-17T10:05:01Z</time>
      </trkpt>
      <trkpt lat="43.79471" lon="6.42552">
        <ele>798.512207</ele>
        <time>2010-04-17T10:05:06Z</time>
      </trkpt>
      <trkpt lat="43.79486" lon="6.42553">
        <ele>795.1474609</ele>
        <time>2010-04-17T10:05:11Z</time>
      </trkpt>
      <trkpt lat="43.79489" lon="6.42555">
        <ele>794.666748</ele>
        <time>2010-04-17T10:05:12Z</time>
      </trkpt>
      <trkpt lat="43.79479" lon="6.42568">
        <ele>793.7055664</ele>
        <time>2010-04-17T10:05:16Z</time>
      </trkpt>
      <trkpt lat="43.79468" lon="6.42581">
        <ele>792.7443848</ele>
        <time>2010-04-17T10:05:19Z</time>
      </trkpt>
      <trkpt lat="43.79437" lon="6.42609">
        <ele>787.9377441</ele>
        <time>2010-04-17T10:05:25Z</time>
      </trkpt>
      <trkpt lat="43.79404" lon="6.42642">
        <ele>783.6118164</ele>
        <time>2010-04-17T10:05:31Z</time>
      </trkpt>
      <trkpt lat="43.79388" lon="6.42656">
        <ele>780.7280273</ele>
        <time>2010-04-17T10:05:35Z</time>
      </trkpt>
      <trkpt lat="43.79387" lon="6.42663">
        <ele>778.3244629</ele>
        <time>2010-04-17T10:05:38Z</time>
      </trkpt>
      <trkpt lat="43.79399" lon="6.42665">
        <ele>778.3244629</ele>
        <time>2010-04-17T10:05:42Z</time>
      </trkpt>
      <trkpt lat="43.79405" lon="6.42663">
        <ele>778.8051758</ele>
        <time>2010-04-17T10:05:44Z</time>
      </trkpt>
      <trkpt lat="43.7941" lon="6.42666">
        <ele>777.3632812</ele>
        <time>2010-04-17T10:05:49Z</time>
      </trkpt>
      <trkpt lat="43.79413" lon="6.42667">
        <ele>779.2856445</ele>
        <time>2010-04-17T10:06:02Z</time>
      </trkpt>
      <trkpt lat="43.79424" lon="6.42667">
        <ele>776.4018555</ele>
        <time>2010-04-17T10:06:07Z</time>
      </trkpt>
      <trkpt lat="43.79429" lon="6.4267">
        <ele>774.9599609</ele>
        <time>2010-04-17T10:06:09Z</time>
      </trkpt>
      <trkpt lat="43.79442" lon="6.42675">
        <ele>771.1147461</ele>
        <time>2010-04-17T10:06:14Z</time>
      </trkpt>
      <trkpt lat="43.79423" lon="6.42696">
        <ele>769.6728516</ele>
        <time>2010-04-17T10:06:18Z</time>
      </trkpt>
      <trkpt lat="43.79394" lon="6.42729">
        <ele>766.7888184</ele>
        <time>2010-04-17T10:06:23Z</time>
      </trkpt>
      <trkpt lat="43.79374" lon="6.4275">
        <ele>762.9433594</ele>
        <time>2010-04-17T10:06:26Z</time>
      </trkpt>
      <trkpt lat="43.79343" lon="6.4278">
        <ele>758.6174316</ele>
        <time>2010-04-17T10:06:31Z</time>
      </trkpt>
      <trkpt lat="43.79319" lon="6.42804">
        <ele>755.2529297</ele>
        <time>2010-04-17T10:06:37Z</time>
      </trkpt>
      <trkpt lat="43.79302" lon="6.42821">
        <ele>753.3303223</ele>
        <time>2010-04-17T10:06:42Z</time>
      </trkpt>
      <trkpt lat="43.79315" lon="6.42827">
        <ele>748.5236816</ele>
        <time>2010-04-17T10:06:46Z</time>
      </trkpt>
      <trkpt lat="43.79339" lon="6.42834">
        <ele>741.3137207</ele>
        <time>2010-04-17T10:06:51Z</time>
      </trkpt>
      <trkpt lat="43.79364" lon="6.42837">
        <ele>735.5458984</ele>
        <time>2010-04-17T10:06:56Z</time>
      </trkpt>
      <trkpt lat="43.79366" lon="6.4284">
        <ele>733.1425781</ele>
        <time>2010-04-17T10:06:58Z</time>
      </trkpt>
      <trkpt lat="43.79346" lon="6.4286">
        <ele>733.1425781</ele>
        <time>2010-04-17T10:07:02Z</time>
      </trkpt>
      <trkpt lat="43.7934" lon="6.42865">
        <ele>733.623291</ele>
        <time>2010-04-17T10:07:03Z</time>
      </trkpt>
      <trkpt lat="43.79327" lon="6.42884">
        <ele>734.1040039</ele>
        <time>2010-04-17T10:07:07Z</time>
      </trkpt>
      <trkpt lat="43.79337" lon="6.42889">
        <ele>729.777832</ele>
        <time>2010-04-17T10:07:11Z</time>
      </trkpt>
      <trkpt lat="43.79362" lon="6.42891">
        <ele>723.529541</ele>
        <time>2010-04-17T10:07:15Z</time>
      </trkpt>
      <trkpt lat="43.79386" lon="6.42892">
        <ele>716.800293</ele>
        <time>2010-04-17T10:07:19Z</time>
      </trkpt>
      <trkpt lat="43.79407" lon="6.42895">
        <ele>711.5129395</ele>
        <time>2010-04-17T10:07:22Z</time>
      </trkpt>
      <trkpt lat="43.79426" lon="6.42899">
        <ele>705.7451172</ele>
        <time>2010-04-17T10:07:25Z</time>
      </trkpt>
      <trkpt lat="43.79434" lon="6.42912">
        <ele>699.015625</ele>
        <time>2010-04-17T10:07:30Z</time>
      </trkpt>
      <trkpt lat="43.79418" lon="6.4293">
        <ele>697.0930176</ele>
        <time>2010-04-17T10:07:33Z</time>
      </trkpt>
      <trkpt lat="43.79379" lon="6.42976">
        <ele>689.4025879</ele>
        <time>2010-04-17T10:07:39Z</time>
      </trkpt>
      <trkpt lat="43.79349" lon="6.43007">
        <ele>686.9992676</ele>
        <time>2010-04-17T10:07:44Z</time>
      </trkpt>
      <trkpt lat="43.79325" lon="6.43031">
        <ele>684.5961914</ele>
        <time>2010-04-17T10:07:48Z</time>
      </trkpt>
      <trkpt lat="43.79319" lon="6.4304">
        <ele>682.192627</ele>
        <time>2010-04-17T10:07:51Z</time>
      </trkpt>
      <trkpt lat="43.7933" lon="6.43043">
        <ele>680.7507324</ele>
        <time>2010-04-17T10:07:54Z</time>
      </trkpt>
      <trkpt lat="43.79348" lon="6.43046">
        <ele>680.7507324</ele>
        <time>2010-04-17T10:07:58Z</time>
      </trkpt>
      <trkpt lat="43.79361" lon="6.43047">
        <ele>679.3085938</ele>
        <time>2010-04-17T10:08:00Z</time>
      </trkpt>
      <trkpt lat="43.79396" lon="6.43049">
        <ele>678.3474121</ele>
        <time>2010-04-17T10:08:06Z</time>
      </trkpt>
      <trkpt lat="43.79425" lon="6.43052">
        <ele>675.9440918</ele>
        <time>2010-04-17T10:08:11Z</time>
      </trkpt>
      <trkpt lat="43.79428" lon="6.43053">
        <ele>674.9829102</ele>
        <time>2010-04-17T10:08:12Z</time>
      </trkpt>
      <trkpt lat="43.7942" lon="6.43065">
        <ele>672.5795898</ele>
        <time>2010-04-17T10:08:16Z</time>
      </trkpt>
      <trkpt lat="43.79403" lon="6.43083">
        <ele>670.1762695</ele>
        <time>2010-04-17T10:08:19Z</time>
      </trkpt>
      <trkpt lat="43.79398" lon="6.43091">
        <ele>668.734375</ele>
        <time>2010-04-17T10:08:20Z</time>
      </trkpt>
      <trkpt lat="43.79354" lon="6.4313">
        <ele>662.005127</ele>
        <time>2010-04-17T10:08:26Z</time>
      </trkpt>
      <trkpt lat="43.79326" lon="6.43159">
        <ele>658.1599121</ele>
        <time>2010-04-17T10:08:30Z</time>
      </trkpt>
      <trkpt lat="43.793" lon="6.43187">
        <ele>654.3146973</ele>
        <time>2010-04-17T10:08:34Z</time>
      </trkpt>
      <trkpt lat="43.79284" lon="6.43206">
        <ele>651.9111328</ele>
        <time>2010-04-17T10:08:38Z</time>
      </trkpt>
      <trkpt lat="43.79255" lon="6.43236">
        <ele>647.1044922</ele>
        <time>2010-04-17T10:08:43Z</time>
      </trkpt>
      <trkpt lat="43.79247" lon="6.43246">
        <ele>645.1818848</ele>
        <time>2010-04-17T10:08:45Z</time>
      </trkpt>
      <trkpt lat="43.79242" lon="6.43266">
        <ele>640.855957</ele>
        <time>2010-04-17T10:08:49Z</time>
      </trkpt>
      <trkpt lat="43.79242" lon="6.4327">
        <ele>637.972168</ele>
        <time>2010-04-17T10:08:52Z</time>
      </trkpt>
      <trkpt lat="43.79243" lon="6.43271">
        <ele>636.5302734</ele>
        <time>2010-04-17T10:09:00Z</time>
      </trkpt>
      <trkpt lat="43.79243" lon="6.43267">
        <ele>634.6074219</ele>
        <time>2010-04-17T10:09:18Z</time>
      </trkpt>
      <trkpt lat="43.79241" lon="6.43265">
        <ele>635.0881348</ele>
        <time>2010-04-17T10:09:28Z</time>
      </trkpt>
      <trkpt lat="43.79238" lon="6.43264">
        <ele>637.0107422</ele>
        <time>2010-04-17T10:09:35Z</time>
      </trkpt>
      <trkpt lat="43.79238" lon="6.43265">
        <ele>641.8173828</ele>
        <time>2010-04-17T10:09:47Z</time>
      </trkpt>
      <trkpt lat="43.79239" lon="6.43263">
        <ele>642.2980957</ele>
        <time>2010-04-17T10:09:57Z</time>
      </trkpt>
      <trkpt lat="43.79239" lon="6.43264">
        <ele>641.8173828</ele>
        <time>2010-04-17T10:10:07Z</time>
      </trkpt>
      <trkpt lat="43.7924" lon="6.43264">
        <ele>641.3366699</ele>
        <time>2010-04-17T10:10:14Z</time>
      </trkpt>
      <trkpt lat="43.79241" lon="6.43265">
        <ele>641.3366699</ele>
        <time>2010-04-17T10:10:27Z</time>
      </trkpt>
      <trkpt lat="43.79241" lon="6.43265">
        <ele>641.8173828</ele>
        <time>2010-04-17T10:10:39Z</time>
      </trkpt>
      <trkpt lat="43.79229" lon="6.43259">
        <ele>641.3366699</ele>
        <time>2010-04-17T10:10:45Z</time>
      </trkpt>
      <trkpt lat="43.79217" lon="6.43236">
        <ele>641.3366699</ele>
        <time>2010-04-17T10:10:50Z</time>
      </trkpt>
      <trkpt lat="43.79213" lon="6.43216">
        <ele>641.8173828</ele>
        <time>2010-04-17T10:10:54Z</time>
      </trkpt>
      <trkpt lat="43.79207" lon="6.43213">
        <ele>641.3366699</ele>
        <time>2010-04-17T10:10:56Z</time>
      </trkpt>
      <trkpt lat="43.79182" lon="6.43212">
        <ele>640.3754883</ele>
        <time>2010-04-17T10:11:03Z</time>
      </trkpt>
      <trkpt lat="43.79167" lon="6.43211">
        <ele>639.8947754</ele>
        <time>2010-04-17T10:11:07Z</time>
      </trkpt>
      <trkpt lat="43.79161" lon="6.43225">
        <ele>642.7788086</ele>
        <time>2010-04-17T10:11:12Z</time>
      </trkpt>
      <trkpt lat="43.79157" lon="6.4324">
        <ele>641.8173828</ele>
        <time>2010-04-17T10:11:16Z</time>
      </trkpt>
      <trkpt lat="43.79141" lon="6.43262">
        <ele>643.2592773</ele>
        <time>2010-04-17T10:11:24Z</time>
      </trkpt>
      <trkpt lat="43.7913" lon="6.43272">
        <ele>644.2207031</ele>
        <time>2010-04-17T10:11:30Z</time>
      </trkpt>
      <trkpt lat="43.79119" lon="6.43288">
        <ele>644.7011719</ele>
        <time>2010-04-17T10:11:37Z</time>
      </trkpt>
      <trkpt lat="43.79107" lon="6.43302">
        <ele>646.1433105</ele>
        <time>2010-04-17T10:11:44Z</time>
      </trkpt>
      <trkpt lat="43.79093" lon="6.43313">
        <ele>646.1433105</ele>
        <time>2010-04-17T10:11:50Z</time>
      </trkpt>
      <trkpt lat="43.7908" lon="6.43317">
        <ele>647.5852051</ele>
        <time>2010-04-17T10:11:57Z</time>
      </trkpt>
      <trkpt lat="43.79066" lon="6.43325">
        <ele>647.5852051</ele>
        <time>2010-04-17T10:12:04Z</time>
      </trkpt>
      <trkpt lat="43.79055" lon="6.43332">
        <ele>650.4692383</ele>
        <time>2010-04-17T10:12:11Z</time>
      </trkpt>
      <trkpt lat="43.79039" lon="6.43331">
        <ele>651.4304199</ele>
        <time>2010-04-17T10:12:19Z</time>
      </trkpt>
      <trkpt lat="43.79026" lon="6.43331">
        <ele>653.3532715</ele>
        <time>2010-04-17T10:12:27Z</time>
      </trkpt>
      <trkpt lat="43.79017" lon="6.43331">
        <ele>654.3146973</ele>
        <time>2010-04-17T10:12:33Z</time>
      </trkpt>
      <trkpt lat="43.79003" lon="6.43331">
        <ele>656.2370605</ele>
        <time>2010-04-17T10:12:42Z</time>
      </trkpt>
      <trkpt lat="43.78991" lon="6.43332">
        <ele>657.6791992</ele>
        <time>2010-04-17T10:12:50Z</time>
      </trkpt>
      <trkpt lat="43.78981" lon="6.43335">
        <ele>660.0822754</ele>
        <time>2010-04-17T10:12:57Z</time>
      </trkpt>
      <trkpt lat="43.78972" lon="6.43338">
        <ele>662.4855957</ele>
        <time>2010-04-17T10:13:03Z</time>
      </trkpt>
      <trkpt lat="43.78964" lon="6.4334">
        <ele>665.8503418</ele>
        <time>2010-04-17T10:13:07Z</time>
      </trkpt>
      <trkpt lat="43.78952" lon="6.43343">
        <ele>670.1762695</ele>
        <time>2010-04-17T10:13:15Z</time>
      </trkpt>
      <trkpt lat="43.78946" lon="6.43346">
        <ele>671.1376953</ele>
        <time>2010-04-17T10:13:19Z</time>
      </trkpt>
      <trkpt lat="43.78937" lon="6.4335">
        <ele>671.1376953</ele>
        <time>2010-04-17T10:13:26Z</time>
      </trkpt>
      <trkpt lat="43.7893" lon="6.43354">
        <ele>672.098877</ele>
        <time>2010-04-17T10:13:33Z</time>
      </trkpt>
      <trkpt lat="43.78926" lon="6.4336">
        <ele>670.6569824</ele>
        <time>2010-04-17T10:13:38Z</time>
      </trkpt>
      <trkpt lat="43.78923" lon="6.43361">
        <ele>671.1376953</ele>
        <time>2010-04-17T10:13:43Z</time>
      </trkpt>
      <trkpt lat="43.78921" lon="6.43361">
        <ele>672.5795898</ele>
        <time>2010-04-17T10:13:51Z</time>
      </trkpt>
      <trkpt lat="43.78916" lon="6.43363">
        <ele>673.0603027</ele>
        <time>2010-04-17T10:14:00Z</time>
      </trkpt>
      <trkpt lat="43.78916" lon="6.43363">
        <ele>672.5795898</ele>
        <time>2010-04-17T10:14:06Z</time>
      </trkpt>
      <trkpt lat="43.78911" lon="6.43367">
        <ele>671.6181641</ele>
        <time>2010-04-17T10:14:14Z</time>
      </trkpt>
      <trkpt lat="43.78908" lon="6.43368">
        <ele>671.6181641</ele>
        <time>2010-04-17T10:14:20Z</time>
      </trkpt>
      <trkpt lat="43.78905" lon="6.43369">
        <ele>672.5795898</ele>
        <time>2010-04-17T10:14:25Z</time>
      </trkpt>
      <trkpt lat="43.78897" lon="6.43375">
        <ele>674.9829102</ele>
        <time>2010-04-17T10:14:30Z</time>
      </trkpt>
      <trkpt lat="43.78885" lon="6.43389">
        <ele>676.9055176</ele>
        <time>2010-04-17T10:14:37Z</time>
      </trkpt>
      <trkpt lat="43.78874" lon="6.43397">
        <ele>676.9055176</ele>
        <time>2010-04-17T10:14:42Z</time>
      </trkpt>
      <trkpt lat="43.78859" lon="6.43406">
        <ele>676.9055176</ele>
        <time>2010-04-17T10:14:47Z</time>
      </trkpt>
      <trkpt lat="43.78841" lon="6.43413">
        <ele>674.9829102</ele>
        <time>2010-04-17T10:14:52Z</time>
      </trkpt>
      <trkpt lat="43.78811" lon="6.43425">
        <ele>677.3862305</ele>
        <time>2010-04-17T10:15:00Z</time>
      </trkpt>
      <trkpt lat="43.78792" lon="6.43434">
        <ele>678.3474121</ele>
        <time>2010-04-17T10:15:05Z</time>
      </trkpt>
      <trkpt lat="43.7877" lon="6.43443">
        <ele>679.3085938</ele>
        <time>2010-04-17T10:15:11Z</time>
      </trkpt>
      <trkpt lat="43.7874" lon="6.4346">
        <ele>675.9440918</ele>
        <time>2010-04-17T10:15:19Z</time>
      </trkpt>
      <trkpt lat="43.78726" lon="6.43469">
        <ele>672.5795898</ele>
        <time>2010-04-17T10:15:24Z</time>
      </trkpt>
      <trkpt lat="43.78709" lon="6.43479">
        <ele>672.098877</ele>
        <time>2010-04-17T10:15:29Z</time>
      </trkpt>
      <trkpt lat="43.78684" lon="6.43487">
        <ele>674.9829102</ele>
        <time>2010-04-17T10:15:35Z</time>
      </trkpt>
      <trkpt lat="43.78657" lon="6.43498">
        <ele>676.4248047</ele>
        <time>2010-04-17T10:15:42Z</time>
      </trkpt>
      <trkpt lat="43.78621" lon="6.43508">
        <ele>675.4633789</ele>
        <time>2010-04-17T10:15:51Z</time>
      </trkpt>
      <trkpt lat="43.78584" lon="6.4352">
        <ele>675.9440918</ele>
        <time>2010-04-17T10:16:00Z</time>
      </trkpt>
      <trkpt lat="43.78548" lon="6.43536">
        <ele>677.3862305</ele>
        <time>2010-04-17T10:16:09Z</time>
      </trkpt>
      <trkpt lat="43.78517" lon="6.43548">
        <ele>677.8666992</ele>
        <time>2010-04-17T10:16:15Z</time>
      </trkpt>
      <trkpt lat="43.78488" lon="6.43561">
        <ele>680.2700195</ele>
        <time>2010-04-17T10:16:21Z</time>
      </trkpt>
      <trkpt lat="43.78479" lon="6.43565">
        <ele>681.2314453</ele>
        <time>2010-04-17T10:16:23Z</time>
      </trkpt>
      <trkpt lat="43.78453" lon="6.43578">
        <ele>683.6345215</ele>
        <time>2010-04-17T10:16:30Z</time>
      </trkpt>
      <trkpt lat="43.78426" lon="6.43581">
        <ele>684.1154785</ele>
        <time>2010-04-17T10:16:37Z</time>
      </trkpt>
      <trkpt lat="43.78394" lon="6.43586">
        <ele>685.0769043</ele>
        <time>2010-04-17T10:16:46Z</time>
      </trkpt>
      <trkpt lat="43.78376" lon="6.43589">
        <ele>687.4799805</ele>
        <time>2010-04-17T10:16:52Z</time>
      </trkpt>
      <trkpt lat="43.78357" lon="6.43585">
        <ele>687.4799805</ele>
        <time>2010-04-17T10:16:59Z</time>
      </trkpt>
      <trkpt lat="43.78338" lon="6.43588">
        <ele>689.4025879</ele>
        <time>2010-04-17T10:17:06Z</time>
      </trkpt>
      <trkpt lat="43.78322" lon="6.43594">
        <ele>689.8833008</ele>
        <time>2010-04-17T10:17:12Z</time>
      </trkpt>
      <trkpt lat="43.78301" lon="6.43604">
        <ele>692.767334</ele>
        <time>2010-04-17T10:17:19Z</time>
      </trkpt>
      <trkpt lat="43.78284" lon="6.43611">
        <ele>691.8059082</ele>
        <time>2010-04-17T10:17:25Z</time>
      </trkpt>
      <trkpt lat="43.78268" lon="6.43616">
        <ele>694.6896973</ele>
        <time>2010-04-17T10:17:32Z</time>
      </trkpt>
      <trkpt lat="43.78245" lon="6.4362">
        <ele>694.6896973</ele>
        <time>2010-04-17T10:17:40Z</time>
      </trkpt>
      <trkpt lat="43.78227" lon="6.43624">
        <ele>693.2478027</ele>
        <time>2010-04-17T10:17:46Z</time>
      </trkpt>
      <trkpt lat="43.78205" lon="6.43637">
        <ele>691.3251953</ele>
        <time>2010-04-17T10:17:54Z</time>
      </trkpt>
      <trkpt lat="43.78193" lon="6.43647">
        <ele>694.2092285</ele>
        <time>2010-04-17T10:17:59Z</time>
      </trkpt>
      <trkpt lat="43.78175" lon="6.43665">
        <ele>696.1318359</ele>
        <time>2010-04-17T10:18:06Z</time>
      </trkpt>
      <trkpt lat="43.78158" lon="6.43679">
        <ele>698.0544434</ele>
        <time>2010-04-17T10:18:13Z</time>
      </trkpt>
      <trkpt lat="43.78141" lon="6.43688">
        <ele>698.0544434</ele>
        <time>2010-04-17T10:18:19Z</time>
      </trkpt>
      <trkpt lat="43.78122" lon="6.43697">
        <ele>698.0544434</ele>
        <time>2010-04-17T10:18:25Z</time>
      </trkpt>
      <trkpt lat="43.78094" lon="6.43705">
        <ele>697.5737305</ele>
        <time>2010-04-17T10:18:32Z</time>
      </trkpt>
      <trkpt lat="43.78071" lon="6.43714">
        <ele>697.5737305</ele>
        <time>2010-04-17T10:18:39Z</time>
      </trkpt>
      <trkpt lat="43.78068" lon="6.43715">
        <ele>697.5737305</ele>
        <time>2010-04-17T10:18:40Z</time>
      </trkpt>
      <trkpt lat="43.78042" lon="6.43718">
        <ele>695.1704102</ele>
        <time>2010-04-17T10:18:45Z</time>
      </trkpt>
      <trkpt lat="43.78023" lon="6.43725">
        <ele>694.2092285</ele>
        <time>2010-04-17T10:18:51Z</time>
      </trkpt>
      <trkpt lat="43.78002" lon="6.43729">
        <ele>696.1318359</ele>
        <time>2010-04-17T10:18:58Z</time>
      </trkpt>
      <trkpt lat="43.77985" lon="6.43733">
        <ele>696.6125488</ele>
        <time>2010-04-17T10:19:05Z</time>
      </trkpt>
      <trkpt lat="43.7797" lon="6.43734">
        <ele>697.5737305</ele>
        <time>2010-04-17T10:19:11Z</time>
      </trkpt>
      <trkpt lat="43.77958" lon="6.4374">
        <ele>698.5349121</ele>
        <time>2010-04-17T10:19:16Z</time>
      </trkpt>
      <trkpt lat="43.77941" lon="6.43747">
        <ele>697.5737305</ele>
        <time>2010-04-17T10:19:22Z</time>
      </trkpt>
      <trkpt lat="43.77923" lon="6.43744">
        <ele>699.4963379</ele>
        <time>2010-04-17T10:19:28Z</time>
      </trkpt>
      <trkpt lat="43.7791" lon="6.43731">
        <ele>697.0930176</ele>
        <time>2010-04-17T10:19:34Z</time>
      </trkpt>
      <trkpt lat="43.77899" lon="6.43726">
        <ele>697.0930176</ele>
        <time>2010-04-17T10:19:37Z</time>
      </trkpt>
      <trkpt lat="43.77891" lon="6.43733">
        <ele>691.8059082</ele>
        <time>2010-04-17T10:19:41Z</time>
      </trkpt>
      <trkpt lat="43.77865" lon="6.43762">
        <ele>693.7285156</ele>
        <time>2010-04-17T10:19:49Z</time>
      </trkpt>
      <trkpt lat="43.77852" lon="6.43772">
        <ele>692.767334</ele>
        <time>2010-04-17T10:19:54Z</time>
      </trkpt>
      <trkpt lat="43.77833" lon="6.43781">
        <ele>694.6896973</ele>
        <time>2010-04-17T10:20:01Z</time>
      </trkpt>
      <trkpt lat="43.77811" lon="6.43792">
        <ele>696.1318359</ele>
        <time>2010-04-17T10:20:09Z</time>
      </trkpt>
      <trkpt lat="43.77786" lon="6.43801">
        <ele>699.9770508</ele>
        <time>2010-04-17T10:20:18Z</time>
      </trkpt>
      <trkpt lat="43.77763" lon="6.4381">
        <ele>704.7836914</ele>
        <time>2010-04-17T10:20:27Z</time>
      </trkpt>
      <trkpt lat="43.77748" lon="6.43816">
        <ele>707.1870117</ele>
        <time>2010-04-17T10:20:35Z</time>
      </trkpt>
      <trkpt lat="43.77736" lon="6.43819">
        <ele>709.1096191</ele>
        <time>2010-04-17T10:20:42Z</time>
      </trkpt>
      <trkpt lat="43.77723" lon="6.43822">
        <ele>710.0708008</ele>
        <time>2010-04-17T10:20:49Z</time>
      </trkpt>
      <trkpt lat="43.77709" lon="6.43829">
        <ele>710.5515137</ele>
        <time>2010-04-17T10:20:56Z</time>
      </trkpt>
      <trkpt lat="43.77688" lon="6.43838">
        <ele>710.5515137</ele>
        <time>2010-04-17T10:21:06Z</time>
      </trkpt>
      <trkpt lat="43.77673" lon="6.43842">
        <ele>710.5515137</ele>
        <time>2010-04-17T10:21:12Z</time>
      </trkpt>
      <trkpt lat="43.77651" lon="6.43851">
        <ele>711.9936523</ele>
        <time>2010-04-17T10:21:21Z</time>
      </trkpt>
      <trkpt lat="43.77631" lon="6.43858">
        <ele>713.9160156</ele>
        <time>2010-04-17T10:21:29Z</time>
      </trkpt>
      <trkpt lat="43.77613" lon="6.43864">
        <ele>714.8774414</ele>
        <time>2010-04-17T10:21:37Z</time>
      </trkpt>
      <trkpt lat="43.77594" lon="6.4387">
        <ele>718.7229004</ele>
        <time>2010-04-17T10:21:45Z</time>
      </trkpt>
      <trkpt lat="43.77571" lon="6.43877">
        <ele>720.1647949</ele>
        <time>2010-04-17T10:21:54Z</time>
      </trkpt>
      <trkpt lat="43.77556" lon="6.43884">
        <ele>723.529541</ele>
        <time>2010-04-17T10:22:00Z</time>
      </trkpt>
      <trkpt lat="43.77536" lon="6.4389">
        <ele>726.4133301</ele>
        <time>2010-04-17T10:22:08Z</time>
      </trkpt>
      <trkpt lat="43.77516" lon="6.43898">
        <ele>728.8166504</ele>
        <time>2010-04-17T10:22:16Z</time>
      </trkpt>
      <trkpt lat="43.77494" lon="6.43909">
        <ele>725.9326172</ele>
        <time>2010-04-17T10:22:24Z</time>
      </trkpt>
      <trkpt lat="43.77477" lon="6.43917">
        <ele>724.0100098</ele>
        <time>2010-04-17T10:22:30Z</time>
      </trkpt>
      <trkpt lat="43.77454" lon="6.43919">
        <ele>724.9714355</ele>
        <time>2010-04-17T10:22:38Z</time>
      </trkpt>
      <trkpt lat="43.77443" lon="6.43922">
        <ele>724.9714355</ele>
        <time>2010-04-17T10:22:45Z</time>
      </trkpt>
      <trkpt lat="43.77428" lon="6.43918">
        <ele>726.4133301</ele>
        <time>2010-04-17T10:22:52Z</time>
      </trkpt>
      <trkpt lat="43.77408" lon="6.4392">
        <ele>726.894043</ele>
        <time>2010-04-17T10:22:59Z</time>
      </trkpt>
      <trkpt lat="43.7739" lon="6.43921">
        <ele>726.894043</ele>
        <time>2010-04-17T10:23:07Z</time>
      </trkpt>
      <trkpt lat="43.77374" lon="6.43914">
        <ele>727.3747559</ele>
        <time>2010-04-17T10:23:14Z</time>
      </trkpt>
      <trkpt lat="43.7736" lon="6.43907">
        <ele>726.894043</ele>
        <time>2010-04-17T10:23:22Z</time>
      </trkpt>
      <trkpt lat="43.77345" lon="6.43899">
        <ele>724.9714355</ele>
        <time>2010-04-17T10:23:29Z</time>
      </trkpt>
      <trkpt lat="43.77322" lon="6.43897">
        <ele>727.8552246</ele>
        <time>2010-04-17T10:23:37Z</time>
      </trkpt>
      <trkpt lat="43.77304" lon="6.43901">
        <ele>727.8552246</ele>
        <time>2010-04-17T10:23:44Z</time>
      </trkpt>
      <trkpt lat="43.77289" lon="6.43908">
        <ele>728.3359375</ele>
        <time>2010-04-17T10:23:51Z</time>
      </trkpt>
      <trkpt lat="43.77274" lon="6.4391">
        <ele>724.4907227</ele>
        <time>2010-04-17T10:23:57Z</time>
      </trkpt>
      <trkpt lat="43.77258" lon="6.43917">
        <ele>726.4133301</ele>
        <time>2010-04-17T10:24:02Z</time>
      </trkpt>
      <trkpt lat="43.77251" lon="6.4392">
        <ele>725.9326172</ele>
        <time>2010-04-17T10:24:08Z</time>
      </trkpt>
      <trkpt lat="43.77241" lon="6.43924">
        <ele>724.9714355</ele>
        <time>2010-04-17T10:24:15Z</time>
      </trkpt>
      <trkpt lat="43.77231" lon="6.43925">
        <ele>725.9326172</ele>
        <time>2010-04-17T10:24:23Z</time>
      </trkpt>
      <trkpt lat="43.77213" lon="6.43932">
        <ele>732.1813965</ele>
        <time>2010-04-17T10:24:30Z</time>
      </trkpt>
      <trkpt lat="43.77192" lon="6.43934">
        <ele>736.987793</ele>
        <time>2010-04-17T10:24:37Z</time>
      </trkpt>
      <trkpt lat="43.77179" lon="6.43934">
        <ele>739.3911133</ele>
        <time>2010-04-17T10:24:44Z</time>
      </trkpt>
      <trkpt lat="43.77161" lon="6.4393">
        <ele>739.3911133</ele>
        <time>2010-04-17T10:24:53Z</time>
      </trkpt>
      <trkpt lat="43.7715" lon="6.43925">
        <ele>740.3525391</ele>
        <time>2010-04-17T10:25:01Z</time>
      </trkpt>
      <trkpt lat="43.77135" lon="6.43923">
        <ele>742.2751465</ele>
        <time>2010-04-17T10:25:10Z</time>
      </trkpt>
      <trkpt lat="43.77125" lon="6.43923">
        <ele>742.7558594</ele>
        <time>2010-04-17T10:25:16Z</time>
      </trkpt>
      <trkpt lat="43.7711" lon="6.43925">
        <ele>744.6782227</ele>
        <time>2010-04-17T10:25:25Z</time>
      </trkpt>
      <trkpt lat="43.77097" lon="6.43926">
        <ele>746.6010742</ele>
        <time>2010-04-17T10:25:33Z</time>
      </trkpt>
      <trkpt lat="43.77085" lon="6.43927">
        <ele>748.0432129</ele>
        <time>2010-04-17T10:25:41Z</time>
      </trkpt>
      <trkpt lat="43.77073" lon="6.43929">
        <ele>749.4851074</ele>
        <time>2010-04-17T10:25:49Z</time>
      </trkpt>
      <trkpt lat="43.77061" lon="6.43931">
        <ele>749.9658203</ele>
        <time>2010-04-17T10:25:57Z</time>
      </trkpt>
      <trkpt lat="43.77049" lon="6.43931">
        <ele>751.4077148</ele>
        <time>2010-04-17T10:26:05Z</time>
      </trkpt>
      <trkpt lat="43.77032" lon="6.43936">
        <ele>753.3303223</ele>
        <time>2010-04-17T10:26:12Z</time>
      </trkpt>
      <trkpt lat="43.77018" lon="6.43943">
        <ele>753.8110352</ele>
        <time>2010-04-17T10:26:20Z</time>
      </trkpt>
      <trkpt lat="43.77001" lon="6.43951">
        <ele>754.291748</ele>
        <time>2010-04-17T10:26:28Z</time>
      </trkpt>
      <trkpt lat="43.76984" lon="6.43962">
        <ele>755.7336426</ele>
        <time>2010-04-17T10:26:36Z</time>
      </trkpt>
      <trkpt lat="43.76966" lon="6.43971">
        <ele>756.6948242</ele>
        <time>2010-04-17T10:26:44Z</time>
      </trkpt>
      <trkpt lat="43.76945" lon="6.43982">
        <ele>757.65625</ele>
        <time>2010-04-17T10:26:53Z</time>
      </trkpt>
      <trkpt lat="43.76928" lon="6.43991">
        <ele>757.1755371</ele>
        <time>2010-04-17T10:27:00Z</time>
      </trkpt>
      <trkpt lat="43.76909" lon="6.44006">
        <ele>760.0593262</ele>
        <time>2010-04-17T10:27:09Z</time>
      </trkpt>
      <trkpt lat="43.76888" lon="6.4402">
        <ele>763.4240723</ele>
        <time>2010-04-17T10:27:16Z</time>
      </trkpt>
      <trkpt lat="43.76865" lon="6.44034">
        <ele>765.3469238</ele>
        <time>2010-04-17T10:27:24Z</time>
      </trkpt>
      <trkpt lat="43.76846" lon="6.44045">
        <ele>770.6340332</ele>
        <time>2010-04-17T10:27:31Z</time>
      </trkpt>
      <trkpt lat="43.76835" lon="6.44048">
        <ele>769.1921387</ele>
        <time>2010-04-17T10:27:36Z</time>
      </trkpt>
      <trkpt lat="43.76819" lon="6.44052">
        <ele>768.7114258</ele>
        <time>2010-04-17T10:27:42Z</time>
      </trkpt>
      <trkpt lat="43.76807" lon="6.44063">
        <ele>769.1921387</ele>
        <time>2010-04-17T10:27:48Z</time>
      </trkpt>
      <trkpt lat="43.76787" lon="6.44076">
        <ele>773.5180664</ele>
        <time>2010-04-17T10:27:56Z</time>
      </trkpt>
      <trkpt lat="43.76764" lon="6.44099">
        <ele>778.3244629</ele>
        <time>2010-04-17T10:28:04Z</time>
      </trkpt>
      <trkpt lat="43.76745" lon="6.44125">
        <ele>777.84375</ele>
        <time>2010-04-17T10:28:12Z</time>
      </trkpt>
      <trkpt lat="43.76724" lon="6.44139">
        <ele>777.84375</ele>
        <time>2010-04-17T10:28:19Z</time>
      </trkpt>
      <trkpt lat="43.76704" lon="6.44161">
        <ele>780.2473145</ele>
        <time>2010-04-17T10:28:25Z</time>
      </trkpt>
      <trkpt lat="43.76691" lon="6.44174">
        <ele>780.7280273</ele>
        <time>2010-04-17T10:28:30Z</time>
      </trkpt>
      <trkpt lat="43.76674" lon="6.44193">
        <ele>781.689209</ele>
        <time>2010-04-17T10:28:36Z</time>
      </trkpt>
      <trkpt lat="43.76664" lon="6.44222">
        <ele>780.2473145</ele>
        <time>2010-04-17T10:28:43Z</time>
      </trkpt>
      <trkpt lat="43.76651" lon="6.44243">
        <ele>783.1311035</ele>
        <time>2010-04-17T10:28:49Z</time>
      </trkpt>
      <trkpt lat="43.76636" lon="6.44262">
        <ele>787.9377441</ele>
        <time>2010-04-17T10:28:55Z</time>
      </trkpt>
      <trkpt lat="43.76621" lon="6.44282">
        <ele>789.8603516</ele>
        <time>2010-04-17T10:29:02Z</time>
      </trkpt>
      <trkpt lat="43.7661" lon="6.44302">
        <ele>790.8215332</ele>
        <time>2010-04-17T10:29:08Z</time>
      </trkpt>
      <trkpt lat="43.76602" lon="6.4433">
        <ele>783.6118164</ele>
        <time>2010-04-17T10:29:15Z</time>
      </trkpt>
      <trkpt lat="43.76597" lon="6.44356">
        <ele>780.2473145</ele>
        <time>2010-04-17T10:29:20Z</time>
      </trkpt>
      <trkpt lat="43.76597" lon="6.44362">
        <ele>779.7663574</ele>
        <time>2010-04-17T10:29:21Z</time>
      </trkpt>
      <trkpt lat="43.76585" lon="6.44395">
        <ele>773.9985352</ele>
        <time>2010-04-17T10:29:27Z</time>
      </trkpt>
      <trkpt lat="43.76581" lon="6.44396">
        <ele>773.9985352</ele>
        <time>2010-04-17T10:29:30Z</time>
      </trkpt>
      <trkpt lat="43.76582" lon="6.44387">
        <ele>771.5952148</ele>
        <time>2010-04-17T10:29:33Z</time>
      </trkpt>
      <trkpt lat="43.76584" lon="6.44365">
        <ele>772.5566406</ele>
        <time>2010-04-17T10:29:41Z</time>
      </trkpt>
      <trkpt lat="43.76585" lon="6.44339">
        <ele>770.1533203</ele>
        <time>2010-04-17T10:29:50Z</time>
      </trkpt>
      <trkpt lat="43.76589" lon="6.44321">
        <ele>770.1533203</ele>
        <time>2010-04-17T10:29:57Z</time>
      </trkpt>
      <trkpt lat="43.76592" lon="6.44305">
        <ele>773.5180664</ele>
        <time>2010-04-17T10:30:04Z</time>
      </trkpt>
      <trkpt lat="43.76599" lon="6.44276">
        <ele>769.6728516</ele>
        <time>2010-04-17T10:30:14Z</time>
      </trkpt>
      <trkpt lat="43.76607" lon="6.44246">
        <ele>764.385498</ele>
        <time>2010-04-17T10:30:24Z</time>
      </trkpt>
      <trkpt lat="43.76608" lon="6.4422">
        <ele>765.3469238</ele>
        <time>2010-04-17T10:30:33Z</time>
      </trkpt>
      <trkpt lat="43.76614" lon="6.44198">
        <ele>771.5952148</ele>
        <time>2010-04-17T10:30:42Z</time>
      </trkpt>
      <trkpt lat="43.76618" lon="6.44179">
        <ele>782.1699219</ele>
        <time>2010-04-17T10:30:52Z</time>
      </trkpt>
      <trkpt lat="43.76621" lon="6.44158">
        <ele>782.6506348</ele>
        <time>2010-04-17T10:31:01Z</time>
      </trkpt>
      <trkpt lat="43.76627" lon="6.44142">
        <ele>789.3796387</ele>
        <time>2010-04-17T10:31:08Z</time>
      </trkpt>
      <trkpt lat="43.76627" lon="6.44124">
        <ele>788.418457</ele>
        <time>2010-04-17T10:31:15Z</time>
      </trkpt>
      <trkpt lat="43.76633" lon="6.44111">
        <ele>790.8215332</ele>
        <time>2010-04-17T10:31:21Z</time>
      </trkpt>
      <trkpt lat="43.76637" lon="6.44095">
        <ele>792.7443848</ele>
        <time>2010-04-17T10:31:28Z</time>
      </trkpt>
      <trkpt lat="43.76646" lon="6.44072">
        <ele>792.7443848</ele>
        <time>2010-04-17T10:31:36Z</time>
      </trkpt>
      <trkpt lat="43.76646" lon="6.44055">
        <ele>796.1091309</ele>
        <time>2010-04-17T10:31:44Z</time>
      </trkpt>
      <trkpt lat="43.76643" lon="6.44037">
        <ele>795.1474609</ele>
        <time>2010-04-17T10:31:53Z</time>
      </trkpt>
      <trkpt lat="43.76651" lon="6.44012">
        <ele>787.4570312</ele>
        <time>2010-04-17T10:32:00Z</time>
      </trkpt>
      <trkpt lat="43.76656" lon="6.43992">
        <ele>786.0151367</ele>
        <time>2010-04-17T10:32:07Z</time>
      </trkpt>
      <trkpt lat="43.76662" lon="6.43969">
        <ele>783.1311035</ele>
        <time>2010-04-17T10:32:14Z</time>
      </trkpt>
      <trkpt lat="43.76661" lon="6.43954">
        <ele>786.4958496</ele>
        <time>2010-04-17T10:32:21Z</time>
      </trkpt>
      <trkpt lat="43.76659" lon="6.43931">
        <ele>790.3410645</ele>
        <time>2010-04-17T10:32:31Z</time>
      </trkpt>
      <trkpt lat="43.7667" lon="6.43907">
        <ele>793.7055664</ele>
        <time>2010-04-17T10:32:41Z</time>
      </trkpt>
      <trkpt lat="43.76673" lon="6.43888">
        <ele>797.0703125</ele>
        <time>2010-04-17T10:32:49Z</time>
      </trkpt>
      <trkpt lat="43.76672" lon="6.43872">
        <ele>798.0317383</ele>
        <time>2010-04-17T10:32:56Z</time>
      </trkpt>
      <trkpt lat="43.76671" lon="6.43857">
        <ele>799.9543457</ele>
        <time>2010-04-17T10:33:02Z</time>
      </trkpt>
      <trkpt lat="43.76667" lon="6.4384">
        <ele>803.3188477</ele>
        <time>2010-04-17T10:33:09Z</time>
      </trkpt>
      <trkpt lat="43.76663" lon="6.43826">
        <ele>805.722168</ele>
        <time>2010-04-17T10:33:16Z</time>
      </trkpt>
      <trkpt lat="43.76659" lon="6.43815">
        <ele>810.5285645</ele>
        <time>2010-04-17T10:33:23Z</time>
      </trkpt>
      <trkpt lat="43.76651" lon="6.43802">
        <ele>813.8933105</ele>
        <time>2010-04-17T10:33:31Z</time>
      </trkpt>
      <trkpt lat="43.76644" lon="6.43787">
        <ele>814.3740234</ele>
        <time>2010-04-17T10:33:39Z</time>
      </trkpt>
      <trkpt lat="43.76646" lon="6.43773">
        <ele>814.8547363</ele>
        <time>2010-04-17T10:33:45Z</time>
      </trkpt>
      <trkpt lat="43.76654" lon="6.43756">
        <ele>814.8547363</ele>
        <time>2010-04-17T10:33:54Z</time>
      </trkpt>
      <trkpt lat="43.76656" lon="6.43741">
        <ele>814.8547363</ele>
        <time>2010-04-17T10:34:01Z</time>
      </trkpt>
      <trkpt lat="43.76658" lon="6.43724">
        <ele>813.4128418</ele>
        <time>2010-04-17T10:34:09Z</time>
      </trkpt>
      <trkpt lat="43.76656" lon="6.43701">
        <ele>805.722168</ele>
        <time>2010-04-17T10:34:18Z</time>
      </trkpt>
      <trkpt lat="43.76659" lon="6.4368">
        <ele>805.722168</ele>
        <time>2010-04-17T10:34:27Z</time>
      </trkpt>
      <trkpt lat="43.76659" lon="6.43652">
        <ele>806.6833496</ele>
        <time>2010-04-17T10:34:38Z</time>
      </trkpt>
      <trkpt lat="43.76663" lon="6.43635">
        <ele>811.9707031</ele>
        <time>2010-04-17T10:34:46Z</time>
      </trkpt>
      <trkpt lat="43.76667" lon="6.43613">
        <ele>811.4899902</ele>
        <time>2010-04-17T10:34:54Z</time>
      </trkpt>
      <trkpt lat="43.76673" lon="6.43596">
        <ele>814.3740234</ele>
        <time>2010-04-17T10:35:03Z</time>
      </trkpt>
      <trkpt lat="43.76675" lon="6.43574">
        <ele>818.2192383</ele>
        <time>2010-04-17T10:35:13Z</time>
      </trkpt>
      <trkpt lat="43.76673" lon="6.43562">
        <ele>823.0258789</ele>
        <time>2010-04-17T10:35:19Z</time>
      </trkpt>
      <trkpt lat="43.76681" lon="6.43552">
        <ele>827.3518066</ele>
        <time>2010-04-17T10:35:25Z</time>
      </trkpt>
      <trkpt lat="43.76682" lon="6.4354">
        <ele>826.8710938</ele>
        <time>2010-04-17T10:35:31Z</time>
      </trkpt>
      <trkpt lat="43.76687" lon="6.43532">
        <ele>825.909668</ele>
        <time>2010-04-17T10:35:36Z</time>
      </trkpt>
      <trkpt lat="43.7668" lon="6.43535">
        <ele>825.909668</ele>
        <time>2010-04-17T10:35:43Z</time>
      </trkpt>
      <trkpt lat="43.76665" lon="6.43544">
        <ele>832.1584473</ele>
        <time>2010-04-17T10:35:50Z</time>
      </trkpt>
      <trkpt lat="43.76654" lon="6.43558">
        <ele>834.5617676</ele>
        <time>2010-04-17T10:35:59Z</time>
      </trkpt>
      <trkpt lat="43.76642" lon="6.43573">
        <ele>837.4455566</ele>
        <time>2010-04-17T10:36:09Z</time>
      </trkpt>
      <trkpt lat="43.76637" lon="6.43576">
        <ele>838.4069824</ele>
        <time>2010-04-17T10:36:12Z</time>
      </trkpt>
      <trkpt lat="43.76632" lon="6.4357">
        <ele>840.8100586</ele>
        <time>2010-04-17T10:36:17Z</time>
      </trkpt>
      <trkpt lat="43.76632" lon="6.43565">
        <ele>840.3295898</ele>
        <time>2010-04-17T10:36:19Z</time>
      </trkpt>
      <trkpt lat="43.76635" lon="6.43541">
        <ele>841.7714844</ele>
        <time>2010-04-17T10:36:30Z</time>
      </trkpt>
      <trkpt lat="43.76637" lon="6.43525">
        <ele>841.7714844</ele>
        <time>2010-04-17T10:36:37Z</time>
      </trkpt>
      <trkpt lat="43.76637" lon="6.43507">
        <ele>837.9262695</ele>
        <time>2010-04-17T10:36:45Z</time>
      </trkpt>
      <trkpt lat="43.76639" lon="6.43491">
        <ele>840.3295898</ele>
        <time>2010-04-17T10:36:54Z</time>
      </trkpt>
      <trkpt lat="43.76644" lon="6.43471">
        <ele>842.7329102</ele>
        <time>2010-04-17T10:37:03Z</time>
      </trkpt>
      <trkpt lat="43.76648" lon="6.43452">
        <ele>844.1750488</ele>
        <time>2010-04-17T10:37:11Z</time>
      </trkpt>
      <trkpt lat="43.76655" lon="6.43437">
        <ele>844.1750488</ele>
        <time>2010-04-17T10:37:18Z</time>
      </trkpt>
      <trkpt lat="43.76667" lon="6.43418">
        <ele>843.6940918</ele>
        <time>2010-04-17T10:37:26Z</time>
      </trkpt>
      <trkpt lat="43.76681" lon="6.43402">
        <ele>843.6940918</ele>
        <time>2010-04-17T10:37:32Z</time>
      </trkpt>
      <trkpt lat="43.76692" lon="6.43376">
        <ele>840.3295898</ele>
        <time>2010-04-17T10:37:39Z</time>
      </trkpt>
      <trkpt lat="43.76708" lon="6.43365">
        <ele>841.2907715</ele>
        <time>2010-04-17T10:37:45Z</time>
      </trkpt>
      <trkpt lat="43.76726" lon="6.43352">
        <ele>841.2907715</ele>
        <time>2010-04-17T10:37:52Z</time>
      </trkpt>
      <trkpt lat="43.76738" lon="6.43337">
        <ele>841.7714844</ele>
        <time>2010-04-17T10:37:59Z</time>
      </trkpt>
      <trkpt lat="43.76753" lon="6.4332">
        <ele>842.2521973</ele>
        <time>2010-04-17T10:38:08Z</time>
      </trkpt>
      <trkpt lat="43.76775" lon="6.43308">
        <ele>851.8654785</ele>
        <time>2010-04-17T10:38:16Z</time>
      </trkpt>
      <trkpt lat="43.76785" lon="6.43291">
        <ele>851.3847656</ele>
        <time>2010-04-17T10:38:24Z</time>
      </trkpt>
      <trkpt lat="43.76801" lon="6.43278">
        <ele>851.3847656</ele>
        <time>2010-04-17T10:38:31Z</time>
      </trkpt>
      <trkpt lat="43.76815" lon="6.43268">
        <ele>852.3459473</ele>
        <time>2010-04-17T10:38:37Z</time>
      </trkpt>
      <trkpt lat="43.76823" lon="6.43259">
        <ele>853.307373</ele>
        <time>2010-04-17T10:38:43Z</time>
      </trkpt>
      <trkpt lat="43.76835" lon="6.43247">
        <ele>855.7106934</ele>
        <time>2010-04-17T10:38:50Z</time>
      </trkpt>
      <trkpt lat="43.76843" lon="6.43233">
        <ele>857.1525879</ele>
        <time>2010-04-17T10:38:57Z</time>
      </trkpt>
      <trkpt lat="43.76848" lon="6.43221">
        <ele>856.1911621</ele>
        <time>2010-04-17T10:39:03Z</time>
      </trkpt>
      <trkpt lat="43.76862" lon="6.4321">
        <ele>859.0751953</ele>
        <time>2010-04-17T10:39:11Z</time>
      </trkpt>
      <trkpt lat="43.76872" lon="6.43197">
        <ele>864.3625488</ele>
        <time>2010-04-17T10:39:19Z</time>
      </trkpt>
      <trkpt lat="43.76883" lon="6.43186">
        <ele>863.4013672</ele>
        <time>2010-04-17T10:39:26Z</time>
      </trkpt>
      <trkpt lat="43.76896" lon="6.43172">
        <ele>862.9206543</ele>
        <time>2010-04-17T10:39:33Z</time>
      </trkpt>
      <trkpt lat="43.76907" lon="6.43163">
        <ele>862.4399414</ele>
        <time>2010-04-17T10:39:39Z</time>
      </trkpt>
      <trkpt lat="43.76921" lon="6.43151">
        <ele>861.4787598</ele>
        <time>2010-04-17T10:39:46Z</time>
      </trkpt>
      <trkpt lat="43.76931" lon="6.43141">
        <ele>860.0366211</ele>
        <time>2010-04-17T10:39:52Z</time>
      </trkpt>
      <trkpt lat="43.76946" lon="6.43129">
        <ele>860.517334</ele>
        <time>2010-04-17T10:39:59Z</time>
      </trkpt>
      <trkpt lat="43.76958" lon="6.43116">
        <ele>860.517334</ele>
        <time>2010-04-17T10:40:05Z</time>
      </trkpt>
      <trkpt lat="43.76972" lon="6.43092">
        <ele>859.5559082</ele>
        <time>2010-04-17T10:40:14Z</time>
      </trkpt>
      <trkpt lat="43.76984" lon="6.43066">
        <ele>857.1525879</ele>
        <time>2010-04-17T10:40:23Z</time>
      </trkpt>
      <trkpt lat="43.76999" lon="6.4304">
        <ele>856.1911621</ele>
        <time>2010-04-17T10:40:33Z</time>
      </trkpt>
      <trkpt lat="43.77013" lon="6.43017">
        <ele>856.671875</ele>
        <time>2010-04-17T10:40:42Z</time>
      </trkpt>
      <trkpt lat="43.77028" lon="6.42996">
        <ele>860.0366211</ele>
        <time>2010-04-17T10:40:51Z</time>
      </trkpt>
      <trkpt lat="43.7704" lon="6.42981">
        <ele>858.5944824</ele>
        <time>2010-04-17T10:40:58Z</time>
      </trkpt>
      <trkpt lat="43.77057" lon="6.42963">
        <ele>860.9980469</ele>
        <time>2010-04-17T10:41:06Z</time>
      </trkpt>
      <trkpt lat="43.77072" lon="6.4295">
        <ele>866.7658691</ele>
        <time>2010-04-17T10:41:13Z</time>
      </trkpt>
      <trkpt lat="43.77086" lon="6.42934">
        <ele>870.1303711</ele>
        <time>2010-04-17T10:41:20Z</time>
      </trkpt>
      <trkpt lat="43.77103" lon="6.42911">
        <ele>871.5722656</ele>
        <time>2010-04-17T10:41:28Z</time>
      </trkpt>
      <trkpt lat="43.77114" lon="6.42894">
        <ele>873.4951172</ele>
        <time>2010-04-17T10:41:34Z</time>
      </trkpt>
      <trkpt lat="43.77124" lon="6.42882">
        <ele>875.8981934</ele>
        <time>2010-04-17T10:41:39Z</time>
      </trkpt>
      <trkpt lat="43.77137" lon="6.42865">
        <ele>879.2629395</ele>
        <time>2010-04-17T10:41:46Z</time>
      </trkpt>
      <trkpt lat="43.77147" lon="6.42852">
        <ele>879.2629395</ele>
        <time>2010-04-17T10:41:52Z</time>
      </trkpt>
      <trkpt lat="43.77157" lon="6.42838">
        <ele>878.7824707</ele>
        <time>2010-04-17T10:41:58Z</time>
      </trkpt>
      <trkpt lat="43.7717" lon="6.42821">
        <ele>879.2629395</ele>
        <time>2010-04-17T10:42:05Z</time>
      </trkpt>
      <trkpt lat="43.77184" lon="6.42806">
        <ele>879.7436523</ele>
        <time>2010-04-17T10:42:12Z</time>
      </trkpt>
      <trkpt lat="43.77196" lon="6.42787">
        <ele>879.2629395</ele>
        <time>2010-04-17T10:42:19Z</time>
      </trkpt>
      <trkpt lat="43.77208" lon="6.42774">
        <ele>878.3017578</ele>
        <time>2010-04-17T10:42:25Z</time>
      </trkpt>
      <trkpt lat="43.77218" lon="6.42752">
        <ele>877.8210449</ele>
        <time>2010-04-17T10:42:32Z</time>
      </trkpt>
      <trkpt lat="43.77223" lon="6.42734">
        <ele>878.3017578</ele>
        <time>2010-04-17T10:42:37Z</time>
      </trkpt>
      <trkpt lat="43.77237" lon="6.42712">
        <ele>878.7824707</ele>
        <time>2010-04-17T10:42:44Z</time>
      </trkpt>
      <trkpt lat="43.77253" lon="6.42691">
        <ele>880.7050781</ele>
        <time>2010-04-17T10:42:52Z</time>
      </trkpt>
      <trkpt lat="43.77256" lon="6.4269">
        <ele>880.2243652</ele>
        <time>2010-04-17T10:42:53Z</time>
      </trkpt>
      <trkpt lat="43.77267" lon="6.42693">
        <ele>881.185791</ele>
        <time>2010-04-17T10:42:58Z</time>
      </trkpt>
      <trkpt lat="43.7728" lon="6.42696">
        <ele>881.6662598</ele>
        <time>2010-04-17T10:43:06Z</time>
      </trkpt>
      <trkpt lat="43.77285" lon="6.42697">
        <ele>873.9755859</ele>
        <time>2010-04-17T10:43:12Z</time>
      </trkpt>
      <trkpt lat="43.77279" lon="6.42698">
        <ele>885.0310059</ele>
        <time>2010-04-17T10:44:01Z</time>
      </trkpt>
      <trkpt lat="43.77273" lon="6.42697">
        <ele>896.0861816</ele>
        <time>2010-04-17T10:44:08Z</time>
      </trkpt>
      <trkpt lat="43.77272" lon="6.42698">
        <ele>897.0473633</ele>
        <time>2010-04-17T10:44:15Z</time>
      </trkpt>
      <trkpt lat="43.77273" lon="6.42697">
        <ele>895.6054688</ele>
        <time>2010-04-17T10:44:23Z</time>
      </trkpt>
      <trkpt lat="43.77286" lon="6.42698">
        <ele>883.5888672</ele>
        <time>2010-04-17T10:44:39Z</time>
      </trkpt>
      <trkpt lat="43.77296" lon="6.42698">
        <ele>879.7436523</ele>
        <time>2010-04-17T10:44:45Z</time>
      </trkpt>
      <trkpt lat="43.77307" lon="6.42695">
        <ele>877.3405762</ele>
        <time>2010-04-17T10:44:51Z</time>
      </trkpt>
      <trkpt lat="43.77321" lon="6.42693">
        <ele>875.4174805</ele>
        <time>2010-04-17T10:44:56Z</time>
      </trkpt>
      <trkpt lat="43.77345" lon="6.42688">
        <ele>871.5722656</ele>
        <time>2010-04-17T10:45:03Z</time>
      </trkpt>
      <trkpt lat="43.7736" lon="6.42683">
        <ele>872.0529785</ele>
        <time>2010-04-17T10:45:08Z</time>
      </trkpt>
      <trkpt lat="43.77377" lon="6.4268">
        <ele>871.0917969</ele>
        <time>2010-04-17T10:45:13Z</time>
      </trkpt>
      <trkpt lat="43.77397" lon="6.42679">
        <ele>876.3791504</ele>
        <time>2010-04-17T10:45:20Z</time>
      </trkpt>
      <trkpt lat="43.77419" lon="6.42681">
        <ele>874.9370117</ele>
        <time>2010-04-17T10:45:26Z</time>
      </trkpt>
      <trkpt lat="43.77439" lon="6.42677">
        <ele>876.8598633</ele>
        <time>2010-04-17T10:45:31Z</time>
      </trkpt>
      <trkpt lat="43.77447" lon="6.42673">
        <ele>875.8981934</ele>
        <time>2010-04-17T10:45:33Z</time>
      </trkpt>
      <trkpt lat="43.77466" lon="6.4266">
        <ele>875.8981934</ele>
        <time>2010-04-17T10:45:39Z</time>
      </trkpt>
      <trkpt lat="43.77479" lon="6.42652">
        <ele>876.3791504</ele>
        <time>2010-04-17T10:45:44Z</time>
      </trkpt>
      <trkpt lat="43.77496" lon="6.42646">
        <ele>878.7824707</ele>
        <time>2010-04-17T10:45:49Z</time>
      </trkpt>
      <trkpt lat="43.77503" lon="6.42644">
        <ele>878.7824707</ele>
        <time>2010-04-17T10:45:51Z</time>
      </trkpt>
      <trkpt lat="43.77526" lon="6.4263">
        <ele>877.3405762</ele>
        <time>2010-04-17T10:45:57Z</time>
      </trkpt>
      <trkpt lat="43.77543" lon="6.42626">
        <ele>879.7436523</ele>
        <time>2010-04-17T10:46:02Z</time>
      </trkpt>
      <trkpt lat="43.77558" lon="6.42619">
        <ele>875.8981934</ele>
        <time>2010-04-17T10:46:07Z</time>
      </trkpt>
      <trkpt lat="43.77561" lon="6.42616">
        <ele>872.5336914</ele>
        <time>2010-04-17T10:46:10Z</time>
      </trkpt>
      <trkpt lat="43.77572" lon="6.42609">
        <ele>869.6499023</ele>
        <time>2010-04-17T10:46:15Z</time>
      </trkpt>
      <trkpt lat="43.77574" lon="6.42609">
        <ele>869.6499023</ele>
        <time>2010-04-17T10:46:16Z</time>
      </trkpt>
      <trkpt lat="43.77592" lon="6.42605">
        <ele>871.0917969</ele>
        <time>2010-04-17T10:46:22Z</time>
      </trkpt>
      <trkpt lat="43.77596" lon="6.42604">
        <ele>870.611084</ele>
        <time>2010-04-17T10:46:23Z</time>
      </trkpt>
      <trkpt lat="43.77619" lon="6.42594">
        <ele>868.6884766</ele>
        <time>2010-04-17T10:46:29Z</time>
      </trkpt>
      <trkpt lat="43.77632" lon="6.42591">
        <ele>870.1303711</ele>
        <time>2010-04-17T10:46:33Z</time>
      </trkpt>
      <trkpt lat="43.77644" lon="6.42586">
        <ele>871.5722656</ele>
        <time>2010-04-17T10:46:36Z</time>
      </trkpt>
      <trkpt lat="43.77677" lon="6.42581">
        <ele>875.8981934</ele>
        <time>2010-04-17T10:46:43Z</time>
      </trkpt>
      <trkpt lat="43.77702" lon="6.42575">
        <ele>879.2629395</ele>
        <time>2010-04-17T10:46:49Z</time>
      </trkpt>
      <trkpt lat="43.77721" lon="6.42566">
        <ele>878.7824707</ele>
        <time>2010-04-17T10:46:54Z</time>
      </trkpt>
      <trkpt lat="43.77729" lon="6.42561">
        <ele>879.7436523</ele>
        <time>2010-04-17T10:46:57Z</time>
      </trkpt>
      <trkpt lat="43.77726" lon="6.42576">
        <ele>885.5114746</ele>
        <time>2010-04-17T10:47:01Z</time>
      </trkpt>
      <trkpt lat="43.77724" lon="6.42583">
        <ele>886.9533691</ele>
        <time>2010-04-17T10:47:02Z</time>
      </trkpt>
      <trkpt lat="43.77717" lon="6.42613">
        <ele>886.4729004</ele>
        <time>2010-04-17T10:47:07Z</time>
      </trkpt>
      <trkpt lat="43.77718" lon="6.42634">
        <ele>885.9921875</ele>
        <time>2010-04-17T10:47:10Z</time>
      </trkpt>
      <trkpt lat="43.77723" lon="6.42654">
        <ele>881.6662598</ele>
        <time>2010-04-17T10:47:14Z</time>
      </trkpt>
      <trkpt lat="43.77736" lon="6.42674">
        <ele>875.4174805</ele>
        <time>2010-04-17T10:47:18Z</time>
      </trkpt>
      <trkpt lat="43.7774" lon="6.4268">
        <ele>873.9755859</ele>
        <time>2010-04-17T10:47:19Z</time>
      </trkpt>
      <trkpt lat="43.77749" lon="6.42687">
        <ele>869.6499023</ele>
        <time>2010-04-17T10:47:21Z</time>
      </trkpt>
      <trkpt lat="43.77751" lon="6.4272">
        <ele>868.6884766</ele>
        <time>2010-04-17T10:47:26Z</time>
      </trkpt>
      <trkpt lat="43.77751" lon="6.42727">
        <ele>869.6499023</ele>
        <time>2010-04-17T10:47:27Z</time>
      </trkpt>
      <trkpt lat="43.77765" lon="6.42768">
        <ele>861.4787598</ele>
        <time>2010-04-17T10:47:33Z</time>
      </trkpt>
      <trkpt lat="43.77769" lon="6.42774">
        <ele>860.517334</ele>
        <time>2010-04-17T10:47:34Z</time>
      </trkpt>
      <trkpt lat="43.77779" lon="6.42805">
        <ele>854.2687988</ele>
        <time>2010-04-17T10:47:39Z</time>
      </trkpt>
      <trkpt lat="43.77787" lon="6.42819">
        <ele>847.0588379</ele>
        <time>2010-04-17T10:47:42Z</time>
      </trkpt>
      <trkpt lat="43.77792" lon="6.42848">
        <ele>837.4455566</ele>
        <time>2010-04-17T10:47:47Z</time>
      </trkpt>
      <trkpt lat="43.77792" lon="6.42861">
        <ele>836.9648438</ele>
        <time>2010-04-17T10:47:49Z</time>
      </trkpt>
      <trkpt lat="43.77797" lon="6.4288">
        <ele>834.0810547</ele>
        <time>2010-04-17T10:47:52Z</time>
      </trkpt>
      <trkpt lat="43.77817" lon="6.42902">
        <ele>829.2744141</ele>
        <time>2010-04-17T10:47:57Z</time>
      </trkpt>
      <trkpt lat="43.77828" lon="6.42908">
        <ele>826.8710938</ele>
        <time>2010-04-17T10:47:59Z</time>
      </trkpt>
      <trkpt lat="43.77844" lon="6.4292">
        <ele>821.5837402</ele>
        <time>2010-04-17T10:48:02Z</time>
      </trkpt>
      <trkpt lat="43.77868" lon="6.42922">
        <ele>817.7385254</ele>
        <time>2010-04-17T10:48:06Z</time>
      </trkpt>
      <trkpt lat="43.77889" lon="6.4292">
        <ele>817.2580566</ele>
        <time>2010-04-17T10:48:10Z</time>
      </trkpt>
      <trkpt lat="43.77911" lon="6.42935">
        <ele>817.2580566</ele>
        <time>2010-04-17T10:48:15Z</time>
      </trkpt>
      <trkpt lat="43.77915" lon="6.42958">
        <ele>818.2192383</ele>
        <time>2010-04-17T10:48:17Z</time>
      </trkpt>
      <trkpt lat="43.77917" lon="6.42976">
        <ele>818.2192383</ele>
        <time>2010-04-17T10:48:19Z</time>
      </trkpt>
      <trkpt lat="43.77923" lon="6.42996">
        <ele>818.2192383</ele>
        <time>2010-04-17T10:48:23Z</time>
      </trkpt>
      <trkpt lat="43.77929" lon="6.43037">
        <ele>815.8161621</ele>
        <time>2010-04-17T10:48:29Z</time>
      </trkpt>
      <trkpt lat="43.77931" lon="6.43045">
        <ele>814.8547363</ele>
        <time>2010-04-17T10:48:30Z</time>
      </trkpt>
      <trkpt lat="43.77945" lon="6.43089">
        <ele>805.722168</ele>
        <time>2010-04-17T10:48:35Z</time>
      </trkpt>
      <trkpt lat="43.77947" lon="6.43099">
        <ele>807.1640625</ele>
        <time>2010-04-17T10:48:36Z</time>
      </trkpt>
      <trkpt lat="43.77961" lon="6.43143">
        <ele>798.9929199</ele>
        <time>2010-04-17T10:48:41Z</time>
      </trkpt>
      <trkpt lat="43.77963" lon="6.43148">
        <ele>796.1091309</ele>
        <time>2010-04-17T10:48:42Z</time>
      </trkpt>
      <trkpt lat="43.77957" lon="6.43187">
        <ele>798.0317383</ele>
        <time>2010-04-17T10:48:47Z</time>
      </trkpt>
      <trkpt lat="43.77954" lon="6.43216">
        <ele>795.6281738</ele>
        <time>2010-04-17T10:48:51Z</time>
      </trkpt>
      <trkpt lat="43.77956" lon="6.43225">
        <ele>790.8215332</ele>
        <time>2010-04-17T10:48:54Z</time>
      </trkpt>
      <trkpt lat="43.77966" lon="6.43237">
        <ele>783.6118164</ele>
        <time>2010-04-17T10:48:58Z</time>
      </trkpt>
      <trkpt lat="43.77978" lon="6.43234">
        <ele>778.8051758</ele>
        <time>2010-04-17T10:49:01Z</time>
      </trkpt>
      <trkpt lat="43.7799" lon="6.4322">
        <ele>775.9211426</ele>
        <time>2010-04-17T10:49:06Z</time>
      </trkpt>
      <trkpt lat="43.77997" lon="6.43214">
        <ele>775.9211426</ele>
        <time>2010-04-17T10:49:11Z</time>
      </trkpt>
      <trkpt lat="43.77999" lon="6.43215">
        <ele>774.9599609</ele>
        <time>2010-04-17T10:49:17Z</time>
      </trkpt>
      <trkpt lat="43.78001" lon="6.43214">
        <ele>773.9985352</ele>
        <time>2010-04-17T10:49:24Z</time>
      </trkpt>
      <trkpt lat="43.78002" lon="6.43213">
        <ele>776.8825684</ele>
        <time>2010-04-17T10:49:27Z</time>
      </trkpt>
      <trkpt lat="43.78012" lon="6.43203">
        <ele>781.689209</ele>
        <time>2010-04-17T10:49:34Z</time>
      </trkpt>
      <trkpt lat="43.78026" lon="6.43194">
        <ele>781.689209</ele>
        <time>2010-04-17T10:49:39Z</time>
      </trkpt>
      <trkpt lat="43.78043" lon="6.4318">
        <ele>781.689209</ele>
        <time>2010-04-17T10:49:44Z</time>
      </trkpt>
      <trkpt lat="43.78053" lon="6.43168">
        <ele>781.689209</ele>
        <time>2010-04-17T10:49:48Z</time>
      </trkpt>
      <trkpt lat="43.78071" lon="6.43157">
        <ele>780.7280273</ele>
        <time>2010-04-17T10:49:53Z</time>
      </trkpt>
      <trkpt lat="43.78086" lon="6.43149">
        <ele>780.2473145</ele>
        <time>2010-04-17T10:49:57Z</time>
      </trkpt>
      <trkpt lat="43.78097" lon="6.43144">
        <ele>780.2473145</ele>
        <time>2010-04-17T10:50:00Z</time>
      </trkpt>
      <trkpt lat="43.78104" lon="6.43123">
        <ele>783.6118164</ele>
        <time>2010-04-17T10:50:05Z</time>
      </trkpt>
      <trkpt lat="43.78099" lon="6.43102">
        <ele>786.9763184</ele>
        <time>2010-04-17T10:50:10Z</time>
      </trkpt>
      <trkpt lat="43.78097" lon="6.43072">
        <ele>793.2248535</ele>
        <time>2010-04-17T10:50:17Z</time>
      </trkpt>
      <trkpt lat="43.78098" lon="6.43049">
        <ele>791.782959</ele>
        <time>2010-04-17T10:50:22Z</time>
      </trkpt>
      <trkpt lat="43.781" lon="6.43028">
        <ele>792.7443848</ele>
        <time>2010-04-17T10:50:28Z</time>
      </trkpt>
      <trkpt lat="43.78118" lon="6.43023">
        <ele>793.2248535</ele>
        <time>2010-04-17T10:50:33Z</time>
      </trkpt>
      <trkpt lat="43.78139" lon="6.43014">
        <ele>787.9377441</ele>
        <time>2010-04-17T10:50:39Z</time>
      </trkpt>
      <trkpt lat="43.78145" lon="6.42997">
        <ele>789.8603516</ele>
        <time>2010-04-17T10:50:44Z</time>
      </trkpt>
      <trkpt lat="43.7815" lon="6.42976">
        <ele>791.782959</ele>
        <time>2010-04-17T10:50:50Z</time>
      </trkpt>
      <trkpt lat="43.78158" lon="6.4295">
        <ele>791.782959</ele>
        <time>2010-04-17T10:50:57Z</time>
      </trkpt>
      <trkpt lat="43.78159" lon="6.42928">
        <ele>792.7443848</ele>
        <time>2010-04-17T10:51:03Z</time>
      </trkpt>
      <trkpt lat="43.78157" lon="6.42903">
        <ele>789.3796387</ele>
        <time>2010-04-17T10:51:09Z</time>
      </trkpt>
      <trkpt lat="43.78159" lon="6.42882">
        <ele>787.4570312</ele>
        <time>2010-04-17T10:51:15Z</time>
      </trkpt>
      <trkpt lat="43.78162" lon="6.4287">
        <ele>792.2636719</ele>
        <time>2010-04-17T10:51:21Z</time>
      </trkpt>
      <trkpt lat="43.78172" lon="6.42852">
        <ele>794.1862793</ele>
        <time>2010-04-17T10:51:29Z</time>
      </trkpt>
      <trkpt lat="43.78182" lon="6.42833">
        <ele>791.3022461</ele>
        <time>2010-04-17T10:51:37Z</time>
      </trkpt>
      <trkpt lat="43.7819" lon="6.4281">
        <ele>791.3022461</ele>
        <time>2010-04-17T10:51:45Z</time>
      </trkpt>
      <trkpt lat="43.78192" lon="6.42796">
        <ele>795.6281738</ele>
        <time>2010-04-17T10:51:51Z</time>
      </trkpt>
      <trkpt lat="43.78199" lon="6.42788">
        <ele>797.5510254</ele>
        <time>2010-04-17T10:51:56Z</time>
      </trkpt>
      <trkpt lat="43.78204" lon="6.42774">
        <ele>800.4350586</ele>
        <time>2010-04-17T10:52:03Z</time>
      </trkpt>
      <trkpt lat="43.78206" lon="6.4276">
        <ele>802.3574219</ele>
        <time>2010-04-17T10:52:09Z</time>
      </trkpt>
      <trkpt lat="43.78206" lon="6.42753">
        <ele>807.1640625</ele>
        <time>2010-04-17T10:52:14Z</time>
      </trkpt>
      <trkpt lat="43.78206" lon="6.42744">
        <ele>809.0866699</ele>
        <time>2010-04-17T10:52:18Z</time>
      </trkpt>
      <trkpt lat="43.78206" lon="6.4273">
        <ele>809.5673828</ele>
        <time>2010-04-17T10:52:25Z</time>
      </trkpt>
      <trkpt lat="43.78203" lon="6.42719">
        <ele>810.5285645</ele>
        <time>2010-04-17T10:52:31Z</time>
      </trkpt>
      <trkpt lat="43.78202" lon="6.42712">
        <ele>811.9707031</ele>
        <time>2010-04-17T10:52:34Z</time>
      </trkpt>
      <trkpt lat="43.7821" lon="6.42702">
        <ele>809.0866699</ele>
        <time>2010-04-17T10:52:40Z</time>
      </trkpt>
      <trkpt lat="43.78214" lon="6.42698">
        <ele>810.5285645</ele>
        <time>2010-04-17T10:52:44Z</time>
      </trkpt>
      <trkpt lat="43.78218" lon="6.42694">
        <ele>811.0092773</ele>
        <time>2010-04-17T10:52:48Z</time>
      </trkpt>
      <trkpt lat="43.78225" lon="6.42682">
        <ele>812.451416</ele>
        <time>2010-04-17T10:52:55Z</time>
      </trkpt>
      <trkpt lat="43.78225" lon="6.42679">
        <ele>812.451416</ele>
        <time>2010-04-17T10:53:01Z</time>
      </trkpt>
      <trkpt lat="43.78227" lon="6.42677">
        <ele>812.451416</ele>
        <time>2010-04-17T10:53:04Z</time>
      </trkpt>
      <trkpt lat="43.78238" lon="6.42671">
        <ele>811.4899902</ele>
        <time>2010-04-17T10:53:10Z</time>
      </trkpt>
      <trkpt lat="43.78241" lon="6.4267">
        <ele>810.5285645</ele>
        <time>2010-04-17T10:53:11Z</time>
      </trkpt>
      <trkpt lat="43.78254" lon="6.42663">
        <ele>809.0866699</ele>
        <time>2010-04-17T10:53:18Z</time>
      </trkpt>
      <trkpt lat="43.78259" lon="6.42657">
        <ele>812.9321289</ele>
        <time>2010-04-17T10:53:24Z</time>
      </trkpt>
      <trkpt lat="43.78269" lon="6.42645">
        <ele>813.8933105</ele>
        <time>2010-04-17T10:53:29Z</time>
      </trkpt>
      <trkpt lat="43.78288" lon="6.42628">
        <ele>809.0866699</ele>
        <time>2010-04-17T10:53:35Z</time>
      </trkpt>
      <trkpt lat="43.78301" lon="6.42615">
        <ele>807.6447754</ele>
        <time>2010-04-17T10:53:40Z</time>
      </trkpt>
      <trkpt lat="43.78312" lon="6.42602">
        <ele>810.0478516</ele>
        <time>2010-04-17T10:53:46Z</time>
      </trkpt>
      <trkpt lat="43.78324" lon="6.42585">
        <ele>812.451416</ele>
        <time>2010-04-17T10:53:52Z</time>
      </trkpt>
      <trkpt lat="43.78337" lon="6.42561">
        <ele>812.451416</ele>
        <time>2010-04-17T10:53:58Z</time>
      </trkpt>
      <trkpt lat="43.78341" lon="6.42558">
        <ele>811.9707031</ele>
        <time>2010-04-17T10:53:59Z</time>
      </trkpt>
      <trkpt lat="43.78372" lon="6.42548">
        <ele>808.605957</ele>
        <time>2010-04-17T10:54:04Z</time>
      </trkpt>
      <trkpt lat="43.7838" lon="6.42546">
        <ele>807.6447754</ele>
        <time>2010-04-17T10:54:05Z</time>
      </trkpt>
      <trkpt lat="43.78412" lon="6.42517">
        <ele>803.7995605</ele>
        <time>2010-04-17T10:54:10Z</time>
      </trkpt>
      <trkpt lat="43.78423" lon="6.42505">
        <ele>801.8769531</ele>
        <time>2010-04-17T10:54:13Z</time>
      </trkpt>
      <trkpt lat="43.78433" lon="6.42501">
        <ele>798.9929199</ele>
        <time>2010-04-17T10:54:17Z</time>
      </trkpt>
      <trkpt lat="43.7844" lon="6.42494">
        <ele>798.0317383</ele>
        <time>2010-04-17T10:54:21Z</time>
      </trkpt>
      <trkpt lat="43.78444" lon="6.42493">
        <ele>795.6281738</ele>
        <time>2010-04-17T10:54:31Z</time>
      </trkpt>
      <trkpt lat="43.78446" lon="6.42491">
        <ele>792.2636719</ele>
        <time>2010-04-17T10:54:36Z</time>
      </trkpt>
      <trkpt lat="43.78444" lon="6.42491">
        <ele>789.8603516</ele>
        <time>2010-04-17T10:54:40Z</time>
      </trkpt>
      <trkpt lat="43.78439" lon="6.42499">
        <ele>795.1474609</ele>
        <time>2010-04-17T10:54:46Z</time>
      </trkpt>
      <trkpt lat="43.78418" lon="6.42504">
        <ele>813.8933105</ele>
        <time>2010-04-17T10:55:18Z</time>
      </trkpt>
      <trkpt lat="43.78415" lon="6.42512">
        <ele>810.0478516</ele>
        <time>2010-04-17T10:55:26Z</time>
      </trkpt>
      <trkpt lat="43.78414" lon="6.42509">
        <ele>806.6833496</ele>
        <time>2010-04-17T10:55:31Z</time>
      </trkpt>
      <trkpt lat="43.78416" lon="6.42503">
        <ele>800.4350586</ele>
        <time>2010-04-17T10:55:40Z</time>
      </trkpt>
      <trkpt lat="43.78425" lon="6.42492">
        <ele>802.8381348</ele>
        <time>2010-04-17T10:55:45Z</time>
      </trkpt>
      <trkpt lat="43.78443" lon="6.42474">
        <ele>802.8381348</ele>
        <time>2010-04-17T10:55:52Z</time>
      </trkpt>
      <trkpt lat="43.7846" lon="6.42454">
        <ele>803.3188477</ele>
        <time>2010-04-17T10:55:58Z</time>
      </trkpt>
      <trkpt lat="43.78477" lon="6.42434">
        <ele>800.9155273</ele>
        <time>2010-04-17T10:56:04Z</time>
      </trkpt>
      <trkpt lat="43.78493" lon="6.42413">
        <ele>798.9929199</ele>
        <time>2010-04-17T10:56:10Z</time>
      </trkpt>
      <trkpt lat="43.78502" lon="6.42403">
        <ele>802.3574219</ele>
        <time>2010-04-17T10:56:16Z</time>
      </trkpt>
      <trkpt lat="43.78513" lon="6.42389">
        <ele>805.722168</ele>
        <time>2010-04-17T10:56:23Z</time>
      </trkpt>
      <trkpt lat="43.78524" lon="6.42374">
        <ele>805.722168</ele>
        <time>2010-04-17T10:56:28Z</time>
      </trkpt>
      <trkpt lat="43.78537" lon="6.42364">
        <ele>807.6447754</ele>
        <time>2010-04-17T10:56:34Z</time>
      </trkpt>
      <trkpt lat="43.78555" lon="6.42355">
        <ele>808.1254883</ele>
        <time>2010-04-17T10:56:40Z</time>
      </trkpt>
      <trkpt lat="43.78573" lon="6.42351">
        <ele>810.5285645</ele>
        <time>2010-04-17T10:56:46Z</time>
      </trkpt>
      <trkpt lat="43.78589" lon="6.42348">
        <ele>814.8547363</ele>
        <time>2010-04-17T10:56:53Z</time>
      </trkpt>
      <trkpt lat="43.78593" lon="6.42345">
        <ele>817.2580566</ele>
        <time>2010-04-17T10:56:56Z</time>
      </trkpt>
      <trkpt lat="43.78602" lon="6.42342">
        <ele>819.661377</ele>
        <time>2010-04-17T10:57:03Z</time>
      </trkpt>
      <trkpt lat="43.78614" lon="6.42337">
        <ele>819.661377</ele>
        <time>2010-04-17T10:57:10Z</time>
      </trkpt>
      <trkpt lat="43.78626" lon="6.42332">
        <ele>821.1032715</ele>
        <time>2010-04-17T10:57:17Z</time>
      </trkpt>
      <trkpt lat="43.78637" lon="6.42328">
        <ele>822.0644531</ele>
        <time>2010-04-17T10:57:24Z</time>
      </trkpt>
      <trkpt lat="43.78649" lon="6.42326">
        <ele>822.0644531</ele>
        <time>2010-04-17T10:57:31Z</time>
      </trkpt>
      <trkpt lat="43.78663" lon="6.42321">
        <ele>823.5065918</ele>
        <time>2010-04-17T10:57:40Z</time>
      </trkpt>
      <trkpt lat="43.78664" lon="6.4232">
        <ele>823.9870605</ele>
        <time>2010-04-17T10:57:41Z</time>
      </trkpt>
      <trkpt lat="43.78674" lon="6.42319">
        <ele>826.3903809</ele>
        <time>2010-04-17T10:57:49Z</time>
      </trkpt>
      <trkpt lat="43.78686" lon="6.4232">
        <ele>828.3132324</ele>
        <time>2010-04-17T10:57:55Z</time>
      </trkpt>
      <trkpt lat="43.78693" lon="6.42321">
        <ele>828.7939453</ele>
        <time>2010-04-17T10:57:58Z</time>
      </trkpt>
      <trkpt lat="43.7871" lon="6.42323">
        <ele>827.3518066</ele>
        <time>2010-04-17T10:58:04Z</time>
      </trkpt>
      <trkpt lat="43.78718" lon="6.42321">
        <ele>830.7165527</ele>
        <time>2010-04-17T10:58:10Z</time>
      </trkpt>
      <trkpt lat="43.78732" lon="6.42317">
        <ele>832.6391602</ele>
        <time>2010-04-17T10:58:18Z</time>
      </trkpt>
      <trkpt lat="43.78744" lon="6.42315">
        <ele>832.6391602</ele>
        <time>2010-04-17T10:58:25Z</time>
      </trkpt>
      <trkpt lat="43.78754" lon="6.4232">
        <ele>831.6777344</ele>
        <time>2010-04-17T10:58:29Z</time>
      </trkpt>
      <trkpt lat="43.78769" lon="6.42331">
        <ele>832.1584473</ele>
        <time>2010-04-17T10:58:34Z</time>
      </trkpt>
      <trkpt lat="43.78789" lon="6.42339">
        <ele>830.7165527</ele>
        <time>2010-04-17T10:58:40Z</time>
      </trkpt>
      <trkpt lat="43.78809" lon="6.42348">
        <ele>828.3132324</ele>
        <time>2010-04-17T10:58:47Z</time>
      </trkpt>
      <trkpt lat="43.78831" lon="6.4236">
        <ele>827.3518066</ele>
        <time>2010-04-17T10:58:53Z</time>
      </trkpt>
      <trkpt lat="43.78848" lon="6.4236">
        <ele>827.8322754</ele>
        <time>2010-04-17T10:58:57Z</time>
      </trkpt>
      <trkpt lat="43.78867" lon="6.42355">
        <ele>828.7939453</ele>
        <time>2010-04-17T10:59:02Z</time>
      </trkpt>
      <trkpt lat="43.78886" lon="6.42347">
        <ele>832.1584473</ele>
        <time>2010-04-17T10:59:08Z</time>
      </trkpt>
      <trkpt lat="43.789" lon="6.4234">
        <ele>832.6391602</ele>
        <time>2010-04-17T10:59:12Z</time>
      </trkpt>
      <trkpt lat="43.78914" lon="6.4233">
        <ele>832.1584473</ele>
        <time>2010-04-17T10:59:16Z</time>
      </trkpt>
      <trkpt lat="43.78924" lon="6.42318">
        <ele>836.484375</ele>
        <time>2010-04-17T10:59:21Z</time>
      </trkpt>
      <trkpt lat="43.78926" lon="6.42308">
        <ele>842.2521973</ele>
        <time>2010-04-17T10:59:26Z</time>
      </trkpt>
      <trkpt lat="43.7893" lon="6.42302">
        <ele>842.7329102</ele>
        <time>2010-04-17T10:59:30Z</time>
      </trkpt>
      <trkpt lat="43.78938" lon="6.42291">
        <ele>846.0976562</ele>
        <time>2010-04-17T10:59:38Z</time>
      </trkpt>
      <trkpt lat="43.78942" lon="6.42279">
        <ele>846.0976562</ele>
        <time>2010-04-17T10:59:44Z</time>
      </trkpt>
      <trkpt lat="43.78945" lon="6.42272">
        <ele>848.5007324</ele>
        <time>2010-04-17T10:59:50Z</time>
      </trkpt>
      <trkpt lat="43.78954" lon="6.42268">
        <ele>841.7714844</ele>
        <time>2010-04-17T11:00:19Z</time>
      </trkpt>
      <trkpt lat="43.78954" lon="6.42256">
        <ele>841.2907715</ele>
        <time>2010-04-17T11:00:26Z</time>
      </trkpt>
      <trkpt lat="43.78956" lon="6.42248">
        <ele>843.6940918</ele>
        <time>2010-04-17T11:00:32Z</time>
      </trkpt>
      <trkpt lat="43.78955" lon="6.42248">
        <ele>854.7492676</ele>
        <time>2010-04-17T11:00:37Z</time>
      </trkpt>
      <trkpt lat="43.78963" lon="6.42231">
        <ele>860.0366211</ele>
        <time>2010-04-17T11:00:59Z</time>
      </trkpt>
      <trkpt lat="43.78964" lon="6.42224">
        <ele>861.9594727</ele>
        <time>2010-04-17T11:01:04Z</time>
      </trkpt>
      <trkpt lat="43.78964" lon="6.42223">
        <ele>869.6499023</ele>
        <time>2010-04-17T11:01:10Z</time>
      </trkpt>
      <trkpt lat="43.78966" lon="6.42217">
        <ele>870.1303711</ele>
        <time>2010-04-17T11:01:14Z</time>
      </trkpt>
      <trkpt lat="43.78968" lon="6.42209">
        <ele>870.611084</ele>
        <time>2010-04-17T11:01:27Z</time>
      </trkpt>
      <trkpt lat="43.78972" lon="6.422">
        <ele>865.8046875</ele>
        <time>2010-04-17T11:01:33Z</time>
      </trkpt>
      <trkpt lat="43.78972" lon="6.42193">
        <ele>867.246582</ele>
        <time>2010-04-17T11:01:39Z</time>
      </trkpt>
      <trkpt lat="43.78976" lon="6.42189">
        <ele>864.3625488</ele>
        <time>2010-04-17T11:01:43Z</time>
      </trkpt>
      <trkpt lat="43.78981" lon="6.42184">
        <ele>868.6884766</ele>
        <time>2010-04-17T11:01:48Z</time>
      </trkpt>
      <trkpt lat="43.78982" lon="6.42178">
        <ele>878.7824707</ele>
        <time>2010-04-17T11:01:54Z</time>
      </trkpt>
      <trkpt lat="43.78983" lon="6.42172">
        <ele>879.7436523</ele>
        <time>2010-04-17T11:01:59Z</time>
      </trkpt>
      <trkpt lat="43.78985" lon="6.42164">
        <ele>878.7824707</ele>
        <time>2010-04-17T11:02:05Z</time>
      </trkpt>
      <trkpt lat="43.78989" lon="6.42158">
        <ele>877.8210449</ele>
        <time>2010-04-17T11:02:10Z</time>
      </trkpt>
      <trkpt lat="43.78991" lon="6.42146">
        <ele>872.5336914</ele>
        <time>2010-04-17T11:02:29Z</time>
      </trkpt>
      <trkpt lat="43.78999" lon="6.42137">
        <ele>870.1303711</ele>
        <time>2010-04-17T11:02:35Z</time>
      </trkpt>
      <trkpt lat="43.79001" lon="6.42126">
        <ele>872.0529785</ele>
        <time>2010-04-17T11:02:41Z</time>
      </trkpt>
      <trkpt lat="43.79002" lon="6.4212">
        <ele>874.4562988</ele>
        <time>2010-04-17T11:02:47Z</time>
      </trkpt>
      <trkpt lat="43.79008" lon="6.42108">
        <ele>871.0917969</ele>
        <time>2010-04-17T11:02:53Z</time>
      </trkpt>
      <trkpt lat="43.79015" lon="6.42093">
        <ele>866.2851562</ele>
        <time>2010-04-17T11:03:01Z</time>
      </trkpt>
      <trkpt lat="43.79019" lon="6.42089">
        <ele>869.1691895</ele>
        <time>2010-04-17T11:03:05Z</time>
      </trkpt>
      <trkpt lat="43.79023" lon="6.42087">
        <ele>877.3405762</ele>
        <time>2010-04-17T11:03:12Z</time>
      </trkpt>
      <trkpt lat="43.79022" lon="6.42079">
        <ele>882.6276855</ele>
        <time>2010-04-17T11:03:27Z</time>
      </trkpt>
      <trkpt lat="43.79024" lon="6.42074">
        <ele>884.0695801</ele>
        <time>2010-04-17T11:03:32Z</time>
      </trkpt>
      <trkpt lat="43.79033" lon="6.42058">
        <ele>889.3566895</ele>
        <time>2010-04-17T11:04:02Z</time>
      </trkpt>
      <trkpt lat="43.79032" lon="6.4205">
        <ele>886.9533691</ele>
        <time>2010-04-17T11:04:07Z</time>
      </trkpt>
      <trkpt lat="43.79033" lon="6.42047">
        <ele>889.8374023</ele>
        <time>2010-04-17T11:04:12Z</time>
      </trkpt>
      <trkpt lat="43.79038" lon="6.42035">
        <ele>898.0087891</ele>
        <time>2010-04-17T11:04:33Z</time>
      </trkpt>
      <trkpt lat="43.79039" lon="6.42019">
        <ele>901.373291</ele>
        <time>2010-04-17T11:04:58Z</time>
      </trkpt>
      <trkpt lat="43.79044" lon="6.42008">
        <ele>899.9313965</ele>
        <time>2010-04-17T11:05:05Z</time>
      </trkpt>
      <trkpt lat="43.79052" lon="6.41994">
        <ele>895.6054688</ele>
        <time>2010-04-17T11:05:11Z</time>
      </trkpt>
      <trkpt lat="43.79058" lon="6.41987">
        <ele>894.1635742</ele>
        <time>2010-04-17T11:05:16Z</time>
      </trkpt>
      <trkpt lat="43.79058" lon="6.41987">
        <ele>893.2021484</ele>
        <time>2010-04-17T11:05:26Z</time>
      </trkpt>
      <trkpt lat="43.79066" lon="6.41988">
        <ele>889.8374023</ele>
        <time>2010-04-17T11:05:33Z</time>
      </trkpt>
      <trkpt lat="43.7907" lon="6.41989">
        <ele>887.9147949</ele>
        <time>2010-04-17T11:05:43Z</time>
      </trkpt>
      <trkpt lat="43.79063" lon="6.41987">
        <ele>887.434082</ele>
        <time>2010-04-17T11:05:56Z</time>
      </trkpt>
      <trkpt lat="43.79055" lon="6.41988">
        <ele>887.9147949</ele>
        <time>2010-04-17T11:06:03Z</time>
      </trkpt>
      <trkpt lat="43.7906" lon="6.41986">
        <ele>889.3566895</ele>
        <time>2010-04-17T11:06:06Z</time>
      </trkpt>
      <trkpt lat="43.79072" lon="6.4198">
        <ele>889.8374023</ele>
        <time>2010-04-17T11:06:11Z</time>
      </trkpt>
      <trkpt lat="43.79086" lon="6.41966">
        <ele>892.7216797</ele>
        <time>2010-04-17T11:06:19Z</time>
      </trkpt>
      <trkpt lat="43.79086" lon="6.41963">
        <ele>894.644043</ele>
        <time>2010-04-17T11:06:23Z</time>
      </trkpt>
      <trkpt lat="43.79091" lon="6.41959">
        <ele>890.3181152</ele>
        <time>2010-04-17T11:16:07Z</time>
      </trkpt>
      <trkpt lat="43.79099" lon="6.41954">
        <ele>875.8981934</ele>
        <time>2010-04-17T11:16:36Z</time>
      </trkpt>
      <trkpt lat="43.79096" lon="6.41955">
        <ele>879.7436523</ele>
        <time>2010-04-17T11:16:49Z</time>
      </trkpt>
      <trkpt lat="43.79084" lon="6.41966">
        <ele>903.7766113</ele>
        <time>2010-04-17T11:18:28Z</time>
      </trkpt>
      <trkpt lat="43.79084" lon="6.41965">
        <ele>905.2185059</ele>
        <time>2010-04-17T11:18:38Z</time>
      </trkpt>
      <trkpt lat="43.79084" lon="6.41965">
        <ele>904.2573242</ele>
        <time>2010-04-17T11:18:39Z</time>
      </trkpt>
      <trkpt lat="43.79083" lon="6.4198">
        <ele>898.4892578</ele>
        <time>2010-04-17T11:18:44Z</time>
      </trkpt>
      <trkpt lat="43.79084" lon="6.41984">
        <ele>898.9699707</ele>
        <time>2010-04-17T11:18:46Z</time>
      </trkpt>
      <trkpt lat="43.79079" lon="6.41999">
        <ele>895.6054688</ele>
        <time>2010-04-17T11:18:51Z</time>
      </trkpt>
      <trkpt lat="43.79078" lon="6.42002">
        <ele>890.3181152</ele>
        <time>2010-04-17T11:18:54Z</time>
      </trkpt>
      <trkpt lat="43.79075" lon="6.42005">
        <ele>886.4729004</ele>
        <time>2010-04-17T11:19:01Z</time>
      </trkpt>
      <trkpt lat="43.79074" lon="6.42005">
        <ele>888.8762207</ele>
        <time>2010-04-17T11:19:27Z</time>
      </trkpt>
      <trkpt lat="43.79074" lon="6.42005">
        <ele>891.2792969</ele>
        <time>2010-04-17T11:19:42Z</time>
      </trkpt>
      <trkpt lat="43.79075" lon="6.42011">
        <ele>892.2409668</ele>
        <time>2010-04-17T11:19:46Z</time>
      </trkpt>
      <trkpt lat="43.79072" lon="6.42032">
        <ele>890.798584</ele>
        <time>2010-04-17T11:19:50Z</time>
      </trkpt>
      <trkpt lat="43.79067" lon="6.42053">
        <ele>885.5114746</ele>
        <time>2010-04-17T11:19:54Z</time>
      </trkpt>
      <trkpt lat="43.79063" lon="6.42075">
        <ele>878.7824707</ele>
        <time>2010-04-17T11:19:59Z</time>
      </trkpt>
      <trkpt lat="43.7905" lon="6.42113">
        <ele>867.246582</ele>
        <time>2010-04-17T11:20:06Z</time>
      </trkpt>
      <trkpt lat="43.79045" lon="6.42126">
        <ele>863.4013672</ele>
        <time>2010-04-17T11:20:08Z</time>
      </trkpt>
      <trkpt lat="43.79041" lon="6.42151">
        <ele>858.5944824</ele>
        <time>2010-04-17T11:20:11Z</time>
      </trkpt>
      <trkpt lat="43.79027" lon="6.42202">
        <ele>844.1750488</ele>
        <time>2010-04-17T11:20:18Z</time>
      </trkpt>
      <trkpt lat="43.79024" lon="6.4221">
        <ele>842.2521973</ele>
        <time>2010-04-17T11:20:19Z</time>
      </trkpt>
      <trkpt lat="43.79011" lon="6.4224">
        <ele>835.5229492</ele>
        <time>2010-04-17T11:20:23Z</time>
      </trkpt>
      <trkpt lat="43.79" lon="6.4227">
        <ele>825.4289551</ele>
        <time>2010-04-17T11:20:27Z</time>
      </trkpt>
      <trkpt lat="43.78978" lon="6.42318">
        <ele>818.6999512</ele>
        <time>2010-04-17T11:20:33Z</time>
      </trkpt>
      <trkpt lat="43.78974" lon="6.42324">
        <ele>817.7385254</ele>
        <time>2010-04-17T11:20:34Z</time>
      </trkpt>
      <trkpt lat="43.78965" lon="6.42349">
        <ele>815.3354492</ele>
        <time>2010-04-17T11:20:38Z</time>
      </trkpt>
      <trkpt lat="43.78956" lon="6.42383">
        <ele>810.0478516</ele>
        <time>2010-04-17T11:20:42Z</time>
      </trkpt>
      <trkpt lat="43.78953" lon="6.42392">
        <ele>809.0866699</ele>
        <time>2010-04-17T11:20:43Z</time>
      </trkpt>
      <trkpt lat="43.78949" lon="6.42411">
        <ele>806.6833496</ele>
        <time>2010-04-17T11:20:45Z</time>
      </trkpt>
      <trkpt lat="43.78945" lon="6.42464">
        <ele>797.0703125</ele>
        <time>2010-04-17T11:20:50Z</time>
      </trkpt>
      <trkpt lat="43.78945" lon="6.42475">
        <ele>794.1862793</ele>
        <time>2010-04-17T11:20:51Z</time>
      </trkpt>
      <trkpt lat="43.78945" lon="6.42529">
        <ele>783.6118164</ele>
        <time>2010-04-17T11:20:56Z</time>
      </trkpt>
      <trkpt lat="43.78945" lon="6.42539">
        <ele>780.2473145</ele>
        <time>2010-04-17T11:20:57Z</time>
      </trkpt>
      <trkpt lat="43.78948" lon="6.42557">
        <ele>775.4404297</ele>
        <time>2010-04-17T11:20:59Z</time>
      </trkpt>
      <trkpt lat="43.78955" lon="6.42572">
        <ele>773.0373535</ele>
        <time>2010-04-17T11:21:02Z</time>
      </trkpt>
      <trkpt lat="43.78963" lon="6.42579">
        <ele>768.7114258</ele>
        <time>2010-04-17T11:21:06Z</time>
      </trkpt>
      <trkpt lat="43.78972" lon="6.42604">
        <ele>764.8662109</ele>
        <time>2010-04-17T11:21:11Z</time>
      </trkpt>
      <trkpt lat="43.78977" lon="6.42616">
        <ele>761.9821777</ele>
        <time>2010-04-17T11:21:14Z</time>
      </trkpt>
      <trkpt lat="43.78981" lon="6.42637">
        <ele>757.1755371</ele>
        <time>2010-04-17T11:21:17Z</time>
      </trkpt>
      <trkpt lat="43.78984" lon="6.42653">
        <ele>754.291748</ele>
        <time>2010-04-17T11:21:19Z</time>
      </trkpt>
      <trkpt lat="43.78988" lon="6.4267">
        <ele>753.3303223</ele>
        <time>2010-04-17T11:21:21Z</time>
      </trkpt>
      <trkpt lat="43.78999" lon="6.42702">
        <ele>748.0432129</ele>
        <time>2010-04-17T11:21:25Z</time>
      </trkpt>
      <trkpt lat="43.79012" lon="6.42747">
        <ele>740.3525391</ele>
        <time>2010-04-17T11:21:30Z</time>
      </trkpt>
      <trkpt lat="43.79022" lon="6.42781">
        <ele>732.1813965</ele>
        <time>2010-04-17T11:21:34Z</time>
      </trkpt>
      <trkpt lat="43.79038" lon="6.42812">
        <ele>725.4519043</ele>
        <time>2010-04-17T11:21:38Z</time>
      </trkpt>
      <trkpt lat="43.79044" lon="6.42824">
        <ele>722.0874023</ele>
        <time>2010-04-17T11:21:40Z</time>
      </trkpt>
      <trkpt lat="43.79047" lon="6.42834">
        <ele>717.7614746</ele>
        <time>2010-04-17T11:21:42Z</time>
      </trkpt>
      <trkpt lat="43.79055" lon="6.4285">
        <ele>714.3967285</ele>
        <time>2010-04-17T11:21:45Z</time>
      </trkpt>
      <trkpt lat="43.79076" lon="6.42881">
        <ele>702.3803711</ele>
        <time>2010-04-17T11:21:51Z</time>
      </trkpt>
      <trkpt lat="43.79086" lon="6.42894">
        <ele>696.1318359</ele>
        <time>2010-04-17T11:21:55Z</time>
      </trkpt>
      <trkpt lat="43.79097" lon="6.42911">
        <ele>689.4025879</ele>
        <time>2010-04-17T11:22:00Z</time>
      </trkpt>
      <trkpt lat="43.79098" lon="6.42914">
        <ele>689.4025879</ele>
        <time>2010-04-17T11:22:01Z</time>
      </trkpt>
      <trkpt lat="43.79108" lon="6.42923">
        <ele>686.0380859</ele>
        <time>2010-04-17T11:22:07Z</time>
      </trkpt>
      <trkpt lat="43.79111" lon="6.42928">
        <ele>684.5961914</ele>
        <time>2010-04-17T11:22:08Z</time>
      </trkpt>
      <trkpt lat="43.79121" lon="6.42954">
        <ele>679.7893066</ele>
        <time>2010-04-17T11:22:14Z</time>
      </trkpt>
      <trkpt lat="43.79127" lon="6.42974">
        <ele>674.9829102</ele>
        <time>2010-04-17T11:22:18Z</time>
      </trkpt>
      <trkpt lat="43.79134" lon="6.42981">
        <ele>674.5021973</ele>
        <time>2010-04-17T11:22:20Z</time>
      </trkpt>
      <trkpt lat="43.79146" lon="6.42998">
        <ele>667.7727051</ele>
        <time>2010-04-17T11:22:25Z</time>
      </trkpt>
      <trkpt lat="43.79157" lon="6.43011">
        <ele>662.4855957</ele>
        <time>2010-04-17T11:22:29Z</time>
      </trkpt>
      <trkpt lat="43.79162" lon="6.43016">
        <ele>659.6018066</ele>
        <time>2010-04-17T11:22:30Z</time>
      </trkpt>
      <trkpt lat="43.79173" lon="6.43031">
        <ele>653.8339844</ele>
        <time>2010-04-17T11:22:33Z</time>
      </trkpt>
      <trkpt lat="43.79178" lon="6.43048">
        <ele>651.4304199</ele>
        <time>2010-04-17T11:22:37Z</time>
      </trkpt>
      <trkpt lat="43.79173" lon="6.43066">
        <ele>649.0270996</ele>
        <time>2010-04-17T11:22:43Z</time>
      </trkpt>
      <trkpt lat="43.7917" lon="6.43083">
        <ele>654.795166</ele>
        <time>2010-04-17T11:22:48Z</time>
      </trkpt>
      <trkpt lat="43.79173" lon="6.43101">
        <ele>656.2370605</ele>
        <time>2010-04-17T11:22:52Z</time>
      </trkpt>
      <trkpt lat="43.7918" lon="6.43128">
        <ele>657.6791992</ele>
        <time>2010-04-17T11:22:58Z</time>
      </trkpt>
      <trkpt lat="43.7918" lon="6.43152">
        <ele>657.1984863</ele>
        <time>2010-04-17T11:23:03Z</time>
      </trkpt>
      <trkpt lat="43.79177" lon="6.43166">
        <ele>656.7177734</ele>
        <time>2010-04-17T11:23:07Z</time>
      </trkpt>
      <trkpt lat="43.79173" lon="6.43185">
        <ele>654.795166</ele>
        <time>2010-04-17T11:23:12Z</time>
      </trkpt>
      <trkpt lat="43.79174" lon="6.432">
        <ele>658.1599121</ele>
        <time>2010-04-17T11:23:15Z</time>
      </trkpt>
      <trkpt lat="43.79175" lon="6.43212">
        <ele>657.6791992</ele>
        <time>2010-04-17T11:23:19Z</time>
      </trkpt>
      <trkpt lat="43.79168" lon="6.43215">
        <ele>650.4692383</ele>
        <time>2010-04-17T11:23:33Z</time>
      </trkpt>
      <trkpt lat="43.79166" lon="6.43218">
        <ele>652.3918457</ele>
        <time>2010-04-17T11:23:38Z</time>
      </trkpt>
      <trkpt lat="43.79162" lon="6.43218">
        <ele>645.1818848</ele>
        <time>2010-04-17T11:23:45Z</time>
      </trkpt>
      <trkpt lat="43.79161" lon="6.43219">
        <ele>642.7788086</ele>
        <time>2010-04-17T11:23:49Z</time>
      </trkpt>
      <trkpt lat="43.79162" lon="6.43221">
        <ele>643.7399902</ele>
        <time>2010-04-17T11:23:55Z</time>
      </trkpt>
      <trkpt lat="43.79166" lon="6.43219">
        <ele>643.7399902</ele>
        <time>2010-04-17T11:24:10Z</time>
      </trkpt>
      <trkpt lat="43.79166" lon="6.4322">
        <ele>649.0270996</ele>
        <time>2010-04-17T11:24:31Z</time>
      </trkpt>
      <trkpt lat="43.79165" lon="6.4324">
        <ele>648.065918</ele>
        <time>2010-04-17T11:24:39Z</time>
      </trkpt>
      <trkpt lat="43.79155" lon="6.43253">
        <ele>649.9885254</ele>
        <time>2010-04-17T11:24:44Z</time>
      </trkpt>
      <trkpt lat="43.79143" lon="6.43262">
        <ele>649.0270996</ele>
        <time>2010-04-17T11:24:49Z</time>
      </trkpt>
      <trkpt lat="43.7913" lon="6.43272">
        <ele>647.1044922</ele>
        <time>2010-04-17T11:24:55Z</time>
      </trkpt>
      <trkpt lat="43.79119" lon="6.43285">
        <ele>644.2207031</ele>
        <time>2010-04-17T11:25:01Z</time>
      </trkpt>
      <trkpt lat="43.79108" lon="6.43302">
        <ele>647.5852051</ele>
        <time>2010-04-17T11:25:08Z</time>
      </trkpt>
      <trkpt lat="43.79095" lon="6.43317">
        <ele>646.1433105</ele>
        <time>2010-04-17T11:25:16Z</time>
      </trkpt>
      <trkpt lat="43.79084" lon="6.4332">
        <ele>648.065918</ele>
        <time>2010-04-17T11:25:22Z</time>
      </trkpt>
      <trkpt lat="43.79075" lon="6.43326">
        <ele>651.4304199</ele>
        <time>2010-04-17T11:25:28Z</time>
      </trkpt>
      <trkpt lat="43.79064" lon="6.43334">
        <ele>650.4692383</ele>
        <time>2010-04-17T11:25:35Z</time>
      </trkpt>
      <trkpt lat="43.7905" lon="6.43338">
        <ele>649.9885254</ele>
        <time>2010-04-17T11:25:43Z</time>
      </trkpt>
      <trkpt lat="43.79037" lon="6.43335">
        <ele>650.4692383</ele>
        <time>2010-04-17T11:25:51Z</time>
      </trkpt>
      <trkpt lat="43.79026" lon="6.43332">
        <ele>651.9111328</ele>
        <time>2010-04-17T11:25:58Z</time>
      </trkpt>
      <trkpt lat="43.79018" lon="6.43334">
        <ele>655.2758789</ele>
        <time>2010-04-17T11:26:05Z</time>
      </trkpt>
      <trkpt lat="43.7901" lon="6.43337">
        <ele>656.7177734</ele>
        <time>2010-04-17T11:26:11Z</time>
      </trkpt>
      <trkpt lat="43.78997" lon="6.43337">
        <ele>659.1210938</ele>
        <time>2010-04-17T11:26:20Z</time>
      </trkpt>
      <trkpt lat="43.78984" lon="6.43338">
        <ele>659.1210938</ele>
        <time>2010-04-17T11:26:29Z</time>
      </trkpt>
      <trkpt lat="43.78971" lon="6.4334">
        <ele>663.4470215</ele>
        <time>2010-04-17T11:26:37Z</time>
      </trkpt>
      <trkpt lat="43.78961" lon="6.43341">
        <ele>665.3696289</ele>
        <time>2010-04-17T11:26:43Z</time>
      </trkpt>
      <trkpt lat="43.78954" lon="6.43346">
        <ele>670.1762695</ele>
        <time>2010-04-17T11:26:49Z</time>
      </trkpt>
      <trkpt lat="43.78941" lon="6.43352">
        <ele>671.6181641</ele>
        <time>2010-04-17T11:26:57Z</time>
      </trkpt>
      <trkpt lat="43.78929" lon="6.4336">
        <ele>671.6181641</ele>
        <time>2010-04-17T11:27:04Z</time>
      </trkpt>
      <trkpt lat="43.78919" lon="6.43364">
        <ele>672.098877</ele>
        <time>2010-04-17T11:27:10Z</time>
      </trkpt>
      <trkpt lat="43.78906" lon="6.43372">
        <ele>675.4633789</ele>
        <time>2010-04-17T11:27:17Z</time>
      </trkpt>
      <trkpt lat="43.78898" lon="6.43382">
        <ele>676.4248047</ele>
        <time>2010-04-17T11:27:22Z</time>
      </trkpt>
      <trkpt lat="43.78884" lon="6.43396">
        <ele>674.0214844</ele>
        <time>2010-04-17T11:27:28Z</time>
      </trkpt>
      <trkpt lat="43.78869" lon="6.43406">
        <ele>672.5795898</ele>
        <time>2010-04-17T11:27:33Z</time>
      </trkpt>
      <trkpt lat="43.78847" lon="6.43417">
        <ele>671.6181641</ele>
        <time>2010-04-17T11:27:39Z</time>
      </trkpt>
      <trkpt lat="43.7881" lon="6.4343">
        <ele>668.2536621</ele>
        <time>2010-04-17T11:27:48Z</time>
      </trkpt>
      <trkpt lat="43.78799" lon="6.43433">
        <ele>667.7727051</ele>
        <time>2010-04-17T11:27:50Z</time>
      </trkpt>
      <trkpt lat="43.78774" lon="6.43446">
        <ele>670.1762695</ele>
        <time>2010-04-17T11:27:56Z</time>
      </trkpt>
      <trkpt lat="43.7877" lon="6.43448">
        <ele>671.6181641</ele>
        <time>2010-04-17T11:27:57Z</time>
      </trkpt>
      <trkpt lat="43.78742" lon="6.43461">
        <ele>673.5410156</ele>
        <time>2010-04-17T11:28:04Z</time>
      </trkpt>
      <trkpt lat="43.78721" lon="6.43474">
        <ele>677.8666992</ele>
        <time>2010-04-17T11:28:09Z</time>
      </trkpt>
      <trkpt lat="43.78698" lon="6.43483">
        <ele>677.3862305</ele>
        <time>2010-04-17T11:28:14Z</time>
      </trkpt>
      <trkpt lat="43.7867" lon="6.43494">
        <ele>673.5410156</ele>
        <time>2010-04-17T11:28:19Z</time>
      </trkpt>
      <trkpt lat="43.78629" lon="6.43508">
        <ele>673.5410156</ele>
        <time>2010-04-17T11:28:27Z</time>
      </trkpt>
      <trkpt lat="43.78597" lon="6.43518">
        <ele>674.9829102</ele>
        <time>2010-04-17T11:28:34Z</time>
      </trkpt>
      <trkpt lat="43.78554" lon="6.43537">
        <ele>674.5021973</ele>
        <time>2010-04-17T11:28:43Z</time>
      </trkpt>
      <trkpt lat="43.78532" lon="6.43545">
        <ele>673.5410156</ele>
        <time>2010-04-17T11:28:47Z</time>
      </trkpt>
      <trkpt lat="43.78495" lon="6.43561">
        <ele>670.6569824</ele>
        <time>2010-04-17T11:28:54Z</time>
      </trkpt>
      <trkpt lat="43.78472" lon="6.43574">
        <ele>670.6569824</ele>
        <time>2010-04-17T11:28:59Z</time>
      </trkpt>
      <trkpt lat="43.7844" lon="6.43582">
        <ele>670.1762695</ele>
        <time>2010-04-17T11:29:06Z</time>
      </trkpt>
      <trkpt lat="43.78394" lon="6.43589">
        <ele>673.5410156</ele>
        <time>2010-04-17T11:29:16Z</time>
      </trkpt>
      <trkpt lat="43.78369" lon="6.43588">
        <ele>675.4633789</ele>
        <time>2010-04-17T11:29:22Z</time>
      </trkpt>
      <trkpt lat="43.78343" lon="6.43589">
        <ele>674.0214844</ele>
        <time>2010-04-17T11:29:29Z</time>
      </trkpt>
      <trkpt lat="43.78322" lon="6.43598">
        <ele>679.3085938</ele>
        <time>2010-04-17T11:29:36Z</time>
      </trkpt>
      <trkpt lat="43.78303" lon="6.43609">
        <ele>685.557373</ele>
        <time>2010-04-17T11:29:43Z</time>
      </trkpt>
      <trkpt lat="43.78279" lon="6.43618">
        <ele>685.557373</ele>
        <time>2010-04-17T11:29:50Z</time>
      </trkpt>
      <trkpt lat="43.78255" lon="6.43623">
        <ele>685.557373</ele>
        <time>2010-04-17T11:29:57Z</time>
      </trkpt>
      <trkpt lat="43.78234" lon="6.43624">
        <ele>684.1154785</ele>
        <time>2010-04-17T11:30:02Z</time>
      </trkpt>
      <trkpt lat="43.78214" lon="6.43635">
        <ele>683.6345215</ele>
        <time>2010-04-17T11:30:08Z</time>
      </trkpt>
      <trkpt lat="43.78201" lon="6.43647">
        <ele>689.8833008</ele>
        <time>2010-04-17T11:30:14Z</time>
      </trkpt>
      <trkpt lat="43.78199" lon="6.43649">
        <ele>689.8833008</ele>
        <time>2010-04-17T11:30:15Z</time>
      </trkpt>
      <trkpt lat="43.78183" lon="6.43665">
        <ele>688.4414062</ele>
        <time>2010-04-17T11:30:21Z</time>
      </trkpt>
      <trkpt lat="43.78169" lon="6.43678">
        <ele>690.8444824</ele>
        <time>2010-04-17T11:30:27Z</time>
      </trkpt>
      <trkpt lat="43.78154" lon="6.4369">
        <ele>690.3640137</ele>
        <time>2010-04-17T11:30:32Z</time>
      </trkpt>
      <trkpt lat="43.78141" lon="6.43697">
        <ele>690.3640137</ele>
        <time>2010-04-17T11:30:35Z</time>
      </trkpt>
      <trkpt lat="43.78109" lon="6.43705">
        <ele>688.4414062</ele>
        <time>2010-04-17T11:30:40Z</time>
      </trkpt>
      <trkpt lat="43.78085" lon="6.43714">
        <ele>686.5187988</ele>
        <time>2010-04-17T11:30:44Z</time>
      </trkpt>
      <trkpt lat="43.78071" lon="6.43721">
        <ele>684.5961914</ele>
        <time>2010-04-17T11:30:47Z</time>
      </trkpt>
      <trkpt lat="43.78043" lon="6.43728">
        <ele>681.7119141</ele>
        <time>2010-04-17T11:30:52Z</time>
      </trkpt>
      <trkpt lat="43.78012" lon="6.43735">
        <ele>682.6733398</ele>
        <time>2010-04-17T11:31:00Z</time>
      </trkpt>
      <trkpt lat="43.77992" lon="6.43739">
        <ele>683.6345215</ele>
        <time>2010-04-17T11:31:07Z</time>
      </trkpt>
      <trkpt lat="43.77977" lon="6.43738">
        <ele>686.5187988</ele>
        <time>2010-04-17T11:31:13Z</time>
      </trkpt>
      <trkpt lat="43.77961" lon="6.4374">
        <ele>690.3640137</ele>
        <time>2010-04-17T11:31:19Z</time>
      </trkpt>
      <trkpt lat="43.77949" lon="6.43748">
        <ele>690.8444824</ele>
        <time>2010-04-17T11:31:23Z</time>
      </trkpt>
      <trkpt lat="43.77922" lon="6.43745">
        <ele>690.3640137</ele>
        <time>2010-04-17T11:31:29Z</time>
      </trkpt>
      <trkpt lat="43.77904" lon="6.43732">
        <ele>689.4025879</ele>
        <time>2010-04-17T11:31:33Z</time>
      </trkpt>
      <trkpt lat="43.77887" lon="6.43732">
        <ele>689.4025879</ele>
        <time>2010-04-17T11:31:37Z</time>
      </trkpt>
      <trkpt lat="43.77884" lon="6.43737">
        <ele>687.4799805</ele>
        <time>2010-04-17T11:31:38Z</time>
      </trkpt>
      <trkpt lat="43.77867" lon="6.43765">
        <ele>686.9992676</ele>
        <time>2010-04-17T11:31:45Z</time>
      </trkpt>
      <trkpt lat="43.77847" lon="6.43775">
        <ele>689.8833008</ele>
        <time>2010-04-17T11:31:51Z</time>
      </trkpt>
      <trkpt lat="43.77823" lon="6.4379">
        <ele>689.8833008</ele>
        <time>2010-04-17T11:31:59Z</time>
      </trkpt>
      <trkpt lat="43.778" lon="6.43801">
        <ele>692.767334</ele>
        <time>2010-04-17T11:32:07Z</time>
      </trkpt>
      <trkpt lat="43.7778" lon="6.43807">
        <ele>693.7285156</ele>
        <time>2010-04-17T11:32:13Z</time>
      </trkpt>
      <trkpt lat="43.77764" lon="6.43812">
        <ele>695.1704102</ele>
        <time>2010-04-17T11:32:19Z</time>
      </trkpt>
      <trkpt lat="43.77748" lon="6.4382">
        <ele>696.1318359</ele>
        <time>2010-04-17T11:32:27Z</time>
      </trkpt>
      <trkpt lat="43.77731" lon="6.43828">
        <ele>694.2092285</ele>
        <time>2010-04-17T11:32:35Z</time>
      </trkpt>
      <trkpt lat="43.77718" lon="6.43832">
        <ele>695.651123</ele>
        <time>2010-04-17T11:32:42Z</time>
      </trkpt>
      <trkpt lat="43.77703" lon="6.4384">
        <ele>696.1318359</ele>
        <time>2010-04-17T11:32:49Z</time>
      </trkpt>
      <trkpt lat="43.77679" lon="6.4385">
        <ele>699.015625</ele>
        <time>2010-04-17T11:32:59Z</time>
      </trkpt>
      <trkpt lat="43.77658" lon="6.43857">
        <ele>699.4963379</ele>
        <time>2010-04-17T11:33:07Z</time>
      </trkpt>
      <trkpt lat="43.77636" lon="6.43864">
        <ele>702.861084</ele>
        <time>2010-04-17T11:33:16Z</time>
      </trkpt>
      <trkpt lat="43.77613" lon="6.43872">
        <ele>702.3803711</ele>
        <time>2010-04-17T11:33:25Z</time>
      </trkpt>
      <trkpt lat="43.77593" lon="6.43879">
        <ele>703.8225098</ele>
        <time>2010-04-17T11:33:33Z</time>
      </trkpt>
      <trkpt lat="43.77565" lon="6.43888">
        <ele>703.8225098</ele>
        <time>2010-04-17T11:33:43Z</time>
      </trkpt>
      <trkpt lat="43.77547" lon="6.43895">
        <ele>705.2644043</ele>
        <time>2010-04-17T11:33:50Z</time>
      </trkpt>
      <trkpt lat="43.77522" lon="6.43903">
        <ele>709.1096191</ele>
        <time>2010-04-17T11:34:00Z</time>
      </trkpt>
      <trkpt lat="43.77501" lon="6.43911">
        <ele>708.6289062</ele>
        <time>2010-04-17T11:34:09Z</time>
      </trkpt>
      <trkpt lat="43.77496" lon="6.43913">
        <ele>707.1870117</ele>
        <time>2010-04-17T11:34:14Z</time>
      </trkpt>
      <trkpt lat="43.77495" lon="6.43913">
        <ele>702.861084</ele>
        <time>2010-04-17T11:34:26Z</time>
      </trkpt>
      <trkpt lat="43.77492" lon="6.43905">
        <ele>712.4741211</ele>
        <time>2010-04-17T11:34:58Z</time>
      </trkpt>
      <trkpt lat="43.77491" lon="6.43909">
        <ele>714.3967285</ele>
        <time>2010-04-17T11:38:14Z</time>
      </trkpt>
      <trkpt lat="43.77492" lon="6.4391">
        <ele>707.6677246</ele>
        <time>2010-04-17T11:38:22Z</time>
      </trkpt>
      <trkpt lat="43.77492" lon="6.43909">
        <ele>699.4963379</ele>
        <time>2010-04-17T11:38:51Z</time>
      </trkpt>
      <trkpt lat="43.77497" lon="6.43909">
        <ele>699.9770508</ele>
        <time>2010-04-17T11:38:57Z</time>
      </trkpt>
      <trkpt lat="43.77492" lon="6.4392">
        <ele>701.4191895</ele>
        <time>2010-04-17T11:39:01Z</time>
      </trkpt>
      <trkpt lat="43.77483" lon="6.43933">
        <ele>700.9384766</ele>
        <time>2010-04-17T11:39:04Z</time>
      </trkpt>
      <trkpt lat="43.77476" lon="6.43947">
        <ele>701.8999023</ele>
        <time>2010-04-17T11:39:06Z</time>
      </trkpt>
      <trkpt lat="43.77461" lon="6.43975">
        <ele>702.3803711</ele>
        <time>2010-04-17T11:39:10Z</time>
      </trkpt>
      <trkpt lat="43.77455" lon="6.4399">
        <ele>701.8999023</ele>
        <time>2010-04-17T11:39:12Z</time>
      </trkpt>
      <trkpt lat="43.77446" lon="6.44007">
        <ele>701.4191895</ele>
        <time>2010-04-17T11:39:14Z</time>
      </trkpt>
      <trkpt lat="43.77436" lon="6.44035">
        <ele>698.0544434</ele>
        <time>2010-04-17T11:39:18Z</time>
      </trkpt>
      <trkpt lat="43.7742" lon="6.44069">
        <ele>694.6896973</ele>
        <time>2010-04-17T11:39:23Z</time>
      </trkpt>
      <trkpt lat="43.77405" lon="6.44088">
        <ele>690.3640137</ele>
        <time>2010-04-17T11:39:27Z</time>
      </trkpt>
      <trkpt lat="43.77389" lon="6.4409">
        <ele>687.9606934</ele>
        <time>2010-04-17T11:39:30Z</time>
      </trkpt>
      <trkpt lat="43.7738" lon="6.44095">
        <ele>686.5187988</ele>
        <time>2010-04-17T11:39:32Z</time>
      </trkpt>
      <trkpt lat="43.7736" lon="6.44119">
        <ele>681.2314453</ele>
        <time>2010-04-17T11:39:37Z</time>
      </trkpt>
      <trkpt lat="43.77348" lon="6.44136">
        <ele>680.7507324</ele>
        <time>2010-04-17T11:39:40Z</time>
      </trkpt>
      <trkpt lat="43.77345" lon="6.44139">
        <ele>680.2700195</ele>
        <time>2010-04-17T11:39:41Z</time>
      </trkpt>
      <trkpt lat="43.77318" lon="6.44164">
        <ele>678.3474121</ele>
        <time>2010-04-17T11:39:46Z</time>
      </trkpt>
      <trkpt lat="43.77292" lon="6.44183">
        <ele>674.5021973</ele>
        <time>2010-04-17T11:39:50Z</time>
      </trkpt>
      <trkpt lat="43.77285" lon="6.44204">
        <ele>671.6181641</ele>
        <time>2010-04-17T11:39:54Z</time>
      </trkpt>
      <trkpt lat="43.77288" lon="6.44205">
        <ele>672.098877</ele>
        <time>2010-04-17T11:39:58Z</time>
      </trkpt>
      <trkpt lat="43.77288" lon="6.44203">
        <ele>673.0603027</ele>
        <time>2010-04-17T11:40:09Z</time>
      </trkpt>
      <trkpt lat="43.77287" lon="6.44203">
        <ele>680.2700195</ele>
        <time>2010-04-17T11:42:21Z</time>
      </trkpt>
      <trkpt lat="43.77287" lon="6.44201">
        <ele>676.4248047</ele>
        <time>2010-04-17T11:42:43Z</time>
      </trkpt>
      <trkpt lat="43.77285" lon="6.44201">
        <ele>679.3085938</ele>
        <time>2010-04-17T11:43:01Z</time>
      </trkpt>
      <trkpt lat="43.77285" lon="6.44197">
        <ele>675.9440918</ele>
        <time>2010-04-17T11:43:06Z</time>
      </trkpt>
      <trkpt lat="43.77279" lon="6.4419">
        <ele>675.4633789</ele>
        <time>2010-04-17T11:43:11Z</time>
      </trkpt>
      <trkpt lat="43.7727" lon="6.44196">
        <ele>674.9829102</ele>
        <time>2010-04-17T11:43:15Z</time>
      </trkpt>
      <trkpt lat="43.77255" lon="6.44206">
        <ele>674.0214844</ele>
        <time>2010-04-17T11:43:21Z</time>
      </trkpt>
      <trkpt lat="43.77243" lon="6.4422">
        <ele>674.9829102</ele>
        <time>2010-04-17T11:43:26Z</time>
      </trkpt>
      <trkpt lat="43.77234" lon="6.4423">
        <ele>674.9829102</ele>
        <time>2010-04-17T11:43:33Z</time>
      </trkpt>
      <trkpt lat="43.77233" lon="6.44235">
        <ele>671.6181641</ele>
        <time>2010-04-17T11:43:41Z</time>
      </trkpt>
      <trkpt lat="43.77235" lon="6.44236">
        <ele>667.2922363</ele>
        <time>2010-04-17T11:43:55Z</time>
      </trkpt>
      <trkpt lat="43.77234" lon="6.44239">
        <ele>664.888916</ele>
        <time>2010-04-17T11:44:08Z</time>
      </trkpt>
      <trkpt lat="43.77233" lon="6.44238">
        <ele>665.8503418</ele>
        <time>2010-04-17T11:44:31Z</time>
      </trkpt>
      <trkpt lat="43.77235" lon="6.44237">
        <ele>662.9663086</ele>
        <time>2010-04-17T11:44:49Z</time>
      </trkpt>
      <trkpt lat="43.77233" lon="6.44237">
        <ele>682.192627</ele>
        <time>2010-04-17T11:45:28Z</time>
      </trkpt>
      <trkpt lat="43.77235" lon="6.44232">
        <ele>684.5961914</ele>
        <time>2010-04-17T11:45:55Z</time>
      </trkpt>
      <trkpt lat="43.77233" lon="6.44231">
        <ele>679.7893066</ele>
        <time>2010-04-17T11:46:04Z</time>
      </trkpt>
      <trkpt lat="43.77231" lon="6.44233">
        <ele>675.4633789</ele>
        <time>2010-04-17T11:46:13Z</time>
      </trkpt>
      <trkpt lat="43.77236" lon="6.44225">
        <ele>675.4633789</ele>
        <time>2010-04-17T11:46:18Z</time>
      </trkpt>
      <trkpt lat="43.77248" lon="6.44211">
        <ele>674.0214844</ele>
        <time>2010-04-17T11:46:25Z</time>
      </trkpt>
      <trkpt lat="43.77256" lon="6.44201">
        <ele>674.5021973</ele>
        <time>2010-04-17T11:46:30Z</time>
      </trkpt>
      <trkpt lat="43.77263" lon="6.44198">
        <ele>672.098877</ele>
        <time>2010-04-17T11:46:35Z</time>
      </trkpt>
      <trkpt lat="43.77265" lon="6.44198">
        <ele>667.7727051</ele>
        <time>2010-04-17T11:46:43Z</time>
      </trkpt>
      <trkpt lat="43.77267" lon="6.44198">
        <ele>663.4470215</ele>
        <time>2010-04-17T11:47:02Z</time>
      </trkpt>
      <trkpt lat="43.77266" lon="6.44197">
        <ele>664.4082031</ele>
        <time>2010-04-17T11:47:16Z</time>
      </trkpt>
      <trkpt lat="43.77275" lon="6.44193">
        <ele>664.4082031</ele>
        <time>2010-04-17T11:47:20Z</time>
      </trkpt>
      <trkpt lat="43.77286" lon="6.44199">
        <ele>664.888916</ele>
        <time>2010-04-17T11:47:24Z</time>
      </trkpt>
      <trkpt lat="43.77287" lon="6.442">
        <ele>664.888916</ele>
        <time>2010-04-17T11:47:27Z</time>
      </trkpt>
      <trkpt lat="43.77288" lon="6.44201">
        <ele>665.8503418</ele>
        <time>2010-04-17T11:47:30Z</time>
      </trkpt>
      <trkpt lat="43.77291" lon="6.44211">
        <ele>665.8503418</ele>
        <time>2010-04-17T11:47:33Z</time>
      </trkpt>
      <trkpt lat="43.77293" lon="6.44232">
        <ele>666.8115234</ele>
        <time>2010-04-17T11:47:37Z</time>
      </trkpt>
      <trkpt lat="43.77291" lon="6.44248">
        <ele>669.2150879</ele>
        <time>2010-04-17T11:47:43Z</time>
      </trkpt>
      <trkpt lat="43.77297" lon="6.44263">
        <ele>671.6181641</ele>
        <time>2010-04-17T11:47:49Z</time>
      </trkpt>
      <trkpt lat="43.77306" lon="6.44281">
        <ele>674.0214844</ele>
        <time>2010-04-17T11:47:56Z</time>
      </trkpt>
      <trkpt lat="43.77311" lon="6.44294">
        <ele>673.5410156</ele>
        <time>2010-04-17T11:48:01Z</time>
      </trkpt>
      <trkpt lat="43.77315" lon="6.44305">
        <ele>675.4633789</ele>
        <time>2010-04-17T11:48:06Z</time>
      </trkpt>
      <trkpt lat="43.77322" lon="6.44313">
        <ele>676.9055176</ele>
        <time>2010-04-17T11:48:12Z</time>
      </trkpt>
      <trkpt lat="43.77328" lon="6.44324">
        <ele>676.9055176</ele>
        <time>2010-04-17T11:48:19Z</time>
      </trkpt>
      <trkpt lat="43.7733" lon="6.44339">
        <ele>676.9055176</ele>
        <time>2010-04-17T11:48:25Z</time>
      </trkpt>
      <trkpt lat="43.77329" lon="6.44348">
        <ele>677.3862305</ele>
        <time>2010-04-17T11:48:28Z</time>
      </trkpt>
      <trkpt lat="43.77334" lon="6.44355">
        <ele>678.828125</ele>
        <time>2010-04-17T11:48:32Z</time>
      </trkpt>
      <trkpt lat="43.77337" lon="6.44359">
        <ele>678.828125</ele>
        <time>2010-04-17T11:48:37Z</time>
      </trkpt>
      <trkpt lat="43.77338" lon="6.44365">
        <ele>679.3085938</ele>
        <time>2010-04-17T11:48:43Z</time>
      </trkpt>
      <trkpt lat="43.77339" lon="6.44369">
        <ele>679.3085938</ele>
        <time>2010-04-17T11:48:44Z</time>
      </trkpt>
      <trkpt lat="43.77344" lon="6.44406">
        <ele>677.3862305</ele>
        <time>2010-04-17T11:48:49Z</time>
      </trkpt>
      <trkpt lat="43.77347" lon="6.44423">
        <ele>677.3862305</ele>
        <time>2010-04-17T11:48:51Z</time>
      </trkpt>
      <trkpt lat="43.7735" lon="6.44454">
        <ele>677.8666992</ele>
        <time>2010-04-17T11:48:55Z</time>
      </trkpt>
      <trkpt lat="43.77351" lon="6.44477">
        <ele>679.3085938</ele>
        <time>2010-04-17T11:48:59Z</time>
      </trkpt>
      <trkpt lat="43.77357" lon="6.44504">
        <ele>679.3085938</ele>
        <time>2010-04-17T11:49:06Z</time>
      </trkpt>
      <trkpt lat="43.77355" lon="6.44525">
        <ele>680.2700195</ele>
        <time>2010-04-17T11:49:12Z</time>
      </trkpt>
      <trkpt lat="43.77351" lon="6.4454">
        <ele>687.4799805</ele>
        <time>2010-04-17T11:49:18Z</time>
      </trkpt>
      <trkpt lat="43.77348" lon="6.44553">
        <ele>689.8833008</ele>
        <time>2010-04-17T11:49:24Z</time>
      </trkpt>
      <trkpt lat="43.77343" lon="6.44564">
        <ele>688.9221191</ele>
        <time>2010-04-17T11:49:30Z</time>
      </trkpt>
      <trkpt lat="43.77339" lon="6.44583">
        <ele>689.8833008</ele>
        <time>2010-04-17T11:49:37Z</time>
      </trkpt>
      <trkpt lat="43.77338" lon="6.44589">
        <ele>690.3640137</ele>
        <time>2010-04-17T11:49:39Z</time>
      </trkpt>
      <trkpt lat="43.77345" lon="6.44606">
        <ele>690.8444824</ele>
        <time>2010-04-17T11:49:45Z</time>
      </trkpt>
      <trkpt lat="43.77351" lon="6.44627">
        <ele>691.3251953</ele>
        <time>2010-04-17T11:49:52Z</time>
      </trkpt>
      <trkpt lat="43.77353" lon="6.44643">
        <ele>689.8833008</ele>
        <time>2010-04-17T11:49:57Z</time>
      </trkpt>
      <trkpt lat="43.77358" lon="6.44664">
        <ele>687.4799805</ele>
        <time>2010-04-17T11:50:04Z</time>
      </trkpt>
      <trkpt lat="43.77361" lon="6.44682">
        <ele>686.9992676</ele>
        <time>2010-04-17T11:50:10Z</time>
      </trkpt>
      <trkpt lat="43.77361" lon="6.44709">
        <ele>686.9992676</ele>
        <time>2010-04-17T11:50:18Z</time>
      </trkpt>
      <trkpt lat="43.77361" lon="6.4473">
        <ele>687.9606934</ele>
        <time>2010-04-17T11:50:24Z</time>
      </trkpt>
      <trkpt lat="43.77351" lon="6.4474">
        <ele>689.8833008</ele>
        <time>2010-04-17T11:50:29Z</time>
      </trkpt>
      <trkpt lat="43.77347" lon="6.44749">
        <ele>690.8444824</ele>
        <time>2010-04-17T11:50:33Z</time>
      </trkpt>
      <trkpt lat="43.77349" lon="6.44746">
        <ele>686.5187988</ele>
        <time>2010-04-17T11:50:47Z</time>
      </trkpt>
      <trkpt lat="43.77348" lon="6.44752">
        <ele>684.1154785</ele>
        <time>2010-04-17T11:51:02Z</time>
      </trkpt>
      <trkpt lat="43.77347" lon="6.44753">
        <ele>684.1154785</ele>
        <time>2010-04-17T11:51:05Z</time>
      </trkpt>
      <trkpt lat="43.7734" lon="6.44765">
        <ele>685.557373</ele>
        <time>2010-04-17T11:51:10Z</time>
      </trkpt>
      <trkpt lat="43.77325" lon="6.44782">
        <ele>689.8833008</ele>
        <time>2010-04-17T11:51:16Z</time>
      </trkpt>
      <trkpt lat="43.77321" lon="6.44783">
        <ele>689.8833008</ele>
        <time>2010-04-17T11:51:18Z</time>
      </trkpt>
      <trkpt lat="43.7731" lon="6.44777">
        <ele>688.9221191</ele>
        <time>2010-04-17T11:51:24Z</time>
      </trkpt>
      <trkpt lat="43.77311" lon="6.44778">
        <ele>688.9221191</ele>
        <time>2010-04-17T11:51:26Z</time>
      </trkpt>
      <trkpt lat="43.77317" lon="6.44786">
        <ele>686.9992676</ele>
        <time>2010-04-17T11:51:32Z</time>
      </trkpt>
      <trkpt lat="43.77316" lon="6.44791">
        <ele>688.4414062</ele>
        <time>2010-04-17T11:51:37Z</time>
      </trkpt>
      <trkpt lat="43.77316" lon="6.44793">
        <ele>688.4414062</ele>
        <time>2010-04-17T11:51:38Z</time>
      </trkpt>
      <trkpt lat="43.77311" lon="6.44808">
        <ele>690.3640137</ele>
        <time>2010-04-17T11:51:44Z</time>
      </trkpt>
      <trkpt lat="43.77306" lon="6.44816">
        <ele>693.7285156</ele>
        <time>2010-04-17T11:51:49Z</time>
      </trkpt>
      <trkpt lat="43.77301" lon="6.44827">
        <ele>699.4963379</ele>
        <time>2010-04-17T11:51:55Z</time>
      </trkpt>
      <trkpt lat="43.77298" lon="6.44829">
        <ele>700.9384766</ele>
        <time>2010-04-17T11:51:57Z</time>
      </trkpt>
      <trkpt lat="43.77286" lon="6.44843">
        <ele>706.7062988</ele>
        <time>2010-04-17T11:52:05Z</time>
      </trkpt>
      <trkpt lat="43.7727" lon="6.44863">
        <ele>709.590332</ele>
        <time>2010-04-17T11:52:13Z</time>
      </trkpt>
      <trkpt lat="43.77258" lon="6.44896">
        <ele>706.2255859</ele>
        <time>2010-04-17T11:52:21Z</time>
      </trkpt>
      <trkpt lat="43.7725" lon="6.44931">
        <ele>702.861084</ele>
        <time>2010-04-17T11:52:30Z</time>
      </trkpt>
      <trkpt lat="43.77239" lon="6.44946">
        <ele>705.2644043</ele>
        <time>2010-04-17T11:52:35Z</time>
      </trkpt>
      <trkpt lat="43.77228" lon="6.4495">
        <ele>707.1870117</ele>
        <time>2010-04-17T11:52:39Z</time>
      </trkpt>
      <trkpt lat="43.77222" lon="6.44934">
        <ele>713.9160156</ele>
        <time>2010-04-17T11:52:43Z</time>
      </trkpt>
      <trkpt lat="43.77214" lon="6.44909">
        <ele>715.3581543</ele>
        <time>2010-04-17T11:52:49Z</time>
      </trkpt>
      <trkpt lat="43.772" lon="6.44894">
        <ele>716.3195801</ele>
        <time>2010-04-17T11:52:54Z</time>
      </trkpt>
      <trkpt lat="43.77179" lon="6.44887">
        <ele>721.1262207</ele>
        <time>2010-04-17T11:53:00Z</time>
      </trkpt>
      <trkpt lat="43.77156" lon="6.44883">
        <ele>724.9714355</ele>
        <time>2010-04-17T11:53:06Z</time>
      </trkpt>
      <trkpt lat="43.77131" lon="6.44883">
        <ele>728.3359375</ele>
        <time>2010-04-17T11:53:12Z</time>
      </trkpt>
      <trkpt lat="43.77101" lon="6.44885">
        <ele>725.9326172</ele>
        <time>2010-04-17T11:53:19Z</time>
      </trkpt>
      <trkpt lat="43.77071" lon="6.44884">
        <ele>721.6066895</ele>
        <time>2010-04-17T11:53:26Z</time>
      </trkpt>
      <trkpt lat="43.77062" lon="6.44881">
        <ele>722.5681152</ele>
        <time>2010-04-17T11:53:28Z</time>
      </trkpt>
      <trkpt lat="43.77053" lon="6.44878">
        <ele>725.9326172</ele>
        <time>2010-04-17T11:53:30Z</time>
      </trkpt>
      <trkpt lat="43.77024" lon="6.44862">
        <ele>730.7392578</ele>
        <time>2010-04-17T11:53:37Z</time>
      </trkpt>
      <trkpt lat="43.76992" lon="6.44836">
        <ele>728.8166504</ele>
        <time>2010-04-17T11:53:45Z</time>
      </trkpt>
      <trkpt lat="43.76966" lon="6.44816">
        <ele>732.6621094</ele>
        <time>2010-04-17T11:53:52Z</time>
      </trkpt>
      <trkpt lat="43.76931" lon="6.448">
        <ele>733.623291</ele>
        <time>2010-04-17T11:54:01Z</time>
      </trkpt>
      <trkpt lat="43.76903" lon="6.44789">
        <ele>736.5073242</ele>
        <time>2010-04-17T11:54:08Z</time>
      </trkpt>
      <trkpt lat="43.76869" lon="6.44776">
        <ele>735.5458984</ele>
        <time>2010-04-17T11:54:16Z</time>
      </trkpt>
      <trkpt lat="43.76839" lon="6.44775">
        <ele>736.5073242</ele>
        <time>2010-04-17T11:54:23Z</time>
      </trkpt>
      <trkpt lat="43.76801" lon="6.44776">
        <ele>738.4299316</ele>
        <time>2010-04-17T11:54:32Z</time>
      </trkpt>
      <trkpt lat="43.76764" lon="6.44779">
        <ele>738.9106445</ele>
        <time>2010-04-17T11:54:41Z</time>
      </trkpt>
      <trkpt lat="43.76735" lon="6.44795">
        <ele>734.5847168</ele>
        <time>2010-04-17T11:54:49Z</time>
      </trkpt>
      <trkpt lat="43.76706" lon="6.44817">
        <ele>730.2585449</ele>
        <time>2010-04-17T11:54:56Z</time>
      </trkpt>
      <trkpt lat="43.76666" lon="6.44845">
        <ele>730.2585449</ele>
        <time>2010-04-17T11:55:05Z</time>
      </trkpt>
      <trkpt lat="43.76611" lon="6.44883">
        <ele>730.7392578</ele>
        <time>2010-04-17T11:55:17Z</time>
      </trkpt>
      <trkpt lat="43.76563" lon="6.44917">
        <ele>731.7004395</ele>
        <time>2010-04-17T11:55:27Z</time>
      </trkpt>
      <trkpt lat="43.7653" lon="6.44942">
        <ele>735.5458984</ele>
        <time>2010-04-17T11:55:34Z</time>
      </trkpt>
      <trkpt lat="43.76511" lon="6.44955">
        <ele>736.0266113</ele>
        <time>2010-04-17T11:55:38Z</time>
      </trkpt>
      <trkpt lat="43.76493" lon="6.44967">
        <ele>736.0266113</ele>
        <time>2010-04-17T11:55:42Z</time>
      </trkpt>
      <trkpt lat="43.76447" lon="6.44993">
        <ele>735.0654297</ele>
        <time>2010-04-17T11:55:52Z</time>
      </trkpt>
      <trkpt lat="43.76412" lon="6.45011">
        <ele>733.623291</ele>
        <time>2010-04-17T11:56:00Z</time>
      </trkpt>
      <trkpt lat="43.76371" lon="6.45035">
        <ele>731.7004395</ele>
        <time>2010-04-17T11:56:10Z</time>
      </trkpt>
      <trkpt lat="43.76349" lon="6.45055">
        <ele>730.2585449</ele>
        <time>2010-04-17T11:56:16Z</time>
      </trkpt>
      <trkpt lat="43.76336" lon="6.45049">
        <ele>728.8166504</ele>
        <time>2010-04-17T11:56:20Z</time>
      </trkpt>
      <trkpt lat="43.76339" lon="6.45039">
        <ele>727.8552246</ele>
        <time>2010-04-17T11:56:22Z</time>
      </trkpt>
      <trkpt lat="43.76345" lon="6.4503">
        <ele>728.8166504</ele>
        <time>2010-04-17T11:56:25Z</time>
      </trkpt>
      <trkpt lat="43.76339" lon="6.45028">
        <ele>725.9326172</ele>
        <time>2010-04-17T11:56:28Z</time>
      </trkpt>
      <trkpt lat="43.76334" lon="6.45034">
        <ele>724.9714355</ele>
        <time>2010-04-17T11:56:31Z</time>
      </trkpt>
      <trkpt lat="43.7634" lon="6.45034">
        <ele>723.0488281</ele>
        <time>2010-04-17T11:56:34Z</time>
      </trkpt>
      <trkpt lat="43.76343" lon="6.4503">
        <ele>722.0874023</ele>
        <time>2010-04-17T11:56:36Z</time>
      </trkpt>
      <trkpt lat="43.76346" lon="6.45026">
        <ele>721.1262207</ele>
        <time>2010-04-17T11:56:40Z</time>
      </trkpt>
      <trkpt lat="43.76344" lon="6.45016">
        <ele>719.6843262</ele>
        <time>2010-04-17T11:56:43Z</time>
      </trkpt>
      <trkpt lat="43.7634" lon="6.45005">
        <ele>719.6843262</ele>
        <time>2010-04-17T11:56:45Z</time>
      </trkpt>
      <trkpt lat="43.7634" lon="6.44979">
        <ele>718.7229004</ele>
        <time>2010-04-17T11:56:49Z</time>
      </trkpt>
      <trkpt lat="43.7633" lon="6.44931">
        <ele>716.800293</ele>
        <time>2010-04-17T11:56:56Z</time>
      </trkpt>
      <trkpt lat="43.76323" lon="6.44901">
        <ele>718.2421875</ele>
        <time>2010-04-17T11:57:02Z</time>
      </trkpt>
      <trkpt lat="43.76319" lon="6.4488">
        <ele>722.0874023</ele>
        <time>2010-04-17T11:57:08Z</time>
      </trkpt>
      <trkpt lat="43.76314" lon="6.44853">
        <ele>720.6455078</ele>
        <time>2010-04-17T11:57:14Z</time>
      </trkpt>
      <trkpt lat="43.76303" lon="6.44837">
        <ele>719.2036133</ele>
        <time>2010-04-17T11:57:18Z</time>
      </trkpt>
      <trkpt lat="43.76275" lon="6.44826">
        <ele>721.1262207</ele>
        <time>2010-04-17T11:57:27Z</time>
      </trkpt>
      <trkpt lat="43.76256" lon="6.44819">
        <ele>721.1262207</ele>
        <time>2010-04-17T11:57:34Z</time>
      </trkpt>
      <trkpt lat="43.76236" lon="6.44811">
        <ele>722.0874023</ele>
        <time>2010-04-17T11:57:41Z</time>
      </trkpt>
      <trkpt lat="43.76212" lon="6.44803">
        <ele>724.9714355</ele>
        <time>2010-04-17T11:57:49Z</time>
      </trkpt>
      <trkpt lat="43.76191" lon="6.44796">
        <ele>728.8166504</ele>
        <time>2010-04-17T11:57:56Z</time>
      </trkpt>
      <trkpt lat="43.76165" lon="6.44795">
        <ele>729.777832</ele>
        <time>2010-04-17T11:58:04Z</time>
      </trkpt>
      <trkpt lat="43.76143" lon="6.448">
        <ele>731.7004395</ele>
        <time>2010-04-17T11:58:11Z</time>
      </trkpt>
      <trkpt lat="43.76112" lon="6.44807">
        <ele>732.1813965</ele>
        <time>2010-04-17T11:58:21Z</time>
      </trkpt>
      <trkpt lat="43.76079" lon="6.44805">
        <ele>732.6621094</ele>
        <time>2010-04-17T11:58:31Z</time>
      </trkpt>
      <trkpt lat="43.76058" lon="6.44797">
        <ele>734.5847168</ele>
        <time>2010-04-17T11:58:38Z</time>
      </trkpt>
      <trkpt lat="43.76045" lon="6.44783">
        <ele>734.5847168</ele>
        <time>2010-04-17T11:58:44Z</time>
      </trkpt>
      <trkpt lat="43.76025" lon="6.44769">
        <ele>730.2585449</ele>
        <time>2010-04-17T11:58:51Z</time>
      </trkpt>
      <trkpt lat="43.76014" lon="6.44749">
        <ele>733.1425781</ele>
        <time>2010-04-17T11:58:57Z</time>
      </trkpt>
      <trkpt lat="43.75996" lon="6.4472">
        <ele>732.6621094</ele>
        <time>2010-04-17T11:59:06Z</time>
      </trkpt>
      <trkpt lat="43.75981" lon="6.44694">
        <ele>733.1425781</ele>
        <time>2010-04-17T11:59:14Z</time>
      </trkpt>
      <trkpt lat="43.75966" lon="6.44665">
        <ele>733.1425781</ele>
        <time>2010-04-17T11:59:23Z</time>
      </trkpt>
      <trkpt lat="43.75958" lon="6.44644">
        <ele>732.1813965</ele>
        <time>2010-04-17T11:59:30Z</time>
      </trkpt>
      <trkpt lat="43.75955" lon="6.44619">
        <ele>733.1425781</ele>
        <time>2010-04-17T11:59:38Z</time>
      </trkpt>
      <trkpt lat="43.75955" lon="6.44603">
        <ele>733.623291</ele>
        <time>2010-04-17T11:59:43Z</time>
      </trkpt>
      <trkpt lat="43.75957" lon="6.44572">
        <ele>733.623291</ele>
        <time>2010-04-17T11:59:53Z</time>
      </trkpt>
      <trkpt lat="43.75959" lon="6.44548">
        <ele>736.0266113</ele>
        <time>2010-04-17T12:00:01Z</time>
      </trkpt>
      <trkpt lat="43.75962" lon="6.44509">
        <ele>738.9106445</ele>
        <time>2010-04-17T12:00:13Z</time>
      </trkpt>
      <trkpt lat="43.75964" lon="6.44477">
        <ele>742.7558594</ele>
        <time>2010-04-17T12:00:23Z</time>
      </trkpt>
      <trkpt lat="43.75965" lon="6.4445">
        <ele>744.6782227</ele>
        <time>2010-04-17T12:00:31Z</time>
      </trkpt>
      <trkpt lat="43.7597" lon="6.4442">
        <ele>745.6396484</ele>
        <time>2010-04-17T12:00:40Z</time>
      </trkpt>
      <trkpt lat="43.75972" lon="6.444">
        <ele>750.4465332</ele>
        <time>2010-04-17T12:00:47Z</time>
      </trkpt>
      <trkpt lat="43.75969" lon="6.44391">
        <ele>750.927002</ele>
        <time>2010-04-17T12:00:50Z</time>
      </trkpt>
      <trkpt lat="43.75962" lon="6.4439">
        <ele>749.9658203</ele>
        <time>2010-04-17T12:00:54Z</time>
      </trkpt>
      <trkpt lat="43.75956" lon="6.44402">
        <ele>751.8884277</ele>
        <time>2010-04-17T12:00:58Z</time>
      </trkpt>
      <trkpt lat="43.7595" lon="6.44432">
        <ele>754.7722168</ele>
        <time>2010-04-17T12:01:06Z</time>
      </trkpt>
      <trkpt lat="43.75941" lon="6.44449">
        <ele>755.2529297</ele>
        <time>2010-04-17T12:01:12Z</time>
      </trkpt>
      <trkpt lat="43.75922" lon="6.44461">
        <ele>755.7336426</ele>
        <time>2010-04-17T12:01:20Z</time>
      </trkpt>
      <trkpt lat="43.75907" lon="6.44468">
        <ele>754.7722168</ele>
        <time>2010-04-17T12:01:26Z</time>
      </trkpt>
      <trkpt lat="43.75902" lon="6.44464">
        <ele>753.8110352</ele>
        <time>2010-04-17T12:01:30Z</time>
      </trkpt>
      <trkpt lat="43.75897" lon="6.44447">
        <ele>752.8496094</ele>
        <time>2010-04-17T12:01:39Z</time>
      </trkpt>
      <trkpt lat="43.75898" lon="6.4444">
        <ele>752.8496094</ele>
        <time>2010-04-17T12:01:43Z</time>
      </trkpt>
      <trkpt lat="43.75897" lon="6.44426">
        <ele>753.3303223</ele>
        <time>2010-04-17T12:01:52Z</time>
      </trkpt>
      <trkpt lat="43.75896" lon="6.44424">
        <ele>753.3303223</ele>
        <time>2010-04-17T12:01:53Z</time>
      </trkpt>
      <trkpt lat="43.75895" lon="6.44416">
        <ele>753.8110352</ele>
        <time>2010-04-17T12:01:58Z</time>
      </trkpt>
      <trkpt lat="43.7589" lon="6.44404">
        <ele>754.291748</ele>
        <time>2010-04-17T12:02:07Z</time>
      </trkpt>
      <trkpt lat="43.75887" lon="6.4439">
        <ele>756.6948242</ele>
        <time>2010-04-17T12:02:15Z</time>
      </trkpt>
      <trkpt lat="43.75885" lon="6.44385">
        <ele>756.6948242</ele>
        <time>2010-04-17T12:02:18Z</time>
      </trkpt>
      <trkpt lat="43.75889" lon="6.44368">
        <ele>760.0593262</ele>
        <time>2010-04-17T12:02:26Z</time>
      </trkpt>
      <trkpt lat="43.75892" lon="6.44354">
        <ele>765.3469238</ele>
        <time>2010-04-17T12:02:34Z</time>
      </trkpt>
      <trkpt lat="43.75894" lon="6.44335">
        <ele>768.2307129</ele>
        <time>2010-04-17T12:02:41Z</time>
      </trkpt>
      <trkpt lat="43.75897" lon="6.44314">
        <ele>773.0373535</ele>
        <time>2010-04-17T12:02:49Z</time>
      </trkpt>
      <trkpt lat="43.75901" lon="6.44285">
        <ele>776.4018555</ele>
        <time>2010-04-17T12:02:59Z</time>
      </trkpt>
      <trkpt lat="43.75904" lon="6.44261">
        <ele>777.3632812</ele>
        <time>2010-04-17T12:03:07Z</time>
      </trkpt>
      <trkpt lat="43.75915" lon="6.44232">
        <ele>777.3632812</ele>
        <time>2010-04-17T12:03:17Z</time>
      </trkpt>
      <trkpt lat="43.75928" lon="6.44219">
        <ele>774.9599609</ele>
        <time>2010-04-17T12:03:24Z</time>
      </trkpt>
      <trkpt lat="43.75944" lon="6.44212">
        <ele>772.5566406</ele>
        <time>2010-04-17T12:03:31Z</time>
      </trkpt>
      <trkpt lat="43.75961" lon="6.44202">
        <ele>771.5952148</ele>
        <time>2010-04-17T12:03:39Z</time>
      </trkpt>
      <trkpt lat="43.75979" lon="6.44184">
        <ele>772.5566406</ele>
        <time>2010-04-17T12:03:48Z</time>
      </trkpt>
      <trkpt lat="43.75995" lon="6.44172">
        <ele>773.5180664</ele>
        <time>2010-04-17T12:03:56Z</time>
      </trkpt>
      <trkpt lat="43.76012" lon="6.44173">
        <ele>774.9599609</ele>
        <time>2010-04-17T12:04:04Z</time>
      </trkpt>
      <trkpt lat="43.7603" lon="6.44173">
        <ele>775.4404297</ele>
        <time>2010-04-17T12:04:12Z</time>
      </trkpt>
      <trkpt lat="43.76041" lon="6.44173">
        <ele>775.4404297</ele>
        <time>2010-04-17T12:04:18Z</time>
      </trkpt>
      <trkpt lat="43.7604" lon="6.44173">
        <ele>773.9985352</ele>
        <time>2010-04-17T12:04:24Z</time>
      </trkpt>
      <trkpt lat="43.76037" lon="6.44175">
        <ele>777.3632812</ele>
        <time>2010-04-17T12:04:40Z</time>
      </trkpt>
      <trkpt lat="43.76038" lon="6.44179">
        <ele>773.0373535</ele>
        <time>2010-04-17T12:05:10Z</time>
      </trkpt>
      <trkpt lat="43.76037" lon="6.44178">
        <ele>773.5180664</ele>
        <time>2010-04-17T12:05:25Z</time>
      </trkpt>
      <trkpt lat="43.76041" lon="6.44172">
        <ele>768.2307129</ele>
        <time>2010-04-17T12:05:59Z</time>
      </trkpt>
      <trkpt lat="43.7604" lon="6.44172">
        <ele>771.5952148</ele>
        <time>2010-04-17T12:07:09Z</time>
      </trkpt>
      <trkpt lat="43.7604" lon="6.44172">
        <ele>769.6728516</ele>
        <time>2010-04-17T12:07:36Z</time>
      </trkpt>
      <trkpt lat="43.7604" lon="6.44173">
        <ele>767.75</ele>
        <time>2010-04-17T12:07:58Z</time>
      </trkpt>
      <trkpt lat="43.7604" lon="6.44174">
        <ele>767.2695312</ele>
        <time>2010-04-17T12:08:10Z</time>
      </trkpt>
      <trkpt lat="43.7604" lon="6.44173">
        <ele>767.75</ele>
        <time>2010-04-17T12:08:26Z</time>
      </trkpt>
      <trkpt lat="43.76041" lon="6.44175">
        <ele>764.385498</ele>
        <time>2010-04-17T12:08:48Z</time>
      </trkpt>
      <trkpt lat="43.76042" lon="6.44173">
        <ele>765.8276367</ele>
        <time>2010-04-17T12:09:09Z</time>
      </trkpt>
      <trkpt lat="43.76041" lon="6.44175">
        <ele>766.3081055</ele>
        <time>2010-04-17T12:09:52Z</time>
      </trkpt>
      <trkpt lat="43.76042" lon="6.44178">
        <ele>760.0593262</ele>
        <time>2010-04-17T12:10:08Z</time>
      </trkpt>
      <trkpt lat="43.76041" lon="6.44176">
        <ele>764.8662109</ele>
        <time>2010-04-17T12:10:34Z</time>
      </trkpt>
      <trkpt lat="43.76043" lon="6.44177">
        <ele>760.0593262</ele>
        <time>2010-04-17T12:10:51Z</time>
      </trkpt>
      <trkpt lat="43.76042" lon="6.44176">
        <ele>761.5014648</ele>
        <time>2010-04-17T12:11:03Z</time>
      </trkpt>
      <trkpt lat="43.76041" lon="6.44168">
        <ele>765.8276367</ele>
        <time>2010-04-17T12:11:09Z</time>
      </trkpt>
      <trkpt lat="43.76038" lon="6.44159">
        <ele>767.2695312</ele>
        <time>2010-04-17T12:11:13Z</time>
      </trkpt>
      <trkpt lat="43.76031" lon="6.44139">
        <ele>771.1147461</ele>
        <time>2010-04-17T12:11:20Z</time>
      </trkpt>
      <trkpt lat="43.76022" lon="6.4411">
        <ele>776.8825684</ele>
        <time>2010-04-17T12:11:29Z</time>
      </trkpt>
      <trkpt lat="43.76013" lon="6.44093">
        <ele>783.6118164</ele>
        <time>2010-04-17T12:11:35Z</time>
      </trkpt>
      <trkpt lat="43.75999" lon="6.44088">
        <ele>788.418457</ele>
        <time>2010-04-17T12:11:41Z</time>
      </trkpt>
      <trkpt lat="43.75981" lon="6.44083">
        <ele>791.3022461</ele>
        <time>2010-04-17T12:11:48Z</time>
      </trkpt>
      <trkpt lat="43.75968" lon="6.44074">
        <ele>793.7055664</ele>
        <time>2010-04-17T12:11:54Z</time>
      </trkpt>
      <trkpt lat="43.75955" lon="6.44066">
        <ele>793.7055664</ele>
        <time>2010-04-17T12:12:00Z</time>
      </trkpt>
      <trkpt lat="43.75938" lon="6.44068">
        <ele>793.7055664</ele>
        <time>2010-04-17T12:12:06Z</time>
      </trkpt>
      <trkpt lat="43.75917" lon="6.44082">
        <ele>792.2636719</ele>
        <time>2010-04-17T12:12:15Z</time>
      </trkpt>
      <trkpt lat="43.75898" lon="6.44087">
        <ele>792.7443848</ele>
        <time>2010-04-17T12:12:23Z</time>
      </trkpt>
      <trkpt lat="43.75878" lon="6.4409">
        <ele>795.1474609</ele>
        <time>2010-04-17T12:12:32Z</time>
      </trkpt>
      <trkpt lat="43.75861" lon="6.44095">
        <ele>796.5898438</ele>
        <time>2010-04-17T12:12:40Z</time>
      </trkpt>
      <trkpt lat="43.75847" lon="6.441">
        <ele>797.5510254</ele>
        <time>2010-04-17T12:12:48Z</time>
      </trkpt>
      <trkpt lat="43.7583" lon="6.44104">
        <ele>798.9929199</ele>
        <time>2010-04-17T12:12:57Z</time>
      </trkpt>
      <trkpt lat="43.75817" lon="6.44107">
        <ele>799.9543457</ele>
        <time>2010-04-17T12:13:05Z</time>
      </trkpt>
      <trkpt lat="43.75799" lon="6.44111">
        <ele>801.3962402</ele>
        <time>2010-04-17T12:13:15Z</time>
      </trkpt>
      <trkpt lat="43.75782" lon="6.44114">
        <ele>803.3188477</ele>
        <time>2010-04-17T12:13:24Z</time>
      </trkpt>
      <trkpt lat="43.75769" lon="6.44116">
        <ele>803.7995605</ele>
        <time>2010-04-17T12:13:31Z</time>
      </trkpt>
      <trkpt lat="43.75753" lon="6.44114">
        <ele>805.2414551</ele>
        <time>2010-04-17T12:13:39Z</time>
      </trkpt>
      <trkpt lat="43.75741" lon="6.44107">
        <ele>808.1254883</ele>
        <time>2010-04-17T12:13:46Z</time>
      </trkpt>
      <trkpt lat="43.75735" lon="6.44097">
        <ele>813.4128418</ele>
        <time>2010-04-17T12:13:52Z</time>
      </trkpt>
      <trkpt lat="43.75728" lon="6.44081">
        <ele>816.7773438</ele>
        <time>2010-04-17T12:14:00Z</time>
      </trkpt>
      <trkpt lat="43.75725" lon="6.44063">
        <ele>814.3740234</ele>
        <time>2010-04-17T12:14:07Z</time>
      </trkpt>
      <trkpt lat="43.75722" lon="6.44041">
        <ele>813.4128418</ele>
        <time>2010-04-17T12:14:15Z</time>
      </trkpt>
      <trkpt lat="43.75718" lon="6.44021">
        <ele>813.4128418</ele>
        <time>2010-04-17T12:14:22Z</time>
      </trkpt>
      <trkpt lat="43.75712" lon="6.43999">
        <ele>812.451416</ele>
        <time>2010-04-17T12:14:29Z</time>
      </trkpt>
      <trkpt lat="43.75703" lon="6.4397">
        <ele>811.4899902</ele>
        <time>2010-04-17T12:14:35Z</time>
      </trkpt>
      <trkpt lat="43.75688" lon="6.43925">
        <ele>809.0866699</ele>
        <time>2010-04-17T12:14:42Z</time>
      </trkpt>
      <trkpt lat="43.75672" lon="6.43884">
        <ele>807.1640625</ele>
        <time>2010-04-17T12:14:48Z</time>
      </trkpt>
      <trkpt lat="43.75652" lon="6.43847">
        <ele>802.8381348</ele>
        <time>2010-04-17T12:14:54Z</time>
      </trkpt>
      <trkpt lat="43.7564" lon="6.43828">
        <ele>799.4736328</ele>
        <time>2010-04-17T12:14:57Z</time>
      </trkpt>
      <trkpt lat="43.75623" lon="6.43776">
        <ele>794.666748</ele>
        <time>2010-04-17T12:15:03Z</time>
      </trkpt>
      <trkpt lat="43.75619" lon="6.43734">
        <ele>791.782959</ele>
        <time>2010-04-17T12:15:08Z</time>
      </trkpt>
      <trkpt lat="43.75606" lon="6.43709">
        <ele>789.3796387</ele>
        <time>2010-04-17T12:15:12Z</time>
      </trkpt>
      <trkpt lat="43.75602" lon="6.437">
        <ele>788.418457</ele>
        <time>2010-04-17T12:15:15Z</time>
      </trkpt>
      <trkpt lat="43.75606" lon="6.43699">
        <ele>788.418457</ele>
        <time>2010-04-17T12:15:20Z</time>
      </trkpt>
      <trkpt lat="43.75605" lon="6.43698">
        <ele>787.4570312</ele>
        <time>2010-04-17T12:15:24Z</time>
      </trkpt>
      <trkpt lat="43.75599" lon="6.43698">
        <ele>788.418457</ele>
        <time>2010-04-17T12:15:29Z</time>
      </trkpt>
      <trkpt lat="43.75599" lon="6.43699">
        <ele>790.3410645</ele>
        <time>2010-04-17T12:15:39Z</time>
      </trkpt>
      <trkpt lat="43.756" lon="6.43697">
        <ele>791.782959</ele>
        <time>2010-04-17T12:15:52Z</time>
      </trkpt>
      <trkpt lat="43.75599" lon="6.43683">
        <ele>790.3410645</ele>
        <time>2010-04-17T12:15:56Z</time>
      </trkpt>
      <trkpt lat="43.75599" lon="6.43645">
        <ele>786.9763184</ele>
        <time>2010-04-17T12:16:01Z</time>
      </trkpt>
      <trkpt lat="43.75603" lon="6.43598">
        <ele>782.1699219</ele>
        <time>2010-04-17T12:16:06Z</time>
      </trkpt>
      <trkpt lat="43.756" lon="6.43557">
        <ele>781.689209</ele>
        <time>2010-04-17T12:16:11Z</time>
      </trkpt>
      <trkpt lat="43.75595" lon="6.43545">
        <ele>781.2087402</ele>
        <time>2010-04-17T12:16:14Z</time>
      </trkpt>
      <trkpt lat="43.75587" lon="6.43531">
        <ele>780.7280273</ele>
        <time>2010-04-17T12:16:19Z</time>
      </trkpt>
      <trkpt lat="43.75576" lon="6.43523">
        <ele>781.689209</ele>
        <time>2010-04-17T12:16:24Z</time>
      </trkpt>
      <trkpt lat="43.75571" lon="6.43508">
        <ele>782.6506348</ele>
        <time>2010-04-17T12:16:29Z</time>
      </trkpt>
      <trkpt lat="43.7557" lon="6.43501">
        <ele>782.6506348</ele>
        <time>2010-04-17T12:16:31Z</time>
      </trkpt>
      <trkpt lat="43.75565" lon="6.43484">
        <ele>783.1311035</ele>
        <time>2010-04-17T12:16:37Z</time>
      </trkpt>
      <trkpt lat="43.75559" lon="6.43464">
        <ele>785.0539551</ele>
        <time>2010-04-17T12:16:44Z</time>
      </trkpt>
      <trkpt lat="43.75559" lon="6.43438">
        <ele>786.9763184</ele>
        <time>2010-04-17T12:16:51Z</time>
      </trkpt>
      <trkpt lat="43.75558" lon="6.43421">
        <ele>789.3796387</ele>
        <time>2010-04-17T12:16:56Z</time>
      </trkpt>
      <trkpt lat="43.75555" lon="6.43408">
        <ele>790.8215332</ele>
        <time>2010-04-17T12:17:01Z</time>
      </trkpt>
      <trkpt lat="43.75552" lon="6.43389">
        <ele>786.4958496</ele>
        <time>2010-04-17T12:17:08Z</time>
      </trkpt>
      <trkpt lat="43.75549" lon="6.43368">
        <ele>784.5732422</ele>
        <time>2010-04-17T12:17:15Z</time>
      </trkpt>
      <trkpt lat="43.75549" lon="6.43348">
        <ele>786.0151367</ele>
        <time>2010-04-17T12:17:22Z</time>
      </trkpt>
      <trkpt lat="43.75547" lon="6.43332">
        <ele>787.4570312</ele>
        <time>2010-04-17T12:17:27Z</time>
      </trkpt>
      <trkpt lat="43.75543" lon="6.43315">
        <ele>786.4958496</ele>
        <time>2010-04-17T12:17:34Z</time>
      </trkpt>
      <trkpt lat="43.75542" lon="6.43301">
        <ele>788.8991699</ele>
        <time>2010-04-17T12:17:40Z</time>
      </trkpt>
      <trkpt lat="43.75543" lon="6.43285">
        <ele>788.8991699</ele>
        <time>2010-04-17T12:17:47Z</time>
      </trkpt>
      <trkpt lat="43.75545" lon="6.43264">
        <ele>789.3796387</ele>
        <time>2010-04-17T12:17:54Z</time>
      </trkpt>
      <trkpt lat="43.75544" lon="6.4326">
        <ele>787.9377441</ele>
        <time>2010-04-17T12:17:56Z</time>
      </trkpt>
      <trkpt lat="43.75539" lon="6.43243">
        <ele>786.4958496</ele>
        <time>2010-04-17T12:18:04Z</time>
      </trkpt>
      <trkpt lat="43.75539" lon="6.43237">
        <ele>788.418457</ele>
        <time>2010-04-17T12:18:07Z</time>
      </trkpt>
      <trkpt lat="43.75536" lon="6.43217">
        <ele>792.2636719</ele>
        <time>2010-04-17T12:18:18Z</time>
      </trkpt>
      <trkpt lat="43.75534" lon="6.43208">
        <ele>795.1474609</ele>
        <time>2010-04-17T12:18:24Z</time>
      </trkpt>
      <trkpt lat="43.75535" lon="6.43188">
        <ele>798.9929199</ele>
        <time>2010-04-17T12:18:34Z</time>
      </trkpt>
      <trkpt lat="43.75535" lon="6.43174">
        <ele>800.4350586</ele>
        <time>2010-04-17T12:18:41Z</time>
      </trkpt>
      <trkpt lat="43.75534" lon="6.43168">
        <ele>799.9543457</ele>
        <time>2010-04-17T12:18:47Z</time>
      </trkpt>
      <trkpt lat="43.75534" lon="6.43168">
        <ele>800.9155273</ele>
        <time>2010-04-17T12:18:55Z</time>
      </trkpt>
      <trkpt lat="43.75535" lon="6.43162">
        <ele>802.8381348</ele>
        <time>2010-04-17T12:19:05Z</time>
      </trkpt>
      <trkpt lat="43.75535" lon="6.4316">
        <ele>803.3188477</ele>
        <time>2010-04-17T12:19:06Z</time>
      </trkpt>
      <trkpt lat="43.7554" lon="6.4315">
        <ele>805.2414551</ele>
        <time>2010-04-17T12:19:12Z</time>
      </trkpt>
      <trkpt lat="43.75543" lon="6.43136">
        <ele>806.2026367</ele>
        <time>2010-04-17T12:19:20Z</time>
      </trkpt>
      <trkpt lat="43.75541" lon="6.43123">
        <ele>805.2414551</ele>
        <time>2010-04-17T12:19:27Z</time>
      </trkpt>
      <trkpt lat="43.75537" lon="6.43111">
        <ele>805.722168</ele>
        <time>2010-04-17T12:19:35Z</time>
      </trkpt>
      <trkpt lat="43.7553" lon="6.431">
        <ele>807.1640625</ele>
        <time>2010-04-17T12:19:44Z</time>
      </trkpt>
      <trkpt lat="43.75523" lon="6.43092">
        <ele>811.9707031</ele>
        <time>2010-04-17T12:19:52Z</time>
      </trkpt>
      <trkpt lat="43.75516" lon="6.43084">
        <ele>816.7773438</ele>
        <time>2010-04-17T12:20:00Z</time>
      </trkpt>
      <trkpt lat="43.7551" lon="6.43076">
        <ele>823.0258789</ele>
        <time>2010-04-17T12:20:08Z</time>
      </trkpt>
      <trkpt lat="43.75505" lon="6.43069">
        <ele>823.0258789</ele>
        <time>2010-04-17T12:20:15Z</time>
      </trkpt>
      <trkpt lat="43.75498" lon="6.43062">
        <ele>820.1418457</ele>
        <time>2010-04-17T12:20:22Z</time>
      </trkpt>
      <trkpt lat="43.75496" lon="6.43059">
        <ele>820.1418457</ele>
        <time>2010-04-17T12:20:25Z</time>
      </trkpt>
      <trkpt lat="43.75494" lon="6.43049">
        <ele>823.9870605</ele>
        <time>2010-04-17T12:20:33Z</time>
      </trkpt>
      <trkpt lat="43.75491" lon="6.43041">
        <ele>824.9484863</ele>
        <time>2010-04-17T12:20:41Z</time>
      </trkpt>
      <trkpt lat="43.75489" lon="6.43033">
        <ele>827.3518066</ele>
        <time>2010-04-17T12:20:46Z</time>
      </trkpt>
      <trkpt lat="43.75484" lon="6.43025">
        <ele>830.2358398</ele>
        <time>2010-04-17T12:20:54Z</time>
      </trkpt>
      <trkpt lat="43.7548" lon="6.4302">
        <ele>829.755127</ele>
        <time>2010-04-17T12:20:59Z</time>
      </trkpt>
      <trkpt lat="43.75471" lon="6.43009">
        <ele>830.7165527</ele>
        <time>2010-04-17T12:21:09Z</time>
      </trkpt>
      <trkpt lat="43.75462" lon="6.43004">
        <ele>832.1584473</ele>
        <time>2010-04-17T12:21:18Z</time>
      </trkpt>
      <trkpt lat="43.75454" lon="6.42995">
        <ele>833.6003418</ele>
        <time>2010-04-17T12:21:26Z</time>
      </trkpt>
      <trkpt lat="43.75448" lon="6.42986">
        <ele>834.5617676</ele>
        <time>2010-04-17T12:21:34Z</time>
      </trkpt>
      <trkpt lat="43.75442" lon="6.42978">
        <ele>836.0036621</ele>
        <time>2010-04-17T12:21:41Z</time>
      </trkpt>
      <trkpt lat="43.75436" lon="6.42967">
        <ele>834.0810547</ele>
        <time>2010-04-17T12:21:49Z</time>
      </trkpt>
      <trkpt lat="43.7543" lon="6.42958">
        <ele>836.0036621</ele>
        <time>2010-04-17T12:21:57Z</time>
      </trkpt>
      <trkpt lat="43.75422" lon="6.42951">
        <ele>838.8876953</ele>
        <time>2010-04-17T12:22:05Z</time>
      </trkpt>
      <trkpt lat="43.75413" lon="6.42949">
        <ele>844.1750488</ele>
        <time>2010-04-17T12:22:14Z</time>
      </trkpt>
      <trkpt lat="43.75403" lon="6.42943">
        <ele>844.6555176</ele>
        <time>2010-04-17T12:22:21Z</time>
      </trkpt>
      <trkpt lat="43.75395" lon="6.42932">
        <ele>844.6555176</ele>
        <time>2010-04-17T12:22:28Z</time>
      </trkpt>
      <trkpt lat="43.75386" lon="6.42925">
        <ele>847.5395508</ele>
        <time>2010-04-17T12:22:36Z</time>
      </trkpt>
      <trkpt lat="43.75377" lon="6.42917">
        <ele>848.5007324</ele>
        <time>2010-04-17T12:22:44Z</time>
      </trkpt>
      <trkpt lat="43.7537" lon="6.42909">
        <ele>848.0202637</ele>
        <time>2010-04-17T12:22:52Z</time>
      </trkpt>
      <trkpt lat="43.75365" lon="6.429">
        <ele>850.423584</ele>
        <time>2010-04-17T12:23:00Z</time>
      </trkpt>
      <trkpt lat="43.75362" lon="6.42891">
        <ele>854.7492676</ele>
        <time>2010-04-17T12:23:08Z</time>
      </trkpt>
      <trkpt lat="43.75357" lon="6.42882">
        <ele>854.2687988</ele>
        <time>2010-04-17T12:23:16Z</time>
      </trkpt>
      <trkpt lat="43.75354" lon="6.42872">
        <ele>853.307373</ele>
        <time>2010-04-17T12:23:24Z</time>
      </trkpt>
      <trkpt lat="43.75353" lon="6.42861">
        <ele>854.7492676</ele>
        <time>2010-04-17T12:23:34Z</time>
      </trkpt>
      <trkpt lat="43.75349" lon="6.42851">
        <ele>855.2299805</ele>
        <time>2010-04-17T12:23:42Z</time>
      </trkpt>
      <trkpt lat="43.75345" lon="6.42841">
        <ele>859.0751953</ele>
        <time>2010-04-17T12:23:51Z</time>
      </trkpt>
      <trkpt lat="43.75337" lon="6.42834">
        <ele>857.1525879</ele>
        <time>2010-04-17T12:23:59Z</time>
      </trkpt>
      <trkpt lat="43.75332" lon="6.42827">
        <ele>856.1911621</ele>
        <time>2010-04-17T12:24:06Z</time>
      </trkpt>
      <trkpt lat="43.75327" lon="6.42817">
        <ele>859.5559082</ele>
        <time>2010-04-17T12:24:13Z</time>
      </trkpt>
      <trkpt lat="43.75323" lon="6.42807">
        <ele>862.4399414</ele>
        <time>2010-04-17T12:24:20Z</time>
      </trkpt>
      <trkpt lat="43.75321" lon="6.42799">
        <ele>864.3625488</ele>
        <time>2010-04-17T12:24:27Z</time>
      </trkpt>
      <trkpt lat="43.75319" lon="6.4279">
        <ele>868.2077637</ele>
        <time>2010-04-17T12:24:35Z</time>
      </trkpt>
      <trkpt lat="43.75315" lon="6.42784">
        <ele>870.611084</ele>
        <time>2010-04-17T12:24:42Z</time>
      </trkpt>
      <trkpt lat="43.75313" lon="6.42783">
        <ele>870.1303711</ele>
        <time>2010-04-17T12:24:44Z</time>
      </trkpt>
      <trkpt lat="43.75307" lon="6.42774">
        <ele>873.4951172</ele>
        <time>2010-04-17T12:24:52Z</time>
      </trkpt>
      <trkpt lat="43.75301" lon="6.42764">
        <ele>873.9755859</ele>
        <time>2010-04-17T12:25:00Z</time>
      </trkpt>
      <trkpt lat="43.75295" lon="6.42756">
        <ele>872.5336914</ele>
        <time>2010-04-17T12:25:09Z</time>
      </trkpt>
      <trkpt lat="43.7529" lon="6.42742">
        <ele>872.5336914</ele>
        <time>2010-04-17T12:25:18Z</time>
      </trkpt>
      <trkpt lat="43.75285" lon="6.42731">
        <ele>872.5336914</ele>
        <time>2010-04-17T12:25:26Z</time>
      </trkpt>
      <trkpt lat="43.7528" lon="6.42721">
        <ele>875.4174805</ele>
        <time>2010-04-17T12:25:34Z</time>
      </trkpt>
      <trkpt lat="43.75278" lon="6.42719">
        <ele>876.3791504</ele>
        <time>2010-04-17T12:25:42Z</time>
      </trkpt>
      <trkpt lat="43.75279" lon="6.42719">
        <ele>878.3017578</ele>
        <time>2010-04-17T12:25:53Z</time>
      </trkpt>
      <trkpt lat="43.75279" lon="6.42717">
        <ele>878.7824707</ele>
        <time>2010-04-17T12:25:54Z</time>
      </trkpt>
      <trkpt lat="43.75279" lon="6.42705">
        <ele>878.3017578</ele>
        <time>2010-04-17T12:26:03Z</time>
      </trkpt>
      <trkpt lat="43.75278" lon="6.42701">
        <ele>878.7824707</ele>
        <time>2010-04-17T12:26:07Z</time>
      </trkpt>
      <trkpt lat="43.75279" lon="6.4269">
        <ele>882.1469727</ele>
        <time>2010-04-17T12:26:15Z</time>
      </trkpt>
      <trkpt lat="43.75276" lon="6.42682">
        <ele>881.185791</ele>
        <time>2010-04-17T12:26:23Z</time>
      </trkpt>
      <trkpt lat="43.75276" lon="6.42674">
        <ele>879.7436523</ele>
        <time>2010-04-17T12:26:30Z</time>
      </trkpt>
      <trkpt lat="43.75275" lon="6.42667">
        <ele>879.7436523</ele>
        <time>2010-04-17T12:26:36Z</time>
      </trkpt>
      <trkpt lat="43.75276" lon="6.42661">
        <ele>882.6276855</ele>
        <time>2010-04-17T12:26:42Z</time>
      </trkpt>
      <trkpt lat="43.75276" lon="6.42652">
        <ele>884.0695801</ele>
        <time>2010-04-17T12:26:49Z</time>
      </trkpt>
      <trkpt lat="43.75273" lon="6.42648">
        <ele>884.0695801</ele>
        <time>2010-04-17T12:26:54Z</time>
      </trkpt>
      <trkpt lat="43.75273" lon="6.42639">
        <ele>891.2792969</ele>
        <time>2010-04-17T12:27:06Z</time>
      </trkpt>
      <trkpt lat="43.75273" lon="6.4262">
        <ele>894.644043</ele>
        <time>2010-04-17T12:27:16Z</time>
      </trkpt>
      <trkpt lat="43.75275" lon="6.42606">
        <ele>895.1247559</ele>
        <time>2010-04-17T12:27:25Z</time>
      </trkpt>
      <trkpt lat="43.75275" lon="6.42595">
        <ele>895.6054688</ele>
        <time>2010-04-17T12:27:32Z</time>
      </trkpt>
      <trkpt lat="43.75281" lon="6.42586">
        <ele>895.6054688</ele>
        <time>2010-04-17T12:27:39Z</time>
      </trkpt>
      <trkpt lat="43.75284" lon="6.42579">
        <ele>894.644043</ele>
        <time>2010-04-17T12:27:45Z</time>
      </trkpt>
      <trkpt lat="43.75289" lon="6.42571">
        <ele>895.6054688</ele>
        <time>2010-04-17T12:27:50Z</time>
      </trkpt>
      <trkpt lat="43.75295" lon="6.4256">
        <ele>898.9699707</ele>
        <time>2010-04-17T12:27:59Z</time>
      </trkpt>
      <trkpt lat="43.753" lon="6.42546">
        <ele>899.9313965</ele>
        <time>2010-04-17T12:28:09Z</time>
      </trkpt>
      <trkpt lat="43.75308" lon="6.42532">
        <ele>903.7766113</ele>
        <time>2010-04-17T12:28:17Z</time>
      </trkpt>
      <trkpt lat="43.75311" lon="6.42522">
        <ele>906.1796875</ele>
        <time>2010-04-17T12:28:23Z</time>
      </trkpt>
      <trkpt lat="43.75316" lon="6.42507">
        <ele>908.1027832</ele>
        <time>2010-04-17T12:28:30Z</time>
      </trkpt>
      <trkpt lat="43.75323" lon="6.42496">
        <ele>912.9091797</ele>
        <time>2010-04-17T12:28:37Z</time>
      </trkpt>
      <trkpt lat="43.75324" lon="6.42482">
        <ele>908.1027832</ele>
        <time>2010-04-17T12:28:46Z</time>
      </trkpt>
      <trkpt lat="43.75325" lon="6.42471">
        <ele>905.6992188</ele>
        <time>2010-04-17T12:28:54Z</time>
      </trkpt>
      <trkpt lat="43.75323" lon="6.42464">
        <ele>904.737793</ele>
        <time>2010-04-17T12:29:00Z</time>
      </trkpt>
      <trkpt lat="43.75322" lon="6.42462">
        <ele>910.0251465</ele>
        <time>2010-04-17T12:29:05Z</time>
      </trkpt>
      <trkpt lat="43.75313" lon="6.42459">
        <ele>911.947998</ele>
        <time>2010-04-17T12:29:13Z</time>
      </trkpt>
      <trkpt lat="43.75305" lon="6.42455">
        <ele>913.8703613</ele>
        <time>2010-04-17T12:29:21Z</time>
      </trkpt>
      <trkpt lat="43.75302" lon="6.42451">
        <ele>913.8703613</ele>
        <time>2010-04-17T12:29:25Z</time>
      </trkpt>
      <trkpt lat="43.75293" lon="6.42446">
        <ele>916.2736816</ele>
        <time>2010-04-17T12:29:34Z</time>
      </trkpt>
      <trkpt lat="43.75287" lon="6.42444">
        <ele>919.1577148</ele>
        <time>2010-04-17T12:29:41Z</time>
      </trkpt>
      <trkpt lat="43.75279" lon="6.42439">
        <ele>920.5996094</ele>
        <time>2010-04-17T12:29:49Z</time>
      </trkpt>
      <trkpt lat="43.75274" lon="6.42435">
        <ele>923.0029297</ele>
        <time>2010-04-17T12:29:56Z</time>
      </trkpt>
      <trkpt lat="43.75271" lon="6.42434">
        <ele>924.4450684</ele>
        <time>2010-04-17T12:29:59Z</time>
      </trkpt>
      <trkpt lat="43.7526" lon="6.42432">
        <ele>923.9641113</ele>
        <time>2010-04-17T12:30:08Z</time>
      </trkpt>
      <trkpt lat="43.75253" lon="6.42428">
        <ele>927.3291016</ele>
        <time>2010-04-17T12:30:17Z</time>
      </trkpt>
      <trkpt lat="43.75243" lon="6.42419">
        <ele>926.3676758</ele>
        <time>2010-04-17T12:30:25Z</time>
      </trkpt>
      <trkpt lat="43.75235" lon="6.42415">
        <ele>926.3676758</ele>
        <time>2010-04-17T12:30:32Z</time>
      </trkpt>
      <trkpt lat="43.75224" lon="6.42412">
        <ele>926.8483887</ele>
        <time>2010-04-17T12:30:41Z</time>
      </trkpt>
      <trkpt lat="43.75221" lon="6.4241">
        <ele>927.3291016</ele>
        <time>2010-04-17T12:30:45Z</time>
      </trkpt>
      <trkpt lat="43.75212" lon="6.42398">
        <ele>927.3291016</ele>
        <time>2010-04-17T12:30:55Z</time>
      </trkpt>
      <trkpt lat="43.7521" lon="6.42396">
        <ele>927.3291016</ele>
        <time>2010-04-17T12:30:57Z</time>
      </trkpt>
      <trkpt lat="43.75203" lon="6.42395">
        <ele>928.7709961</ele>
        <time>2010-04-17T12:31:04Z</time>
      </trkpt>
      <trkpt lat="43.75187" lon="6.42395">
        <ele>929.7321777</ele>
        <time>2010-04-17T12:31:13Z</time>
      </trkpt>
      <trkpt lat="43.75176" lon="6.42394">
        <ele>929.2514648</ele>
        <time>2010-04-17T12:31:20Z</time>
      </trkpt>
      <trkpt lat="43.75164" lon="6.42391">
        <ele>927.8095703</ele>
        <time>2010-04-17T12:31:27Z</time>
      </trkpt>
      <trkpt lat="43.75155" lon="6.42389">
        <ele>928.2902832</ele>
        <time>2010-04-17T12:31:34Z</time>
      </trkpt>
      <trkpt lat="43.7515" lon="6.42389">
        <ele>928.7709961</ele>
        <time>2010-04-17T12:31:41Z</time>
      </trkpt>
      <trkpt lat="43.75146" lon="6.42388">
        <ele>930.6936035</ele>
        <time>2010-04-17T12:31:45Z</time>
      </trkpt>
      <trkpt lat="43.75145" lon="6.42385">
        <ele>929.7321777</ele>
        <time>2010-04-17T12:31:47Z</time>
      </trkpt>
      <trkpt lat="43.75144" lon="6.42379">
        <ele>929.2514648</ele>
        <time>2010-04-17T12:31:51Z</time>
      </trkpt>
      <trkpt lat="43.75147" lon="6.42365">
        <ele>923.0029297</ele>
        <time>2010-04-17T12:32:02Z</time>
      </trkpt>
      <trkpt lat="43.7515" lon="6.42356">
        <ele>923.0029297</ele>
        <time>2010-04-17T12:32:10Z</time>
      </trkpt>
      <trkpt lat="43.75155" lon="6.42343">
        <ele>924.9257812</ele>
        <time>2010-04-17T12:32:18Z</time>
      </trkpt>
      <trkpt lat="43.75158" lon="6.42336">
        <ele>928.2902832</ele>
        <time>2010-04-17T12:32:25Z</time>
      </trkpt>
      <trkpt lat="43.75163" lon="6.42328">
        <ele>930.2128906</ele>
        <time>2010-04-17T12:32:32Z</time>
      </trkpt>
      <trkpt lat="43.75165" lon="6.42317">
        <ele>933.0966797</ele>
        <time>2010-04-17T12:32:40Z</time>
      </trkpt>
      <trkpt lat="43.75166" lon="6.42313">
        <ele>934.5388184</ele>
        <time>2010-04-17T12:32:45Z</time>
      </trkpt>
      <trkpt lat="43.75167" lon="6.42308">
        <ele>933.5773926</ele>
        <time>2010-04-17T12:32:53Z</time>
      </trkpt>
      <trkpt lat="43.75167" lon="6.42301">
        <ele>931.6547852</ele>
        <time>2010-04-17T12:33:00Z</time>
      </trkpt>
      <trkpt lat="43.75168" lon="6.42289">
        <ele>934.0581055</ele>
        <time>2010-04-17T12:33:08Z</time>
      </trkpt>
      <trkpt lat="43.75167" lon="6.42278">
        <ele>932.6162109</ele>
        <time>2010-04-17T12:33:17Z</time>
      </trkpt>
      <trkpt lat="43.75165" lon="6.42272">
        <ele>935.0195312</ele>
        <time>2010-04-17T12:33:23Z</time>
      </trkpt>
      <trkpt lat="43.75163" lon="6.42262">
        <ele>932.6162109</ele>
        <time>2010-04-17T12:33:32Z</time>
      </trkpt>
      <trkpt lat="43.7516" lon="6.42257">
        <ele>933.0966797</ele>
        <time>2010-04-17T12:33:40Z</time>
      </trkpt>
      <trkpt lat="43.75163" lon="6.4225">
        <ele>942.2294922</ele>
        <time>2010-04-17T12:33:47Z</time>
      </trkpt>
      <trkpt lat="43.75161" lon="6.4224">
        <ele>943.1906738</ele>
        <time>2010-04-17T12:33:54Z</time>
      </trkpt>
      <trkpt lat="43.75162" lon="6.42233">
        <ele>944.1520996</ele>
        <time>2010-04-17T12:34:01Z</time>
      </trkpt>
      <trkpt lat="43.75165" lon="6.42223">
        <ele>948.4777832</ele>
        <time>2010-04-17T12:34:07Z</time>
      </trkpt>
      <trkpt lat="43.75163" lon="6.42214">
        <ele>951.8425293</ele>
        <time>2010-04-17T12:34:16Z</time>
      </trkpt>
      <trkpt lat="43.75162" lon="6.42208">
        <ele>954.2458496</ele>
        <time>2010-04-17T12:34:24Z</time>
      </trkpt>
      <trkpt lat="43.75163" lon="6.42203">
        <ele>955.2070312</ele>
        <time>2010-04-17T12:34:30Z</time>
      </trkpt>
      <trkpt lat="43.75164" lon="6.42199">
        <ele>955.2070312</ele>
        <time>2010-04-17T12:34:32Z</time>
      </trkpt>
      <trkpt lat="43.75166" lon="6.42188">
        <ele>955.2070312</ele>
        <time>2010-04-17T12:34:39Z</time>
      </trkpt>
      <trkpt lat="43.75167" lon="6.42183">
        <ele>949.9199219</ele>
        <time>2010-04-17T12:34:44Z</time>
      </trkpt>
      <trkpt lat="43.75164" lon="6.42177">
        <ele>944.6325684</ele>
        <time>2010-04-17T12:34:50Z</time>
      </trkpt>
      <trkpt lat="43.75165" lon="6.42171">
        <ele>950.4006348</ele>
        <time>2010-04-17T12:34:57Z</time>
      </trkpt>
      <trkpt lat="43.75168" lon="6.42161">
        <ele>948.4777832</ele>
        <time>2010-04-17T12:35:04Z</time>
      </trkpt>
      <trkpt lat="43.75171" lon="6.42153">
        <ele>956.168457</ele>
        <time>2010-04-17T12:35:12Z</time>
      </trkpt>
      <trkpt lat="43.75172" lon="6.42145">
        <ele>956.6491699</ele>
        <time>2010-04-17T12:35:20Z</time>
      </trkpt>
      <trkpt lat="43.75169" lon="6.42137">
        <ele>955.2070312</ele>
        <time>2010-04-17T12:35:27Z</time>
      </trkpt>
      <trkpt lat="43.75166" lon="6.42131">
        <ele>954.7263184</ele>
        <time>2010-04-17T12:35:34Z</time>
      </trkpt>
      <trkpt lat="43.75165" lon="6.42124">
        <ele>953.2844238</ele>
        <time>2010-04-17T12:35:42Z</time>
      </trkpt>
      <trkpt lat="43.75167" lon="6.42116">
        <ele>955.6877441</ele>
        <time>2010-04-17T12:35:50Z</time>
      </trkpt>
      <trkpt lat="43.75171" lon="6.42111">
        <ele>968.6655273</ele>
        <time>2010-04-17T12:35:57Z</time>
      </trkpt>
      <trkpt lat="43.75171" lon="6.42102">
        <ele>966.7429199</ele>
        <time>2010-04-17T12:36:04Z</time>
      </trkpt>
      <trkpt lat="43.75169" lon="6.42093">
        <ele>964.8203125</ele>
        <time>2010-04-17T12:36:11Z</time>
      </trkpt>
      <trkpt lat="43.75171" lon="6.42084">
        <ele>964.3395996</ele>
        <time>2010-04-17T12:36:20Z</time>
      </trkpt>
      <trkpt lat="43.75174" lon="6.42075">
        <ele>964.3395996</ele>
        <time>2010-04-17T12:36:27Z</time>
      </trkpt>
      <trkpt lat="43.75171" lon="6.42068">
        <ele>962.8977051</ele>
        <time>2010-04-17T12:36:34Z</time>
      </trkpt>
      <trkpt lat="43.75171" lon="6.4206">
        <ele>961.9365234</ele>
        <time>2010-04-17T12:36:42Z</time>
      </trkpt>
      <trkpt lat="43.75172" lon="6.42058">
        <ele>967.2236328</ele>
        <time>2010-04-17T12:36:49Z</time>
      </trkpt>
      <trkpt lat="43.75174" lon="6.42055">
        <ele>972.9916992</ele>
        <time>2010-04-17T12:37:00Z</time>
      </trkpt>
      <trkpt lat="43.75177" lon="6.42048">
        <ele>969.6269531</ele>
        <time>2010-04-17T12:37:10Z</time>
      </trkpt>
      <trkpt lat="43.75178" lon="6.42042">
        <ele>970.1074219</ele>
        <time>2010-04-17T12:37:14Z</time>
      </trkpt>
      <trkpt lat="43.75179" lon="6.42037">
        <ele>968.1848145</ele>
        <time>2010-04-17T12:37:17Z</time>
      </trkpt>
      <trkpt lat="43.7518" lon="6.42025">
        <ele>970.5881348</ele>
        <time>2010-04-17T12:37:25Z</time>
      </trkpt>
      <trkpt lat="43.75182" lon="6.42022">
        <ele>970.1074219</ele>
        <time>2010-04-17T12:37:31Z</time>
      </trkpt>
      <trkpt lat="43.75182" lon="6.42015">
        <ele>966.7429199</ele>
        <time>2010-04-17T12:37:38Z</time>
      </trkpt>
      <trkpt lat="43.75187" lon="6.42003">
        <ele>968.6655273</ele>
        <time>2010-04-17T12:37:46Z</time>
      </trkpt>
      <trkpt lat="43.75187" lon="6.41993">
        <ele>974.9143066</ele>
        <time>2010-04-17T12:37:54Z</time>
      </trkpt>
      <trkpt lat="43.7519" lon="6.41983">
        <ele>979.2399902</ele>
        <time>2010-04-17T12:38:02Z</time>
      </trkpt>
      <trkpt lat="43.75194" lon="6.41975">
        <ele>981.6433105</ele>
        <time>2010-04-17T12:38:09Z</time>
      </trkpt>
      <trkpt lat="43.75194" lon="6.41972">
        <ele>980.201416</ele>
        <time>2010-04-17T12:38:14Z</time>
      </trkpt>
      <trkpt lat="43.75195" lon="6.41967">
        <ele>981.6433105</ele>
        <time>2010-04-17T12:38:19Z</time>
      </trkpt>
      <trkpt lat="43.75194" lon="6.41954">
        <ele>974.9143066</ele>
        <time>2010-04-17T12:38:29Z</time>
      </trkpt>
      <trkpt lat="43.75197" lon="6.41946">
        <ele>978.2788086</ele>
        <time>2010-04-17T12:38:37Z</time>
      </trkpt>
      <trkpt lat="43.75195" lon="6.41942">
        <ele>983.565918</ele>
        <time>2010-04-17T12:38:44Z</time>
      </trkpt>
      <trkpt lat="43.75195" lon="6.41941">
        <ele>983.0852051</ele>
        <time>2010-04-17T12:38:49Z</time>
      </trkpt>
      <trkpt lat="43.75194" lon="6.41934">
        <ele>981.1628418</ele>
        <time>2010-04-17T12:39:00Z</time>
      </trkpt>
      <trkpt lat="43.75195" lon="6.41924">
        <ele>983.0852051</ele>
        <time>2010-04-17T12:39:07Z</time>
      </trkpt>
      <trkpt lat="43.75195" lon="6.41923">
        <ele>983.565918</ele>
        <time>2010-04-17T12:39:08Z</time>
      </trkpt>
      <trkpt lat="43.75195" lon="6.41915">
        <ele>988.3728027</ele>
        <time>2010-04-17T12:39:15Z</time>
      </trkpt>
      <trkpt lat="43.75195" lon="6.41904">
        <ele>986.4499512</ele>
        <time>2010-04-17T12:39:24Z</time>
      </trkpt>
      <trkpt lat="43.75196" lon="6.41899">
        <ele>987.8918457</ele>
        <time>2010-04-17T12:39:30Z</time>
      </trkpt>
      <trkpt lat="43.75198" lon="6.41888">
        <ele>988.8535156</ele>
        <time>2010-04-17T12:39:40Z</time>
      </trkpt>
      <trkpt lat="43.75199" lon="6.41886">
        <ele>986.9304199</ele>
        <time>2010-04-17T12:39:49Z</time>
      </trkpt>
      <trkpt lat="43.75202" lon="6.4188">
        <ele>988.8535156</ele>
        <time>2010-04-17T12:39:58Z</time>
      </trkpt>
      <trkpt lat="43.75204" lon="6.41871">
        <ele>995.1018066</ele>
        <time>2010-04-17T12:40:06Z</time>
      </trkpt>
      <trkpt lat="43.75202" lon="6.41861">
        <ele>996.0632324</ele>
        <time>2010-04-17T12:40:13Z</time>
      </trkpt>
      <trkpt lat="43.75198" lon="6.41849">
        <ele>994.140625</ele>
        <time>2010-04-17T12:40:24Z</time>
      </trkpt>
      <trkpt lat="43.75196" lon="6.41837">
        <ele>991.7373047</ele>
        <time>2010-04-17T12:40:34Z</time>
      </trkpt>
      <trkpt lat="43.75196" lon="6.41836">
        <ele>993.1791992</ele>
        <time>2010-04-17T12:40:40Z</time>
      </trkpt>
      <trkpt lat="43.75196" lon="6.41831">
        <ele>993.6599121</ele>
        <time>2010-04-17T12:40:51Z</time>
      </trkpt>
      <trkpt lat="43.75194" lon="6.41818">
        <ele>995.5825195</ele>
        <time>2010-04-17T12:41:00Z</time>
      </trkpt>
      <trkpt lat="43.75195" lon="6.41805">
        <ele>997.505127</ele>
        <time>2010-04-17T12:41:09Z</time>
      </trkpt>
      <trkpt lat="43.75194" lon="6.41793">
        <ele>998.9470215</ele>
        <time>2010-04-17T12:41:17Z</time>
      </trkpt>
      <trkpt lat="43.75194" lon="6.41776">
        <ele>999.4277344</ele>
        <time>2010-04-17T12:41:29Z</time>
      </trkpt>
      <trkpt lat="43.75192" lon="6.41761">
        <ele>999.9084473</ele>
        <time>2010-04-17T12:41:39Z</time>
      </trkpt>
      <trkpt lat="43.75191" lon="6.41756">
        <ele>1002.3115234</ele>
        <time>2010-04-17T12:41:46Z</time>
      </trkpt>
      <trkpt lat="43.75188" lon="6.4175">
        <ele>1004.7150879</ele>
        <time>2010-04-17T12:47:33Z</time>
      </trkpt>
      <trkpt lat="43.75186" lon="6.41749">
        <ele>1003.2729492</ele>
        <time>2010-04-17T12:47:40Z</time>
      </trkpt>
      <trkpt lat="43.75186" lon="6.41739">
        <ele>1001.8310547</ele>
        <time>2010-04-17T12:47:44Z</time>
      </trkpt>
      <trkpt lat="43.75186" lon="6.4171">
        <ele>1000.8696289</ele>
        <time>2010-04-17T12:47:50Z</time>
      </trkpt>
      <trkpt lat="43.75184" lon="6.41681">
        <ele>1001.3503418</ele>
        <time>2010-04-17T12:47:57Z</time>
      </trkpt>
      <trkpt lat="43.75176" lon="6.41647">
        <ele>1002.3115234</ele>
        <time>2010-04-17T12:48:06Z</time>
      </trkpt>
      <trkpt lat="43.75169" lon="6.41625">
        <ele>1004.2346191</ele>
        <time>2010-04-17T12:48:12Z</time>
      </trkpt>
      <trkpt lat="43.75154" lon="6.4159">
        <ele>1002.7922363</ele>
        <time>2010-04-17T12:48:22Z</time>
      </trkpt>
      <trkpt lat="43.75139" lon="6.4156">
        <ele>1004.7150879</ele>
        <time>2010-04-17T12:48:31Z</time>
      </trkpt>
      <trkpt lat="43.75126" lon="6.41525">
        <ele>1006.1569824</ele>
        <time>2010-04-17T12:48:40Z</time>
      </trkpt>
      <trkpt lat="43.75124" lon="6.41494">
        <ele>1002.7922363</ele>
        <time>2010-04-17T12:48:46Z</time>
      </trkpt>
      <trkpt lat="43.75133" lon="6.41456">
        <ele>1002.3115234</ele>
        <time>2010-04-17T12:48:53Z</time>
      </trkpt>
      <trkpt lat="43.75139" lon="6.4144">
        <ele>1002.3115234</ele>
        <time>2010-04-17T12:48:56Z</time>
      </trkpt>
      <trkpt lat="43.75155" lon="6.41413">
        <ele>1001.3503418</ele>
        <time>2010-04-17T12:49:02Z</time>
      </trkpt>
      <trkpt lat="43.7519" lon="6.41383">
        <ele>999.4277344</ele>
        <time>2010-04-17T12:49:11Z</time>
      </trkpt>
      <trkpt lat="43.75194" lon="6.41379">
        <ele>999.9084473</ele>
        <time>2010-04-17T12:49:12Z</time>
      </trkpt>
      <trkpt lat="43.75213" lon="6.41349">
        <ele>997.9858398</ele>
        <time>2010-04-17T12:49:17Z</time>
      </trkpt>
      <trkpt lat="43.75217" lon="6.41326">
        <ele>997.505127</ele>
        <time>2010-04-17T12:49:20Z</time>
      </trkpt>
      <trkpt lat="43.75217" lon="6.41271">
        <ele>997.9858398</ele>
        <time>2010-04-17T12:49:28Z</time>
      </trkpt>
      <trkpt lat="43.75218" lon="6.41226">
        <ele>1000.3891602</ele>
        <time>2010-04-17T12:49:35Z</time>
      </trkpt>
      <trkpt lat="43.75218" lon="6.41219">
        <ele>1000.3891602</ele>
        <time>2010-04-17T12:49:36Z</time>
      </trkpt>
      <trkpt lat="43.75223" lon="6.41194">
        <ele>999.4277344</ele>
        <time>2010-04-17T12:49:41Z</time>
      </trkpt>
      <trkpt lat="43.7523" lon="6.41191">
        <ele>999.4277344</ele>
        <time>2010-04-17T12:49:43Z</time>
      </trkpt>
      <trkpt lat="43.75248" lon="6.41179">
        <ele>999.9084473</ele>
        <time>2010-04-17T12:49:50Z</time>
      </trkpt>
      <trkpt lat="43.75262" lon="6.41168">
        <ele>1001.3503418</ele>
        <time>2010-04-17T12:49:57Z</time>
      </trkpt>
      <trkpt lat="43.75276" lon="6.41161">
        <ele>1003.2729492</ele>
        <time>2010-04-17T12:50:04Z</time>
      </trkpt>
      <trkpt lat="43.75288" lon="6.41159">
        <ele>1004.7150879</ele>
        <time>2010-04-17T12:50:11Z</time>
      </trkpt>
      <trkpt lat="43.75303" lon="6.41157">
        <ele>1010.4829102</ele>
        <time>2010-04-17T12:50:19Z</time>
      </trkpt>
      <trkpt lat="43.75315" lon="6.41158">
        <ele>1014.328125</ele>
        <time>2010-04-17T12:50:28Z</time>
      </trkpt>
      <trkpt lat="43.75319" lon="6.41158">
        <ele>1014.8088379</ele>
        <time>2010-04-17T12:50:31Z</time>
      </trkpt>
      <trkpt lat="43.7533" lon="6.41152">
        <ele>1014.8088379</ele>
        <time>2010-04-17T12:50:40Z</time>
      </trkpt>
      <trkpt lat="43.75342" lon="6.41145">
        <ele>1016.7314453</ele>
        <time>2010-04-17T12:50:48Z</time>
      </trkpt>
      <trkpt lat="43.75356" lon="6.41142">
        <ele>1017.2121582</ele>
        <time>2010-04-17T12:50:56Z</time>
      </trkpt>
      <trkpt lat="43.75374" lon="6.41139">
        <ele>1021.0576172</ele>
        <time>2010-04-17T12:51:07Z</time>
      </trkpt>
      <trkpt lat="43.75391" lon="6.41135">
        <ele>1020.5769043</ele>
        <time>2010-04-17T12:51:16Z</time>
      </trkpt>
      <trkpt lat="43.75402" lon="6.41122">
        <ele>1021.5380859</ele>
        <time>2010-04-17T12:51:25Z</time>
      </trkpt>
      <trkpt lat="43.75414" lon="6.41109">
        <ele>1022.4995117</ele>
        <time>2010-04-17T12:51:34Z</time>
      </trkpt>
      <trkpt lat="43.75424" lon="6.41099">
        <ele>1022.9802246</ele>
        <time>2010-04-17T12:51:41Z</time>
      </trkpt>
      <trkpt lat="43.75437" lon="6.4109">
        <ele>1024.4221191</ele>
        <time>2010-04-17T12:51:49Z</time>
      </trkpt>
      <trkpt lat="43.75454" lon="6.41086">
        <ele>1025.8640137</ele>
        <time>2010-04-17T12:51:58Z</time>
      </trkpt>
      <trkpt lat="43.75473" lon="6.41084">
        <ele>1028.7480469</ele>
        <time>2010-04-17T12:52:07Z</time>
      </trkpt>
      <trkpt lat="43.7549" lon="6.41087">
        <ele>1030.1899414</ele>
        <time>2010-04-17T12:52:16Z</time>
      </trkpt>
      <trkpt lat="43.75505" lon="6.41091">
        <ele>1032.5932617</ele>
        <time>2010-04-17T12:52:24Z</time>
      </trkpt>
      <trkpt lat="43.7551" lon="6.41089">
        <ele>1032.5932617</ele>
        <time>2010-04-17T12:52:27Z</time>
      </trkpt>
      <trkpt lat="43.75522" lon="6.41067">
        <ele>1035.4770508</ele>
        <time>2010-04-17T12:52:37Z</time>
      </trkpt>
      <trkpt lat="43.75534" lon="6.41044">
        <ele>1038.3613281</ele>
        <time>2010-04-17T12:52:48Z</time>
      </trkpt>
      <trkpt lat="43.75543" lon="6.41024">
        <ele>1040.7644043</ele>
        <time>2010-04-17T12:52:58Z</time>
      </trkpt>
      <trkpt lat="43.75554" lon="6.41005">
        <ele>1042.6872559</ele>
        <time>2010-04-17T12:53:08Z</time>
      </trkpt>
      <trkpt lat="43.75566" lon="6.40989">
        <ele>1044.6096191</ele>
        <time>2010-04-17T12:53:18Z</time>
      </trkpt>
      <trkpt lat="43.7558" lon="6.40972">
        <ele>1046.5324707</ele>
        <time>2010-04-17T12:53:29Z</time>
      </trkpt>
      <trkpt lat="43.75593" lon="6.40955">
        <ele>1047.9743652</ele>
        <time>2010-04-17T12:53:39Z</time>
      </trkpt>
      <trkpt lat="43.75605" lon="6.40939">
        <ele>1049.8969727</ele>
        <time>2010-04-17T12:53:48Z</time>
      </trkpt>
      <trkpt lat="43.75617" lon="6.40925">
        <ele>1052.7810059</ele>
        <time>2010-04-17T12:53:57Z</time>
      </trkpt>
      <trkpt lat="43.75632" lon="6.40908">
        <ele>1055.6650391</ele>
        <time>2010-04-17T12:54:08Z</time>
      </trkpt>
      <trkpt lat="43.75643" lon="6.40893">
        <ele>1057.1069336</ele>
        <time>2010-04-17T12:54:17Z</time>
      </trkpt>
      <trkpt lat="43.75652" lon="6.40879">
        <ele>1058.0683594</ele>
        <time>2010-04-17T12:54:25Z</time>
      </trkpt>
      <trkpt lat="43.75663" lon="6.40859">
        <ele>1059.9907227</ele>
        <time>2010-04-17T12:54:35Z</time>
      </trkpt>
      <trkpt lat="43.75673" lon="6.40842">
        <ele>1061.9135742</ele>
        <time>2010-04-17T12:54:44Z</time>
      </trkpt>
      <trkpt lat="43.75684" lon="6.40823">
        <ele>1062.8747559</ele>
        <time>2010-04-17T12:54:54Z</time>
      </trkpt>
      <trkpt lat="43.75692" lon="6.40807">
        <ele>1063.8359375</ele>
        <time>2010-04-17T12:55:02Z</time>
      </trkpt>
      <trkpt lat="43.757" lon="6.40789">
        <ele>1063.8359375</ele>
        <time>2010-04-17T12:55:10Z</time>
      </trkpt>
      <trkpt lat="43.75705" lon="6.4077">
        <ele>1064.3166504</ele>
        <time>2010-04-17T12:55:18Z</time>
      </trkpt>
      <trkpt lat="43.7571" lon="6.4075">
        <ele>1065.2780762</ele>
        <time>2010-04-17T12:55:26Z</time>
      </trkpt>
      <trkpt lat="43.75717" lon="6.40736">
        <ele>1066.2392578</ele>
        <time>2010-04-17T12:55:34Z</time>
      </trkpt>
      <trkpt lat="43.75725" lon="6.40725">
        <ele>1067.2006836</ele>
        <time>2010-04-17T12:55:42Z</time>
      </trkpt>
      <trkpt lat="43.75734" lon="6.40715">
        <ele>1068.6428223</ele>
        <time>2010-04-17T12:55:50Z</time>
      </trkpt>
      <trkpt lat="43.75743" lon="6.40708">
        <ele>1072.0073242</ele>
        <time>2010-04-17T12:55:58Z</time>
      </trkpt>
      <trkpt lat="43.75749" lon="6.40707">
        <ele>1072.96875</ele>
        <time>2010-04-17T12:56:02Z</time>
      </trkpt>
      <trkpt lat="43.75764" lon="6.40705">
        <ele>1072.4880371</ele>
        <time>2010-04-17T12:56:11Z</time>
      </trkpt>
      <trkpt lat="43.75778" lon="6.40705">
        <ele>1072.96875</ele>
        <time>2010-04-17T12:56:19Z</time>
      </trkpt>
      <trkpt lat="43.75789" lon="6.40698">
        <ele>1072.0073242</ele>
        <time>2010-04-17T12:56:26Z</time>
      </trkpt>
      <trkpt lat="43.758" lon="6.40693">
        <ele>1070.0847168</ele>
        <time>2010-04-17T12:56:32Z</time>
      </trkpt>
      <trkpt lat="43.75813" lon="6.40695">
        <ele>1071.0461426</ele>
        <time>2010-04-17T12:56:39Z</time>
      </trkpt>
      <trkpt lat="43.75824" lon="6.40698">
        <ele>1074.8913574</ele>
        <time>2010-04-17T12:56:47Z</time>
      </trkpt>
      <trkpt lat="43.75841" lon="6.40703">
        <ele>1074.4106445</ele>
        <time>2010-04-17T12:56:55Z</time>
      </trkpt>
      <trkpt lat="43.7586" lon="6.40709">
        <ele>1074.4106445</ele>
        <time>2010-04-17T12:57:04Z</time>
      </trkpt>
      <trkpt lat="43.75878" lon="6.40714">
        <ele>1077.2946777</ele>
        <time>2010-04-17T12:57:13Z</time>
      </trkpt>
      <trkpt lat="43.75894" lon="6.40719">
        <ele>1078.7365723</ele>
        <time>2010-04-17T12:57:19Z</time>
      </trkpt>
      <trkpt lat="43.75913" lon="6.40725">
        <ele>1080.1784668</ele>
        <time>2010-04-17T12:57:28Z</time>
      </trkpt>
      <trkpt lat="43.75932" lon="6.40733">
        <ele>1080.6591797</ele>
        <time>2010-04-17T12:57:36Z</time>
      </trkpt>
      <trkpt lat="43.75952" lon="6.40736">
        <ele>1082.1010742</ele>
        <time>2010-04-17T12:57:45Z</time>
      </trkpt>
      <trkpt lat="43.75973" lon="6.40736">
        <ele>1084.0239258</ele>
        <time>2010-04-17T12:57:54Z</time>
      </trkpt>
      <trkpt lat="43.75998" lon="6.40736">
        <ele>1083.0622559</ele>
        <time>2010-04-17T12:58:04Z</time>
      </trkpt>
      <trkpt lat="43.76004" lon="6.40735">
        <ele>1083.0622559</ele>
        <time>2010-04-17T12:58:09Z</time>
      </trkpt>
      <trkpt lat="43.76002" lon="6.40736">
        <ele>1083.5429688</ele>
        <time>2010-04-17T12:58:23Z</time>
      </trkpt>
      <trkpt lat="43.76002" lon="6.40737">
        <ele>1078.7365723</ele>
        <time>2010-04-17T12:59:00Z</time>
      </trkpt>
      <trkpt lat="43.76003" lon="6.40739">
        <ele>1081.6203613</ele>
        <time>2010-04-17T12:59:15Z</time>
      </trkpt>
      <trkpt lat="43.76003" lon="6.40738">
        <ele>1082.5817871</ele>
        <time>2010-04-17T12:59:27Z</time>
      </trkpt>
      <trkpt lat="43.76002" lon="6.40735">
        <ele>1082.5817871</ele>
        <time>2010-04-17T12:59:46Z</time>
      </trkpt>
      <trkpt lat="43.76003" lon="6.40735">
        <ele>1082.1010742</ele>
        <time>2010-04-17T12:59:59Z</time>
      </trkpt>
      <trkpt lat="43.76006" lon="6.40736">
        <ele>1074.4106445</ele>
        <time>2010-04-17T13:00:19Z</time>
      </trkpt>
      <trkpt lat="43.76007" lon="6.40735">
        <ele>1082.1010742</ele>
        <time>2010-04-17T13:00:50Z</time>
      </trkpt>
      <trkpt lat="43.76005" lon="6.40736">
        <ele>1080.6591797</ele>
        <time>2010-04-17T13:01:03Z</time>
      </trkpt>
      <trkpt lat="43.76004" lon="6.40735">
        <ele>1080.6591797</ele>
        <time>2010-04-17T13:01:21Z</time>
      </trkpt>
      <trkpt lat="43.76006" lon="6.40736">
        <ele>1077.7751465</ele>
        <time>2010-04-17T13:01:36Z</time>
      </trkpt>
      <trkpt lat="43.7601" lon="6.40737">
        <ele>1076.333252</ele>
        <time>2010-04-17T13:01:44Z</time>
      </trkpt>
      <trkpt lat="43.76021" lon="6.40733">
        <ele>1076.333252</ele>
        <time>2010-04-17T13:01:49Z</time>
      </trkpt>
      <trkpt lat="43.7604" lon="6.4073">
        <ele>1075.8525391</ele>
        <time>2010-04-17T13:01:56Z</time>
      </trkpt>
      <trkpt lat="43.76059" lon="6.40724">
        <ele>1077.2946777</ele>
        <time>2010-04-17T13:02:05Z</time>
      </trkpt>
      <trkpt lat="43.76073" lon="6.40718">
        <ele>1077.2946777</ele>
        <time>2010-04-17T13:02:12Z</time>
      </trkpt>
      <trkpt lat="43.76085" lon="6.40715">
        <ele>1077.2946777</ele>
        <time>2010-04-17T13:02:19Z</time>
      </trkpt>
      <trkpt lat="43.761" lon="6.40708">
        <ele>1077.2946777</ele>
        <time>2010-04-17T13:02:25Z</time>
      </trkpt>
      <trkpt lat="43.76121" lon="6.40699">
        <ele>1077.2946777</ele>
        <time>2010-04-17T13:02:33Z</time>
      </trkpt>
      <trkpt lat="43.76141" lon="6.407">
        <ele>1077.7751465</ele>
        <time>2010-04-17T13:02:40Z</time>
      </trkpt>
      <trkpt lat="43.76157" lon="6.40715">
        <ele>1079.6977539</ele>
        <time>2010-04-17T13:02:47Z</time>
      </trkpt>
      <trkpt lat="43.7617" lon="6.40719">
        <ele>1081.1398926</ele>
        <time>2010-04-17T13:02:52Z</time>
      </trkpt>
      <trkpt lat="43.76185" lon="6.40725">
        <ele>1082.5817871</ele>
        <time>2010-04-17T13:02:58Z</time>
      </trkpt>
      <trkpt lat="43.76203" lon="6.40729">
        <ele>1083.5429688</ele>
        <time>2010-04-17T13:03:06Z</time>
      </trkpt>
      <trkpt lat="43.76213" lon="6.40718">
        <ele>1084.9853516</ele>
        <time>2010-04-17T13:03:12Z</time>
      </trkpt>
      <trkpt lat="43.76227" lon="6.40708">
        <ele>1085.9465332</ele>
        <time>2010-04-17T13:03:20Z</time>
      </trkpt>
      <trkpt lat="43.76239" lon="6.40714">
        <ele>1086.9077148</ele>
        <time>2010-04-17T13:03:26Z</time>
      </trkpt>
      <trkpt lat="43.76256" lon="6.40726">
        <ele>1088.8305664</ele>
        <time>2010-04-17T13:03:35Z</time>
      </trkpt>
      <trkpt lat="43.76267" lon="6.40738">
        <ele>1090.7529297</ele>
        <time>2010-04-17T13:03:43Z</time>
      </trkpt>
      <trkpt lat="43.76281" lon="6.40744">
        <ele>1092.1950684</ele>
        <time>2010-04-17T13:03:51Z</time>
      </trkpt>
      <trkpt lat="43.76301" lon="6.40744">
        <ele>1093.15625</ele>
        <time>2010-04-17T13:04:02Z</time>
      </trkpt>
      <trkpt lat="43.76309" lon="6.4075">
        <ele>1094.1176758</ele>
        <time>2010-04-17T13:04:08Z</time>
      </trkpt>
      <trkpt lat="43.76325" lon="6.40755">
        <ele>1095.0788574</ele>
        <time>2010-04-17T13:04:17Z</time>
      </trkpt>
      <trkpt lat="43.76339" lon="6.40756">
        <ele>1096.5209961</ele>
        <time>2010-04-17T13:04:25Z</time>
      </trkpt>
      <trkpt lat="43.76354" lon="6.40754">
        <ele>1097.4821777</ele>
        <time>2010-04-17T13:04:33Z</time>
      </trkpt>
      <trkpt lat="43.76367" lon="6.40748">
        <ele>1097.0014648</ele>
        <time>2010-04-17T13:04:40Z</time>
      </trkpt>
      <trkpt lat="43.76374" lon="6.40733">
        <ele>1096.5209961</ele>
        <time>2010-04-17T13:04:46Z</time>
      </trkpt>
      <trkpt lat="43.76384" lon="6.40726">
        <ele>1096.5209961</ele>
        <time>2010-04-17T13:04:52Z</time>
      </trkpt>
      <trkpt lat="43.76402" lon="6.40721">
        <ele>1099.4047852</ele>
        <time>2010-04-17T13:05:02Z</time>
      </trkpt>
      <trkpt lat="43.76414" lon="6.40715">
        <ele>1100.8469238</ele>
        <time>2010-04-17T13:05:09Z</time>
      </trkpt>
      <trkpt lat="43.76417" lon="6.40713">
        <ele>1101.3276367</ele>
        <time>2010-04-17T13:05:11Z</time>
      </trkpt>
      <trkpt lat="43.76424" lon="6.40714">
        <ele>1101.8083496</ele>
        <time>2010-04-17T13:05:15Z</time>
      </trkpt>
      <trkpt lat="43.76437" lon="6.40713">
        <ele>1100.8469238</ele>
        <time>2010-04-17T13:05:22Z</time>
      </trkpt>
      <trkpt lat="43.76444" lon="6.40698">
        <ele>1100.3664551</ele>
        <time>2010-04-17T13:05:28Z</time>
      </trkpt>
      <trkpt lat="43.76444" lon="6.40679">
        <ele>1102.2888184</ele>
        <time>2010-04-17T13:05:34Z</time>
      </trkpt>
      <trkpt lat="43.76451" lon="6.40668">
        <ele>1101.8083496</ele>
        <time>2010-04-17T13:05:39Z</time>
      </trkpt>
      <trkpt lat="43.76462" lon="6.40658">
        <ele>1100.8469238</ele>
        <time>2010-04-17T13:05:45Z</time>
      </trkpt>
      <trkpt lat="43.76477" lon="6.40661">
        <ele>1100.3664551</ele>
        <time>2010-04-17T13:05:52Z</time>
      </trkpt>
      <trkpt lat="43.76487" lon="6.40661">
        <ele>1103.2502441</ele>
        <time>2010-04-17T13:05:59Z</time>
      </trkpt>
      <trkpt lat="43.76496" lon="6.40662">
        <ele>1104.6921387</ele>
        <time>2010-04-17T13:06:05Z</time>
      </trkpt>
      <trkpt lat="43.76507" lon="6.4066">
        <ele>1108.0568848</ele>
        <time>2010-04-17T13:06:13Z</time>
      </trkpt>
      <trkpt lat="43.76518" lon="6.40649">
        <ele>1111.4213867</ele>
        <time>2010-04-17T13:06:21Z</time>
      </trkpt>
      <trkpt lat="43.7653" lon="6.40641">
        <ele>1114.3051758</ele>
        <time>2010-04-17T13:06:29Z</time>
      </trkpt>
      <trkpt lat="43.76541" lon="6.40636">
        <ele>1115.7473145</ele>
        <time>2010-04-17T13:06:36Z</time>
      </trkpt>
      <trkpt lat="43.76551" lon="6.40636">
        <ele>1118.6313477</ele>
        <time>2010-04-17T13:06:43Z</time>
      </trkpt>
      <trkpt lat="43.76563" lon="6.4064">
        <ele>1119.1120605</ele>
        <time>2010-04-17T13:06:50Z</time>
      </trkpt>
      <trkpt lat="43.76573" lon="6.4064">
        <ele>1119.5927734</ele>
        <time>2010-04-17T13:06:57Z</time>
      </trkpt>
      <trkpt lat="43.76575" lon="6.4064">
        <ele>1120.0732422</ele>
        <time>2010-04-17T13:06:58Z</time>
      </trkpt>
      <trkpt lat="43.76578" lon="6.40641">
        <ele>1120.0732422</ele>
        <time>2010-04-17T13:07:04Z</time>
      </trkpt>
      <trkpt lat="43.76579" lon="6.40642">
        <ele>1119.5927734</ele>
        <time>2010-04-17T13:07:10Z</time>
      </trkpt>
      <trkpt lat="43.76583" lon="6.40648">
        <ele>1119.1120605</ele>
        <time>2010-04-17T13:07:14Z</time>
      </trkpt>
      <trkpt lat="43.76599" lon="6.40659">
        <ele>1119.1120605</ele>
        <time>2010-04-17T13:07:22Z</time>
      </trkpt>
      <trkpt lat="43.76622" lon="6.40665">
        <ele>1118.1506348</ele>
        <time>2010-04-17T13:07:30Z</time>
      </trkpt>
      <trkpt lat="43.76644" lon="6.40677">
        <ele>1118.1506348</ele>
        <time>2010-04-17T13:07:37Z</time>
      </trkpt>
      <trkpt lat="43.76657" lon="6.40676">
        <ele>1117.1894531</ele>
        <time>2010-04-17T13:07:40Z</time>
      </trkpt>
      <trkpt lat="43.76678" lon="6.40681">
        <ele>1115.2666016</ele>
        <time>2010-04-17T13:07:44Z</time>
      </trkpt>
      <trkpt lat="43.76706" lon="6.40682">
        <ele>1113.8244629</ele>
        <time>2010-04-17T13:07:50Z</time>
      </trkpt>
      <trkpt lat="43.76715" lon="6.40682">
        <ele>1112.3825684</ele>
        <time>2010-04-17T13:07:52Z</time>
      </trkpt>
      <trkpt lat="43.7674" lon="6.40681">
        <ele>1108.5373535</ele>
        <time>2010-04-17T13:07:57Z</time>
      </trkpt>
      <trkpt lat="43.76748" lon="6.40679">
        <ele>1107.5761719</ele>
        <time>2010-04-17T13:07:59Z</time>
      </trkpt>
      <trkpt lat="43.76769" lon="6.40684">
        <ele>1109.4987793</ele>
        <time>2010-04-17T13:08:04Z</time>
      </trkpt>
      <trkpt lat="43.76784" lon="6.40695">
        <ele>1114.3051758</ele>
        <time>2010-04-17T13:08:12Z</time>
      </trkpt>
      <trkpt lat="43.76796" lon="6.40702">
        <ele>1118.6313477</ele>
        <time>2010-04-17T13:08:20Z</time>
      </trkpt>
      <trkpt lat="43.76807" lon="6.40711">
        <ele>1122.9572754</ele>
        <time>2010-04-17T13:08:30Z</time>
      </trkpt>
      <trkpt lat="43.76814" lon="6.40717">
        <ele>1125.8410645</ele>
        <time>2010-04-17T13:08:37Z</time>
      </trkpt>
      <trkpt lat="43.76822" lon="6.40724">
        <ele>1126.3217773</ele>
        <time>2010-04-17T13:08:44Z</time>
      </trkpt>
      <trkpt lat="43.76824" lon="6.40725">
        <ele>1127.2832031</ele>
        <time>2010-04-17T13:08:49Z</time>
      </trkpt>
      <trkpt lat="43.76827" lon="6.4072">
        <ele>1140.7414551</ele>
        <time>2010-04-17T13:09:21Z</time>
      </trkpt>
      <trkpt lat="43.7684" lon="6.4073">
        <ele>1133.5317383</ele>
        <time>2010-04-17T13:09:30Z</time>
      </trkpt>
      <trkpt lat="43.7685" lon="6.40736">
        <ele>1130.1669922</ele>
        <time>2010-04-17T13:09:39Z</time>
      </trkpt>
      <trkpt lat="43.76861" lon="6.40739">
        <ele>1131.128418</ele>
        <time>2010-04-17T13:09:48Z</time>
      </trkpt>
      <trkpt lat="43.7687" lon="6.40742">
        <ele>1131.128418</ele>
        <time>2010-04-17T13:09:56Z</time>
      </trkpt>
      <trkpt lat="43.76878" lon="6.40747">
        <ele>1134.0124512</ele>
        <time>2010-04-17T13:10:04Z</time>
      </trkpt>
      <trkpt lat="43.76884" lon="6.4075">
        <ele>1133.5317383</ele>
        <time>2010-04-17T13:10:10Z</time>
      </trkpt>
      <trkpt lat="43.76892" lon="6.40756">
        <ele>1134.4931641</ele>
        <time>2010-04-17T13:10:16Z</time>
      </trkpt>
      <trkpt lat="43.76903" lon="6.40764">
        <ele>1134.0124512</ele>
        <time>2010-04-17T13:10:23Z</time>
      </trkpt>
      <trkpt lat="43.76911" lon="6.40774">
        <ele>1138.8190918</ele>
        <time>2010-04-17T13:10:32Z</time>
      </trkpt>
      <trkpt lat="43.76918" lon="6.40783">
        <ele>1138.3383789</ele>
        <time>2010-04-17T13:10:37Z</time>
      </trkpt>
      <trkpt lat="43.76921" lon="6.40795">
        <ele>1140.2609863</ele>
        <time>2010-04-17T13:10:44Z</time>
      </trkpt>
      <trkpt lat="43.76923" lon="6.40799">
        <ele>1140.7414551</ele>
        <time>2010-04-17T13:10:47Z</time>
      </trkpt>
      <trkpt lat="43.76929" lon="6.40806">
        <ele>1140.2609863</ele>
        <time>2010-04-17T13:10:53Z</time>
      </trkpt>
      <trkpt lat="43.76938" lon="6.40815">
        <ele>1139.7802734</ele>
        <time>2010-04-17T13:11:01Z</time>
      </trkpt>
      <trkpt lat="43.76947" lon="6.40823">
        <ele>1145.0673828</ele>
        <time>2010-04-17T13:11:09Z</time>
      </trkpt>
      <trkpt lat="43.76955" lon="6.40825">
        <ele>1145.5480957</ele>
        <time>2010-04-17T13:11:15Z</time>
      </trkpt>
      <trkpt lat="43.7697" lon="6.40821">
        <ele>1142.6643066</ele>
        <time>2010-04-17T13:11:24Z</time>
      </trkpt>
      <trkpt lat="43.76983" lon="6.40819">
        <ele>1142.6643066</ele>
        <time>2010-04-17T13:11:31Z</time>
      </trkpt>
      <trkpt lat="43.76989" lon="6.40817">
        <ele>1142.1835938</ele>
        <time>2010-04-17T13:11:37Z</time>
      </trkpt>
      <trkpt lat="43.77" lon="6.40814">
        <ele>1144.5866699</ele>
        <time>2010-04-17T13:11:43Z</time>
      </trkpt>
      <trkpt lat="43.77006" lon="6.40811">
        <ele>1143.6254883</ele>
        <time>2010-04-17T13:11:49Z</time>
      </trkpt>
      <trkpt lat="43.7701" lon="6.40808">
        <ele>1145.0673828</ele>
        <time>2010-04-17T13:11:57Z</time>
      </trkpt>
      <trkpt lat="43.77011" lon="6.40807">
        <ele>1148.9128418</ele>
        <time>2010-04-17T13:12:10Z</time>
      </trkpt>
      <trkpt lat="43.7701" lon="6.40807">
        <ele>1147.951416</ele>
        <time>2010-04-17T13:12:23Z</time>
      </trkpt>
      <trkpt lat="43.7701" lon="6.40807">
        <ele>1152.2773438</ele>
        <time>2010-04-17T13:12:38Z</time>
      </trkpt>
      <trkpt lat="43.7701" lon="6.40807">
        <ele>1150.8354492</ele>
        <time>2010-04-17T13:12:47Z</time>
      </trkpt>
      <trkpt lat="43.7701" lon="6.40809">
        <ele>1147.951416</ele>
        <time>2010-04-17T13:12:56Z</time>
      </trkpt>
      <trkpt lat="43.77014" lon="6.40806">
        <ele>1147.951416</ele>
        <time>2010-04-17T13:13:04Z</time>
      </trkpt>
      <trkpt lat="43.77024" lon="6.40802">
        <ele>1141.222168</ele>
        <time>2010-04-17T13:13:10Z</time>
      </trkpt>
      <trkpt lat="43.77032" lon="6.408">
        <ele>1139.7802734</ele>
        <time>2010-04-17T13:13:12Z</time>
      </trkpt>
      <trkpt lat="43.77043" lon="6.40796">
        <ele>1137.3769531</ele>
        <time>2010-04-17T13:13:14Z</time>
      </trkpt>
      <trkpt lat="43.77068" lon="6.40797">
        <ele>1133.0510254</ele>
        <time>2010-04-17T13:13:18Z</time>
      </trkpt>
      <trkpt lat="43.77091" lon="6.40796">
        <ele>1131.6088867</ele>
        <time>2010-04-17T13:13:21Z</time>
      </trkpt>
      <trkpt lat="43.77116" lon="6.408">
        <ele>1127.2832031</ele>
        <time>2010-04-17T13:13:24Z</time>
      </trkpt>
      <trkpt lat="43.77153" lon="6.40798">
        <ele>1125.3603516</ele>
        <time>2010-04-17T13:13:29Z</time>
      </trkpt>
      <trkpt lat="43.77163" lon="6.40796">
        <ele>1125.8410645</ele>
        <time>2010-04-17T13:13:33Z</time>
      </trkpt>
      <trkpt lat="43.77165" lon="6.40797">
        <ele>1124.8798828</ele>
        <time>2010-04-17T13:13:38Z</time>
      </trkpt>
      <trkpt lat="43.77163" lon="6.40794">
        <ele>1130.1669922</ele>
        <time>2010-04-17T13:13:57Z</time>
      </trkpt>
      <trkpt lat="43.77168" lon="6.40796">
        <ele>1126.3217773</ele>
        <time>2010-04-17T13:14:37Z</time>
      </trkpt>
      <trkpt lat="43.77178" lon="6.4079">
        <ele>1122.9572754</ele>
        <time>2010-04-17T13:14:43Z</time>
      </trkpt>
      <trkpt lat="43.77184" lon="6.40786">
        <ele>1122.4765625</ele>
        <time>2010-04-17T13:14:47Z</time>
      </trkpt>
      <trkpt lat="43.77185" lon="6.40785">
        <ele>1121.9958496</ele>
        <time>2010-04-17T13:15:01Z</time>
      </trkpt>
      <trkpt lat="43.77184" lon="6.40786">
        <ele>1120.5539551</ele>
        <time>2010-04-17T13:15:11Z</time>
      </trkpt>
      <trkpt lat="43.77184" lon="6.40788">
        <ele>1120.0732422</ele>
        <time>2010-04-17T13:15:17Z</time>
      </trkpt>
      <trkpt lat="43.77194" lon="6.40782">
        <ele>1115.7473145</ele>
        <time>2010-04-17T13:15:22Z</time>
      </trkpt>
      <trkpt lat="43.772" lon="6.40786">
        <ele>1114.7858887</ele>
        <time>2010-04-17T13:15:25Z</time>
      </trkpt>
      <trkpt lat="43.772" lon="6.4079">
        <ele>1114.7858887</ele>
        <time>2010-04-17T13:15:26Z</time>
      </trkpt>
      <trkpt lat="43.772" lon="6.40805">
        <ele>1115.2666016</ele>
        <time>2010-04-17T13:15:29Z</time>
      </trkpt>
      <trkpt lat="43.77204" lon="6.40826">
        <ele>1115.2666016</ele>
        <time>2010-04-17T13:15:33Z</time>
      </trkpt>
      <trkpt lat="43.77216" lon="6.40844">
        <ele>1112.3825684</ele>
        <time>2010-04-17T13:15:39Z</time>
      </trkpt>
      <trkpt lat="43.77223" lon="6.40855">
        <ele>1112.3825684</ele>
        <time>2010-04-17T13:15:41Z</time>
      </trkpt>
      <trkpt lat="43.77232" lon="6.40864">
        <ele>1113.3439941</ele>
        <time>2010-04-17T13:15:43Z</time>
      </trkpt>
      <trkpt lat="43.77247" lon="6.40892">
        <ele>1106.1340332</ele>
        <time>2010-04-17T13:15:49Z</time>
      </trkpt>
      <trkpt lat="43.77259" lon="6.40902">
        <ele>1104.2116699</ele>
        <time>2010-04-17T13:15:52Z</time>
      </trkpt>
      <trkpt lat="43.7728" lon="6.4092">
        <ele>1103.2502441</ele>
        <time>2010-04-17T13:15:56Z</time>
      </trkpt>
      <trkpt lat="43.77304" lon="6.4095">
        <ele>1100.3664551</ele>
        <time>2010-04-17T13:16:01Z</time>
      </trkpt>
      <trkpt lat="43.77308" lon="6.40957">
        <ele>1098.9240723</ele>
        <time>2010-04-17T13:16:02Z</time>
      </trkpt>
      <trkpt lat="43.77336" lon="6.40981">
        <ele>1096.0402832</ele>
        <time>2010-04-17T13:16:07Z</time>
      </trkpt>
      <trkpt lat="43.77342" lon="6.40988">
        <ele>1092.6757812</ele>
        <time>2010-04-17T13:16:09Z</time>
      </trkpt>
      <trkpt lat="43.77356" lon="6.40996">
        <ele>1087.3884277</ele>
        <time>2010-04-17T13:16:13Z</time>
      </trkpt>
      <trkpt lat="43.77374" lon="6.41006">
        <ele>1081.1398926</ele>
        <time>2010-04-17T13:16:18Z</time>
      </trkpt>
      <trkpt lat="43.77384" lon="6.41014">
        <ele>1077.2946777</ele>
        <time>2010-04-17T13:16:22Z</time>
      </trkpt>
      <trkpt lat="43.77399" lon="6.4102">
        <ele>1070.0847168</ele>
        <time>2010-04-17T13:16:27Z</time>
      </trkpt>
      <trkpt lat="43.77417" lon="6.41032">
        <ele>1066.7199707</ele>
        <time>2010-04-17T13:16:31Z</time>
      </trkpt>
      <trkpt lat="43.77433" lon="6.41042">
        <ele>1064.7973633</ele>
        <time>2010-04-17T13:16:34Z</time>
      </trkpt>
      <trkpt lat="43.77451" lon="6.41052">
        <ele>1062.394043</ele>
        <time>2010-04-17T13:16:39Z</time>
      </trkpt>
      <trkpt lat="43.77458" lon="6.41054">
        <ele>1061.9135742</ele>
        <time>2010-04-17T13:16:41Z</time>
      </trkpt>
      <trkpt lat="43.77469" lon="6.41062">
        <ele>1061.4328613</ele>
        <time>2010-04-17T13:16:44Z</time>
      </trkpt>
      <trkpt lat="43.77483" lon="6.41068">
        <ele>1060.9521484</ele>
        <time>2010-04-17T13:16:47Z</time>
      </trkpt>
      <trkpt lat="43.77508" lon="6.41087">
        <ele>1060.9521484</ele>
        <time>2010-04-17T13:16:53Z</time>
      </trkpt>
      <trkpt lat="43.77523" lon="6.41099">
        <ele>1060.4714355</ele>
        <time>2010-04-17T13:16:57Z</time>
      </trkpt>
      <trkpt lat="43.77552" lon="6.41118">
        <ele>1059.5102539</ele>
        <time>2010-04-17T13:17:03Z</time>
      </trkpt>
      <trkpt lat="43.77558" lon="6.41121">
        <ele>1059.9907227</ele>
        <time>2010-04-17T13:17:04Z</time>
      </trkpt>
      <trkpt lat="43.7758" lon="6.41135">
        <ele>1059.9907227</ele>
        <time>2010-04-17T13:17:09Z</time>
      </trkpt>
      <trkpt lat="43.77594" lon="6.41145">
        <ele>1062.394043</ele>
        <time>2010-04-17T13:17:15Z</time>
      </trkpt>
      <trkpt lat="43.77606" lon="6.41154">
        <ele>1063.8359375</ele>
        <time>2010-04-17T13:17:21Z</time>
      </trkpt>
      <trkpt lat="43.7762" lon="6.41164">
        <ele>1065.2780762</ele>
        <time>2010-04-17T13:17:27Z</time>
      </trkpt>
      <trkpt lat="43.77629" lon="6.4117">
        <ele>1067.2006836</ele>
        <time>2010-04-17T13:17:32Z</time>
      </trkpt>
      <trkpt lat="43.77632" lon="6.41168">
        <ele>1064.3166504</ele>
        <time>2010-04-17T13:17:37Z</time>
      </trkpt>
      <trkpt lat="43.77626" lon="6.41173">
        <ele>1067.2006836</ele>
        <time>2010-04-17T13:18:35Z</time>
      </trkpt>
      <trkpt lat="43.77625" lon="6.41173">
        <ele>1068.6428223</ele>
        <time>2010-04-17T13:18:50Z</time>
      </trkpt>
      <trkpt lat="43.77624" lon="6.41173">
        <ele>1069.1235352</ele>
        <time>2010-04-17T13:19:02Z</time>
      </trkpt>
      <trkpt lat="43.77625" lon="6.41174">
        <ele>1067.2006836</ele>
        <time>2010-04-17T13:19:20Z</time>
      </trkpt>
      <trkpt lat="43.77625" lon="6.41172">
        <ele>1068.1621094</ele>
        <time>2010-04-17T13:19:38Z</time>
      </trkpt>
      <trkpt lat="43.77625" lon="6.41172">
        <ele>1068.1621094</ele>
        <time>2010-04-17T13:19:49Z</time>
      </trkpt>
      <trkpt lat="43.77626" lon="6.41173">
        <ele>1066.2392578</ele>
        <time>2010-04-17T13:20:04Z</time>
      </trkpt>
      <trkpt lat="43.77627" lon="6.41174">
        <ele>1066.2392578</ele>
        <time>2010-04-17T13:20:18Z</time>
      </trkpt>
      <trkpt lat="43.77628" lon="6.41174">
        <ele>1065.2780762</ele>
        <time>2010-04-17T13:20:19Z</time>
      </trkpt>
      <trkpt lat="43.77642" lon="6.41178">
        <ele>1061.4328613</ele>
        <time>2010-04-17T13:20:25Z</time>
      </trkpt>
      <trkpt lat="43.77645" lon="6.41179">
        <ele>1060.9521484</ele>
        <time>2010-04-17T13:20:26Z</time>
      </trkpt>
      <trkpt lat="43.77661" lon="6.41184">
        <ele>1058.0683594</ele>
        <time>2010-04-17T13:20:30Z</time>
      </trkpt>
      <trkpt lat="43.77684" lon="6.41197">
        <ele>1054.2231445</ele>
        <time>2010-04-17T13:20:34Z</time>
      </trkpt>
      <trkpt lat="43.77717" lon="6.41209">
        <ele>1048.454834</ele>
        <time>2010-04-17T13:20:39Z</time>
      </trkpt>
      <trkpt lat="43.77755" lon="6.41223">
        <ele>1045.090332</ele>
        <time>2010-04-17T13:20:44Z</time>
      </trkpt>
      <trkpt lat="43.77776" lon="6.41232">
        <ele>1044.1291504</ele>
        <time>2010-04-17T13:20:47Z</time>
      </trkpt>
      <trkpt lat="43.77803" lon="6.41246">
        <ele>1040.7644043</ele>
        <time>2010-04-17T13:20:51Z</time>
      </trkpt>
      <trkpt lat="43.77848" lon="6.41258">
        <ele>1039.8032227</ele>
        <time>2010-04-17T13:20:57Z</time>
      </trkpt>
      <trkpt lat="43.77855" lon="6.41259">
        <ele>1039.8032227</ele>
        <time>2010-04-17T13:20:58Z</time>
      </trkpt>
      <trkpt lat="43.77867" lon="6.41261">
        <ele>1039.8032227</ele>
        <time>2010-04-17T13:21:00Z</time>
      </trkpt>
      <trkpt lat="43.7789" lon="6.4127">
        <ele>1040.2839355</ele>
        <time>2010-04-17T13:21:05Z</time>
      </trkpt>
      <trkpt lat="43.7792" lon="6.4128">
        <ele>1039.3225098</ele>
        <time>2010-04-17T13:21:11Z</time>
      </trkpt>
      <trkpt lat="43.77934" lon="6.4128">
        <ele>1039.3225098</ele>
        <time>2010-04-17T13:21:14Z</time>
      </trkpt>
      <trkpt lat="43.77947" lon="6.41279">
        <ele>1038.842041</ele>
        <time>2010-04-17T13:21:17Z</time>
      </trkpt>
      <trkpt lat="43.77957" lon="6.4129">
        <ele>1039.8032227</ele>
        <time>2010-04-17T13:21:20Z</time>
      </trkpt>
      <trkpt lat="43.77955" lon="6.41308">
        <ele>1041.2451172</ele>
        <time>2010-04-17T13:21:23Z</time>
      </trkpt>
      <trkpt lat="43.7795" lon="6.41323">
        <ele>1043.1677246</ele>
        <time>2010-04-17T13:21:26Z</time>
      </trkpt>
      <trkpt lat="43.77946" lon="6.41354">
        <ele>1047.0129395</ele>
        <time>2010-04-17T13:21:31Z</time>
      </trkpt>
      <trkpt lat="43.77953" lon="6.41374">
        <ele>1045.090332</ele>
        <time>2010-04-17T13:21:36Z</time>
      </trkpt>
      <trkpt lat="43.77953" lon="6.4138">
        <ele>1045.5710449</ele>
        <time>2010-04-17T13:21:37Z</time>
      </trkpt>
      <trkpt lat="43.77952" lon="6.41403">
        <ele>1042.206543</ele>
        <time>2010-04-17T13:21:43Z</time>
      </trkpt>
      <trkpt lat="43.77945" lon="6.41417">
        <ele>1042.206543</ele>
        <time>2010-04-17T13:21:50Z</time>
      </trkpt>
      <trkpt lat="43.77944" lon="6.4142">
        <ele>1043.1677246</ele>
        <time>2010-04-17T13:21:51Z</time>
      </trkpt>
      <trkpt lat="43.77956" lon="6.41438">
        <ele>1045.5710449</ele>
        <time>2010-04-17T13:21:57Z</time>
      </trkpt>
      <trkpt lat="43.77978" lon="6.41457">
        <ele>1044.1291504</ele>
        <time>2010-04-17T13:22:03Z</time>
      </trkpt>
      <trkpt lat="43.77999" lon="6.41471">
        <ele>1044.6096191</ele>
        <time>2010-04-17T13:22:08Z</time>
      </trkpt>
      <trkpt lat="43.78036" lon="6.41492">
        <ele>1036.9191895</ele>
        <time>2010-04-17T13:22:16Z</time>
      </trkpt>
      <trkpt lat="43.78072" lon="6.41514">
        <ele>1034.0351562</ele>
        <time>2010-04-17T13:22:23Z</time>
      </trkpt>
      <trkpt lat="43.78078" lon="6.41517">
        <ele>1033.5544434</ele>
        <time>2010-04-17T13:22:24Z</time>
      </trkpt>
      <trkpt lat="43.78112" lon="6.41542">
        <ele>1027.3061523</ele>
        <time>2010-04-17T13:22:30Z</time>
      </trkpt>
      <trkpt lat="43.78127" lon="6.41555">
        <ele>1023.4609375</ele>
        <time>2010-04-17T13:22:34Z</time>
      </trkpt>
      <trkpt lat="43.78123" lon="6.41565">
        <ele>1022.4995117</ele>
        <time>2010-04-17T13:22:37Z</time>
      </trkpt>
      <trkpt lat="43.78118" lon="6.41566">
        <ele>1023.4609375</ele>
        <time>2010-04-17T13:22:38Z</time>
      </trkpt>
      <trkpt lat="43.78098" lon="6.41574">
        <ele>1023.4609375</ele>
        <time>2010-04-17T13:22:42Z</time>
      </trkpt>
      <trkpt lat="43.78062" lon="6.41603">
        <ele>1018.1733398</ele>
        <time>2010-04-17T13:22:48Z</time>
      </trkpt>
      <trkpt lat="43.78015" lon="6.41635">
        <ele>1015.2895508</ele>
        <time>2010-04-17T13:22:54Z</time>
      </trkpt>
      <trkpt lat="43.77967" lon="6.41667">
        <ele>1009.5217285</ele>
        <time>2010-04-17T13:23:00Z</time>
      </trkpt>
      <trkpt lat="43.77926" lon="6.417">
        <ele>1003.2729492</ele>
        <time>2010-04-17T13:23:06Z</time>
      </trkpt>
      <trkpt lat="43.77892" lon="6.41736">
        <ele>999.4277344</ele>
        <time>2010-04-17T13:23:11Z</time>
      </trkpt>
      <trkpt lat="43.77877" lon="6.41749">
        <ele>997.505127</ele>
        <time>2010-04-17T13:23:13Z</time>
      </trkpt>
      <trkpt lat="43.77841" lon="6.41788">
        <ele>996.5439453</ele>
        <time>2010-04-17T13:23:18Z</time>
      </trkpt>
      <trkpt lat="43.77818" lon="6.41823">
        <ele>989.8146973</ele>
        <time>2010-04-17T13:23:22Z</time>
      </trkpt>
      <trkpt lat="43.7779" lon="6.4187">
        <ele>983.0852051</ele>
        <time>2010-04-17T13:23:27Z</time>
      </trkpt>
      <trkpt lat="43.77775" lon="6.41899">
        <ele>978.7595215</ele>
        <time>2010-04-17T13:23:30Z</time>
      </trkpt>
      <trkpt lat="43.77747" lon="6.41927">
        <ele>977.317627</ele>
        <time>2010-04-17T13:23:34Z</time>
      </trkpt>
      <trkpt lat="43.77703" lon="6.41959">
        <ele>972.0302734</ele>
        <time>2010-04-17T13:23:40Z</time>
      </trkpt>
      <trkpt lat="43.77664" lon="6.41988">
        <ele>969.1462402</ele>
        <time>2010-04-17T13:23:45Z</time>
      </trkpt>
      <trkpt lat="43.77641" lon="6.42016">
        <ele>964.3395996</ele>
        <time>2010-04-17T13:23:49Z</time>
      </trkpt>
      <trkpt lat="43.77637" lon="6.42024">
        <ele>962.8977051</ele>
        <time>2010-04-17T13:23:50Z</time>
      </trkpt>
      <trkpt lat="43.77619" lon="6.42076">
        <ele>958.0913086</ele>
        <time>2010-04-17T13:23:55Z</time>
      </trkpt>
      <trkpt lat="43.77603" lon="6.42099">
        <ele>954.7263184</ele>
        <time>2010-04-17T13:23:58Z</time>
      </trkpt>
      <trkpt lat="43.77591" lon="6.42112">
        <ele>952.322998</ele>
        <time>2010-04-17T13:24:01Z</time>
      </trkpt>
      <trkpt lat="43.77589" lon="6.42119">
        <ele>949.439209</ele>
        <time>2010-04-17T13:24:04Z</time>
      </trkpt>
      <trkpt lat="43.77586" lon="6.42119">
        <ele>942.2294922</ele>
        <time>2010-04-17T13:24:12Z</time>
      </trkpt>
      <trkpt lat="43.77584" lon="6.42119">
        <ele>942.7102051</ele>
        <time>2010-04-17T13:24:16Z</time>
      </trkpt>
      <trkpt lat="43.77574" lon="6.42126">
        <ele>947.5166016</ele>
        <time>2010-04-17T13:24:22Z</time>
      </trkpt>
      <trkpt lat="43.77574" lon="6.42142">
        <ele>947.0358887</ele>
        <time>2010-04-17T13:24:26Z</time>
      </trkpt>
      <trkpt lat="43.77576" lon="6.42161">
        <ele>944.6325684</ele>
        <time>2010-04-17T13:24:29Z</time>
      </trkpt>
      <trkpt lat="43.77564" lon="6.42189">
        <ele>943.6713867</ele>
        <time>2010-04-17T13:24:35Z</time>
      </trkpt>
      <trkpt lat="43.77558" lon="6.42196">
        <ele>945.1132812</ele>
        <time>2010-04-17T13:24:37Z</time>
      </trkpt>
      <trkpt lat="43.77543" lon="6.42224">
        <ele>942.7102051</ele>
        <time>2010-04-17T13:24:43Z</time>
      </trkpt>
      <trkpt lat="43.77537" lon="6.42238">
        <ele>939.8259277</ele>
        <time>2010-04-17T13:24:46Z</time>
      </trkpt>
      <trkpt lat="43.77534" lon="6.42242">
        <ele>940.7873535</ele>
        <time>2010-04-17T13:24:47Z</time>
      </trkpt>
      <trkpt lat="43.77526" lon="6.42251">
        <ele>939.3452148</ele>
        <time>2010-04-17T13:24:49Z</time>
      </trkpt>
      <trkpt lat="43.77514" lon="6.42273">
        <ele>935.5</ele>
        <time>2010-04-17T13:24:53Z</time>
      </trkpt>
      <trkpt lat="43.77506" lon="6.4228">
        <ele>934.0581055</ele>
        <time>2010-04-17T13:24:56Z</time>
      </trkpt>
      <trkpt lat="43.77486" lon="6.42308">
        <ele>932.135498</ele>
        <time>2010-04-17T13:25:01Z</time>
      </trkpt>
      <trkpt lat="43.77469" lon="6.42332">
        <ele>927.8095703</ele>
        <time>2010-04-17T13:25:06Z</time>
      </trkpt>
      <trkpt lat="43.77459" lon="6.42341">
        <ele>926.3676758</ele>
        <time>2010-04-17T13:25:08Z</time>
      </trkpt>
      <trkpt lat="43.77442" lon="6.42364">
        <ele>923.9641113</ele>
        <time>2010-04-17T13:25:13Z</time>
      </trkpt>
      <trkpt lat="43.77426" lon="6.42364">
        <ele>924.9257812</ele>
        <time>2010-04-17T13:25:19Z</time>
      </trkpt>
      <trkpt lat="43.77421" lon="6.42363">
        <ele>927.3291016</ele>
        <time>2010-04-17T13:25:24Z</time>
      </trkpt>
      <trkpt lat="43.77418" lon="6.4236">
        <ele>929.2514648</ele>
        <time>2010-04-17T13:25:30Z</time>
      </trkpt>
      <trkpt lat="43.77407" lon="6.42354">
        <ele>931.6547852</ele>
        <time>2010-04-17T13:25:38Z</time>
      </trkpt>
      <trkpt lat="43.77398" lon="6.42349">
        <ele>933.0966797</ele>
        <time>2010-04-17T13:25:45Z</time>
      </trkpt>
      <trkpt lat="43.7739" lon="6.42347">
        <ele>930.6936035</ele>
        <time>2010-04-17T13:25:52Z</time>
      </trkpt>
      <trkpt lat="43.77378" lon="6.42343">
        <ele>928.7709961</ele>
        <time>2010-04-17T13:25:58Z</time>
      </trkpt>
      <trkpt lat="43.77362" lon="6.42345">
        <ele>933.0966797</ele>
        <time>2010-04-17T13:26:04Z</time>
      </trkpt>
      <trkpt lat="43.77346" lon="6.42348">
        <ele>936.4614258</ele>
        <time>2010-04-17T13:26:10Z</time>
      </trkpt>
      <trkpt lat="43.77332" lon="6.42358">
        <ele>935.9807129</ele>
        <time>2010-04-17T13:26:15Z</time>
      </trkpt>
      <trkpt lat="43.77321" lon="6.4237">
        <ele>936.9418945</ele>
        <time>2010-04-17T13:26:19Z</time>
      </trkpt>
      <trkpt lat="43.77303" lon="6.42378">
        <ele>934.5388184</ele>
        <time>2010-04-17T13:26:24Z</time>
      </trkpt>
      <trkpt lat="43.77282" lon="6.42386">
        <ele>934.0581055</ele>
        <time>2010-04-17T13:26:30Z</time>
      </trkpt>
      <trkpt lat="43.77264" lon="6.42395">
        <ele>929.7321777</ele>
        <time>2010-04-17T13:26:36Z</time>
      </trkpt>
      <trkpt lat="43.77249" lon="6.42405">
        <ele>927.8095703</ele>
        <time>2010-04-17T13:26:41Z</time>
      </trkpt>
      <trkpt lat="43.77227" lon="6.42415">
        <ele>927.3291016</ele>
        <time>2010-04-17T13:26:47Z</time>
      </trkpt>
      <trkpt lat="43.77216" lon="6.4242">
        <ele>926.3676758</ele>
        <time>2010-04-17T13:26:50Z</time>
      </trkpt>
      <trkpt lat="43.77197" lon="6.42416">
        <ele>925.8869629</ele>
        <time>2010-04-17T13:26:55Z</time>
      </trkpt>
      <trkpt lat="43.77179" lon="6.42411">
        <ele>928.7709961</ele>
        <time>2010-04-17T13:27:03Z</time>
      </trkpt>
      <trkpt lat="43.77169" lon="6.4241">
        <ele>928.2902832</ele>
        <time>2010-04-17T13:27:08Z</time>
      </trkpt>
      <trkpt lat="43.77158" lon="6.42406">
        <ele>929.7321777</ele>
        <time>2010-04-17T13:27:13Z</time>
      </trkpt>
      <trkpt lat="43.77145" lon="6.42407">
        <ele>929.2514648</ele>
        <time>2010-04-17T13:27:19Z</time>
      </trkpt>
      <trkpt lat="43.77142" lon="6.42408">
        <ele>928.7709961</ele>
        <time>2010-04-17T13:27:24Z</time>
      </trkpt>
      <trkpt lat="43.77141" lon="6.42406">
        <ele>928.2902832</ele>
        <time>2010-04-17T13:27:26Z</time>
      </trkpt>
      <trkpt lat="43.77137" lon="6.42405">
        <ele>929.2514648</ele>
        <time>2010-04-17T13:27:32Z</time>
      </trkpt>
      <trkpt lat="43.77137" lon="6.42405">
        <ele>930.2128906</ele>
        <time>2010-04-17T13:27:34Z</time>
      </trkpt>
      <trkpt lat="43.77126" lon="6.42397">
        <ele>933.0966797</ele>
        <time>2010-04-17T13:27:41Z</time>
      </trkpt>
      <trkpt lat="43.77116" lon="6.4239">
        <ele>933.5773926</ele>
        <time>2010-04-17T13:27:46Z</time>
      </trkpt>
      <trkpt lat="43.77113" lon="6.42389">
        <ele>933.0966797</ele>
        <time>2010-04-17T13:27:48Z</time>
      </trkpt>
      <trkpt lat="43.77101" lon="6.42375">
        <ele>934.0581055</ele>
        <time>2010-04-17T13:27:54Z</time>
      </trkpt>
      <trkpt lat="43.77087" lon="6.42371">
        <ele>935.9807129</ele>
        <time>2010-04-17T13:27:59Z</time>
      </trkpt>
      <trkpt lat="43.77072" lon="6.42376">
        <ele>934.0581055</ele>
        <time>2010-04-17T13:28:04Z</time>
      </trkpt>
      <trkpt lat="43.7706" lon="6.42383">
        <ele>931.1743164</ele>
        <time>2010-04-17T13:28:09Z</time>
      </trkpt>
      <trkpt lat="43.77058" lon="6.42385">
        <ele>929.2514648</ele>
        <time>2010-04-17T13:28:17Z</time>
      </trkpt>
      <trkpt lat="43.77056" lon="6.42385">
        <ele>929.2514648</ele>
        <time>2010-04-17T13:28:18Z</time>
      </trkpt>
      <trkpt lat="43.77047" lon="6.42391">
        <ele>926.8483887</ele>
        <time>2010-04-17T13:28:26Z</time>
      </trkpt>
      <trkpt lat="43.77043" lon="6.42395">
        <ele>925.8869629</ele>
        <time>2010-04-17T13:28:28Z</time>
      </trkpt>
      <trkpt lat="43.77034" lon="6.424">
        <ele>925.8869629</ele>
        <time>2010-04-17T13:28:33Z</time>
      </trkpt>
      <trkpt lat="43.77032" lon="6.42403">
        <ele>925.40625</ele>
        <time>2010-04-17T13:28:34Z</time>
      </trkpt>
      <trkpt lat="43.77014" lon="6.42418">
        <ele>927.8095703</ele>
        <time>2010-04-17T13:28:41Z</time>
      </trkpt>
      <trkpt lat="43.77001" lon="6.42432">
        <ele>930.6936035</ele>
        <time>2010-04-17T13:28:47Z</time>
      </trkpt>
      <trkpt lat="43.76992" lon="6.42443">
        <ele>934.0581055</ele>
        <time>2010-04-17T13:28:52Z</time>
      </trkpt>
      <trkpt lat="43.76986" lon="6.42459">
        <ele>932.6162109</ele>
        <time>2010-04-17T13:28:57Z</time>
      </trkpt>
      <trkpt lat="43.76978" lon="6.4247">
        <ele>933.5773926</ele>
        <time>2010-04-17T13:29:01Z</time>
      </trkpt>
      <trkpt lat="43.76965" lon="6.42483">
        <ele>936.4614258</ele>
        <time>2010-04-17T13:29:08Z</time>
      </trkpt>
      <trkpt lat="43.76956" lon="6.42499">
        <ele>939.3452148</ele>
        <time>2010-04-17T13:29:13Z</time>
      </trkpt>
      <trkpt lat="43.76943" lon="6.42517">
        <ele>942.2294922</ele>
        <time>2010-04-17T13:29:19Z</time>
      </trkpt>
      <trkpt lat="43.76936" lon="6.42526">
        <ele>941.2680664</ele>
        <time>2010-04-17T13:29:23Z</time>
      </trkpt>
      <trkpt lat="43.76928" lon="6.42537">
        <ele>938.3840332</ele>
        <time>2010-04-17T13:29:28Z</time>
      </trkpt>
      <trkpt lat="43.76925" lon="6.42539">
        <ele>937.4226074</ele>
        <time>2010-04-17T13:29:30Z</time>
      </trkpt>
      <trkpt lat="43.76914" lon="6.4255">
        <ele>937.9033203</ele>
        <time>2010-04-17T13:29:36Z</time>
      </trkpt>
      <trkpt lat="43.76909" lon="6.42556">
        <ele>936.9418945</ele>
        <time>2010-04-17T13:29:41Z</time>
      </trkpt>
      <trkpt lat="43.76906" lon="6.42557">
        <ele>934.0581055</ele>
        <time>2010-04-17T13:29:46Z</time>
      </trkpt>
      <trkpt lat="43.76903" lon="6.42557">
        <ele>932.6162109</ele>
        <time>2010-04-17T13:29:51Z</time>
      </trkpt>
      <trkpt lat="43.76895" lon="6.42566">
        <ele>931.6547852</ele>
        <time>2010-04-17T13:29:58Z</time>
      </trkpt>
      <trkpt lat="43.76893" lon="6.42569">
        <ele>930.2128906</ele>
        <time>2010-04-17T13:30:02Z</time>
      </trkpt>
      <trkpt lat="43.76886" lon="6.42581">
        <ele>930.6936035</ele>
        <time>2010-04-17T13:30:07Z</time>
      </trkpt>
      <trkpt lat="43.76877" lon="6.42592">
        <ele>931.6547852</ele>
        <time>2010-04-17T13:30:12Z</time>
      </trkpt>
      <trkpt lat="43.76872" lon="6.42605">
        <ele>931.1743164</ele>
        <time>2010-04-17T13:30:16Z</time>
      </trkpt>
      <trkpt lat="43.76865" lon="6.4262">
        <ele>932.135498</ele>
        <time>2010-04-17T13:30:23Z</time>
      </trkpt>
      <trkpt lat="43.76861" lon="6.42626">
        <ele>934.0581055</ele>
        <time>2010-04-17T13:30:27Z</time>
      </trkpt>
      <trkpt lat="43.76852" lon="6.42635">
        <ele>933.5773926</ele>
        <time>2010-04-17T13:30:34Z</time>
      </trkpt>
      <trkpt lat="43.76843" lon="6.42647">
        <ele>936.9418945</ele>
        <time>2010-04-17T13:30:40Z</time>
      </trkpt>
      <trkpt lat="43.76832" lon="6.42656">
        <ele>935.5</ele>
        <time>2010-04-17T13:30:45Z</time>
      </trkpt>
      <trkpt lat="43.76819" lon="6.42672">
        <ele>933.0966797</ele>
        <time>2010-04-17T13:30:51Z</time>
      </trkpt>
      <trkpt lat="43.76806" lon="6.4269">
        <ele>936.9418945</ele>
        <time>2010-04-17T13:30:58Z</time>
      </trkpt>
      <trkpt lat="43.76797" lon="6.42701">
        <ele>940.7873535</ele>
        <time>2010-04-17T13:31:03Z</time>
      </trkpt>
      <trkpt lat="43.76791" lon="6.42705">
        <ele>941.7487793</ele>
        <time>2010-04-17T13:31:08Z</time>
      </trkpt>
      <trkpt lat="43.76788" lon="6.42707">
        <ele>940.3068848</ele>
        <time>2010-04-17T13:31:13Z</time>
      </trkpt>
      <trkpt lat="43.76783" lon="6.42711">
        <ele>938.3840332</ele>
        <time>2010-04-17T13:31:19Z</time>
      </trkpt>
      <trkpt lat="43.76775" lon="6.42719">
        <ele>937.9033203</ele>
        <time>2010-04-17T13:31:25Z</time>
      </trkpt>
      <trkpt lat="43.76771" lon="6.42724">
        <ele>939.8259277</ele>
        <time>2010-04-17T13:31:29Z</time>
      </trkpt>
      <trkpt lat="43.76762" lon="6.42736">
        <ele>942.2294922</ele>
        <time>2010-04-17T13:31:36Z</time>
      </trkpt>
      <trkpt lat="43.76752" lon="6.42742">
        <ele>944.6325684</ele>
        <time>2010-04-17T13:31:42Z</time>
      </trkpt>
      <trkpt lat="43.76748" lon="6.42743">
        <ele>945.1132812</ele>
        <time>2010-04-17T13:31:44Z</time>
      </trkpt>
      <trkpt lat="43.76741" lon="6.4275">
        <ele>946.074707</ele>
        <time>2010-04-17T13:31:49Z</time>
      </trkpt>
      <trkpt lat="43.76735" lon="6.42755">
        <ele>946.074707</ele>
        <time>2010-04-17T13:31:54Z</time>
      </trkpt>
      <trkpt lat="43.76732" lon="6.42756">
        <ele>945.5939941</ele>
        <time>2010-04-17T13:31:56Z</time>
      </trkpt>
      <trkpt lat="43.76722" lon="6.42766">
        <ele>947.5166016</ele>
        <time>2010-04-17T13:32:02Z</time>
      </trkpt>
      <trkpt lat="43.76712" lon="6.42775">
        <ele>947.5166016</ele>
        <time>2010-04-17T13:32:08Z</time>
      </trkpt>
      <trkpt lat="43.76701" lon="6.42786">
        <ele>948.4777832</ele>
        <time>2010-04-17T13:32:15Z</time>
      </trkpt>
      <trkpt lat="43.76691" lon="6.42804">
        <ele>950.4006348</ele>
        <time>2010-04-17T13:32:22Z</time>
      </trkpt>
      <trkpt lat="43.76678" lon="6.42824">
        <ele>949.9199219</ele>
        <time>2010-04-17T13:32:28Z</time>
      </trkpt>
      <trkpt lat="43.76662" lon="6.42845">
        <ele>949.439209</ele>
        <time>2010-04-17T13:32:34Z</time>
      </trkpt>
      <trkpt lat="43.76646" lon="6.42857">
        <ele>949.439209</ele>
        <time>2010-04-17T13:32:39Z</time>
      </trkpt>
      <trkpt lat="43.76636" lon="6.42868">
        <ele>948.4777832</ele>
        <time>2010-04-17T13:32:43Z</time>
      </trkpt>
      <trkpt lat="43.76626" lon="6.42898">
        <ele>945.1132812</ele>
        <time>2010-04-17T13:32:50Z</time>
      </trkpt>
      <trkpt lat="43.76622" lon="6.42909">
        <ele>943.6713867</ele>
        <time>2010-04-17T13:32:52Z</time>
      </trkpt>
      <trkpt lat="43.76609" lon="6.42934">
        <ele>940.7873535</ele>
        <time>2010-04-17T13:32:56Z</time>
      </trkpt>
      <trkpt lat="43.76591" lon="6.42962">
        <ele>937.9033203</ele>
        <time>2010-04-17T13:33:01Z</time>
      </trkpt>
      <trkpt lat="43.76579" lon="6.42985">
        <ele>935.5</ele>
        <time>2010-04-17T13:33:05Z</time>
      </trkpt>
      <trkpt lat="43.76563" lon="6.43002">
        <ele>935.9807129</ele>
        <time>2010-04-17T13:33:10Z</time>
      </trkpt>
      <trkpt lat="43.7655" lon="6.43012">
        <ele>935.9807129</ele>
        <time>2010-04-17T13:33:13Z</time>
      </trkpt>
      <trkpt lat="43.76537" lon="6.43032">
        <ele>938.8647461</ele>
        <time>2010-04-17T13:33:18Z</time>
      </trkpt>
      <trkpt lat="43.76536" lon="6.43035">
        <ele>940.7873535</ele>
        <time>2010-04-17T13:33:19Z</time>
      </trkpt>
      <trkpt lat="43.76527" lon="6.43053">
        <ele>940.3068848</ele>
        <time>2010-04-17T13:33:23Z</time>
      </trkpt>
      <trkpt lat="43.76521" lon="6.43084">
        <ele>943.6713867</ele>
        <time>2010-04-17T13:33:29Z</time>
      </trkpt>
      <trkpt lat="43.76518" lon="6.43094">
        <ele>940.7873535</ele>
        <time>2010-04-17T13:33:31Z</time>
      </trkpt>
      <trkpt lat="43.76509" lon="6.4311">
        <ele>934.5388184</ele>
        <time>2010-04-17T13:33:34Z</time>
      </trkpt>
      <trkpt lat="43.76501" lon="6.43145">
        <ele>930.2128906</ele>
        <time>2010-04-17T13:33:39Z</time>
      </trkpt>
      <trkpt lat="43.76496" lon="6.43173">
        <ele>931.1743164</ele>
        <time>2010-04-17T13:33:42Z</time>
      </trkpt>
      <trkpt lat="43.7649" lon="6.43205">
        <ele>926.8483887</ele>
        <time>2010-04-17T13:33:45Z</time>
      </trkpt>
      <trkpt lat="43.76479" lon="6.43238">
        <ele>924.4450684</ele>
        <time>2010-04-17T13:33:49Z</time>
      </trkpt>
      <trkpt lat="43.76469" lon="6.43272">
        <ele>923.4836426</ele>
        <time>2010-04-17T13:33:53Z</time>
      </trkpt>
      <trkpt lat="43.76455" lon="6.43292">
        <ele>924.4450684</ele>
        <time>2010-04-17T13:33:57Z</time>
      </trkpt>
      <trkpt lat="43.76444" lon="6.43305">
        <ele>924.9257812</ele>
        <time>2010-04-17T13:34:02Z</time>
      </trkpt>
      <trkpt lat="43.76433" lon="6.43315">
        <ele>925.40625</ele>
        <time>2010-04-17T13:34:08Z</time>
      </trkpt>
      <trkpt lat="43.76427" lon="6.43325">
        <ele>922.5222168</ele>
        <time>2010-04-17T13:34:12Z</time>
      </trkpt>
      <trkpt lat="43.76418" lon="6.43325">
        <ele>921.0803223</ele>
        <time>2010-04-17T13:34:16Z</time>
      </trkpt>
      <trkpt lat="43.76408" lon="6.43313">
        <ele>921.0803223</ele>
        <time>2010-04-17T13:34:22Z</time>
      </trkpt>
      <trkpt lat="43.76395" lon="6.43305">
        <ele>922.0415039</ele>
        <time>2010-04-17T13:34:27Z</time>
      </trkpt>
      <trkpt lat="43.76392" lon="6.43304">
        <ele>922.5222168</ele>
        <time>2010-04-17T13:34:28Z</time>
      </trkpt>
      <trkpt lat="43.7638" lon="6.43309">
        <ele>922.5222168</ele>
        <time>2010-04-17T13:34:33Z</time>
      </trkpt>
      <trkpt lat="43.76365" lon="6.4332">
        <ele>922.0415039</ele>
        <time>2010-04-17T13:34:39Z</time>
      </trkpt>
      <trkpt lat="43.7635" lon="6.43341">
        <ele>920.1188965</ele>
        <time>2010-04-17T13:34:45Z</time>
      </trkpt>
      <trkpt lat="43.7634" lon="6.43355">
        <ele>918.677002</ele>
        <time>2010-04-17T13:34:49Z</time>
      </trkpt>
      <trkpt lat="43.76332" lon="6.43374">
        <ele>914.3510742</ele>
        <time>2010-04-17T13:34:54Z</time>
      </trkpt>
      <trkpt lat="43.76327" lon="6.43392">
        <ele>908.1027832</ele>
        <time>2010-04-17T13:34:58Z</time>
      </trkpt>
      <trkpt lat="43.76322" lon="6.43413">
        <ele>904.2573242</ele>
        <time>2010-04-17T13:35:02Z</time>
      </trkpt>
      <trkpt lat="43.76322" lon="6.43425">
        <ele>900.8925781</ele>
        <time>2010-04-17T13:35:04Z</time>
      </trkpt>
      <trkpt lat="43.7632" lon="6.43454">
        <ele>896.5668945</ele>
        <time>2010-04-17T13:35:09Z</time>
      </trkpt>
      <trkpt lat="43.76313" lon="6.43468">
        <ele>892.7216797</ele>
        <time>2010-04-17T13:35:14Z</time>
      </trkpt>
      <trkpt lat="43.7631" lon="6.43476">
        <ele>890.3181152</ele>
        <time>2010-04-17T13:35:16Z</time>
      </trkpt>
      <trkpt lat="43.76304" lon="6.43484">
        <ele>888.3955078</ele>
        <time>2010-04-17T13:35:18Z</time>
      </trkpt>
      <trkpt lat="43.76285" lon="6.43483">
        <ele>887.9147949</ele>
        <time>2010-04-17T13:35:22Z</time>
      </trkpt>
      <trkpt lat="43.76271" lon="6.43479">
        <ele>887.9147949</ele>
        <time>2010-04-17T13:35:25Z</time>
      </trkpt>
      <trkpt lat="43.76257" lon="6.43491">
        <ele>886.4729004</ele>
        <time>2010-04-17T13:35:30Z</time>
      </trkpt>
      <trkpt lat="43.76247" lon="6.43551">
        <ele>875.4174805</ele>
        <time>2010-04-17T13:35:38Z</time>
      </trkpt>
      <trkpt lat="43.76245" lon="6.43569">
        <ele>872.5336914</ele>
        <time>2010-04-17T13:35:40Z</time>
      </trkpt>
      <trkpt lat="43.76241" lon="6.43586">
        <ele>870.1303711</ele>
        <time>2010-04-17T13:35:42Z</time>
      </trkpt>
      <trkpt lat="43.76236" lon="6.43611">
        <ele>867.246582</ele>
        <time>2010-04-17T13:35:45Z</time>
      </trkpt>
      <trkpt lat="43.76233" lon="6.43637">
        <ele>861.4787598</ele>
        <time>2010-04-17T13:35:48Z</time>
      </trkpt>
      <trkpt lat="43.76231" lon="6.43653">
        <ele>859.5559082</ele>
        <time>2010-04-17T13:35:50Z</time>
      </trkpt>
      <trkpt lat="43.76225" lon="6.4368">
        <ele>853.7880859</ele>
        <time>2010-04-17T13:35:55Z</time>
      </trkpt>
      <trkpt lat="43.76221" lon="6.43683">
        <ele>856.1911621</ele>
        <time>2010-04-17T13:35:58Z</time>
      </trkpt>
      <trkpt lat="43.7622" lon="6.43698">
        <ele>853.7880859</ele>
        <time>2010-04-17T13:36:04Z</time>
      </trkpt>
      <trkpt lat="43.76216" lon="6.43705">
        <ele>852.3459473</ele>
        <time>2010-04-17T13:36:06Z</time>
      </trkpt>
      <trkpt lat="43.76212" lon="6.43724">
        <ele>849.4621582</ele>
        <time>2010-04-17T13:36:12Z</time>
      </trkpt>
      <trkpt lat="43.76212" lon="6.43734">
        <ele>847.5395508</ele>
        <time>2010-04-17T13:36:16Z</time>
      </trkpt>
      <trkpt lat="43.76216" lon="6.43731">
        <ele>842.2521973</ele>
        <time>2010-04-17T13:36:25Z</time>
      </trkpt>
      <trkpt lat="43.76213" lon="6.43732">
        <ele>843.2133789</ele>
        <time>2010-04-17T13:36:36Z</time>
      </trkpt>
      <trkpt lat="43.7621" lon="6.43734">
        <ele>846.5783691</ele>
        <time>2010-04-17T13:36:48Z</time>
      </trkpt>
      <trkpt lat="43.76206" lon="6.43735">
        <ele>851.3847656</ele>
        <time>2010-04-17T13:36:55Z</time>
      </trkpt>
      <trkpt lat="43.76205" lon="6.43735">
        <ele>853.307373</ele>
        <time>2010-04-17T13:37:02Z</time>
      </trkpt>
      <trkpt lat="43.76205" lon="6.43735">
        <ele>853.307373</ele>
        <time>2010-04-17T13:37:33Z</time>
      </trkpt>
      <trkpt lat="43.76205" lon="6.43736">
        <ele>855.7106934</ele>
        <time>2010-04-17T13:37:49Z</time>
      </trkpt>
      <trkpt lat="43.76205" lon="6.43736">
        <ele>856.671875</ele>
        <time>2010-04-17T13:38:09Z</time>
      </trkpt>
      <trkpt lat="43.76205" lon="6.43736">
        <ele>857.1525879</ele>
        <time>2010-04-17T13:38:18Z</time>
      </trkpt>
      <trkpt lat="43.76205" lon="6.43734">
        <ele>857.6333008</ele>
        <time>2010-04-17T13:38:26Z</time>
      </trkpt>
      <trkpt lat="43.76207" lon="6.43734">
        <ele>854.7492676</ele>
        <time>2010-04-17T13:38:40Z</time>
      </trkpt>
      <trkpt lat="43.76208" lon="6.43734">
        <ele>853.307373</ele>
        <time>2010-04-17T13:38:46Z</time>
      </trkpt>
      <trkpt lat="43.76209" lon="6.43733">
        <ele>852.8266602</ele>
        <time>2010-04-17T13:38:53Z</time>
      </trkpt>
      <trkpt lat="43.7621" lon="6.43732">
        <ele>850.9040527</ele>
        <time>2010-04-17T13:39:05Z</time>
      </trkpt>
      <trkpt lat="43.76209" lon="6.43734">
        <ele>848.9814453</ele>
        <time>2010-04-17T13:39:08Z</time>
      </trkpt>
      <trkpt lat="43.76206" lon="6.43737">
        <ele>846.5783691</ele>
        <time>2010-04-17T13:39:12Z</time>
      </trkpt>
      <trkpt lat="43.76202" lon="6.4374">
        <ele>845.6169434</ele>
        <time>2010-04-17T13:39:17Z</time>
      </trkpt>
      <trkpt lat="43.76202" lon="6.43739">
        <ele>846.0976562</ele>
        <time>2010-04-17T13:39:19Z</time>
      </trkpt>
      <trkpt lat="43.76204" lon="6.4374">
        <ele>847.5395508</ele>
        <time>2010-04-17T13:39:26Z</time>
      </trkpt>
      <trkpt lat="43.76207" lon="6.4374">
        <ele>846.0976562</ele>
        <time>2010-04-17T13:39:36Z</time>
      </trkpt>
      <trkpt lat="43.76211" lon="6.43741">
        <ele>845.1362305</ele>
        <time>2010-04-17T13:39:46Z</time>
      </trkpt>
      <trkpt lat="43.76213" lon="6.43744">
        <ele>844.6555176</ele>
        <time>2010-04-17T13:39:48Z</time>
      </trkpt>
      <trkpt lat="43.76215" lon="6.43749">
        <ele>844.6555176</ele>
        <time>2010-04-17T13:39:53Z</time>
      </trkpt>
      <trkpt lat="43.76214" lon="6.4375">
        <ele>844.6555176</ele>
        <time>2010-04-17T13:39:59Z</time>
      </trkpt>
      <trkpt lat="43.76211" lon="6.43757">
        <ele>846.0976562</ele>
        <time>2010-04-17T13:40:03Z</time>
      </trkpt>
      <trkpt lat="43.76204" lon="6.43777">
        <ele>841.7714844</ele>
        <time>2010-04-17T13:40:09Z</time>
      </trkpt>
      <trkpt lat="43.76203" lon="6.43781">
        <ele>840.3295898</ele>
        <time>2010-04-17T13:40:10Z</time>
      </trkpt>
      <trkpt lat="43.762" lon="6.43804">
        <ele>837.9262695</ele>
        <time>2010-04-17T13:40:14Z</time>
      </trkpt>
      <trkpt lat="43.76197" lon="6.43834">
        <ele>836.9648438</ele>
        <time>2010-04-17T13:40:19Z</time>
      </trkpt>
      <trkpt lat="43.76196" lon="6.43866">
        <ele>834.5617676</ele>
        <time>2010-04-17T13:40:25Z</time>
      </trkpt>
      <trkpt lat="43.76197" lon="6.43878">
        <ele>833.6003418</ele>
        <time>2010-04-17T13:40:27Z</time>
      </trkpt>
      <trkpt lat="43.76197" lon="6.43926">
        <ele>830.7165527</ele>
        <time>2010-04-17T13:40:34Z</time>
      </trkpt>
      <trkpt lat="43.76196" lon="6.4394">
        <ele>827.3518066</ele>
        <time>2010-04-17T13:40:37Z</time>
      </trkpt>
      <trkpt lat="43.76194" lon="6.43957">
        <ele>822.545166</ele>
        <time>2010-04-17T13:40:41Z</time>
      </trkpt>
      <trkpt lat="43.76176" lon="6.43971">
        <ele>818.6999512</ele>
        <time>2010-04-17T13:40:46Z</time>
      </trkpt>
      <trkpt lat="43.76167" lon="6.43977">
        <ele>816.7773438</ele>
        <time>2010-04-17T13:40:49Z</time>
      </trkpt>
      <trkpt lat="43.76161" lon="6.43983">
        <ele>814.8547363</ele>
        <time>2010-04-17T13:40:53Z</time>
      </trkpt>
      <trkpt lat="43.76161" lon="6.43983">
        <ele>813.4128418</ele>
        <time>2010-04-17T13:41:02Z</time>
      </trkpt>
      <trkpt lat="43.76161" lon="6.43984">
        <ele>811.9707031</ele>
        <time>2010-04-17T13:41:27Z</time>
      </trkpt>
      <trkpt lat="43.76164" lon="6.44005">
        <ele>810.0478516</ele>
        <time>2010-04-17T13:41:33Z</time>
      </trkpt>
      <trkpt lat="43.7617" lon="6.44053">
        <ele>810.5285645</ele>
        <time>2010-04-17T13:41:40Z</time>
      </trkpt>
      <trkpt lat="43.76171" lon="6.4406">
        <ele>810.5285645</ele>
        <time>2010-04-17T13:41:41Z</time>
      </trkpt>
      <trkpt lat="43.76171" lon="6.44082">
        <ele>811.0092773</ele>
        <time>2010-04-17T13:41:44Z</time>
      </trkpt>
      <trkpt lat="43.76167" lon="6.44123">
        <ele>810.0478516</ele>
        <time>2010-04-17T13:41:49Z</time>
      </trkpt>
      <trkpt lat="43.76169" lon="6.44161">
        <ele>809.0866699</ele>
        <time>2010-04-17T13:41:53Z</time>
      </trkpt>
      <trkpt lat="43.76175" lon="6.44188">
        <ele>809.0866699</ele>
        <time>2010-04-17T13:41:56Z</time>
      </trkpt>
      <trkpt lat="43.7617" lon="6.44233">
        <ele>809.5673828</ele>
        <time>2010-04-17T13:42:01Z</time>
      </trkpt>
      <trkpt lat="43.76158" lon="6.4429">
        <ele>806.2026367</ele>
        <time>2010-04-17T13:42:07Z</time>
      </trkpt>
      <trkpt lat="43.76157" lon="6.44318">
        <ele>805.2414551</ele>
        <time>2010-04-17T13:42:10Z</time>
      </trkpt>
      <trkpt lat="43.76162" lon="6.44341">
        <ele>806.6833496</ele>
        <time>2010-04-17T13:42:14Z</time>
      </trkpt>
      <trkpt lat="43.76164" lon="6.44345">
        <ele>807.1640625</ele>
        <time>2010-04-17T13:42:18Z</time>
      </trkpt>
      <trkpt lat="43.76164" lon="6.44343">
        <ele>805.2414551</ele>
        <time>2010-04-17T13:42:24Z</time>
      </trkpt>
      <trkpt lat="43.76161" lon="6.44336">
        <ele>804.7607422</ele>
        <time>2010-04-17T13:42:30Z</time>
      </trkpt>
      <trkpt lat="43.7616" lon="6.44335">
        <ele>805.2414551</ele>
        <time>2010-04-17T13:42:31Z</time>
      </trkpt>
      <trkpt lat="43.76153" lon="6.44337">
        <ele>806.6833496</ele>
        <time>2010-04-17T13:42:36Z</time>
      </trkpt>
      <trkpt lat="43.76152" lon="6.44344">
        <ele>806.2026367</ele>
        <time>2010-04-17T13:42:38Z</time>
      </trkpt>
      <trkpt lat="43.76151" lon="6.44348">
        <ele>804.7607422</ele>
        <time>2010-04-17T13:42:40Z</time>
      </trkpt>
      <trkpt lat="43.76143" lon="6.44355">
        <ele>803.7995605</ele>
        <time>2010-04-17T13:42:44Z</time>
      </trkpt>
      <trkpt lat="43.76143" lon="6.44368">
        <ele>801.3962402</ele>
        <time>2010-04-17T13:42:47Z</time>
      </trkpt>
      <trkpt lat="43.76141" lon="6.44405">
        <ele>800.9155273</ele>
        <time>2010-04-17T13:42:53Z</time>
      </trkpt>
      <trkpt lat="43.76135" lon="6.44445">
        <ele>797.0703125</ele>
        <time>2010-04-17T13:42:58Z</time>
      </trkpt>
      <trkpt lat="43.76135" lon="6.44452">
        <ele>795.1474609</ele>
        <time>2010-04-17T13:42:59Z</time>
      </trkpt>
      <trkpt lat="43.7613" lon="6.44476">
        <ele>789.3796387</ele>
        <time>2010-04-17T13:43:04Z</time>
      </trkpt>
      <trkpt lat="43.7613" lon="6.44477">
        <ele>786.0151367</ele>
        <time>2010-04-17T13:43:08Z</time>
      </trkpt>
      <trkpt lat="43.76134" lon="6.4447">
        <ele>789.3796387</ele>
        <time>2010-04-17T13:44:18Z</time>
      </trkpt>
      <trkpt lat="43.76132" lon="6.44468">
        <ele>794.666748</ele>
        <time>2010-04-17T13:44:43Z</time>
      </trkpt>
      <trkpt lat="43.76135" lon="6.44469">
        <ele>790.3410645</ele>
        <time>2010-04-17T13:44:49Z</time>
      </trkpt>
    </trkseg>
  </trk>
</gpx>